<?xml version="1.0" encoding="UTF-8" standalone="no" ?>
<gpx xmlns="http://www.topografix.com/GPX/1/1" xmlns:xsi="http://www.w3.org/2001/XMLSchema-instance" xsi:schemaLocation="http://www.topografix.com/GPX/1/1 http://www.topografix.com/GPX/1/1/gpx.xsd" version="1.1" creator="VisuGPX - https://www.visugpx.com">
  <metadata>
    <name>Ski rando Néouvielle (14 et 15 mars 2009)</name>
    <desc><![CDATA[We ski de rando au Néouvielle (3091m)]]></desc>
  </metadata>
  <trk>
    <name><![CDATA[MARS-19-09 15:20:44]]></name>
    <trkseg>
      <trkpt lat="42.8266" lon="0.20245">
        <ele>1722.34</ele>
        <time>2009-03-14T09:23:38Z</time>
      </trkpt>
      <trkpt lat="42.82659" lon="0.20245">
        <ele>1722.34</ele>
        <time>2009-03-14T09:23:39Z</time>
      </trkpt>
      <trkpt lat="42.82659" lon="0.20245">
        <ele>1722.82</ele>
        <time>2009-03-14T09:23:40Z</time>
      </trkpt>
      <trkpt lat="42.82658" lon="0.20243">
        <ele>1723.3</ele>
        <time>2009-03-14T09:23:50Z</time>
      </trkpt>
      <trkpt lat="42.82657" lon="0.20241">
        <ele>1726.67</ele>
        <time>2009-03-14T09:24:05Z</time>
      </trkpt>
      <trkpt lat="42.82657" lon="0.20241">
        <ele>1730.51</ele>
        <time>2009-03-14T09:24:06Z</time>
      </trkpt>
      <trkpt lat="42.82657" lon="0.20241">
        <ele>1735.32</ele>
        <time>2009-03-14T09:24:07Z</time>
      </trkpt>
      <trkpt lat="42.82658" lon="0.2024">
        <ele>1740.12</ele>
        <time>2009-03-14T09:24:09Z</time>
      </trkpt>
      <trkpt lat="42.82659" lon="0.20239">
        <ele>1743.97</ele>
        <time>2009-03-14T09:24:10Z</time>
      </trkpt>
      <trkpt lat="42.82661" lon="0.20237">
        <ele>1751.18</ele>
        <time>2009-03-14T09:24:13Z</time>
      </trkpt>
      <trkpt lat="42.82661" lon="0.20236">
        <ele>1754.06</ele>
        <time>2009-03-14T09:24:14Z</time>
      </trkpt>
      <trkpt lat="42.82664" lon="0.20234">
        <ele>1760.79</ele>
        <time>2009-03-14T09:24:17Z</time>
      </trkpt>
      <trkpt lat="42.82665" lon="0.20233">
        <ele>1765.12</ele>
        <time>2009-03-14T09:24:19Z</time>
      </trkpt>
      <trkpt lat="42.82666" lon="0.20233">
        <ele>1766.08</ele>
        <time>2009-03-14T09:24:20Z</time>
      </trkpt>
      <trkpt lat="42.8267" lon="0.20231">
        <ele>1772.33</ele>
        <time>2009-03-14T09:24:24Z</time>
      </trkpt>
      <trkpt lat="42.82672" lon="0.2023">
        <ele>1776.65</ele>
        <time>2009-03-14T09:24:26Z</time>
      </trkpt>
      <trkpt lat="42.82672" lon="0.20229">
        <ele>1777.61</ele>
        <time>2009-03-14T09:24:27Z</time>
      </trkpt>
      <trkpt lat="42.82675" lon="0.20225">
        <ele>1783.38</ele>
        <time>2009-03-14T09:24:31Z</time>
      </trkpt>
      <trkpt lat="42.82679" lon="0.20222">
        <ele>1787.23</ele>
        <time>2009-03-14T09:24:34Z</time>
      </trkpt>
      <trkpt lat="42.82684" lon="0.2022">
        <ele>1792.03</ele>
        <time>2009-03-14T09:24:39Z</time>
      </trkpt>
      <trkpt lat="42.82687" lon="0.20217">
        <ele>1795.4</ele>
        <time>2009-03-14T09:24:43Z</time>
      </trkpt>
      <trkpt lat="42.82688" lon="0.20215">
        <ele>1796.84</ele>
        <time>2009-03-14T09:24:45Z</time>
      </trkpt>
      <trkpt lat="42.8269" lon="0.20213">
        <ele>1798.28</ele>
        <time>2009-03-14T09:24:47Z</time>
      </trkpt>
      <trkpt lat="42.82693" lon="0.20211">
        <ele>1802.13</ele>
        <time>2009-03-14T09:24:51Z</time>
      </trkpt>
      <trkpt lat="42.82695" lon="0.20208">
        <ele>1804.05</ele>
        <time>2009-03-14T09:24:54Z</time>
      </trkpt>
      <trkpt lat="42.82698" lon="0.20207">
        <ele>1806.94</ele>
        <time>2009-03-14T09:24:57Z</time>
      </trkpt>
      <trkpt lat="42.82699" lon="0.20206">
        <ele>1806.94</ele>
        <time>2009-03-14T09:24:58Z</time>
      </trkpt>
      <trkpt lat="42.827" lon="0.20204">
        <ele>1807.9</ele>
        <time>2009-03-14T09:25:00Z</time>
      </trkpt>
      <trkpt lat="42.82702" lon="0.20203">
        <ele>1808.38</ele>
        <time>2009-03-14T09:25:02Z</time>
      </trkpt>
      <trkpt lat="42.82706" lon="0.20201">
        <ele>1812.22</ele>
        <time>2009-03-14T09:25:06Z</time>
      </trkpt>
      <trkpt lat="42.82708" lon="0.20201">
        <ele>1813.18</ele>
        <time>2009-03-14T09:25:08Z</time>
      </trkpt>
      <trkpt lat="42.82715" lon="0.20199">
        <ele>1814.63</ele>
        <time>2009-03-14T09:25:15Z</time>
      </trkpt>
      <trkpt lat="42.82721" lon="0.20195">
        <ele>1817.99</ele>
        <time>2009-03-14T09:25:21Z</time>
      </trkpt>
      <trkpt lat="42.82725" lon="0.20193">
        <ele>1818.47</ele>
        <time>2009-03-14T09:25:25Z</time>
      </trkpt>
      <trkpt lat="42.82734" lon="0.20186">
        <ele>1821.35</ele>
        <time>2009-03-14T09:25:35Z</time>
      </trkpt>
      <trkpt lat="42.82743" lon="0.20177">
        <ele>1823.76</ele>
        <time>2009-03-14T09:25:47Z</time>
      </trkpt>
      <trkpt lat="42.8275" lon="0.20165">
        <ele>1824.72</ele>
        <time>2009-03-14T09:25:59Z</time>
      </trkpt>
      <trkpt lat="42.82753" lon="0.20159">
        <ele>1824.72</ele>
        <time>2009-03-14T09:26:04Z</time>
      </trkpt>
      <trkpt lat="42.82759" lon="0.20153">
        <ele>1824.24</ele>
        <time>2009-03-14T09:26:10Z</time>
      </trkpt>
      <trkpt lat="42.82764" lon="0.20149">
        <ele>1825.2</ele>
        <time>2009-03-14T09:26:15Z</time>
      </trkpt>
      <trkpt lat="42.82774" lon="0.20136">
        <ele>1825.68</ele>
        <time>2009-03-14T09:26:30Z</time>
      </trkpt>
      <trkpt lat="42.82781" lon="0.20125">
        <ele>1825.2</ele>
        <time>2009-03-14T09:26:42Z</time>
      </trkpt>
      <trkpt lat="42.82787" lon="0.20102">
        <ele>1824.72</ele>
        <time>2009-03-14T09:26:57Z</time>
      </trkpt>
      <trkpt lat="42.82793" lon="0.20088">
        <ele>1825.2</ele>
        <time>2009-03-14T09:27:10Z</time>
      </trkpt>
      <trkpt lat="42.82797" lon="0.20079">
        <ele>1826.64</ele>
        <time>2009-03-14T09:27:21Z</time>
      </trkpt>
      <trkpt lat="42.82806" lon="0.20067">
        <ele>1824.24</ele>
        <time>2009-03-14T09:27:35Z</time>
      </trkpt>
      <trkpt lat="42.8281" lon="0.20063">
        <ele>1824.72</ele>
        <time>2009-03-14T09:27:41Z</time>
      </trkpt>
      <trkpt lat="42.82815" lon="0.20057">
        <ele>1824.72</ele>
        <time>2009-03-14T09:27:51Z</time>
      </trkpt>
      <trkpt lat="42.82818" lon="0.20051">
        <ele>1824.72</ele>
        <time>2009-03-14T09:28:01Z</time>
      </trkpt>
      <trkpt lat="42.82824" lon="0.20043">
        <ele>1825.2</ele>
        <time>2009-03-14T09:28:14Z</time>
      </trkpt>
      <trkpt lat="42.82831" lon="0.20035">
        <ele>1825.68</ele>
        <time>2009-03-14T09:28:28Z</time>
      </trkpt>
      <trkpt lat="42.82832" lon="0.20034">
        <ele>1825.2</ele>
        <time>2009-03-14T09:28:36Z</time>
      </trkpt>
      <trkpt lat="42.82833" lon="0.20032">
        <ele>1825.68</ele>
        <time>2009-03-14T09:28:38Z</time>
      </trkpt>
      <trkpt lat="42.82839" lon="0.20025">
        <ele>1825.68</ele>
        <time>2009-03-14T09:28:47Z</time>
      </trkpt>
      <trkpt lat="42.82845" lon="0.20016">
        <ele>1825.68</ele>
        <time>2009-03-14T09:28:56Z</time>
      </trkpt>
      <trkpt lat="42.82852" lon="0.20006">
        <ele>1825.68</ele>
        <time>2009-03-14T09:29:09Z</time>
      </trkpt>
      <trkpt lat="42.82854" lon="0.20004">
        <ele>1825.68</ele>
        <time>2009-03-14T09:29:21Z</time>
      </trkpt>
      <trkpt lat="42.82855" lon="0.20002">
        <ele>1826.16</ele>
        <time>2009-03-14T09:29:23Z</time>
      </trkpt>
      <trkpt lat="42.82859" lon="0.19996">
        <ele>1826.16</ele>
        <time>2009-03-14T09:29:28Z</time>
      </trkpt>
      <trkpt lat="42.82865" lon="0.19983">
        <ele>1826.16</ele>
        <time>2009-03-14T09:29:39Z</time>
      </trkpt>
      <trkpt lat="42.82866" lon="0.19982">
        <ele>1826.16</ele>
        <time>2009-03-14T09:29:40Z</time>
      </trkpt>
      <trkpt lat="42.82869" lon="0.19977">
        <ele>1826.16</ele>
        <time>2009-03-14T09:29:45Z</time>
      </trkpt>
      <trkpt lat="42.82872" lon="0.19973">
        <ele>1825.68</ele>
        <time>2009-03-14T09:29:50Z</time>
      </trkpt>
      <trkpt lat="42.82878" lon="0.19966">
        <ele>1824.72</ele>
        <time>2009-03-14T09:30:00Z</time>
      </trkpt>
      <trkpt lat="42.82886" lon="0.19956">
        <ele>1825.2</ele>
        <time>2009-03-14T09:30:14Z</time>
      </trkpt>
      <trkpt lat="42.82895" lon="0.19945">
        <ele>1825.2</ele>
        <time>2009-03-14T09:30:33Z</time>
      </trkpt>
      <trkpt lat="42.829" lon="0.19941">
        <ele>1826.16</ele>
        <time>2009-03-14T09:30:50Z</time>
      </trkpt>
      <trkpt lat="42.82902" lon="0.19937">
        <ele>1825.68</ele>
        <time>2009-03-14T09:30:58Z</time>
      </trkpt>
      <trkpt lat="42.82906" lon="0.1993">
        <ele>1825.68</ele>
        <time>2009-03-14T09:31:04Z</time>
      </trkpt>
      <trkpt lat="42.82908" lon="0.19925">
        <ele>1826.16</ele>
        <time>2009-03-14T09:31:10Z</time>
      </trkpt>
      <trkpt lat="42.82917" lon="0.19914">
        <ele>1826.64</ele>
        <time>2009-03-14T09:31:20Z</time>
      </trkpt>
      <trkpt lat="42.82919" lon="0.1991">
        <ele>1825.68</ele>
        <time>2009-03-14T09:31:24Z</time>
      </trkpt>
      <trkpt lat="42.82929" lon="0.19899">
        <ele>1825.68</ele>
        <time>2009-03-14T09:31:37Z</time>
      </trkpt>
      <trkpt lat="42.82933" lon="0.19894">
        <ele>1825.2</ele>
        <time>2009-03-14T09:31:43Z</time>
      </trkpt>
      <trkpt lat="42.82939" lon="0.19884">
        <ele>1825.68</ele>
        <time>2009-03-14T09:31:55Z</time>
      </trkpt>
      <trkpt lat="42.82942" lon="0.19879">
        <ele>1826.16</ele>
        <time>2009-03-14T09:32:01Z</time>
      </trkpt>
      <trkpt lat="42.82944" lon="0.19874">
        <ele>1826.16</ele>
        <time>2009-03-14T09:32:06Z</time>
      </trkpt>
      <trkpt lat="42.82948" lon="0.19869">
        <ele>1826.64</ele>
        <time>2009-03-14T09:32:13Z</time>
      </trkpt>
      <trkpt lat="42.82954" lon="0.1986">
        <ele>1826.16</ele>
        <time>2009-03-14T09:32:25Z</time>
      </trkpt>
      <trkpt lat="42.82961" lon="0.19855">
        <ele>1826.64</ele>
        <time>2009-03-14T09:32:35Z</time>
      </trkpt>
      <trkpt lat="42.82965" lon="0.19852">
        <ele>1826.16</ele>
        <time>2009-03-14T09:32:43Z</time>
      </trkpt>
      <trkpt lat="42.82969" lon="0.19846">
        <ele>1826.64</ele>
        <time>2009-03-14T09:32:50Z</time>
      </trkpt>
      <trkpt lat="42.82971" lon="0.19845">
        <ele>1827.12</ele>
        <time>2009-03-14T09:32:53Z</time>
      </trkpt>
      <trkpt lat="42.82975" lon="0.19836">
        <ele>1827.12</ele>
        <time>2009-03-14T09:33:04Z</time>
      </trkpt>
      <trkpt lat="42.82976" lon="0.19835">
        <ele>1826.16</ele>
        <time>2009-03-14T09:33:05Z</time>
      </trkpt>
      <trkpt lat="42.82984" lon="0.19828">
        <ele>1826.64</ele>
        <time>2009-03-14T09:33:18Z</time>
      </trkpt>
      <trkpt lat="42.82986" lon="0.19823">
        <ele>1826.16</ele>
        <time>2009-03-14T09:33:32Z</time>
      </trkpt>
      <trkpt lat="42.82994" lon="0.19815">
        <ele>1826.64</ele>
        <time>2009-03-14T09:33:45Z</time>
      </trkpt>
      <trkpt lat="42.82998" lon="0.1981">
        <ele>1826.64</ele>
        <time>2009-03-14T09:33:52Z</time>
      </trkpt>
      <trkpt lat="42.83004" lon="0.19804">
        <ele>1826.64</ele>
        <time>2009-03-14T09:34:01Z</time>
      </trkpt>
      <trkpt lat="42.83009" lon="0.19795">
        <ele>1826.64</ele>
        <time>2009-03-14T09:34:12Z</time>
      </trkpt>
      <trkpt lat="42.83014" lon="0.19788">
        <ele>1827.12</ele>
        <time>2009-03-14T09:34:20Z</time>
      </trkpt>
      <trkpt lat="42.83017" lon="0.19785">
        <ele>1827.12</ele>
        <time>2009-03-14T09:34:25Z</time>
      </trkpt>
      <trkpt lat="42.83024" lon="0.19777">
        <ele>1827.12</ele>
        <time>2009-03-14T09:34:41Z</time>
      </trkpt>
      <trkpt lat="42.83027" lon="0.19775">
        <ele>1827.12</ele>
        <time>2009-03-14T09:34:50Z</time>
      </trkpt>
      <trkpt lat="42.83034" lon="0.19772">
        <ele>1827.12</ele>
        <time>2009-03-14T09:35:11Z</time>
      </trkpt>
      <trkpt lat="42.83042" lon="0.1977">
        <ele>1827.12</ele>
        <time>2009-03-14T09:35:22Z</time>
      </trkpt>
      <trkpt lat="42.83045" lon="0.19766">
        <ele>1827.12</ele>
        <time>2009-03-14T09:35:36Z</time>
      </trkpt>
      <trkpt lat="42.83047" lon="0.19766">
        <ele>1826.16</ele>
        <time>2009-03-14T09:35:52Z</time>
      </trkpt>
      <trkpt lat="42.83047" lon="0.19767">
        <ele>1827.12</ele>
        <time>2009-03-14T09:36:17Z</time>
      </trkpt>
      <trkpt lat="42.83052" lon="0.19769">
        <ele>1827.12</ele>
        <time>2009-03-14T09:36:38Z</time>
      </trkpt>
      <trkpt lat="42.83052" lon="0.19771">
        <ele>1827.12</ele>
        <time>2009-03-14T09:37:54Z</time>
      </trkpt>
      <trkpt lat="42.83056" lon="0.19778">
        <ele>1827.6</ele>
        <time>2009-03-14T09:38:05Z</time>
      </trkpt>
      <trkpt lat="42.8306" lon="0.19783">
        <ele>1827.12</ele>
        <time>2009-03-14T09:38:16Z</time>
      </trkpt>
      <trkpt lat="42.83069" lon="0.19783">
        <ele>1827.6</ele>
        <time>2009-03-14T09:38:27Z</time>
      </trkpt>
      <trkpt lat="42.83072" lon="0.19783">
        <ele>1827.12</ele>
        <time>2009-03-14T09:38:41Z</time>
      </trkpt>
      <trkpt lat="42.83081" lon="0.19781">
        <ele>1827.12</ele>
        <time>2009-03-14T09:39:15Z</time>
      </trkpt>
      <trkpt lat="42.83082" lon="0.19782">
        <ele>1827.12</ele>
        <time>2009-03-14T09:39:17Z</time>
      </trkpt>
      <trkpt lat="42.83096" lon="0.19777">
        <ele>1827.12</ele>
        <time>2009-03-14T09:39:31Z</time>
      </trkpt>
      <trkpt lat="42.831" lon="0.19775">
        <ele>1827.12</ele>
        <time>2009-03-14T09:39:36Z</time>
      </trkpt>
      <trkpt lat="42.8311" lon="0.19768">
        <ele>1828.08</ele>
        <time>2009-03-14T09:39:48Z</time>
      </trkpt>
      <trkpt lat="42.83116" lon="0.19764">
        <ele>1828.08</ele>
        <time>2009-03-14T09:39:57Z</time>
      </trkpt>
      <trkpt lat="42.83122" lon="0.19758">
        <ele>1828.56</ele>
        <time>2009-03-14T09:40:06Z</time>
      </trkpt>
      <trkpt lat="42.83129" lon="0.19749">
        <ele>1829.53</ele>
        <time>2009-03-14T09:40:18Z</time>
      </trkpt>
      <trkpt lat="42.83133" lon="0.19743">
        <ele>1829.53</ele>
        <time>2009-03-14T09:40:26Z</time>
      </trkpt>
      <trkpt lat="42.83136" lon="0.19737">
        <ele>1830.49</ele>
        <time>2009-03-14T09:40:34Z</time>
      </trkpt>
      <trkpt lat="42.83141" lon="0.1973">
        <ele>1830.97</ele>
        <time>2009-03-14T09:40:45Z</time>
      </trkpt>
      <trkpt lat="42.83143" lon="0.19727">
        <ele>1832.41</ele>
        <time>2009-03-14T09:40:56Z</time>
      </trkpt>
      <trkpt lat="42.83146" lon="0.19721">
        <ele>1833.85</ele>
        <time>2009-03-14T09:41:10Z</time>
      </trkpt>
      <trkpt lat="42.83148" lon="0.19717">
        <ele>1834.81</ele>
        <time>2009-03-14T09:41:22Z</time>
      </trkpt>
      <trkpt lat="42.83152" lon="0.19709">
        <ele>1835.77</ele>
        <time>2009-03-14T09:41:35Z</time>
      </trkpt>
      <trkpt lat="42.83152" lon="0.19708">
        <ele>1836.74</ele>
        <time>2009-03-14T09:41:45Z</time>
      </trkpt>
      <trkpt lat="42.83147" lon="0.19705">
        <ele>1837.7</ele>
        <time>2009-03-14T09:41:56Z</time>
      </trkpt>
      <trkpt lat="42.83149" lon="0.19698">
        <ele>1839.14</ele>
        <time>2009-03-14T09:42:13Z</time>
      </trkpt>
      <trkpt lat="42.83151" lon="0.19696">
        <ele>1840.1</ele>
        <time>2009-03-14T09:42:34Z</time>
      </trkpt>
      <trkpt lat="42.83152" lon="0.19689">
        <ele>1840.58</ele>
        <time>2009-03-14T09:42:44Z</time>
      </trkpt>
      <trkpt lat="42.83154" lon="0.19681">
        <ele>1842.98</ele>
        <time>2009-03-14T09:42:55Z</time>
      </trkpt>
      <trkpt lat="42.83158" lon="0.19672">
        <ele>1845.39</ele>
        <time>2009-03-14T09:43:40Z</time>
      </trkpt>
      <trkpt lat="42.83159" lon="0.19665">
        <ele>1846.35</ele>
        <time>2009-03-14T09:43:53Z</time>
      </trkpt>
      <trkpt lat="42.83161" lon="0.19658">
        <ele>1848.27</ele>
        <time>2009-03-14T09:44:12Z</time>
      </trkpt>
      <trkpt lat="42.83166" lon="0.19645">
        <ele>1850.68</ele>
        <time>2009-03-14T09:44:33Z</time>
      </trkpt>
      <trkpt lat="42.83172" lon="0.19636">
        <ele>1853.08</ele>
        <time>2009-03-14T09:45:01Z</time>
      </trkpt>
      <trkpt lat="42.83179" lon="0.19629">
        <ele>1855</ele>
        <time>2009-03-14T09:45:28Z</time>
      </trkpt>
      <trkpt lat="42.83185" lon="0.19622">
        <ele>1856.92</ele>
        <time>2009-03-14T09:45:43Z</time>
      </trkpt>
      <trkpt lat="42.83185" lon="0.19622">
        <ele>1856.44</ele>
        <time>2009-03-14T09:45:49Z</time>
      </trkpt>
      <trkpt lat="42.8318" lon="0.19622">
        <ele>1857.4</ele>
        <time>2009-03-14T09:46:00Z</time>
      </trkpt>
      <trkpt lat="42.83174" lon="0.19622">
        <ele>1858.37</ele>
        <time>2009-03-14T09:46:17Z</time>
      </trkpt>
      <trkpt lat="42.83172" lon="0.19622">
        <ele>1858.85</ele>
        <time>2009-03-14T09:46:20Z</time>
      </trkpt>
      <trkpt lat="42.83165" lon="0.19627">
        <ele>1859.33</ele>
        <time>2009-03-14T09:46:32Z</time>
      </trkpt>
      <trkpt lat="42.83159" lon="0.19626">
        <ele>1862.69</ele>
        <time>2009-03-14T09:46:56Z</time>
      </trkpt>
      <trkpt lat="42.83152" lon="0.19622">
        <ele>1866.06</ele>
        <time>2009-03-14T09:48:07Z</time>
      </trkpt>
      <trkpt lat="42.83155" lon="0.19617">
        <ele>1867.5</ele>
        <time>2009-03-14T09:48:36Z</time>
      </trkpt>
      <trkpt lat="42.83158" lon="0.19614">
        <ele>1869.42</ele>
        <time>2009-03-14T09:48:52Z</time>
      </trkpt>
      <trkpt lat="42.83162" lon="0.19608">
        <ele>1872.79</ele>
        <time>2009-03-14T09:49:28Z</time>
      </trkpt>
      <trkpt lat="42.83161" lon="0.19597">
        <ele>1876.15</ele>
        <time>2009-03-14T09:50:23Z</time>
      </trkpt>
      <trkpt lat="42.8316" lon="0.19595">
        <ele>1876.63</ele>
        <time>2009-03-14T09:50:36Z</time>
      </trkpt>
      <trkpt lat="42.83159" lon="0.19595">
        <ele>1876.63</ele>
        <time>2009-03-14T09:50:51Z</time>
      </trkpt>
      <trkpt lat="42.8316" lon="0.19588">
        <ele>1880</ele>
        <time>2009-03-14T09:51:16Z</time>
      </trkpt>
      <trkpt lat="42.83164" lon="0.1958">
        <ele>1881.44</ele>
        <time>2009-03-14T09:51:45Z</time>
      </trkpt>
      <trkpt lat="42.83164" lon="0.1958">
        <ele>1882.4</ele>
        <time>2009-03-14T09:52:24Z</time>
      </trkpt>
      <trkpt lat="42.83157" lon="0.19583">
        <ele>1884.32</ele>
        <time>2009-03-14T09:52:37Z</time>
      </trkpt>
      <trkpt lat="42.83149" lon="0.19588">
        <ele>1886.24</ele>
        <time>2009-03-14T09:52:53Z</time>
      </trkpt>
      <trkpt lat="42.83139" lon="0.19593">
        <ele>1889.61</ele>
        <time>2009-03-14T09:53:08Z</time>
      </trkpt>
      <trkpt lat="42.83135" lon="0.19591">
        <ele>1890.57</ele>
        <time>2009-03-14T09:53:21Z</time>
      </trkpt>
      <trkpt lat="42.83131" lon="0.19591">
        <ele>1891.05</ele>
        <time>2009-03-14T09:53:33Z</time>
      </trkpt>
      <trkpt lat="42.83132" lon="0.19586">
        <ele>1892.49</ele>
        <time>2009-03-14T09:53:57Z</time>
      </trkpt>
      <trkpt lat="42.8313" lon="0.19587">
        <ele>1893.45</ele>
        <time>2009-03-14T09:54:14Z</time>
      </trkpt>
      <trkpt lat="42.83124" lon="0.19587">
        <ele>1895.38</ele>
        <time>2009-03-14T09:54:25Z</time>
      </trkpt>
      <trkpt lat="42.83123" lon="0.19587">
        <ele>1896.82</ele>
        <time>2009-03-14T09:55:17Z</time>
      </trkpt>
      <trkpt lat="42.8312" lon="0.1958">
        <ele>1897.78</ele>
        <time>2009-03-14T09:55:25Z</time>
      </trkpt>
      <trkpt lat="42.83119" lon="0.19574">
        <ele>1900.18</ele>
        <time>2009-03-14T09:55:38Z</time>
      </trkpt>
      <trkpt lat="42.83119" lon="0.19564">
        <ele>1902.11</ele>
        <time>2009-03-14T09:55:48Z</time>
      </trkpt>
      <trkpt lat="42.83119" lon="0.19556">
        <ele>1903.07</ele>
        <time>2009-03-14T09:55:56Z</time>
      </trkpt>
      <trkpt lat="42.83119" lon="0.19544">
        <ele>1905.47</ele>
        <time>2009-03-14T09:56:07Z</time>
      </trkpt>
      <trkpt lat="42.83122" lon="0.19534">
        <ele>1906.43</ele>
        <time>2009-03-14T09:56:19Z</time>
      </trkpt>
      <trkpt lat="42.83121" lon="0.19525">
        <ele>1908.35</ele>
        <time>2009-03-14T09:56:29Z</time>
      </trkpt>
      <trkpt lat="42.83116" lon="0.19519">
        <ele>1909.32</ele>
        <time>2009-03-14T09:56:39Z</time>
      </trkpt>
      <trkpt lat="42.83115" lon="0.19518">
        <ele>1909.32</ele>
        <time>2009-03-14T09:56:55Z</time>
      </trkpt>
      <trkpt lat="42.83112" lon="0.19517">
        <ele>1908.83</ele>
        <time>2009-03-14T09:57:09Z</time>
      </trkpt>
      <trkpt lat="42.83111" lon="0.19516">
        <ele>1909.32</ele>
        <time>2009-03-14T09:57:10Z</time>
      </trkpt>
      <trkpt lat="42.83101" lon="0.19509">
        <ele>1909.32</ele>
        <time>2009-03-14T09:57:23Z</time>
      </trkpt>
      <trkpt lat="42.83099" lon="0.19508">
        <ele>1909.32</ele>
        <time>2009-03-14T09:57:26Z</time>
      </trkpt>
      <trkpt lat="42.83092" lon="0.19503">
        <ele>1911.72</ele>
        <time>2009-03-14T09:57:38Z</time>
      </trkpt>
      <trkpt lat="42.83087" lon="0.19503">
        <ele>1912.68</ele>
        <time>2009-03-14T09:57:49Z</time>
      </trkpt>
      <trkpt lat="42.83083" lon="0.19503">
        <ele>1915.08</ele>
        <time>2009-03-14T09:58:04Z</time>
      </trkpt>
      <trkpt lat="42.83077" lon="0.19507">
        <ele>1916.04</ele>
        <time>2009-03-14T09:58:13Z</time>
      </trkpt>
      <trkpt lat="42.83076" lon="0.1951">
        <ele>1916.53</ele>
        <time>2009-03-14T09:58:16Z</time>
      </trkpt>
      <trkpt lat="42.83072" lon="0.19512">
        <ele>1917.01</ele>
        <time>2009-03-14T09:58:22Z</time>
      </trkpt>
      <trkpt lat="42.83064" lon="0.19513">
        <ele>1918.45</ele>
        <time>2009-03-14T09:58:34Z</time>
      </trkpt>
      <trkpt lat="42.83063" lon="0.19509">
        <ele>1920.37</ele>
        <time>2009-03-14T09:58:48Z</time>
      </trkpt>
      <trkpt lat="42.83061" lon="0.19507">
        <ele>1921.81</ele>
        <time>2009-03-14T09:58:57Z</time>
      </trkpt>
      <trkpt lat="42.83062" lon="0.19497">
        <ele>1925.18</ele>
        <time>2009-03-14T09:59:28Z</time>
      </trkpt>
      <trkpt lat="42.83061" lon="0.19491">
        <ele>1927.1</ele>
        <time>2009-03-14T09:59:45Z</time>
      </trkpt>
      <trkpt lat="42.83061" lon="0.19486">
        <ele>1928.06</ele>
        <time>2009-03-14T10:00:00Z</time>
      </trkpt>
      <trkpt lat="42.83061" lon="0.19482">
        <ele>1928.06</ele>
        <time>2009-03-14T10:00:32Z</time>
      </trkpt>
      <trkpt lat="42.8306" lon="0.19471">
        <ele>1929.98</ele>
        <time>2009-03-14T10:00:43Z</time>
      </trkpt>
      <trkpt lat="42.83057" lon="0.19466">
        <ele>1931.43</ele>
        <time>2009-03-14T10:00:56Z</time>
      </trkpt>
      <trkpt lat="42.83053" lon="0.1946">
        <ele>1934.31</ele>
        <time>2009-03-14T10:01:12Z</time>
      </trkpt>
      <trkpt lat="42.83052" lon="0.19454">
        <ele>1935.75</ele>
        <time>2009-03-14T10:01:24Z</time>
      </trkpt>
      <trkpt lat="42.83049" lon="0.19452">
        <ele>1938.16</ele>
        <time>2009-03-14T10:01:43Z</time>
      </trkpt>
      <trkpt lat="42.83047" lon="0.19453">
        <ele>1938.16</ele>
        <time>2009-03-14T10:01:46Z</time>
      </trkpt>
      <trkpt lat="42.83041" lon="0.19449">
        <ele>1940.08</ele>
        <time>2009-03-14T10:02:01Z</time>
      </trkpt>
      <trkpt lat="42.83034" lon="0.19447">
        <ele>1940.08</ele>
        <time>2009-03-14T10:02:43Z</time>
      </trkpt>
      <trkpt lat="42.83027" lon="0.19442">
        <ele>1940.08</ele>
        <time>2009-03-14T10:02:55Z</time>
      </trkpt>
      <trkpt lat="42.83025" lon="0.19441">
        <ele>1940.08</ele>
        <time>2009-03-14T10:02:58Z</time>
      </trkpt>
      <trkpt lat="42.83019" lon="0.1944">
        <ele>1940.08</ele>
        <time>2009-03-14T10:03:09Z</time>
      </trkpt>
      <trkpt lat="42.83009" lon="0.19438">
        <ele>1943.44</ele>
        <time>2009-03-14T10:03:47Z</time>
      </trkpt>
      <trkpt lat="42.83" lon="0.19436">
        <ele>1945.85</ele>
        <time>2009-03-14T10:04:17Z</time>
      </trkpt>
      <trkpt lat="42.82997" lon="0.19436">
        <ele>1947.29</ele>
        <time>2009-03-14T10:04:34Z</time>
      </trkpt>
      <trkpt lat="42.82986" lon="0.19432">
        <ele>1948.25</ele>
        <time>2009-03-14T10:05:09Z</time>
      </trkpt>
      <trkpt lat="42.82985" lon="0.19432">
        <ele>1949.21</ele>
        <time>2009-03-14T10:05:17Z</time>
      </trkpt>
      <trkpt lat="42.82981" lon="0.19437">
        <ele>1952.57</ele>
        <time>2009-03-14T10:05:42Z</time>
      </trkpt>
      <trkpt lat="42.82978" lon="0.19441">
        <ele>1955.46</ele>
        <time>2009-03-14T10:06:04Z</time>
      </trkpt>
      <trkpt lat="42.82971" lon="0.19436">
        <ele>1958.82</ele>
        <time>2009-03-14T10:06:35Z</time>
      </trkpt>
      <trkpt lat="42.82972" lon="0.19431">
        <ele>1959.3</ele>
        <time>2009-03-14T10:06:54Z</time>
      </trkpt>
      <trkpt lat="42.8297" lon="0.19424">
        <ele>1962.67</ele>
        <time>2009-03-14T10:08:01Z</time>
      </trkpt>
      <trkpt lat="42.82966" lon="0.19425">
        <ele>1965.55</ele>
        <time>2009-03-14T10:08:57Z</time>
      </trkpt>
      <trkpt lat="42.8296" lon="0.19419">
        <ele>1968.92</ele>
        <time>2009-03-14T10:09:28Z</time>
      </trkpt>
      <trkpt lat="42.82957" lon="0.19422">
        <ele>1969.4</ele>
        <time>2009-03-14T10:09:35Z</time>
      </trkpt>
      <trkpt lat="42.82953" lon="0.19425">
        <ele>1970.84</ele>
        <time>2009-03-14T10:09:45Z</time>
      </trkpt>
      <trkpt lat="42.82947" lon="0.19433">
        <ele>1972.28</ele>
        <time>2009-03-14T10:10:00Z</time>
      </trkpt>
      <trkpt lat="42.82945" lon="0.19434">
        <ele>1975.17</ele>
        <time>2009-03-14T10:10:39Z</time>
      </trkpt>
      <trkpt lat="42.8294" lon="0.19424">
        <ele>1977.09</ele>
        <time>2009-03-14T10:10:58Z</time>
      </trkpt>
      <trkpt lat="42.82932" lon="0.19415">
        <ele>1979.01</ele>
        <time>2009-03-14T10:11:20Z</time>
      </trkpt>
      <trkpt lat="42.8293" lon="0.19402">
        <ele>1980.45</ele>
        <time>2009-03-14T10:11:33Z</time>
      </trkpt>
      <trkpt lat="42.82927" lon="0.19395">
        <ele>1981.9</ele>
        <time>2009-03-14T10:12:35Z</time>
      </trkpt>
      <trkpt lat="42.82923" lon="0.19404">
        <ele>1983.34</ele>
        <time>2009-03-14T10:12:47Z</time>
      </trkpt>
      <trkpt lat="42.82919" lon="0.19412">
        <ele>1985.26</ele>
        <time>2009-03-14T10:13:04Z</time>
      </trkpt>
      <trkpt lat="42.82918" lon="0.19417">
        <ele>1986.22</ele>
        <time>2009-03-14T10:13:17Z</time>
      </trkpt>
      <trkpt lat="42.82916" lon="0.19421">
        <ele>1988.62</ele>
        <time>2009-03-14T10:13:33Z</time>
      </trkpt>
      <trkpt lat="42.82914" lon="0.19431">
        <ele>1990.55</ele>
        <time>2009-03-14T10:13:49Z</time>
      </trkpt>
      <trkpt lat="42.82913" lon="0.19431">
        <ele>1991.03</ele>
        <time>2009-03-14T10:14:07Z</time>
      </trkpt>
      <trkpt lat="42.82901" lon="0.19432">
        <ele>1993.43</ele>
        <time>2009-03-14T10:14:40Z</time>
      </trkpt>
      <trkpt lat="42.82899" lon="0.19426">
        <ele>1995.35</ele>
        <time>2009-03-14T10:14:50Z</time>
      </trkpt>
      <trkpt lat="42.82899" lon="0.19417">
        <ele>1995.35</ele>
        <time>2009-03-14T10:15:01Z</time>
      </trkpt>
      <trkpt lat="42.82897" lon="0.19407">
        <ele>1997.76</ele>
        <time>2009-03-14T10:15:17Z</time>
      </trkpt>
      <trkpt lat="42.82897" lon="0.19405">
        <ele>1998.72</ele>
        <time>2009-03-14T10:15:27Z</time>
      </trkpt>
      <trkpt lat="42.82896" lon="0.19399">
        <ele>2000.64</ele>
        <time>2009-03-14T10:15:42Z</time>
      </trkpt>
      <trkpt lat="42.82895" lon="0.19398">
        <ele>2001.6</ele>
        <time>2009-03-14T10:16:24Z</time>
      </trkpt>
      <trkpt lat="42.82891" lon="0.19402">
        <ele>2002.56</ele>
        <time>2009-03-14T10:16:34Z</time>
      </trkpt>
      <trkpt lat="42.82889" lon="0.19403">
        <ele>2003.04</ele>
        <time>2009-03-14T10:16:37Z</time>
      </trkpt>
      <trkpt lat="42.82887" lon="0.19409">
        <ele>2004.01</ele>
        <time>2009-03-14T10:16:46Z</time>
      </trkpt>
      <trkpt lat="42.82884" lon="0.19412">
        <ele>2005.45</ele>
        <time>2009-03-14T10:17:14Z</time>
      </trkpt>
      <trkpt lat="42.82883" lon="0.19413">
        <ele>2005.45</ele>
        <time>2009-03-14T10:17:27Z</time>
      </trkpt>
      <trkpt lat="42.8288" lon="0.19414">
        <ele>2006.89</ele>
        <time>2009-03-14T10:17:43Z</time>
      </trkpt>
      <trkpt lat="42.82878" lon="0.19417">
        <ele>2008.33</ele>
        <time>2009-03-14T10:17:54Z</time>
      </trkpt>
      <trkpt lat="42.82873" lon="0.19423">
        <ele>2009.77</ele>
        <time>2009-03-14T10:18:08Z</time>
      </trkpt>
      <trkpt lat="42.82869" lon="0.19423">
        <ele>2012.18</ele>
        <time>2009-03-14T10:18:21Z</time>
      </trkpt>
      <trkpt lat="42.82869" lon="0.19412">
        <ele>2013.62</ele>
        <time>2009-03-14T10:18:43Z</time>
      </trkpt>
      <trkpt lat="42.82868" lon="0.19404">
        <ele>2014.58</ele>
        <time>2009-03-14T10:18:53Z</time>
      </trkpt>
      <trkpt lat="42.82867" lon="0.194">
        <ele>2016.02</ele>
        <time>2009-03-14T10:19:04Z</time>
      </trkpt>
      <trkpt lat="42.82867" lon="0.19394">
        <ele>2016.5</ele>
        <time>2009-03-14T10:19:15Z</time>
      </trkpt>
      <trkpt lat="42.82866" lon="0.19398">
        <ele>2018.43</ele>
        <time>2009-03-14T10:19:38Z</time>
      </trkpt>
      <trkpt lat="42.82863" lon="0.19399">
        <ele>2019.39</ele>
        <time>2009-03-14T10:19:59Z</time>
      </trkpt>
      <trkpt lat="42.82862" lon="0.1939">
        <ele>2021.79</ele>
        <time>2009-03-14T10:20:20Z</time>
      </trkpt>
      <trkpt lat="42.82859" lon="0.1939">
        <ele>2022.75</ele>
        <time>2009-03-14T10:20:38Z</time>
      </trkpt>
      <trkpt lat="42.82855" lon="0.19394">
        <ele>2025.64</ele>
        <time>2009-03-14T10:20:57Z</time>
      </trkpt>
      <trkpt lat="42.82853" lon="0.19396">
        <ele>2027.56</ele>
        <time>2009-03-14T10:21:11Z</time>
      </trkpt>
      <trkpt lat="42.82849" lon="0.19391">
        <ele>2029</ele>
        <time>2009-03-14T10:21:38Z</time>
      </trkpt>
      <trkpt lat="42.82845" lon="0.19385">
        <ele>2030.92</ele>
        <time>2009-03-14T10:21:50Z</time>
      </trkpt>
      <trkpt lat="42.82841" lon="0.19383">
        <ele>2032.36</ele>
        <time>2009-03-14T10:22:07Z</time>
      </trkpt>
      <trkpt lat="42.82838" lon="0.19381">
        <ele>2034.29</ele>
        <time>2009-03-14T10:22:19Z</time>
      </trkpt>
      <trkpt lat="42.82832" lon="0.19374">
        <ele>2037.17</ele>
        <time>2009-03-14T10:22:48Z</time>
      </trkpt>
      <trkpt lat="42.8283" lon="0.19377">
        <ele>2038.61</ele>
        <time>2009-03-14T10:23:03Z</time>
      </trkpt>
      <trkpt lat="42.82831" lon="0.19385">
        <ele>2039.57</ele>
        <time>2009-03-14T10:23:16Z</time>
      </trkpt>
      <trkpt lat="42.82826" lon="0.19393">
        <ele>2041.02</ele>
        <time>2009-03-14T10:23:48Z</time>
      </trkpt>
      <trkpt lat="42.82825" lon="0.19394">
        <ele>2042.46</ele>
        <time>2009-03-14T10:24:15Z</time>
      </trkpt>
      <trkpt lat="42.82822" lon="0.19392">
        <ele>2042.94</ele>
        <time>2009-03-14T10:24:29Z</time>
      </trkpt>
      <trkpt lat="42.8282" lon="0.19389">
        <ele>2043.42</ele>
        <time>2009-03-14T10:24:40Z</time>
      </trkpt>
      <trkpt lat="42.82819" lon="0.19385">
        <ele>2044.86</ele>
        <time>2009-03-14T10:24:48Z</time>
      </trkpt>
      <trkpt lat="42.82819" lon="0.19381">
        <ele>2045.82</ele>
        <time>2009-03-14T10:24:58Z</time>
      </trkpt>
      <trkpt lat="42.82819" lon="0.19377">
        <ele>2045.34</ele>
        <time>2009-03-14T10:25:10Z</time>
      </trkpt>
      <trkpt lat="42.82817" lon="0.19373">
        <ele>2046.78</ele>
        <time>2009-03-14T10:25:26Z</time>
      </trkpt>
      <trkpt lat="42.82815" lon="0.19375">
        <ele>2048.23</ele>
        <time>2009-03-14T10:25:41Z</time>
      </trkpt>
      <trkpt lat="42.8281" lon="0.1938">
        <ele>2049.67</ele>
        <time>2009-03-14T10:25:53Z</time>
      </trkpt>
      <trkpt lat="42.82807" lon="0.19381">
        <ele>2050.63</ele>
        <time>2009-03-14T10:26:13Z</time>
      </trkpt>
      <trkpt lat="42.82806" lon="0.19383">
        <ele>2051.59</ele>
        <time>2009-03-14T10:26:27Z</time>
      </trkpt>
      <trkpt lat="42.82803" lon="0.19386">
        <ele>2052.55</ele>
        <time>2009-03-14T10:26:37Z</time>
      </trkpt>
      <trkpt lat="42.828" lon="0.19388">
        <ele>2054.47</ele>
        <time>2009-03-14T10:26:49Z</time>
      </trkpt>
      <trkpt lat="42.82798" lon="0.19392">
        <ele>2055.92</ele>
        <time>2009-03-14T10:27:00Z</time>
      </trkpt>
      <trkpt lat="42.82796" lon="0.19394">
        <ele>2055.44</ele>
        <time>2009-03-14T10:27:17Z</time>
      </trkpt>
      <trkpt lat="42.82795" lon="0.19394">
        <ele>2056.88</ele>
        <time>2009-03-14T10:27:20Z</time>
      </trkpt>
      <trkpt lat="42.82792" lon="0.19398">
        <ele>2057.84</ele>
        <time>2009-03-14T10:27:33Z</time>
      </trkpt>
      <trkpt lat="42.82787" lon="0.19402">
        <ele>2058.8</ele>
        <time>2009-03-14T10:27:49Z</time>
      </trkpt>
      <trkpt lat="42.82782" lon="0.19406">
        <ele>2060.24</ele>
        <time>2009-03-14T10:28:00Z</time>
      </trkpt>
      <trkpt lat="42.82778" lon="0.19411">
        <ele>2062.17</ele>
        <time>2009-03-14T10:28:16Z</time>
      </trkpt>
      <trkpt lat="42.82771" lon="0.19415">
        <ele>2063.61</ele>
        <time>2009-03-14T10:28:25Z</time>
      </trkpt>
      <trkpt lat="42.82766" lon="0.19418">
        <ele>2065.05</ele>
        <time>2009-03-14T10:28:37Z</time>
      </trkpt>
      <trkpt lat="42.82763" lon="0.19419">
        <ele>2066.01</ele>
        <time>2009-03-14T10:28:53Z</time>
      </trkpt>
      <trkpt lat="42.82762" lon="0.19417">
        <ele>2066.49</ele>
        <time>2009-03-14T10:28:57Z</time>
      </trkpt>
      <trkpt lat="42.8276" lon="0.19411">
        <ele>2067.45</ele>
        <time>2009-03-14T10:29:07Z</time>
      </trkpt>
      <trkpt lat="42.82758" lon="0.19405">
        <ele>2068.41</ele>
        <time>2009-03-14T10:29:15Z</time>
      </trkpt>
      <trkpt lat="42.82758" lon="0.19401">
        <ele>2068.89</ele>
        <time>2009-03-14T10:29:26Z</time>
      </trkpt>
      <trkpt lat="42.82757" lon="0.19389">
        <ele>2069.38</ele>
        <time>2009-03-14T10:29:55Z</time>
      </trkpt>
      <trkpt lat="42.82757" lon="0.19387">
        <ele>2068.89</ele>
        <time>2009-03-14T10:29:57Z</time>
      </trkpt>
      <trkpt lat="42.82757" lon="0.1938">
        <ele>2069.86</ele>
        <time>2009-03-14T10:30:03Z</time>
      </trkpt>
      <trkpt lat="42.82754" lon="0.19364">
        <ele>2070.34</ele>
        <time>2009-03-14T10:30:17Z</time>
      </trkpt>
      <trkpt lat="42.82752" lon="0.19352">
        <ele>2070.82</ele>
        <time>2009-03-14T10:30:28Z</time>
      </trkpt>
      <trkpt lat="42.82752" lon="0.19343">
        <ele>2071.78</ele>
        <time>2009-03-14T10:30:40Z</time>
      </trkpt>
      <trkpt lat="42.82752" lon="0.19335">
        <ele>2072.74</ele>
        <time>2009-03-14T10:30:52Z</time>
      </trkpt>
      <trkpt lat="42.82751" lon="0.19327">
        <ele>2072.26</ele>
        <time>2009-03-14T10:31:03Z</time>
      </trkpt>
      <trkpt lat="42.82751" lon="0.19326">
        <ele>2071.78</ele>
        <time>2009-03-14T10:31:20Z</time>
      </trkpt>
      <trkpt lat="42.82751" lon="0.19327">
        <ele>2072.26</ele>
        <time>2009-03-14T10:31:35Z</time>
      </trkpt>
      <trkpt lat="42.82751" lon="0.19326">
        <ele>2068.89</ele>
        <time>2009-03-14T10:31:43Z</time>
      </trkpt>
      <trkpt lat="42.82752" lon="0.19325">
        <ele>2072.26</ele>
        <time>2009-03-14T10:32:17Z</time>
      </trkpt>
      <trkpt lat="42.82752" lon="0.19325">
        <ele>2077.55</ele>
        <time>2009-03-14T10:32:21Z</time>
      </trkpt>
      <trkpt lat="42.82752" lon="0.19325">
        <ele>2069.86</ele>
        <time>2009-03-14T10:32:22Z</time>
      </trkpt>
      <trkpt lat="42.82752" lon="0.19325">
        <ele>2069.86</ele>
        <time>2009-03-14T10:32:23Z</time>
      </trkpt>
      <trkpt lat="42.82752" lon="0.19325">
        <ele>2074.18</ele>
        <time>2009-03-14T10:32:50Z</time>
      </trkpt>
      <trkpt lat="42.82752" lon="0.19325">
        <ele>2073.7</ele>
        <time>2009-03-14T10:32:51Z</time>
      </trkpt>
      <trkpt lat="42.82752" lon="0.19325">
        <ele>2070.34</ele>
        <time>2009-03-14T10:32:54Z</time>
      </trkpt>
      <trkpt lat="42.82752" lon="0.19325">
        <ele>2062.65</ele>
        <time>2009-03-14T10:33:00Z</time>
      </trkpt>
      <trkpt lat="42.82752" lon="0.19325">
        <ele>2065.53</ele>
        <time>2009-03-14T10:33:01Z</time>
      </trkpt>
      <trkpt lat="42.82752" lon="0.19325">
        <ele>2069.86</ele>
        <time>2009-03-14T10:33:02Z</time>
      </trkpt>
      <trkpt lat="42.82752" lon="0.19325">
        <ele>2069.86</ele>
        <time>2009-03-14T10:33:53Z</time>
      </trkpt>
      <trkpt lat="42.82751" lon="0.19325">
        <ele>2069.38</ele>
        <time>2009-03-14T10:39:08Z</time>
      </trkpt>
      <trkpt lat="42.82751" lon="0.19326">
        <ele>2073.7</ele>
        <time>2009-03-14T10:41:15Z</time>
      </trkpt>
      <trkpt lat="42.82751" lon="0.19326">
        <ele>2064.57</ele>
        <time>2009-03-14T10:41:16Z</time>
      </trkpt>
      <trkpt lat="42.82751" lon="0.19326">
        <ele>2067.93</ele>
        <time>2009-03-14T10:41:17Z</time>
      </trkpt>
      <trkpt lat="42.82751" lon="0.19325">
        <ele>2068.89</ele>
        <time>2009-03-14T10:41:54Z</time>
      </trkpt>
      <trkpt lat="42.82751" lon="0.19326">
        <ele>2069.38</ele>
        <time>2009-03-14T10:42:57Z</time>
      </trkpt>
      <trkpt lat="42.82752" lon="0.19328">
        <ele>2068.41</ele>
        <time>2009-03-14T10:48:55Z</time>
      </trkpt>
      <trkpt lat="42.82753" lon="0.19326">
        <ele>2070.82</ele>
        <time>2009-03-14T10:49:50Z</time>
      </trkpt>
      <trkpt lat="42.82753" lon="0.19326">
        <ele>2070.82</ele>
        <time>2009-03-14T10:50:22Z</time>
      </trkpt>
      <trkpt lat="42.82753" lon="0.19326">
        <ele>2070.82</ele>
        <time>2009-03-14T10:50:54Z</time>
      </trkpt>
      <trkpt lat="42.82752" lon="0.19326">
        <ele>2070.34</ele>
        <time>2009-03-14T10:51:53Z</time>
      </trkpt>
      <trkpt lat="42.82752" lon="0.19325">
        <ele>2069.86</ele>
        <time>2009-03-14T10:53:05Z</time>
      </trkpt>
      <trkpt lat="42.82751" lon="0.19325">
        <ele>2069.86</ele>
        <time>2009-03-14T10:53:21Z</time>
      </trkpt>
      <trkpt lat="42.82751" lon="0.19323">
        <ele>2070.34</ele>
        <time>2009-03-14T10:53:32Z</time>
      </trkpt>
      <trkpt lat="42.82751" lon="0.19313">
        <ele>2071.3</ele>
        <time>2009-03-14T10:54:04Z</time>
      </trkpt>
      <trkpt lat="42.82751" lon="0.19311">
        <ele>2070.34</ele>
        <time>2009-03-14T10:54:05Z</time>
      </trkpt>
      <trkpt lat="42.82753" lon="0.19298">
        <ele>2070.82</ele>
        <time>2009-03-14T10:54:15Z</time>
      </trkpt>
      <trkpt lat="42.82755" lon="0.19279">
        <ele>2071.3</ele>
        <time>2009-03-14T10:54:30Z</time>
      </trkpt>
      <trkpt lat="42.82756" lon="0.1927">
        <ele>2072.74</ele>
        <time>2009-03-14T10:54:39Z</time>
      </trkpt>
      <trkpt lat="42.82756" lon="0.19255">
        <ele>2072.74</ele>
        <time>2009-03-14T10:54:51Z</time>
      </trkpt>
      <trkpt lat="42.82757" lon="0.19238">
        <ele>2073.7</ele>
        <time>2009-03-14T10:55:05Z</time>
      </trkpt>
      <trkpt lat="42.82758" lon="0.19226">
        <ele>2074.66</ele>
        <time>2009-03-14T10:55:17Z</time>
      </trkpt>
      <trkpt lat="42.8276" lon="0.19216">
        <ele>2074.66</ele>
        <time>2009-03-14T10:55:32Z</time>
      </trkpt>
      <trkpt lat="42.82764" lon="0.19206">
        <ele>2075.14</ele>
        <time>2009-03-14T10:55:49Z</time>
      </trkpt>
      <trkpt lat="42.82767" lon="0.19198">
        <ele>2076.1</ele>
        <time>2009-03-14T10:56:00Z</time>
      </trkpt>
      <trkpt lat="42.82769" lon="0.19192">
        <ele>2077.07</ele>
        <time>2009-03-14T10:56:11Z</time>
      </trkpt>
      <trkpt lat="42.82773" lon="0.19187">
        <ele>2078.51</ele>
        <time>2009-03-14T10:56:24Z</time>
      </trkpt>
      <trkpt lat="42.82775" lon="0.19184">
        <ele>2079.95</ele>
        <time>2009-03-14T10:56:36Z</time>
      </trkpt>
      <trkpt lat="42.82777" lon="0.19179">
        <ele>2081.39</ele>
        <time>2009-03-14T10:56:48Z</time>
      </trkpt>
      <trkpt lat="42.82778" lon="0.19177">
        <ele>2082.35</ele>
        <time>2009-03-14T10:57:01Z</time>
      </trkpt>
      <trkpt lat="42.82784" lon="0.19171">
        <ele>2083.31</ele>
        <time>2009-03-14T10:57:14Z</time>
      </trkpt>
      <trkpt lat="42.82784" lon="0.19171">
        <ele>2083.31</ele>
        <time>2009-03-14T10:57:37Z</time>
      </trkpt>
      <trkpt lat="42.8279" lon="0.19167">
        <ele>2084.76</ele>
        <time>2009-03-14T10:57:52Z</time>
      </trkpt>
      <trkpt lat="42.82796" lon="0.19166">
        <ele>2086.68</ele>
        <time>2009-03-14T10:58:03Z</time>
      </trkpt>
      <trkpt lat="42.82803" lon="0.19165">
        <ele>2087.64</ele>
        <time>2009-03-14T10:58:17Z</time>
      </trkpt>
      <trkpt lat="42.82807" lon="0.19161">
        <ele>2089.08</ele>
        <time>2009-03-14T10:58:27Z</time>
      </trkpt>
      <trkpt lat="42.82813" lon="0.19158">
        <ele>2090.52</ele>
        <time>2009-03-14T10:58:40Z</time>
      </trkpt>
      <trkpt lat="42.82817" lon="0.19156">
        <ele>2091</ele>
        <time>2009-03-14T10:58:54Z</time>
      </trkpt>
      <trkpt lat="42.82821" lon="0.19154">
        <ele>2091.97</ele>
        <time>2009-03-14T10:59:04Z</time>
      </trkpt>
      <trkpt lat="42.82826" lon="0.19148">
        <ele>2093.89</ele>
        <time>2009-03-14T10:59:20Z</time>
      </trkpt>
      <trkpt lat="42.82831" lon="0.19141">
        <ele>2095.33</ele>
        <time>2009-03-14T10:59:29Z</time>
      </trkpt>
      <trkpt lat="42.82835" lon="0.19136">
        <ele>2096.77</ele>
        <time>2009-03-14T10:59:39Z</time>
      </trkpt>
      <trkpt lat="42.82838" lon="0.19133">
        <ele>2096.77</ele>
        <time>2009-03-14T10:59:47Z</time>
      </trkpt>
      <trkpt lat="42.82842" lon="0.19128">
        <ele>2098.7</ele>
        <time>2009-03-14T10:59:59Z</time>
      </trkpt>
      <trkpt lat="42.8284" lon="0.19126">
        <ele>2099.66</ele>
        <time>2009-03-14T11:00:08Z</time>
      </trkpt>
      <trkpt lat="42.82836" lon="0.19123">
        <ele>2100.62</ele>
        <time>2009-03-14T11:00:22Z</time>
      </trkpt>
      <trkpt lat="42.82831" lon="0.19121">
        <ele>2102.06</ele>
        <time>2009-03-14T11:00:34Z</time>
      </trkpt>
      <trkpt lat="42.82825" lon="0.19119">
        <ele>2103.5</ele>
        <time>2009-03-14T11:00:48Z</time>
      </trkpt>
      <trkpt lat="42.8282" lon="0.19114">
        <ele>2104.46</ele>
        <time>2009-03-14T11:00:58Z</time>
      </trkpt>
      <trkpt lat="42.82817" lon="0.19111">
        <ele>2106.39</ele>
        <time>2009-03-14T11:01:13Z</time>
      </trkpt>
      <trkpt lat="42.82816" lon="0.19108">
        <ele>2106.87</ele>
        <time>2009-03-14T11:01:26Z</time>
      </trkpt>
      <trkpt lat="42.8282" lon="0.19102">
        <ele>2107.83</ele>
        <time>2009-03-14T11:01:36Z</time>
      </trkpt>
      <trkpt lat="42.82821" lon="0.19101">
        <ele>2109.27</ele>
        <time>2009-03-14T11:01:40Z</time>
      </trkpt>
      <trkpt lat="42.82825" lon="0.19094">
        <ele>2109.75</ele>
        <time>2009-03-14T11:01:51Z</time>
      </trkpt>
      <trkpt lat="42.82823" lon="0.1909">
        <ele>2111.19</ele>
        <time>2009-03-14T11:01:58Z</time>
      </trkpt>
      <trkpt lat="42.82819" lon="0.19088">
        <ele>2112.15</ele>
        <time>2009-03-14T11:02:08Z</time>
      </trkpt>
      <trkpt lat="42.82817" lon="0.19089">
        <ele>2112.63</ele>
        <time>2009-03-14T11:02:11Z</time>
      </trkpt>
      <trkpt lat="42.82809" lon="0.19086">
        <ele>2113.12</ele>
        <time>2009-03-14T11:02:23Z</time>
      </trkpt>
      <trkpt lat="42.82806" lon="0.19083">
        <ele>2114.56</ele>
        <time>2009-03-14T11:02:36Z</time>
      </trkpt>
      <trkpt lat="42.82804" lon="0.19076">
        <ele>2116</ele>
        <time>2009-03-14T11:02:46Z</time>
      </trkpt>
      <trkpt lat="42.82806" lon="0.19074">
        <ele>2115.52</ele>
        <time>2009-03-14T11:02:58Z</time>
      </trkpt>
      <trkpt lat="42.8281" lon="0.19072">
        <ele>2116.96</ele>
        <time>2009-03-14T11:03:04Z</time>
      </trkpt>
      <trkpt lat="42.82815" lon="0.19067">
        <ele>2117.92</ele>
        <time>2009-03-14T11:03:16Z</time>
      </trkpt>
      <trkpt lat="42.82815" lon="0.19059">
        <ele>2119.36</ele>
        <time>2009-03-14T11:03:25Z</time>
      </trkpt>
      <trkpt lat="42.82815" lon="0.19057">
        <ele>2120.81</ele>
        <time>2009-03-14T11:03:37Z</time>
      </trkpt>
      <trkpt lat="42.82817" lon="0.1905">
        <ele>2121.77</ele>
        <time>2009-03-14T11:03:50Z</time>
      </trkpt>
      <trkpt lat="42.82819" lon="0.19038">
        <ele>2123.21</ele>
        <time>2009-03-14T11:04:03Z</time>
      </trkpt>
      <trkpt lat="42.82821" lon="0.19029">
        <ele>2124.17</ele>
        <time>2009-03-14T11:04:15Z</time>
      </trkpt>
      <trkpt lat="42.82821" lon="0.19027">
        <ele>2125.13</ele>
        <time>2009-03-14T11:04:28Z</time>
      </trkpt>
      <trkpt lat="42.82823" lon="0.19019">
        <ele>2127.05</ele>
        <time>2009-03-14T11:04:40Z</time>
      </trkpt>
      <trkpt lat="42.82826" lon="0.19006">
        <ele>2127.05</ele>
        <time>2009-03-14T11:04:52Z</time>
      </trkpt>
      <trkpt lat="42.82828" lon="0.19002">
        <ele>2127.05</ele>
        <time>2009-03-14T11:05:02Z</time>
      </trkpt>
      <trkpt lat="42.82827" lon="0.18995">
        <ele>2126.57</ele>
        <time>2009-03-14T11:05:14Z</time>
      </trkpt>
      <trkpt lat="42.82828" lon="0.18988">
        <ele>2127.05</ele>
        <time>2009-03-14T11:05:23Z</time>
      </trkpt>
      <trkpt lat="42.82828" lon="0.18984">
        <ele>2127.53</ele>
        <time>2009-03-14T11:05:32Z</time>
      </trkpt>
      <trkpt lat="42.82828" lon="0.18982">
        <ele>2128.02</ele>
        <time>2009-03-14T11:05:38Z</time>
      </trkpt>
      <trkpt lat="42.8283" lon="0.18967">
        <ele>2128.98</ele>
        <time>2009-03-14T11:05:52Z</time>
      </trkpt>
      <trkpt lat="42.82832" lon="0.18961">
        <ele>2128.5</ele>
        <time>2009-03-14T11:06:03Z</time>
      </trkpt>
      <trkpt lat="42.82833" lon="0.18954">
        <ele>2128.98</ele>
        <time>2009-03-14T11:06:13Z</time>
      </trkpt>
      <trkpt lat="42.82836" lon="0.18946">
        <ele>2128.98</ele>
        <time>2009-03-14T11:06:25Z</time>
      </trkpt>
      <trkpt lat="42.8284" lon="0.18941">
        <ele>2129.46</ele>
        <time>2009-03-14T11:06:34Z</time>
      </trkpt>
      <trkpt lat="42.82841" lon="0.18934">
        <ele>2129.94</ele>
        <time>2009-03-14T11:06:43Z</time>
      </trkpt>
      <trkpt lat="42.82842" lon="0.18926">
        <ele>2131.38</ele>
        <time>2009-03-14T11:06:55Z</time>
      </trkpt>
      <trkpt lat="42.82843" lon="0.18916">
        <ele>2132.82</ele>
        <time>2009-03-14T11:07:10Z</time>
      </trkpt>
      <trkpt lat="42.82843" lon="0.18906">
        <ele>2134.26</ele>
        <time>2009-03-14T11:07:21Z</time>
      </trkpt>
      <trkpt lat="42.82839" lon="0.18895">
        <ele>2136.19</ele>
        <time>2009-03-14T11:07:36Z</time>
      </trkpt>
      <trkpt lat="42.82838" lon="0.18886">
        <ele>2137.15</ele>
        <time>2009-03-14T11:07:49Z</time>
      </trkpt>
      <trkpt lat="42.82838" lon="0.18883">
        <ele>2139.07</ele>
        <time>2009-03-14T11:08:02Z</time>
      </trkpt>
      <trkpt lat="42.82837" lon="0.18876">
        <ele>2140.03</ele>
        <time>2009-03-14T11:08:14Z</time>
      </trkpt>
      <trkpt lat="42.82835" lon="0.18867">
        <ele>2140.99</ele>
        <time>2009-03-14T11:08:26Z</time>
      </trkpt>
      <trkpt lat="42.82836" lon="0.18859">
        <ele>2143.4</ele>
        <time>2009-03-14T11:08:41Z</time>
      </trkpt>
      <trkpt lat="42.82836" lon="0.1885">
        <ele>2143.88</ele>
        <time>2009-03-14T11:08:52Z</time>
      </trkpt>
      <trkpt lat="42.82834" lon="0.18839">
        <ele>2145.8</ele>
        <time>2009-03-14T11:09:06Z</time>
      </trkpt>
      <trkpt lat="42.82834" lon="0.18834">
        <ele>2146.28</ele>
        <time>2009-03-14T11:09:19Z</time>
      </trkpt>
      <trkpt lat="42.82835" lon="0.18831">
        <ele>2147.24</ele>
        <time>2009-03-14T11:09:33Z</time>
      </trkpt>
      <trkpt lat="42.82834" lon="0.18826">
        <ele>2148.68</ele>
        <time>2009-03-14T11:10:03Z</time>
      </trkpt>
      <trkpt lat="42.82833" lon="0.18814">
        <ele>2150.13</ele>
        <time>2009-03-14T11:10:18Z</time>
      </trkpt>
      <trkpt lat="42.8283" lon="0.18806">
        <ele>2151.57</ele>
        <time>2009-03-14T11:10:32Z</time>
      </trkpt>
      <trkpt lat="42.8283" lon="0.18795">
        <ele>2153.49</ele>
        <time>2009-03-14T11:10:45Z</time>
      </trkpt>
      <trkpt lat="42.82829" lon="0.18789">
        <ele>2155.41</ele>
        <time>2009-03-14T11:10:57Z</time>
      </trkpt>
      <trkpt lat="42.82828" lon="0.18781">
        <ele>2156.37</ele>
        <time>2009-03-14T11:11:09Z</time>
      </trkpt>
      <trkpt lat="42.82826" lon="0.18774">
        <ele>2157.82</ele>
        <time>2009-03-14T11:11:19Z</time>
      </trkpt>
      <trkpt lat="42.82825" lon="0.18765">
        <ele>2159.74</ele>
        <time>2009-03-14T11:11:33Z</time>
      </trkpt>
      <trkpt lat="42.82824" lon="0.18758">
        <ele>2160.22</ele>
        <time>2009-03-14T11:11:46Z</time>
      </trkpt>
      <trkpt lat="42.82824" lon="0.18753">
        <ele>2161.18</ele>
        <time>2009-03-14T11:11:56Z</time>
      </trkpt>
      <trkpt lat="42.82824" lon="0.18746">
        <ele>2162.62</ele>
        <time>2009-03-14T11:12:11Z</time>
      </trkpt>
      <trkpt lat="42.82824" lon="0.18738">
        <ele>2164.55</ele>
        <time>2009-03-14T11:12:22Z</time>
      </trkpt>
      <trkpt lat="42.82824" lon="0.18731">
        <ele>2166.47</ele>
        <time>2009-03-14T11:12:37Z</time>
      </trkpt>
      <trkpt lat="42.82824" lon="0.18722">
        <ele>2167.43</ele>
        <time>2009-03-14T11:12:50Z</time>
      </trkpt>
      <trkpt lat="42.82824" lon="0.18721">
        <ele>2168.87</ele>
        <time>2009-03-14T11:13:06Z</time>
      </trkpt>
      <trkpt lat="42.82823" lon="0.18716">
        <ele>2169.35</ele>
        <time>2009-03-14T11:13:31Z</time>
      </trkpt>
      <trkpt lat="42.82823" lon="0.18704">
        <ele>2171.76</ele>
        <time>2009-03-14T11:13:45Z</time>
      </trkpt>
      <trkpt lat="42.82823" lon="0.18695">
        <ele>2173.2</ele>
        <time>2009-03-14T11:13:56Z</time>
      </trkpt>
      <trkpt lat="42.82823" lon="0.18685">
        <ele>2175.12</ele>
        <time>2009-03-14T11:14:08Z</time>
      </trkpt>
      <trkpt lat="42.82823" lon="0.18678">
        <ele>2175.12</ele>
        <time>2009-03-14T11:14:18Z</time>
      </trkpt>
      <trkpt lat="42.82823" lon="0.18671">
        <ele>2177.04</ele>
        <time>2009-03-14T11:14:31Z</time>
      </trkpt>
      <trkpt lat="42.82823" lon="0.18671">
        <ele>2176.56</ele>
        <time>2009-03-14T11:14:43Z</time>
      </trkpt>
      <trkpt lat="42.82823" lon="0.1867">
        <ele>2177.52</ele>
        <time>2009-03-14T11:14:58Z</time>
      </trkpt>
      <trkpt lat="42.82823" lon="0.1866">
        <ele>2178.97</ele>
        <time>2009-03-14T11:15:09Z</time>
      </trkpt>
      <trkpt lat="42.82823" lon="0.18651">
        <ele>2179.93</ele>
        <time>2009-03-14T11:15:20Z</time>
      </trkpt>
      <trkpt lat="42.82823" lon="0.18641">
        <ele>2181.37</ele>
        <time>2009-03-14T11:15:33Z</time>
      </trkpt>
      <trkpt lat="42.82823" lon="0.18638">
        <ele>2182.33</ele>
        <time>2009-03-14T11:15:49Z</time>
      </trkpt>
      <trkpt lat="42.82823" lon="0.18637">
        <ele>2182.81</ele>
        <time>2009-03-14T11:16:07Z</time>
      </trkpt>
      <trkpt lat="42.82823" lon="0.18637">
        <ele>2182.81</ele>
        <time>2009-03-14T11:16:26Z</time>
      </trkpt>
      <trkpt lat="42.82823" lon="0.18628">
        <ele>2184.73</ele>
        <time>2009-03-14T11:16:40Z</time>
      </trkpt>
      <trkpt lat="42.82823" lon="0.18625">
        <ele>2185.21</ele>
        <time>2009-03-14T11:16:55Z</time>
      </trkpt>
      <trkpt lat="42.82823" lon="0.18616">
        <ele>2186.18</ele>
        <time>2009-03-14T11:17:06Z</time>
      </trkpt>
      <trkpt lat="42.82826" lon="0.18611">
        <ele>2187.14</ele>
        <time>2009-03-14T11:17:18Z</time>
      </trkpt>
      <trkpt lat="42.82831" lon="0.18606">
        <ele>2188.58</ele>
        <time>2009-03-14T11:17:29Z</time>
      </trkpt>
      <trkpt lat="42.82837" lon="0.18602">
        <ele>2190.5</ele>
        <time>2009-03-14T11:17:40Z</time>
      </trkpt>
      <trkpt lat="42.82838" lon="0.18602">
        <ele>2190.02</ele>
        <time>2009-03-14T11:17:41Z</time>
      </trkpt>
      <trkpt lat="42.82841" lon="0.18596">
        <ele>2191.94</ele>
        <time>2009-03-14T11:17:50Z</time>
      </trkpt>
      <trkpt lat="42.82839" lon="0.18589">
        <ele>2193.39</ele>
        <time>2009-03-14T11:17:59Z</time>
      </trkpt>
      <trkpt lat="42.82838" lon="0.18583">
        <ele>2193.87</ele>
        <time>2009-03-14T11:18:09Z</time>
      </trkpt>
      <trkpt lat="42.82835" lon="0.18578">
        <ele>2195.79</ele>
        <time>2009-03-14T11:18:23Z</time>
      </trkpt>
      <trkpt lat="42.82831" lon="0.18574">
        <ele>2198.19</ele>
        <time>2009-03-14T11:18:37Z</time>
      </trkpt>
      <trkpt lat="42.82822" lon="0.18561">
        <ele>2200.11</ele>
        <time>2009-03-14T11:18:55Z</time>
      </trkpt>
      <trkpt lat="42.82819" lon="0.18554">
        <ele>2201.56</ele>
        <time>2009-03-14T11:19:07Z</time>
      </trkpt>
      <trkpt lat="42.82818" lon="0.18546">
        <ele>2202.52</ele>
        <time>2009-03-14T11:19:18Z</time>
      </trkpt>
      <trkpt lat="42.82817" lon="0.1854">
        <ele>2204.44</ele>
        <time>2009-03-14T11:19:31Z</time>
      </trkpt>
      <trkpt lat="42.82816" lon="0.18533">
        <ele>2205.4</ele>
        <time>2009-03-14T11:19:43Z</time>
      </trkpt>
      <trkpt lat="42.82818" lon="0.18529">
        <ele>2205.88</ele>
        <time>2009-03-14T11:19:52Z</time>
      </trkpt>
      <trkpt lat="42.82822" lon="0.18528">
        <ele>2205.88</ele>
        <time>2009-03-14T11:20:07Z</time>
      </trkpt>
      <trkpt lat="42.82829" lon="0.18526">
        <ele>2207.81</ele>
        <time>2009-03-14T11:20:20Z</time>
      </trkpt>
      <trkpt lat="42.82832" lon="0.18526">
        <ele>2208.77</ele>
        <time>2009-03-14T11:20:32Z</time>
      </trkpt>
      <trkpt lat="42.82834" lon="0.18526">
        <ele>2209.25</ele>
        <time>2009-03-14T11:20:48Z</time>
      </trkpt>
      <trkpt lat="42.82834" lon="0.18523">
        <ele>2209.73</ele>
        <time>2009-03-14T11:20:57Z</time>
      </trkpt>
      <trkpt lat="42.82832" lon="0.1852">
        <ele>2210.21</ele>
        <time>2009-03-14T11:21:00Z</time>
      </trkpt>
      <trkpt lat="42.82828" lon="0.1851">
        <ele>2211.17</ele>
        <time>2009-03-14T11:21:12Z</time>
      </trkpt>
      <trkpt lat="42.82824" lon="0.18501">
        <ele>2213.57</ele>
        <time>2009-03-14T11:21:26Z</time>
      </trkpt>
      <trkpt lat="42.82821" lon="0.18494">
        <ele>2215.5</ele>
        <time>2009-03-14T11:21:41Z</time>
      </trkpt>
      <trkpt lat="42.82818" lon="0.18488">
        <ele>2216.46</ele>
        <time>2009-03-14T11:21:52Z</time>
      </trkpt>
      <trkpt lat="42.82814" lon="0.1848">
        <ele>2217.9</ele>
        <time>2009-03-14T11:22:03Z</time>
      </trkpt>
      <trkpt lat="42.8281" lon="0.1847">
        <ele>2220.3</ele>
        <time>2009-03-14T11:22:23Z</time>
      </trkpt>
      <trkpt lat="42.82813" lon="0.18465">
        <ele>2221.26</ele>
        <time>2009-03-14T11:22:33Z</time>
      </trkpt>
      <trkpt lat="42.82818" lon="0.1846">
        <ele>2222.71</ele>
        <time>2009-03-14T11:22:44Z</time>
      </trkpt>
      <trkpt lat="42.82821" lon="0.18457">
        <ele>2223.67</ele>
        <time>2009-03-14T11:22:53Z</time>
      </trkpt>
      <trkpt lat="42.82826" lon="0.18455">
        <ele>2225.11</ele>
        <time>2009-03-14T11:23:04Z</time>
      </trkpt>
      <trkpt lat="42.82833" lon="0.18449">
        <ele>2226.07</ele>
        <time>2009-03-14T11:23:19Z</time>
      </trkpt>
      <trkpt lat="42.82836" lon="0.18445">
        <ele>2227.03</ele>
        <time>2009-03-14T11:23:30Z</time>
      </trkpt>
      <trkpt lat="42.82841" lon="0.18441">
        <ele>2228.47</ele>
        <time>2009-03-14T11:23:41Z</time>
      </trkpt>
      <trkpt lat="42.82848" lon="0.18443">
        <ele>2229.92</ele>
        <time>2009-03-14T11:23:57Z</time>
      </trkpt>
      <trkpt lat="42.82855" lon="0.18446">
        <ele>2231.36</ele>
        <time>2009-03-14T11:24:10Z</time>
      </trkpt>
      <trkpt lat="42.82861" lon="0.1844">
        <ele>2232.8</ele>
        <time>2009-03-14T11:24:25Z</time>
      </trkpt>
      <trkpt lat="42.82865" lon="0.18435">
        <ele>2234.72</ele>
        <time>2009-03-14T11:24:37Z</time>
      </trkpt>
      <trkpt lat="42.82869" lon="0.18429">
        <ele>2235.2</ele>
        <time>2009-03-14T11:24:50Z</time>
      </trkpt>
      <trkpt lat="42.82873" lon="0.18425">
        <ele>2236.16</ele>
        <time>2009-03-14T11:24:59Z</time>
      </trkpt>
      <trkpt lat="42.82873" lon="0.18425">
        <ele>2236.16</ele>
        <time>2009-03-14T11:25:17Z</time>
      </trkpt>
      <trkpt lat="42.82873" lon="0.18425">
        <ele>2236.16</ele>
        <time>2009-03-14T11:25:36Z</time>
      </trkpt>
      <trkpt lat="42.82873" lon="0.18426">
        <ele>2236.64</ele>
        <time>2009-03-14T11:25:52Z</time>
      </trkpt>
      <trkpt lat="42.82873" lon="0.18426">
        <ele>2236.16</ele>
        <time>2009-03-14T11:26:30Z</time>
      </trkpt>
      <trkpt lat="42.82872" lon="0.18426">
        <ele>2237.13</ele>
        <time>2009-03-14T11:26:47Z</time>
      </trkpt>
      <trkpt lat="42.82872" lon="0.18426">
        <ele>2236.64</ele>
        <time>2009-03-14T11:27:13Z</time>
      </trkpt>
      <trkpt lat="42.82872" lon="0.18426">
        <ele>2236.64</ele>
        <time>2009-03-14T11:27:44Z</time>
      </trkpt>
      <trkpt lat="42.82872" lon="0.18419">
        <ele>2238.57</ele>
        <time>2009-03-14T11:27:57Z</time>
      </trkpt>
      <trkpt lat="42.82869" lon="0.18414">
        <ele>2239.05</ele>
        <time>2009-03-14T11:28:10Z</time>
      </trkpt>
      <trkpt lat="42.82871" lon="0.18409">
        <ele>2240.49</ele>
        <time>2009-03-14T11:28:25Z</time>
      </trkpt>
      <trkpt lat="42.82876" lon="0.18407">
        <ele>2241.93</ele>
        <time>2009-03-14T11:28:35Z</time>
      </trkpt>
      <trkpt lat="42.8288" lon="0.18404">
        <ele>2242.41</ele>
        <time>2009-03-14T11:28:50Z</time>
      </trkpt>
      <trkpt lat="42.82887" lon="0.18399">
        <ele>2243.85</ele>
        <time>2009-03-14T11:29:03Z</time>
      </trkpt>
      <trkpt lat="42.82892" lon="0.18397">
        <ele>2244.82</ele>
        <time>2009-03-14T11:29:15Z</time>
      </trkpt>
      <trkpt lat="42.82895" lon="0.18397">
        <ele>2246.26</ele>
        <time>2009-03-14T11:29:25Z</time>
      </trkpt>
      <trkpt lat="42.82902" lon="0.18398">
        <ele>2247.22</ele>
        <time>2009-03-14T11:29:37Z</time>
      </trkpt>
      <trkpt lat="42.82907" lon="0.18396">
        <ele>2248.18</ele>
        <time>2009-03-14T11:29:51Z</time>
      </trkpt>
      <trkpt lat="42.82911" lon="0.18391">
        <ele>2249.62</ele>
        <time>2009-03-14T11:30:01Z</time>
      </trkpt>
      <trkpt lat="42.82912" lon="0.18385">
        <ele>2251.06</ele>
        <time>2009-03-14T11:30:10Z</time>
      </trkpt>
      <trkpt lat="42.82911" lon="0.18377">
        <ele>2251.54</ele>
        <time>2009-03-14T11:30:20Z</time>
      </trkpt>
      <trkpt lat="42.8291" lon="0.18374">
        <ele>2253.95</ele>
        <time>2009-03-14T11:30:36Z</time>
      </trkpt>
      <trkpt lat="42.82906" lon="0.1837">
        <ele>2254.43</ele>
        <time>2009-03-14T11:30:45Z</time>
      </trkpt>
      <trkpt lat="42.82903" lon="0.18367">
        <ele>2256.35</ele>
        <time>2009-03-14T11:30:56Z</time>
      </trkpt>
      <trkpt lat="42.82897" lon="0.18358">
        <ele>2257.79</ele>
        <time>2009-03-14T11:31:10Z</time>
      </trkpt>
      <trkpt lat="42.82894" lon="0.18353">
        <ele>2257.79</ele>
        <time>2009-03-14T11:31:19Z</time>
      </trkpt>
      <trkpt lat="42.8289" lon="0.18347">
        <ele>2259.24</ele>
        <time>2009-03-14T11:31:29Z</time>
      </trkpt>
      <trkpt lat="42.82887" lon="0.18343">
        <ele>2260.2</ele>
        <time>2009-03-14T11:31:41Z</time>
      </trkpt>
      <trkpt lat="42.82885" lon="0.1834">
        <ele>2261.64</ele>
        <time>2009-03-14T11:31:57Z</time>
      </trkpt>
      <trkpt lat="42.82883" lon="0.18334">
        <ele>2262.12</ele>
        <time>2009-03-14T11:32:05Z</time>
      </trkpt>
      <trkpt lat="42.82883" lon="0.18326">
        <ele>2263.56</ele>
        <time>2009-03-14T11:32:15Z</time>
      </trkpt>
      <trkpt lat="42.82886" lon="0.18321">
        <ele>2264.52</ele>
        <time>2009-03-14T11:32:25Z</time>
      </trkpt>
      <trkpt lat="42.82892" lon="0.18316">
        <ele>2265.96</ele>
        <time>2009-03-14T11:32:38Z</time>
      </trkpt>
      <trkpt lat="42.82895" lon="0.18313">
        <ele>2266.93</ele>
        <time>2009-03-14T11:32:49Z</time>
      </trkpt>
      <trkpt lat="42.82899" lon="0.1831">
        <ele>2267.89</ele>
        <time>2009-03-14T11:33:02Z</time>
      </trkpt>
      <trkpt lat="42.82908" lon="0.18306">
        <ele>2269.33</ele>
        <time>2009-03-14T11:33:17Z</time>
      </trkpt>
      <trkpt lat="42.82912" lon="0.18301">
        <ele>2270.77</ele>
        <time>2009-03-14T11:33:28Z</time>
      </trkpt>
      <trkpt lat="42.82915" lon="0.18299">
        <ele>2271.73</ele>
        <time>2009-03-14T11:33:40Z</time>
      </trkpt>
      <trkpt lat="42.8292" lon="0.18295">
        <ele>2273.17</ele>
        <time>2009-03-14T11:33:52Z</time>
      </trkpt>
      <trkpt lat="42.82922" lon="0.18292">
        <ele>2273.66</ele>
        <time>2009-03-14T11:34:04Z</time>
      </trkpt>
      <trkpt lat="42.82921" lon="0.1829">
        <ele>2275.1</ele>
        <time>2009-03-14T11:34:14Z</time>
      </trkpt>
      <trkpt lat="42.82916" lon="0.18287">
        <ele>2275.58</ele>
        <time>2009-03-14T11:34:23Z</time>
      </trkpt>
      <trkpt lat="42.82913" lon="0.18285">
        <ele>2276.54</ele>
        <time>2009-03-14T11:34:31Z</time>
      </trkpt>
      <trkpt lat="42.82907" lon="0.18283">
        <ele>2277.5</ele>
        <time>2009-03-14T11:34:42Z</time>
      </trkpt>
      <trkpt lat="42.82902" lon="0.1828">
        <ele>2278.46</ele>
        <time>2009-03-14T11:34:52Z</time>
      </trkpt>
      <trkpt lat="42.829" lon="0.18278">
        <ele>2279.42</ele>
        <time>2009-03-14T11:35:05Z</time>
      </trkpt>
      <trkpt lat="42.82896" lon="0.18275">
        <ele>2280.38</ele>
        <time>2009-03-14T11:35:17Z</time>
      </trkpt>
      <trkpt lat="42.8289" lon="0.18271">
        <ele>2281.35</ele>
        <time>2009-03-14T11:35:28Z</time>
      </trkpt>
      <trkpt lat="42.82887" lon="0.18267">
        <ele>2282.79</ele>
        <time>2009-03-14T11:35:40Z</time>
      </trkpt>
      <trkpt lat="42.82886" lon="0.18264">
        <ele>2283.27</ele>
        <time>2009-03-14T11:35:51Z</time>
      </trkpt>
      <trkpt lat="42.82885" lon="0.18264">
        <ele>2282.79</ele>
        <time>2009-03-14T11:36:23Z</time>
      </trkpt>
      <trkpt lat="42.82885" lon="0.18264">
        <ele>2283.27</ele>
        <time>2009-03-14T11:36:54Z</time>
      </trkpt>
      <trkpt lat="42.82886" lon="0.18261">
        <ele>2283.27</ele>
        <time>2009-03-14T11:37:06Z</time>
      </trkpt>
      <trkpt lat="42.82886" lon="0.18261">
        <ele>2282.79</ele>
        <time>2009-03-14T11:37:34Z</time>
      </trkpt>
      <trkpt lat="42.82886" lon="0.18261">
        <ele>2283.75</ele>
        <time>2009-03-14T11:37:59Z</time>
      </trkpt>
      <trkpt lat="42.82886" lon="0.18261">
        <ele>2283.75</ele>
        <time>2009-03-14T11:38:14Z</time>
      </trkpt>
      <trkpt lat="42.82886" lon="0.18262">
        <ele>2283.75</ele>
        <time>2009-03-14T11:38:41Z</time>
      </trkpt>
      <trkpt lat="42.82886" lon="0.18262">
        <ele>2283.75</ele>
        <time>2009-03-14T11:39:11Z</time>
      </trkpt>
      <trkpt lat="42.82886" lon="0.18261">
        <ele>2283.75</ele>
        <time>2009-03-14T11:39:39Z</time>
      </trkpt>
      <trkpt lat="42.82886" lon="0.18261">
        <ele>2284.23</ele>
        <time>2009-03-14T11:40:19Z</time>
      </trkpt>
      <trkpt lat="42.82886" lon="0.18261">
        <ele>2284.23</ele>
        <time>2009-03-14T11:40:56Z</time>
      </trkpt>
      <trkpt lat="42.82886" lon="0.18261">
        <ele>2284.23</ele>
        <time>2009-03-14T11:41:26Z</time>
      </trkpt>
      <trkpt lat="42.82888" lon="0.1826">
        <ele>2284.23</ele>
        <time>2009-03-14T11:41:45Z</time>
      </trkpt>
      <trkpt lat="42.82894" lon="0.18257">
        <ele>2285.19</ele>
        <time>2009-03-14T11:41:55Z</time>
      </trkpt>
      <trkpt lat="42.829" lon="0.18255">
        <ele>2287.11</ele>
        <time>2009-03-14T11:42:08Z</time>
      </trkpt>
      <trkpt lat="42.82905" lon="0.1825">
        <ele>2289.04</ele>
        <time>2009-03-14T11:42:25Z</time>
      </trkpt>
      <trkpt lat="42.82911" lon="0.18245">
        <ele>2290.48</ele>
        <time>2009-03-14T11:42:35Z</time>
      </trkpt>
      <trkpt lat="42.82915" lon="0.18242">
        <ele>2291.44</ele>
        <time>2009-03-14T11:42:45Z</time>
      </trkpt>
      <trkpt lat="42.82918" lon="0.18238">
        <ele>2292.4</ele>
        <time>2009-03-14T11:42:56Z</time>
      </trkpt>
      <trkpt lat="42.82919" lon="0.18234">
        <ele>2294.32</ele>
        <time>2009-03-14T11:43:09Z</time>
      </trkpt>
      <trkpt lat="42.82924" lon="0.18231">
        <ele>2295.28</ele>
        <time>2009-03-14T11:43:19Z</time>
      </trkpt>
      <trkpt lat="42.82926" lon="0.18229">
        <ele>2295.28</ele>
        <time>2009-03-14T11:43:30Z</time>
      </trkpt>
      <trkpt lat="42.8293" lon="0.18229">
        <ele>2297.21</ele>
        <time>2009-03-14T11:43:41Z</time>
      </trkpt>
      <trkpt lat="42.82935" lon="0.18225">
        <ele>2298.17</ele>
        <time>2009-03-14T11:43:52Z</time>
      </trkpt>
      <trkpt lat="42.82939" lon="0.1822">
        <ele>2300.57</ele>
        <time>2009-03-14T11:44:03Z</time>
      </trkpt>
      <trkpt lat="42.82941" lon="0.18218">
        <ele>2301.53</ele>
        <time>2009-03-14T11:44:20Z</time>
      </trkpt>
      <trkpt lat="42.82945" lon="0.18217">
        <ele>2302.49</ele>
        <time>2009-03-14T11:44:28Z</time>
      </trkpt>
      <trkpt lat="42.82946" lon="0.18217">
        <ele>2302.98</ele>
        <time>2009-03-14T11:44:41Z</time>
      </trkpt>
      <trkpt lat="42.82947" lon="0.18216">
        <ele>2303.94</ele>
        <time>2009-03-14T11:44:54Z</time>
      </trkpt>
      <trkpt lat="42.82949" lon="0.18215">
        <ele>2304.42</ele>
        <time>2009-03-14T11:45:10Z</time>
      </trkpt>
      <trkpt lat="42.82952" lon="0.18211">
        <ele>2306.34</ele>
        <time>2009-03-14T11:45:23Z</time>
      </trkpt>
      <trkpt lat="42.82955" lon="0.18208">
        <ele>2307.78</ele>
        <time>2009-03-14T11:45:32Z</time>
      </trkpt>
      <trkpt lat="42.82959" lon="0.18208">
        <ele>2309.7</ele>
        <time>2009-03-14T11:45:44Z</time>
      </trkpt>
      <trkpt lat="42.82963" lon="0.18207">
        <ele>2310.67</ele>
        <time>2009-03-14T11:45:55Z</time>
      </trkpt>
      <trkpt lat="42.82968" lon="0.18205">
        <ele>2312.59</ele>
        <time>2009-03-14T11:46:07Z</time>
      </trkpt>
      <trkpt lat="42.82971" lon="0.18201">
        <ele>2314.03</ele>
        <time>2009-03-14T11:46:17Z</time>
      </trkpt>
      <trkpt lat="42.82972" lon="0.18199">
        <ele>2314.51</ele>
        <time>2009-03-14T11:46:29Z</time>
      </trkpt>
      <trkpt lat="42.82976" lon="0.18198">
        <ele>2314.51</ele>
        <time>2009-03-14T11:46:43Z</time>
      </trkpt>
      <trkpt lat="42.82981" lon="0.18198">
        <ele>2315.47</ele>
        <time>2009-03-14T11:46:56Z</time>
      </trkpt>
      <trkpt lat="42.82984" lon="0.18197">
        <ele>2317.4</ele>
        <time>2009-03-14T11:47:10Z</time>
      </trkpt>
      <trkpt lat="42.82987" lon="0.18194">
        <ele>2319.32</ele>
        <time>2009-03-14T11:47:22Z</time>
      </trkpt>
      <trkpt lat="42.82991" lon="0.18196">
        <ele>2319.8</ele>
        <time>2009-03-14T11:47:39Z</time>
      </trkpt>
      <trkpt lat="42.82996" lon="0.18199">
        <ele>2319.8</ele>
        <time>2009-03-14T11:47:50Z</time>
      </trkpt>
      <trkpt lat="42.82998" lon="0.18202">
        <ele>2319.32</ele>
        <time>2009-03-14T11:47:59Z</time>
      </trkpt>
      <trkpt lat="42.83001" lon="0.18206">
        <ele>2318.36</ele>
        <time>2009-03-14T11:48:10Z</time>
      </trkpt>
      <trkpt lat="42.83003" lon="0.18207">
        <ele>2318.84</ele>
        <time>2009-03-14T11:48:25Z</time>
      </trkpt>
      <trkpt lat="42.83007" lon="0.18207">
        <ele>2320.28</ele>
        <time>2009-03-14T11:49:25Z</time>
      </trkpt>
      <trkpt lat="42.83013" lon="0.18204">
        <ele>2321.72</ele>
        <time>2009-03-14T11:49:37Z</time>
      </trkpt>
      <trkpt lat="42.83018" lon="0.18205">
        <ele>2323.16</ele>
        <time>2009-03-14T11:49:47Z</time>
      </trkpt>
      <trkpt lat="42.83021" lon="0.18206">
        <ele>2323.64</ele>
        <time>2009-03-14T11:49:58Z</time>
      </trkpt>
      <trkpt lat="42.83024" lon="0.18206">
        <ele>2324.61</ele>
        <time>2009-03-14T11:50:11Z</time>
      </trkpt>
      <trkpt lat="42.83027" lon="0.18206">
        <ele>2325.57</ele>
        <time>2009-03-14T11:50:28Z</time>
      </trkpt>
      <trkpt lat="42.83027" lon="0.18207">
        <ele>2326.05</ele>
        <time>2009-03-14T11:50:37Z</time>
      </trkpt>
      <trkpt lat="42.83027" lon="0.18205">
        <ele>2327.49</ele>
        <time>2009-03-14T11:50:47Z</time>
      </trkpt>
      <trkpt lat="42.83026" lon="0.18205">
        <ele>2327.49</ele>
        <time>2009-03-14T11:51:02Z</time>
      </trkpt>
      <trkpt lat="42.83026" lon="0.18205">
        <ele>2327.49</ele>
        <time>2009-03-14T11:51:13Z</time>
      </trkpt>
      <trkpt lat="42.83026" lon="0.18205">
        <ele>2327.97</ele>
        <time>2009-03-14T11:51:43Z</time>
      </trkpt>
      <trkpt lat="42.83023" lon="0.18203">
        <ele>2328.93</ele>
        <time>2009-03-14T11:51:53Z</time>
      </trkpt>
      <trkpt lat="42.8302" lon="0.18199">
        <ele>2330.37</ele>
        <time>2009-03-14T11:52:06Z</time>
      </trkpt>
      <trkpt lat="42.83017" lon="0.18195">
        <ele>2332.3</ele>
        <time>2009-03-14T11:52:17Z</time>
      </trkpt>
      <trkpt lat="42.83015" lon="0.18193">
        <ele>2333.74</ele>
        <time>2009-03-14T11:52:28Z</time>
      </trkpt>
      <trkpt lat="42.83014" lon="0.1819">
        <ele>2334.7</ele>
        <time>2009-03-14T11:52:37Z</time>
      </trkpt>
      <trkpt lat="42.83014" lon="0.18189">
        <ele>2334.7</ele>
        <time>2009-03-14T11:53:00Z</time>
      </trkpt>
      <trkpt lat="42.83014" lon="0.18188">
        <ele>2335.18</ele>
        <time>2009-03-14T11:53:32Z</time>
      </trkpt>
      <trkpt lat="42.83014" lon="0.18188">
        <ele>2335.18</ele>
        <time>2009-03-14T11:54:13Z</time>
      </trkpt>
      <trkpt lat="42.83016" lon="0.18186">
        <ele>2335.66</ele>
        <time>2009-03-14T11:54:21Z</time>
      </trkpt>
      <trkpt lat="42.83017" lon="0.1818">
        <ele>2337.1</ele>
        <time>2009-03-14T11:54:31Z</time>
      </trkpt>
      <trkpt lat="42.83017" lon="0.1818">
        <ele>2337.58</ele>
        <time>2009-03-14T11:54:34Z</time>
      </trkpt>
      <trkpt lat="42.8302" lon="0.18182">
        <ele>2338.54</ele>
        <time>2009-03-14T11:54:42Z</time>
      </trkpt>
      <trkpt lat="42.83024" lon="0.18183">
        <ele>2339.51</ele>
        <time>2009-03-14T11:54:53Z</time>
      </trkpt>
      <trkpt lat="42.83028" lon="0.18182">
        <ele>2340.95</ele>
        <time>2009-03-14T11:55:04Z</time>
      </trkpt>
      <trkpt lat="42.83027" lon="0.18181">
        <ele>2341.43</ele>
        <time>2009-03-14T11:55:14Z</time>
      </trkpt>
      <trkpt lat="42.83029" lon="0.18176">
        <ele>2342.39</ele>
        <time>2009-03-14T11:55:24Z</time>
      </trkpt>
      <trkpt lat="42.83032" lon="0.18175">
        <ele>2344.31</ele>
        <time>2009-03-14T11:55:36Z</time>
      </trkpt>
      <trkpt lat="42.83034" lon="0.18175">
        <ele>2346.23</ele>
        <time>2009-03-14T11:55:45Z</time>
      </trkpt>
      <trkpt lat="42.83037" lon="0.18175">
        <ele>2347.2</ele>
        <time>2009-03-14T11:55:58Z</time>
      </trkpt>
      <trkpt lat="42.8304" lon="0.1817">
        <ele>2347.68</ele>
        <time>2009-03-14T11:56:07Z</time>
      </trkpt>
      <trkpt lat="42.83042" lon="0.18165">
        <ele>2347.2</ele>
        <time>2009-03-14T11:56:19Z</time>
      </trkpt>
      <trkpt lat="42.83045" lon="0.18161">
        <ele>2348.16</ele>
        <time>2009-03-14T11:56:32Z</time>
      </trkpt>
      <trkpt lat="42.83048" lon="0.18156">
        <ele>2349.12</ele>
        <time>2009-03-14T11:56:43Z</time>
      </trkpt>
      <trkpt lat="42.83052" lon="0.18149">
        <ele>2351.04</ele>
        <time>2009-03-14T11:56:53Z</time>
      </trkpt>
      <trkpt lat="42.83052" lon="0.18147">
        <ele>2350.56</ele>
        <time>2009-03-14T11:56:55Z</time>
      </trkpt>
      <trkpt lat="42.83053" lon="0.18143">
        <ele>2350.56</ele>
        <time>2009-03-14T11:57:05Z</time>
      </trkpt>
      <trkpt lat="42.83054" lon="0.18143">
        <ele>2351.52</ele>
        <time>2009-03-14T11:57:21Z</time>
      </trkpt>
      <trkpt lat="42.83054" lon="0.18145">
        <ele>2352.48</ele>
        <time>2009-03-14T11:57:31Z</time>
      </trkpt>
      <trkpt lat="42.83054" lon="0.18145">
        <ele>2352.48</ele>
        <time>2009-03-14T11:58:08Z</time>
      </trkpt>
      <trkpt lat="42.83055" lon="0.18149">
        <ele>2352.96</ele>
        <time>2009-03-14T11:58:17Z</time>
      </trkpt>
      <trkpt lat="42.83055" lon="0.18151">
        <ele>2352.96</ele>
        <time>2009-03-14T11:58:19Z</time>
      </trkpt>
      <trkpt lat="42.83056" lon="0.1816">
        <ele>2354.89</ele>
        <time>2009-03-14T11:58:28Z</time>
      </trkpt>
      <trkpt lat="42.83058" lon="0.18165">
        <ele>2355.85</ele>
        <time>2009-03-14T11:58:38Z</time>
      </trkpt>
      <trkpt lat="42.8306" lon="0.18163">
        <ele>2357.29</ele>
        <time>2009-03-14T11:58:50Z</time>
      </trkpt>
      <trkpt lat="42.8306" lon="0.18159">
        <ele>2357.29</ele>
        <time>2009-03-14T11:58:59Z</time>
      </trkpt>
      <trkpt lat="42.83061" lon="0.18157">
        <ele>2358.73</ele>
        <time>2009-03-14T11:59:11Z</time>
      </trkpt>
      <trkpt lat="42.83061" lon="0.18156">
        <ele>2358.73</ele>
        <time>2009-03-14T11:59:24Z</time>
      </trkpt>
      <trkpt lat="42.83062" lon="0.18156">
        <ele>2359.21</ele>
        <time>2009-03-14T11:59:34Z</time>
      </trkpt>
      <trkpt lat="42.83063" lon="0.18159">
        <ele>2360.65</ele>
        <time>2009-03-14T11:59:43Z</time>
      </trkpt>
      <trkpt lat="42.83065" lon="0.18158">
        <ele>2361.14</ele>
        <time>2009-03-14T11:59:53Z</time>
      </trkpt>
      <trkpt lat="42.83066" lon="0.18156">
        <ele>2362.58</ele>
        <time>2009-03-14T12:00:03Z</time>
      </trkpt>
      <trkpt lat="42.83071" lon="0.18154">
        <ele>2364.5</ele>
        <time>2009-03-14T12:00:13Z</time>
      </trkpt>
      <trkpt lat="42.83073" lon="0.18155">
        <ele>2365.46</ele>
        <time>2009-03-14T12:00:23Z</time>
      </trkpt>
      <trkpt lat="42.83073" lon="0.18155">
        <ele>2366.9</ele>
        <time>2009-03-14T12:00:49Z</time>
      </trkpt>
      <trkpt lat="42.83073" lon="0.18155">
        <ele>2365.46</ele>
        <time>2009-03-14T12:02:03Z</time>
      </trkpt>
      <trkpt lat="42.83074" lon="0.18155">
        <ele>2365.46</ele>
        <time>2009-03-14T12:02:35Z</time>
      </trkpt>
      <trkpt lat="42.83075" lon="0.18153">
        <ele>2366.9</ele>
        <time>2009-03-14T12:02:44Z</time>
      </trkpt>
      <trkpt lat="42.8308" lon="0.18148">
        <ele>2368.83</ele>
        <time>2009-03-14T12:02:57Z</time>
      </trkpt>
      <trkpt lat="42.83082" lon="0.18148">
        <ele>2369.79</ele>
        <time>2009-03-14T12:03:06Z</time>
      </trkpt>
      <trkpt lat="42.83087" lon="0.1815">
        <ele>2371.23</ele>
        <time>2009-03-14T12:03:17Z</time>
      </trkpt>
      <trkpt lat="42.8309" lon="0.18149">
        <ele>2373.63</ele>
        <time>2009-03-14T12:03:30Z</time>
      </trkpt>
      <trkpt lat="42.83093" lon="0.18147">
        <ele>2375.55</ele>
        <time>2009-03-14T12:03:41Z</time>
      </trkpt>
      <trkpt lat="42.83096" lon="0.18146">
        <ele>2377</ele>
        <time>2009-03-14T12:04:02Z</time>
      </trkpt>
      <trkpt lat="42.83096" lon="0.18146">
        <ele>2377.48</ele>
        <time>2009-03-14T12:04:18Z</time>
      </trkpt>
      <trkpt lat="42.83098" lon="0.18145">
        <ele>2377.48</ele>
        <time>2009-03-14T12:05:02Z</time>
      </trkpt>
      <trkpt lat="42.83103" lon="0.18146">
        <ele>2378.92</ele>
        <time>2009-03-14T12:05:13Z</time>
      </trkpt>
      <trkpt lat="42.83106" lon="0.18146">
        <ele>2379.88</ele>
        <time>2009-03-14T12:05:24Z</time>
      </trkpt>
      <trkpt lat="42.83109" lon="0.18147">
        <ele>2381.32</ele>
        <time>2009-03-14T12:05:38Z</time>
      </trkpt>
      <trkpt lat="42.83108" lon="0.18144">
        <ele>2382.28</ele>
        <time>2009-03-14T12:05:49Z</time>
      </trkpt>
      <trkpt lat="42.83108" lon="0.1814">
        <ele>2384.21</ele>
        <time>2009-03-14T12:05:57Z</time>
      </trkpt>
      <trkpt lat="42.83108" lon="0.18136">
        <ele>2384.21</ele>
        <time>2009-03-14T12:06:10Z</time>
      </trkpt>
      <trkpt lat="42.83111" lon="0.18138">
        <ele>2386.13</ele>
        <time>2009-03-14T12:06:24Z</time>
      </trkpt>
      <trkpt lat="42.83114" lon="0.1814">
        <ele>2386.61</ele>
        <time>2009-03-14T12:06:39Z</time>
      </trkpt>
      <trkpt lat="42.83113" lon="0.18137">
        <ele>2388.05</ele>
        <time>2009-03-14T12:06:49Z</time>
      </trkpt>
      <trkpt lat="42.83114" lon="0.18135">
        <ele>2389.01</ele>
        <time>2009-03-14T12:06:59Z</time>
      </trkpt>
      <trkpt lat="42.83114" lon="0.18135">
        <ele>2389.01</ele>
        <time>2009-03-14T12:07:09Z</time>
      </trkpt>
      <trkpt lat="42.83114" lon="0.18134">
        <ele>2388.53</ele>
        <time>2009-03-14T12:07:29Z</time>
      </trkpt>
      <trkpt lat="42.83114" lon="0.18134">
        <ele>2389.49</ele>
        <time>2009-03-14T12:07:40Z</time>
      </trkpt>
      <trkpt lat="42.83114" lon="0.18134">
        <ele>2389.49</ele>
        <time>2009-03-14T12:07:50Z</time>
      </trkpt>
      <trkpt lat="42.83114" lon="0.18134">
        <ele>2389.01</ele>
        <time>2009-03-14T12:08:15Z</time>
      </trkpt>
      <trkpt lat="42.83115" lon="0.18134">
        <ele>2389.49</ele>
        <time>2009-03-14T12:09:11Z</time>
      </trkpt>
      <trkpt lat="42.83115" lon="0.18134">
        <ele>2389.97</ele>
        <time>2009-03-14T12:09:47Z</time>
      </trkpt>
      <trkpt lat="42.83115" lon="0.18134">
        <ele>2389.97</ele>
        <time>2009-03-14T12:10:02Z</time>
      </trkpt>
      <trkpt lat="42.83115" lon="0.18134">
        <ele>2390.46</ele>
        <time>2009-03-14T12:10:03Z</time>
      </trkpt>
      <trkpt lat="42.83116" lon="0.18135">
        <ele>2389.97</ele>
        <time>2009-03-14T12:10:16Z</time>
      </trkpt>
      <trkpt lat="42.83116" lon="0.18135">
        <ele>2389.97</ele>
        <time>2009-03-14T12:10:43Z</time>
      </trkpt>
      <trkpt lat="42.83116" lon="0.18135">
        <ele>2389.97</ele>
        <time>2009-03-14T12:11:48Z</time>
      </trkpt>
      <trkpt lat="42.83116" lon="0.18135">
        <ele>2389.49</ele>
        <time>2009-03-14T12:12:16Z</time>
      </trkpt>
      <trkpt lat="42.83116" lon="0.18135">
        <ele>2389.97</ele>
        <time>2009-03-14T12:12:38Z</time>
      </trkpt>
      <trkpt lat="42.83117" lon="0.18136">
        <ele>2389.97</ele>
        <time>2009-03-14T12:12:52Z</time>
      </trkpt>
      <trkpt lat="42.8312" lon="0.18137">
        <ele>2390.94</ele>
        <time>2009-03-14T12:13:03Z</time>
      </trkpt>
      <trkpt lat="42.83124" lon="0.18138">
        <ele>2392.38</ele>
        <time>2009-03-14T12:13:14Z</time>
      </trkpt>
      <trkpt lat="42.83132" lon="0.1814">
        <ele>2394.3</ele>
        <time>2009-03-14T12:13:25Z</time>
      </trkpt>
      <trkpt lat="42.83136" lon="0.18142">
        <ele>2395.26</ele>
        <time>2009-03-14T12:13:36Z</time>
      </trkpt>
      <trkpt lat="42.83138" lon="0.18141">
        <ele>2395.74</ele>
        <time>2009-03-14T12:13:47Z</time>
      </trkpt>
      <trkpt lat="42.83141" lon="0.18138">
        <ele>2396.7</ele>
        <time>2009-03-14T12:13:58Z</time>
      </trkpt>
      <trkpt lat="42.83142" lon="0.18138">
        <ele>2397.18</ele>
        <time>2009-03-14T12:14:10Z</time>
      </trkpt>
      <trkpt lat="42.83142" lon="0.18143">
        <ele>2399.11</ele>
        <time>2009-03-14T12:14:21Z</time>
      </trkpt>
      <trkpt lat="42.83145" lon="0.18144">
        <ele>2400.07</ele>
        <time>2009-03-14T12:14:30Z</time>
      </trkpt>
      <trkpt lat="42.83146" lon="0.18144">
        <ele>2400.55</ele>
        <time>2009-03-14T12:14:40Z</time>
      </trkpt>
      <trkpt lat="42.83147" lon="0.18144">
        <ele>2401.03</ele>
        <time>2009-03-14T12:14:54Z</time>
      </trkpt>
      <trkpt lat="42.83147" lon="0.18144">
        <ele>2401.51</ele>
        <time>2009-03-14T12:15:20Z</time>
      </trkpt>
      <trkpt lat="42.83148" lon="0.18144">
        <ele>2401.51</ele>
        <time>2009-03-14T12:16:04Z</time>
      </trkpt>
      <trkpt lat="42.83148" lon="0.18144">
        <ele>2401.03</ele>
        <time>2009-03-14T12:16:55Z</time>
      </trkpt>
      <trkpt lat="42.83148" lon="0.18143">
        <ele>2401.51</ele>
        <time>2009-03-14T12:17:30Z</time>
      </trkpt>
      <trkpt lat="42.83149" lon="0.18143">
        <ele>2401.99</ele>
        <time>2009-03-14T12:18:08Z</time>
      </trkpt>
      <trkpt lat="42.83152" lon="0.18145">
        <ele>2402.47</ele>
        <time>2009-03-14T12:18:34Z</time>
      </trkpt>
      <trkpt lat="42.83157" lon="0.18147">
        <ele>2404.39</ele>
        <time>2009-03-14T12:18:45Z</time>
      </trkpt>
      <trkpt lat="42.83164" lon="0.18151">
        <ele>2406.32</ele>
        <time>2009-03-14T12:18:57Z</time>
      </trkpt>
      <trkpt lat="42.83173" lon="0.18156">
        <ele>2409.2</ele>
        <time>2009-03-14T12:19:10Z</time>
      </trkpt>
      <trkpt lat="42.83176" lon="0.18155">
        <ele>2410.16</ele>
        <time>2009-03-14T12:19:20Z</time>
      </trkpt>
      <trkpt lat="42.83176" lon="0.18154">
        <ele>2411.12</ele>
        <time>2009-03-14T12:19:34Z</time>
      </trkpt>
      <trkpt lat="42.83176" lon="0.18152">
        <ele>2411.6</ele>
        <time>2009-03-14T12:19:45Z</time>
      </trkpt>
      <trkpt lat="42.83177" lon="0.18151">
        <ele>2412.57</ele>
        <time>2009-03-14T12:19:58Z</time>
      </trkpt>
      <trkpt lat="42.8318" lon="0.1815">
        <ele>2413.53</ele>
        <time>2009-03-14T12:20:04Z</time>
      </trkpt>
      <trkpt lat="42.83182" lon="0.1815">
        <ele>2414.01</ele>
        <time>2009-03-14T12:20:15Z</time>
      </trkpt>
      <trkpt lat="42.83183" lon="0.18149">
        <ele>2414.97</ele>
        <time>2009-03-14T12:20:31Z</time>
      </trkpt>
      <trkpt lat="42.83182" lon="0.18146">
        <ele>2415.45</ele>
        <time>2009-03-14T12:20:42Z</time>
      </trkpt>
      <trkpt lat="42.83183" lon="0.18138">
        <ele>2417.85</ele>
        <time>2009-03-14T12:20:55Z</time>
      </trkpt>
      <trkpt lat="42.83185" lon="0.18136">
        <ele>2421.22</ele>
        <time>2009-03-14T12:21:09Z</time>
      </trkpt>
      <trkpt lat="42.8319" lon="0.18136">
        <ele>2422.18</ele>
        <time>2009-03-14T12:21:21Z</time>
      </trkpt>
      <trkpt lat="42.83193" lon="0.18136">
        <ele>2422.66</ele>
        <time>2009-03-14T12:21:37Z</time>
      </trkpt>
      <trkpt lat="42.83195" lon="0.18137">
        <ele>2423.62</ele>
        <time>2009-03-14T12:21:59Z</time>
      </trkpt>
      <trkpt lat="42.83196" lon="0.18137">
        <ele>2424.1</ele>
        <time>2009-03-14T12:22:19Z</time>
      </trkpt>
      <trkpt lat="42.83203" lon="0.18137">
        <ele>2425.54</ele>
        <time>2009-03-14T12:22:42Z</time>
      </trkpt>
      <trkpt lat="42.83207" lon="0.18137">
        <ele>2426.99</ele>
        <time>2009-03-14T12:22:53Z</time>
      </trkpt>
      <trkpt lat="42.83207" lon="0.18136">
        <ele>2427.47</ele>
        <time>2009-03-14T12:23:07Z</time>
      </trkpt>
      <trkpt lat="42.83204" lon="0.18126">
        <ele>2428.91</ele>
        <time>2009-03-14T12:23:18Z</time>
      </trkpt>
      <trkpt lat="42.83204" lon="0.18127">
        <ele>2429.39</ele>
        <time>2009-03-14T12:23:30Z</time>
      </trkpt>
      <trkpt lat="42.83208" lon="0.18127">
        <ele>2432.27</ele>
        <time>2009-03-14T12:23:46Z</time>
      </trkpt>
      <trkpt lat="42.83215" lon="0.18126">
        <ele>2434.2</ele>
        <time>2009-03-14T12:23:59Z</time>
      </trkpt>
      <trkpt lat="42.83216" lon="0.18122">
        <ele>2435.64</ele>
        <time>2009-03-14T12:24:07Z</time>
      </trkpt>
      <trkpt lat="42.83215" lon="0.18112">
        <ele>2437.56</ele>
        <time>2009-03-14T12:24:18Z</time>
      </trkpt>
      <trkpt lat="42.83218" lon="0.18111">
        <ele>2439</ele>
        <time>2009-03-14T12:24:27Z</time>
      </trkpt>
      <trkpt lat="42.83222" lon="0.18112">
        <ele>2440.44</ele>
        <time>2009-03-14T12:24:38Z</time>
      </trkpt>
      <trkpt lat="42.8323" lon="0.18113">
        <ele>2442.85</ele>
        <time>2009-03-14T12:24:52Z</time>
      </trkpt>
      <trkpt lat="42.83235" lon="0.18113">
        <ele>2444.29</ele>
        <time>2009-03-14T12:25:03Z</time>
      </trkpt>
      <trkpt lat="42.83239" lon="0.18113">
        <ele>2445.73</ele>
        <time>2009-03-14T12:25:13Z</time>
      </trkpt>
      <trkpt lat="42.83241" lon="0.18114">
        <ele>2446.21</ele>
        <time>2009-03-14T12:25:22Z</time>
      </trkpt>
      <trkpt lat="42.83241" lon="0.18112">
        <ele>2447.17</ele>
        <time>2009-03-14T12:25:34Z</time>
      </trkpt>
      <trkpt lat="42.83239" lon="0.18107">
        <ele>2448.13</ele>
        <time>2009-03-14T12:25:44Z</time>
      </trkpt>
      <trkpt lat="42.83239" lon="0.18106">
        <ele>2449.1</ele>
        <time>2009-03-14T12:26:04Z</time>
      </trkpt>
      <trkpt lat="42.83239" lon="0.18106">
        <ele>2449.58</ele>
        <time>2009-03-14T12:26:38Z</time>
      </trkpt>
      <trkpt lat="42.83241" lon="0.18103">
        <ele>2451.02</ele>
        <time>2009-03-14T12:26:49Z</time>
      </trkpt>
      <trkpt lat="42.83249" lon="0.18105">
        <ele>2452.94</ele>
        <time>2009-03-14T12:27:01Z</time>
      </trkpt>
      <trkpt lat="42.83254" lon="0.18105">
        <ele>2454.38</ele>
        <time>2009-03-14T12:27:11Z</time>
      </trkpt>
      <trkpt lat="42.83259" lon="0.18104">
        <ele>2456.31</ele>
        <time>2009-03-14T12:27:22Z</time>
      </trkpt>
      <trkpt lat="42.83264" lon="0.18103">
        <ele>2458.23</ele>
        <time>2009-03-14T12:27:31Z</time>
      </trkpt>
      <trkpt lat="42.83269" lon="0.18103">
        <ele>2460.15</ele>
        <time>2009-03-14T12:27:47Z</time>
      </trkpt>
      <trkpt lat="42.83275" lon="0.18103">
        <ele>2461.59</ele>
        <time>2009-03-14T12:27:58Z</time>
      </trkpt>
      <trkpt lat="42.83276" lon="0.18104">
        <ele>2462.55</ele>
        <time>2009-03-14T12:28:13Z</time>
      </trkpt>
      <trkpt lat="42.83281" lon="0.18101">
        <ele>2464.48</ele>
        <time>2009-03-14T12:28:27Z</time>
      </trkpt>
      <trkpt lat="42.83282" lon="0.18099">
        <ele>2464.48</ele>
        <time>2009-03-14T12:28:38Z</time>
      </trkpt>
      <trkpt lat="42.83283" lon="0.18101">
        <ele>2465.92</ele>
        <time>2009-03-14T12:28:50Z</time>
      </trkpt>
      <trkpt lat="42.83287" lon="0.18105">
        <ele>2467.84</ele>
        <time>2009-03-14T12:28:59Z</time>
      </trkpt>
      <trkpt lat="42.83288" lon="0.18103">
        <ele>2467.84</ele>
        <time>2009-03-14T12:29:04Z</time>
      </trkpt>
      <trkpt lat="42.8329" lon="0.18099">
        <ele>2469.28</ele>
        <time>2009-03-14T12:29:08Z</time>
      </trkpt>
      <trkpt lat="42.83294" lon="0.18092">
        <ele>2470.73</ele>
        <time>2009-03-14T12:29:20Z</time>
      </trkpt>
      <trkpt lat="42.83295" lon="0.1809">
        <ele>2470.73</ele>
        <time>2009-03-14T12:29:38Z</time>
      </trkpt>
      <trkpt lat="42.83297" lon="0.18088">
        <ele>2470.73</ele>
        <time>2009-03-14T12:29:48Z</time>
      </trkpt>
      <trkpt lat="42.83297" lon="0.18088">
        <ele>2471.21</ele>
        <time>2009-03-14T12:30:04Z</time>
      </trkpt>
      <trkpt lat="42.83298" lon="0.18089">
        <ele>2470.24</ele>
        <time>2009-03-14T12:30:16Z</time>
      </trkpt>
      <trkpt lat="42.83298" lon="0.1809">
        <ele>2470.73</ele>
        <time>2009-03-14T12:30:34Z</time>
      </trkpt>
      <trkpt lat="42.83298" lon="0.18091">
        <ele>2468.8</ele>
        <time>2009-03-14T12:30:42Z</time>
      </trkpt>
      <trkpt lat="42.83298" lon="0.18091">
        <ele>2468.8</ele>
        <time>2009-03-14T12:30:43Z</time>
      </trkpt>
      <trkpt lat="42.83298" lon="0.18091">
        <ele>2471.69</ele>
        <time>2009-03-14T12:37:51Z</time>
      </trkpt>
      <trkpt lat="42.83298" lon="0.18091">
        <ele>2471.21</ele>
        <time>2009-03-14T12:38:46Z</time>
      </trkpt>
      <trkpt lat="42.83298" lon="0.18091">
        <ele>2471.21</ele>
        <time>2009-03-14T12:41:13Z</time>
      </trkpt>
      <trkpt lat="42.83298" lon="0.18091">
        <ele>2470.24</ele>
        <time>2009-03-14T12:41:35Z</time>
      </trkpt>
      <trkpt lat="42.83298" lon="0.18091">
        <ele>2470.73</ele>
        <time>2009-03-14T12:41:43Z</time>
      </trkpt>
      <trkpt lat="42.83298" lon="0.18091">
        <ele>2473.61</ele>
        <time>2009-03-14T12:41:45Z</time>
      </trkpt>
      <trkpt lat="42.83298" lon="0.18091">
        <ele>2469.76</ele>
        <time>2009-03-14T12:41:47Z</time>
      </trkpt>
      <trkpt lat="42.83298" lon="0.18091">
        <ele>2470.24</ele>
        <time>2009-03-14T12:41:48Z</time>
      </trkpt>
      <trkpt lat="42.83298" lon="0.18091">
        <ele>2469.76</ele>
        <time>2009-03-14T12:42:48Z</time>
      </trkpt>
      <trkpt lat="42.83298" lon="0.18092">
        <ele>2471.21</ele>
        <time>2009-03-14T12:53:08Z</time>
      </trkpt>
      <trkpt lat="42.83298" lon="0.18092">
        <ele>2464.96</ele>
        <time>2009-03-14T12:54:57Z</time>
      </trkpt>
      <trkpt lat="42.83298" lon="0.18092">
        <ele>2471.21</ele>
        <time>2009-03-14T12:54:58Z</time>
      </trkpt>
      <trkpt lat="42.83297" lon="0.18091">
        <ele>2468.8</ele>
        <time>2009-03-14T13:06:46Z</time>
      </trkpt>
      <trkpt lat="42.83297" lon="0.18091">
        <ele>2469.76</ele>
        <time>2009-03-14T13:10:20Z</time>
      </trkpt>
      <trkpt lat="42.83298" lon="0.18091">
        <ele>2473.13</ele>
        <time>2009-03-14T13:11:37Z</time>
      </trkpt>
      <trkpt lat="42.83298" lon="0.18091">
        <ele>2472.65</ele>
        <time>2009-03-14T13:11:38Z</time>
      </trkpt>
      <trkpt lat="42.83298" lon="0.18091">
        <ele>2469.28</ele>
        <time>2009-03-14T13:11:41Z</time>
      </trkpt>
      <trkpt lat="42.83298" lon="0.18091">
        <ele>2463.52</ele>
        <time>2009-03-14T13:14:55Z</time>
      </trkpt>
      <trkpt lat="42.83298" lon="0.18091">
        <ele>2470.73</ele>
        <time>2009-03-14T13:14:56Z</time>
      </trkpt>
      <trkpt lat="42.83298" lon="0.18091">
        <ele>2469.76</ele>
        <time>2009-03-14T13:15:25Z</time>
      </trkpt>
      <trkpt lat="42.83299" lon="0.1809">
        <ele>2470.24</ele>
        <time>2009-03-14T13:19:06Z</time>
      </trkpt>
      <trkpt lat="42.83299" lon="0.18091">
        <ele>2471.21</ele>
        <time>2009-03-14T13:19:12Z</time>
      </trkpt>
      <trkpt lat="42.83299" lon="0.18091">
        <ele>2470.73</ele>
        <time>2009-03-14T13:19:30Z</time>
      </trkpt>
      <trkpt lat="42.83299" lon="0.18091">
        <ele>2470.24</ele>
        <time>2009-03-14T13:19:49Z</time>
      </trkpt>
      <trkpt lat="42.83301" lon="0.18086">
        <ele>2469.76</ele>
        <time>2009-03-14T13:20:18Z</time>
      </trkpt>
      <trkpt lat="42.83307" lon="0.18076">
        <ele>2468.8</ele>
        <time>2009-03-14T13:20:21Z</time>
      </trkpt>
      <trkpt lat="42.83308" lon="0.18071">
        <ele>2467.36</ele>
        <time>2009-03-14T13:20:24Z</time>
      </trkpt>
      <trkpt lat="42.83308" lon="0.1807">
        <ele>2466.4</ele>
        <time>2009-03-14T13:20:39Z</time>
      </trkpt>
      <trkpt lat="42.83308" lon="0.1807">
        <ele>2467.36</ele>
        <time>2009-03-14T13:20:55Z</time>
      </trkpt>
      <trkpt lat="42.83308" lon="0.1806">
        <ele>2464.96</ele>
        <time>2009-03-14T13:21:00Z</time>
      </trkpt>
      <trkpt lat="42.83312" lon="0.18048">
        <ele>2462.55</ele>
        <time>2009-03-14T13:21:05Z</time>
      </trkpt>
      <trkpt lat="42.83314" lon="0.18044">
        <ele>2461.59</ele>
        <time>2009-03-14T13:21:06Z</time>
      </trkpt>
      <trkpt lat="42.8332" lon="0.18029">
        <ele>2458.23</ele>
        <time>2009-03-14T13:21:10Z</time>
      </trkpt>
      <trkpt lat="42.83325" lon="0.18021">
        <ele>2455.34</ele>
        <time>2009-03-14T13:21:13Z</time>
      </trkpt>
      <trkpt lat="42.83325" lon="0.1802">
        <ele>2454.38</ele>
        <time>2009-03-14T13:21:23Z</time>
      </trkpt>
      <trkpt lat="42.83325" lon="0.18019">
        <ele>2454.38</ele>
        <time>2009-03-14T13:21:40Z</time>
      </trkpt>
      <trkpt lat="42.83324" lon="0.18016">
        <ele>2453.9</ele>
        <time>2009-03-14T13:21:48Z</time>
      </trkpt>
      <trkpt lat="42.83324" lon="0.18015">
        <ele>2453.42</ele>
        <time>2009-03-14T13:21:58Z</time>
      </trkpt>
      <trkpt lat="42.83314" lon="0.18022">
        <ele>2450.06</ele>
        <time>2009-03-14T13:22:04Z</time>
      </trkpt>
      <trkpt lat="42.83312" lon="0.18023">
        <ele>2449.1</ele>
        <time>2009-03-14T13:22:05Z</time>
      </trkpt>
      <trkpt lat="42.8331" lon="0.1801">
        <ele>2443.81</ele>
        <time>2009-03-14T13:22:09Z</time>
      </trkpt>
      <trkpt lat="42.83311" lon="0.18007">
        <ele>2442.37</ele>
        <time>2009-03-14T13:22:12Z</time>
      </trkpt>
      <trkpt lat="42.83312" lon="0.18003">
        <ele>2441.41</ele>
        <time>2009-03-14T13:22:30Z</time>
      </trkpt>
      <trkpt lat="42.83312" lon="0.18003">
        <ele>2440.92</ele>
        <time>2009-03-14T13:22:34Z</time>
      </trkpt>
      <trkpt lat="42.83313" lon="0.17999">
        <ele>2440.44</ele>
        <time>2009-03-14T13:22:52Z</time>
      </trkpt>
      <trkpt lat="42.83314" lon="0.17996">
        <ele>2439</ele>
        <time>2009-03-14T13:23:01Z</time>
      </trkpt>
      <trkpt lat="42.83314" lon="0.17996">
        <ele>2439</ele>
        <time>2009-03-14T13:23:14Z</time>
      </trkpt>
      <trkpt lat="42.83315" lon="0.17995">
        <ele>2439.48</ele>
        <time>2009-03-14T13:24:40Z</time>
      </trkpt>
      <trkpt lat="42.83314" lon="0.17992">
        <ele>2438.04</ele>
        <time>2009-03-14T13:24:50Z</time>
      </trkpt>
      <trkpt lat="42.8332" lon="0.17977">
        <ele>2434.2</ele>
        <time>2009-03-14T13:24:54Z</time>
      </trkpt>
      <trkpt lat="42.83322" lon="0.17969">
        <ele>2432.27</ele>
        <time>2009-03-14T13:24:56Z</time>
      </trkpt>
      <trkpt lat="42.83316" lon="0.1796">
        <ele>2426.99</ele>
        <time>2009-03-14T13:24:59Z</time>
      </trkpt>
      <trkpt lat="42.83316" lon="0.17955">
        <ele>2423.62</ele>
        <time>2009-03-14T13:25:00Z</time>
      </trkpt>
      <trkpt lat="42.83312" lon="0.1795">
        <ele>2419.3</ele>
        <time>2009-03-14T13:25:02Z</time>
      </trkpt>
      <trkpt lat="42.83305" lon="0.17946">
        <ele>2414.97</ele>
        <time>2009-03-14T13:25:04Z</time>
      </trkpt>
      <trkpt lat="42.83305" lon="0.17943">
        <ele>2412.09</ele>
        <time>2009-03-14T13:25:05Z</time>
      </trkpt>
      <trkpt lat="42.83307" lon="0.17941">
        <ele>2410.16</ele>
        <time>2009-03-14T13:25:07Z</time>
      </trkpt>
      <trkpt lat="42.83307" lon="0.1794">
        <ele>2410.16</ele>
        <time>2009-03-14T13:25:20Z</time>
      </trkpt>
      <trkpt lat="42.83307" lon="0.1794">
        <ele>2410.16</ele>
        <time>2009-03-14T13:25:29Z</time>
      </trkpt>
      <trkpt lat="42.83312" lon="0.17931">
        <ele>2406.8</ele>
        <time>2009-03-14T13:25:35Z</time>
      </trkpt>
      <trkpt lat="42.83313" lon="0.17929">
        <ele>2407.28</ele>
        <time>2009-03-14T13:25:43Z</time>
      </trkpt>
      <trkpt lat="42.83314" lon="0.17928">
        <ele>2407.76</ele>
        <time>2009-03-14T13:25:48Z</time>
      </trkpt>
      <trkpt lat="42.83316" lon="0.17917">
        <ele>2403.91</ele>
        <time>2009-03-14T13:25:56Z</time>
      </trkpt>
      <trkpt lat="42.83316" lon="0.17916">
        <ele>2402.47</ele>
        <time>2009-03-14T13:25:59Z</time>
      </trkpt>
      <trkpt lat="42.83321" lon="0.17903">
        <ele>2400.55</ele>
        <time>2009-03-14T13:26:17Z</time>
      </trkpt>
      <trkpt lat="42.83327" lon="0.17888">
        <ele>2395.26</ele>
        <time>2009-03-14T13:26:20Z</time>
      </trkpt>
      <trkpt lat="42.8333" lon="0.17878">
        <ele>2392.38</ele>
        <time>2009-03-14T13:26:22Z</time>
      </trkpt>
      <trkpt lat="42.83333" lon="0.17865">
        <ele>2387.57</ele>
        <time>2009-03-14T13:26:24Z</time>
      </trkpt>
      <trkpt lat="42.83337" lon="0.17852">
        <ele>2384.21</ele>
        <time>2009-03-14T13:26:26Z</time>
      </trkpt>
      <trkpt lat="42.8334" lon="0.1784">
        <ele>2380.84</ele>
        <time>2009-03-14T13:26:28Z</time>
      </trkpt>
      <trkpt lat="42.83348" lon="0.17816">
        <ele>2374.59</ele>
        <time>2009-03-14T13:26:32Z</time>
      </trkpt>
      <trkpt lat="42.83351" lon="0.17806">
        <ele>2371.23</ele>
        <time>2009-03-14T13:26:34Z</time>
      </trkpt>
      <trkpt lat="42.83354" lon="0.17797">
        <ele>2366.9</ele>
        <time>2009-03-14T13:26:37Z</time>
      </trkpt>
      <trkpt lat="42.83354" lon="0.17795">
        <ele>2366.42</ele>
        <time>2009-03-14T13:26:38Z</time>
      </trkpt>
      <trkpt lat="42.83357" lon="0.17784">
        <ele>2364.02</ele>
        <time>2009-03-14T13:26:41Z</time>
      </trkpt>
      <trkpt lat="42.83361" lon="0.17768">
        <ele>2358.73</ele>
        <time>2009-03-14T13:26:44Z</time>
      </trkpt>
      <trkpt lat="42.83364" lon="0.17758">
        <ele>2355.37</ele>
        <time>2009-03-14T13:26:48Z</time>
      </trkpt>
      <trkpt lat="42.83365" lon="0.17756">
        <ele>2355.37</ele>
        <time>2009-03-14T13:26:49Z</time>
      </trkpt>
      <trkpt lat="42.83367" lon="0.17751">
        <ele>2353.93</ele>
        <time>2009-03-14T13:26:59Z</time>
      </trkpt>
      <trkpt lat="42.83367" lon="0.17752">
        <ele>2354.41</ele>
        <time>2009-03-14T13:27:23Z</time>
      </trkpt>
      <trkpt lat="42.83367" lon="0.17751">
        <ele>2353.93</ele>
        <time>2009-03-14T13:27:27Z</time>
      </trkpt>
      <trkpt lat="42.83368" lon="0.1774">
        <ele>2350.56</ele>
        <time>2009-03-14T13:27:30Z</time>
      </trkpt>
      <trkpt lat="42.83368" lon="0.17731">
        <ele>2347.2</ele>
        <time>2009-03-14T13:27:33Z</time>
      </trkpt>
      <trkpt lat="42.83368" lon="0.17725">
        <ele>2343.83</ele>
        <time>2009-03-14T13:27:36Z</time>
      </trkpt>
      <trkpt lat="42.83367" lon="0.17715">
        <ele>2339.51</ele>
        <time>2009-03-14T13:27:41Z</time>
      </trkpt>
      <trkpt lat="42.83367" lon="0.17713">
        <ele>2338.06</ele>
        <time>2009-03-14T13:27:42Z</time>
      </trkpt>
      <trkpt lat="42.83372" lon="0.17703">
        <ele>2335.66</ele>
        <time>2009-03-14T13:27:53Z</time>
      </trkpt>
      <trkpt lat="42.83377" lon="0.17695">
        <ele>2334.7</ele>
        <time>2009-03-14T13:28:02Z</time>
      </trkpt>
      <trkpt lat="42.83379" lon="0.17691">
        <ele>2333.26</ele>
        <time>2009-03-14T13:28:10Z</time>
      </trkpt>
      <trkpt lat="42.83378" lon="0.17689">
        <ele>2331.81</ele>
        <time>2009-03-14T13:28:16Z</time>
      </trkpt>
      <trkpt lat="42.83378" lon="0.17687">
        <ele>2331.33</ele>
        <time>2009-03-14T13:28:26Z</time>
      </trkpt>
      <trkpt lat="42.8338" lon="0.17685">
        <ele>2330.37</ele>
        <time>2009-03-14T13:28:37Z</time>
      </trkpt>
      <trkpt lat="42.83381" lon="0.17685">
        <ele>2328.93</ele>
        <time>2009-03-14T13:28:50Z</time>
      </trkpt>
      <trkpt lat="42.8338" lon="0.17684">
        <ele>2328.93</ele>
        <time>2009-03-14T13:28:58Z</time>
      </trkpt>
      <trkpt lat="42.83383" lon="0.17678">
        <ele>2327.01</ele>
        <time>2009-03-14T13:29:02Z</time>
      </trkpt>
      <trkpt lat="42.83382" lon="0.17677">
        <ele>2326.05</ele>
        <time>2009-03-14T13:29:08Z</time>
      </trkpt>
      <trkpt lat="42.83383" lon="0.17658">
        <ele>2322.68</ele>
        <time>2009-03-14T13:29:12Z</time>
      </trkpt>
      <trkpt lat="42.8339" lon="0.17631">
        <ele>2319.32</ele>
        <time>2009-03-14T13:29:19Z</time>
      </trkpt>
      <trkpt lat="42.83392" lon="0.17628">
        <ele>2318.36</ele>
        <time>2009-03-14T13:29:21Z</time>
      </trkpt>
      <trkpt lat="42.83392" lon="0.17628">
        <ele>2318.36</ele>
        <time>2009-03-14T13:29:38Z</time>
      </trkpt>
      <trkpt lat="42.83392" lon="0.17628">
        <ele>2318.36</ele>
        <time>2009-03-14T13:30:01Z</time>
      </trkpt>
      <trkpt lat="42.83392" lon="0.17628">
        <ele>2317.88</ele>
        <time>2009-03-14T13:30:36Z</time>
      </trkpt>
      <trkpt lat="42.83392" lon="0.17628">
        <ele>2318.84</ele>
        <time>2009-03-14T13:30:37Z</time>
      </trkpt>
      <trkpt lat="42.83391" lon="0.1762">
        <ele>2315.95</ele>
        <time>2009-03-14T13:30:41Z</time>
      </trkpt>
      <trkpt lat="42.83391" lon="0.17604">
        <ele>2312.11</ele>
        <time>2009-03-14T13:30:47Z</time>
      </trkpt>
      <trkpt lat="42.83392" lon="0.17601">
        <ele>2311.63</ele>
        <time>2009-03-14T13:30:48Z</time>
      </trkpt>
      <trkpt lat="42.83396" lon="0.17571">
        <ele>2308.26</ele>
        <time>2009-03-14T13:30:56Z</time>
      </trkpt>
      <trkpt lat="42.83397" lon="0.1756">
        <ele>2306.82</ele>
        <time>2009-03-14T13:30:58Z</time>
      </trkpt>
      <trkpt lat="42.834" lon="0.17535">
        <ele>2302.01</ele>
        <time>2009-03-14T13:31:02Z</time>
      </trkpt>
      <trkpt lat="42.83402" lon="0.17529">
        <ele>2302.49</ele>
        <time>2009-03-14T13:31:08Z</time>
      </trkpt>
      <trkpt lat="42.83402" lon="0.17527">
        <ele>2302.49</ele>
        <time>2009-03-14T13:31:18Z</time>
      </trkpt>
      <trkpt lat="42.83402" lon="0.17527">
        <ele>2302.01</ele>
        <time>2009-03-14T13:31:47Z</time>
      </trkpt>
      <trkpt lat="42.83402" lon="0.17526">
        <ele>2301.53</ele>
        <time>2009-03-14T13:32:47Z</time>
      </trkpt>
      <trkpt lat="42.83402" lon="0.17526">
        <ele>2301.53</ele>
        <time>2009-03-14T13:33:06Z</time>
      </trkpt>
      <trkpt lat="42.83403" lon="0.17518">
        <ele>2302.01</ele>
        <time>2009-03-14T13:33:16Z</time>
      </trkpt>
      <trkpt lat="42.83405" lon="0.17504">
        <ele>2299.61</ele>
        <time>2009-03-14T13:33:20Z</time>
      </trkpt>
      <trkpt lat="42.83406" lon="0.17491">
        <ele>2295.77</ele>
        <time>2009-03-14T13:33:25Z</time>
      </trkpt>
      <trkpt lat="42.83407" lon="0.17491">
        <ele>2294.8</ele>
        <time>2009-03-14T13:33:37Z</time>
      </trkpt>
      <trkpt lat="42.83407" lon="0.17491">
        <ele>2294.32</ele>
        <time>2009-03-14T13:34:14Z</time>
      </trkpt>
      <trkpt lat="42.83409" lon="0.17481">
        <ele>2292.4</ele>
        <time>2009-03-14T13:34:19Z</time>
      </trkpt>
      <trkpt lat="42.83408" lon="0.17477">
        <ele>2290.96</ele>
        <time>2009-03-14T13:34:22Z</time>
      </trkpt>
      <trkpt lat="42.83409" lon="0.17472">
        <ele>2290.48</ele>
        <time>2009-03-14T13:34:37Z</time>
      </trkpt>
      <trkpt lat="42.83408" lon="0.17471">
        <ele>2289.52</ele>
        <time>2009-03-14T13:34:42Z</time>
      </trkpt>
      <trkpt lat="42.83408" lon="0.17467">
        <ele>2288.56</ele>
        <time>2009-03-14T13:34:44Z</time>
      </trkpt>
      <trkpt lat="42.83409" lon="0.17458">
        <ele>2286.15</ele>
        <time>2009-03-14T13:34:48Z</time>
      </trkpt>
      <trkpt lat="42.83414" lon="0.17444">
        <ele>2285.19</ele>
        <time>2009-03-14T13:34:59Z</time>
      </trkpt>
      <trkpt lat="42.83417" lon="0.17428">
        <ele>2283.27</ele>
        <time>2009-03-14T13:35:04Z</time>
      </trkpt>
      <trkpt lat="42.8342" lon="0.17417">
        <ele>2281.35</ele>
        <time>2009-03-14T13:35:12Z</time>
      </trkpt>
      <trkpt lat="42.83421" lon="0.17417">
        <ele>2281.35</ele>
        <time>2009-03-14T13:35:21Z</time>
      </trkpt>
      <trkpt lat="42.83423" lon="0.17403">
        <ele>2278.46</ele>
        <time>2009-03-14T13:35:27Z</time>
      </trkpt>
      <trkpt lat="42.83425" lon="0.17396">
        <ele>2277.5</ele>
        <time>2009-03-14T13:35:37Z</time>
      </trkpt>
      <trkpt lat="42.83425" lon="0.17395">
        <ele>2276.06</ele>
        <time>2009-03-14T13:35:48Z</time>
      </trkpt>
      <trkpt lat="42.83424" lon="0.17393">
        <ele>2275.58</ele>
        <time>2009-03-14T13:35:50Z</time>
      </trkpt>
      <trkpt lat="42.83422" lon="0.17393">
        <ele>2273.66</ele>
        <time>2009-03-14T13:35:57Z</time>
      </trkpt>
      <trkpt lat="42.83422" lon="0.17392">
        <ele>2273.17</ele>
        <time>2009-03-14T13:36:06Z</time>
      </trkpt>
      <trkpt lat="42.83422" lon="0.17392">
        <ele>2272.69</ele>
        <time>2009-03-14T13:36:11Z</time>
      </trkpt>
      <trkpt lat="42.83421" lon="0.17391">
        <ele>2272.21</ele>
        <time>2009-03-14T13:36:14Z</time>
      </trkpt>
      <trkpt lat="42.83422" lon="0.17386">
        <ele>2270.29</ele>
        <time>2009-03-14T13:36:18Z</time>
      </trkpt>
      <trkpt lat="42.83421" lon="0.17385">
        <ele>2269.81</ele>
        <time>2009-03-14T13:36:27Z</time>
      </trkpt>
      <trkpt lat="42.83421" lon="0.17384">
        <ele>2270.29</ele>
        <time>2009-03-14T13:36:28Z</time>
      </trkpt>
      <trkpt lat="42.83422" lon="0.17373">
        <ele>2265.96</ele>
        <time>2009-03-14T13:36:32Z</time>
      </trkpt>
      <trkpt lat="42.83422" lon="0.17373">
        <ele>2265.96</ele>
        <time>2009-03-14T13:36:33Z</time>
      </trkpt>
      <trkpt lat="42.83425" lon="0.17367">
        <ele>2265.96</ele>
        <time>2009-03-14T13:36:44Z</time>
      </trkpt>
      <trkpt lat="42.83425" lon="0.17367">
        <ele>2265.96</ele>
        <time>2009-03-14T13:36:46Z</time>
      </trkpt>
      <trkpt lat="42.83426" lon="0.17359">
        <ele>2264.04</ele>
        <time>2009-03-14T13:36:54Z</time>
      </trkpt>
      <trkpt lat="42.83428" lon="0.17355">
        <ele>2262.6</ele>
        <time>2009-03-14T13:37:05Z</time>
      </trkpt>
      <trkpt lat="42.83429" lon="0.17352">
        <ele>2263.08</ele>
        <time>2009-03-14T13:37:14Z</time>
      </trkpt>
      <trkpt lat="42.83432" lon="0.17346">
        <ele>2262.6</ele>
        <time>2009-03-14T13:37:19Z</time>
      </trkpt>
      <trkpt lat="42.83431" lon="0.17342">
        <ele>2259.24</ele>
        <time>2009-03-14T13:37:29Z</time>
      </trkpt>
      <trkpt lat="42.83432" lon="0.17333">
        <ele>2257.31</ele>
        <time>2009-03-14T13:37:33Z</time>
      </trkpt>
      <trkpt lat="42.83433" lon="0.17331">
        <ele>2256.35</ele>
        <time>2009-03-14T13:37:47Z</time>
      </trkpt>
      <trkpt lat="42.83433" lon="0.1733">
        <ele>2255.87</ele>
        <time>2009-03-14T13:37:59Z</time>
      </trkpt>
      <trkpt lat="42.83434" lon="0.17321">
        <ele>2254.43</ele>
        <time>2009-03-14T13:38:08Z</time>
      </trkpt>
      <trkpt lat="42.83435" lon="0.17317">
        <ele>2252.51</ele>
        <time>2009-03-14T13:38:13Z</time>
      </trkpt>
      <trkpt lat="42.83434" lon="0.17316">
        <ele>2251.54</ele>
        <time>2009-03-14T13:38:18Z</time>
      </trkpt>
      <trkpt lat="42.83438" lon="0.17305">
        <ele>2250.1</ele>
        <time>2009-03-14T13:38:23Z</time>
      </trkpt>
      <trkpt lat="42.83453" lon="0.17273">
        <ele>2245.3</ele>
        <time>2009-03-14T13:38:31Z</time>
      </trkpt>
      <trkpt lat="42.83458" lon="0.1726">
        <ele>2243.85</ele>
        <time>2009-03-14T13:38:34Z</time>
      </trkpt>
      <trkpt lat="42.8346" lon="0.17256">
        <ele>2243.37</ele>
        <time>2009-03-14T13:38:36Z</time>
      </trkpt>
      <trkpt lat="42.8346" lon="0.17256">
        <ele>2243.85</ele>
        <time>2009-03-14T13:38:58Z</time>
      </trkpt>
      <trkpt lat="42.83461" lon="0.17255">
        <ele>2243.37</ele>
        <time>2009-03-14T13:39:15Z</time>
      </trkpt>
      <trkpt lat="42.83461" lon="0.17255">
        <ele>2242.41</ele>
        <time>2009-03-14T13:39:48Z</time>
      </trkpt>
      <trkpt lat="42.83461" lon="0.17255">
        <ele>2243.37</ele>
        <time>2009-03-14T13:40:07Z</time>
      </trkpt>
      <trkpt lat="42.83461" lon="0.17255">
        <ele>2243.85</ele>
        <time>2009-03-14T13:40:27Z</time>
      </trkpt>
      <trkpt lat="42.83461" lon="0.17255">
        <ele>2243.37</ele>
        <time>2009-03-14T13:40:43Z</time>
      </trkpt>
      <trkpt lat="42.83462" lon="0.17252">
        <ele>2243.85</ele>
        <time>2009-03-14T13:40:55Z</time>
      </trkpt>
      <trkpt lat="42.83462" lon="0.1725">
        <ele>2243.37</ele>
        <time>2009-03-14T13:41:00Z</time>
      </trkpt>
      <trkpt lat="42.83464" lon="0.17235">
        <ele>2241.93</ele>
        <time>2009-03-14T13:41:05Z</time>
      </trkpt>
      <trkpt lat="42.83467" lon="0.17216">
        <ele>2237.61</ele>
        <time>2009-03-14T13:41:09Z</time>
      </trkpt>
      <trkpt lat="42.83468" lon="0.17212">
        <ele>2237.61</ele>
        <time>2009-03-14T13:41:10Z</time>
      </trkpt>
      <trkpt lat="42.83467" lon="0.17212">
        <ele>2236.64</ele>
        <time>2009-03-14T13:41:17Z</time>
      </trkpt>
      <trkpt lat="42.83467" lon="0.17212">
        <ele>2235.68</ele>
        <time>2009-03-14T13:41:23Z</time>
      </trkpt>
      <trkpt lat="42.83465" lon="0.17204">
        <ele>2234.24</ele>
        <time>2009-03-14T13:41:35Z</time>
      </trkpt>
      <trkpt lat="42.83465" lon="0.17196">
        <ele>2232.8</ele>
        <time>2009-03-14T13:41:37Z</time>
      </trkpt>
      <trkpt lat="42.83466" lon="0.17189">
        <ele>2232.32</ele>
        <time>2009-03-14T13:41:45Z</time>
      </trkpt>
      <trkpt lat="42.83467" lon="0.17185">
        <ele>2231.84</ele>
        <time>2009-03-14T13:42:13Z</time>
      </trkpt>
      <trkpt lat="42.83466" lon="0.17171">
        <ele>2230.88</ele>
        <time>2009-03-14T13:42:20Z</time>
      </trkpt>
      <trkpt lat="42.83467" lon="0.17169">
        <ele>2231.84</ele>
        <time>2009-03-14T13:42:31Z</time>
      </trkpt>
      <trkpt lat="42.83467" lon="0.17158">
        <ele>2230.88</ele>
        <time>2009-03-14T13:42:42Z</time>
      </trkpt>
      <trkpt lat="42.83468" lon="0.17153">
        <ele>2231.84</ele>
        <time>2009-03-14T13:42:52Z</time>
      </trkpt>
      <trkpt lat="42.8347" lon="0.17141">
        <ele>2231.36</ele>
        <time>2009-03-14T13:43:03Z</time>
      </trkpt>
      <trkpt lat="42.8347" lon="0.17133">
        <ele>2231.36</ele>
        <time>2009-03-14T13:43:15Z</time>
      </trkpt>
      <trkpt lat="42.83471" lon="0.17131">
        <ele>2230.88</ele>
        <time>2009-03-14T13:43:25Z</time>
      </trkpt>
      <trkpt lat="42.83471" lon="0.17131">
        <ele>2227.99</ele>
        <time>2009-03-14T13:43:43Z</time>
      </trkpt>
      <trkpt lat="42.83471" lon="0.17131">
        <ele>2231.84</ele>
        <time>2009-03-14T13:43:51Z</time>
      </trkpt>
      <trkpt lat="42.83471" lon="0.17131">
        <ele>2225.11</ele>
        <time>2009-03-14T13:43:52Z</time>
      </trkpt>
      <trkpt lat="42.83471" lon="0.17131">
        <ele>2231.84</ele>
        <time>2009-03-14T13:43:53Z</time>
      </trkpt>
      <trkpt lat="42.83471" lon="0.17131">
        <ele>2227.51</ele>
        <time>2009-03-14T13:43:55Z</time>
      </trkpt>
      <trkpt lat="42.83471" lon="0.17131">
        <ele>2229.92</ele>
        <time>2009-03-14T13:43:56Z</time>
      </trkpt>
      <trkpt lat="42.83471" lon="0.17131">
        <ele>2226.07</ele>
        <time>2009-03-14T13:44:09Z</time>
      </trkpt>
      <trkpt lat="42.83471" lon="0.17131">
        <ele>2229.43</ele>
        <time>2009-03-14T13:44:11Z</time>
      </trkpt>
      <trkpt lat="42.83471" lon="0.17131">
        <ele>2229.43</ele>
        <time>2009-03-14T13:44:12Z</time>
      </trkpt>
      <trkpt lat="42.83472" lon="0.1713">
        <ele>2230.4</ele>
        <time>2009-03-14T13:44:20Z</time>
      </trkpt>
      <trkpt lat="42.83473" lon="0.1713">
        <ele>2230.88</ele>
        <time>2009-03-14T13:44:33Z</time>
      </trkpt>
      <trkpt lat="42.83473" lon="0.17128">
        <ele>2230.88</ele>
        <time>2009-03-14T13:44:40Z</time>
      </trkpt>
      <trkpt lat="42.83474" lon="0.17124">
        <ele>2232.8</ele>
        <time>2009-03-14T13:44:50Z</time>
      </trkpt>
      <trkpt lat="42.83475" lon="0.17118">
        <ele>2233.28</ele>
        <time>2009-03-14T13:44:58Z</time>
      </trkpt>
      <trkpt lat="42.83475" lon="0.17108">
        <ele>2233.28</ele>
        <time>2009-03-14T13:45:06Z</time>
      </trkpt>
      <trkpt lat="42.83473" lon="0.17082">
        <ele>2230.88</ele>
        <time>2009-03-14T13:45:14Z</time>
      </trkpt>
      <trkpt lat="42.83472" lon="0.17062">
        <ele>2228.95</ele>
        <time>2009-03-14T13:45:18Z</time>
      </trkpt>
      <trkpt lat="42.83473" lon="0.17058">
        <ele>2228.47</ele>
        <time>2009-03-14T13:45:29Z</time>
      </trkpt>
      <trkpt lat="42.83474" lon="0.17055">
        <ele>2227.51</ele>
        <time>2009-03-14T13:45:46Z</time>
      </trkpt>
      <trkpt lat="42.83475" lon="0.17052">
        <ele>2227.51</ele>
        <time>2009-03-14T13:45:55Z</time>
      </trkpt>
      <trkpt lat="42.83475" lon="0.17051">
        <ele>2227.03</ele>
        <time>2009-03-14T13:46:12Z</time>
      </trkpt>
      <trkpt lat="42.83476" lon="0.17042">
        <ele>2227.03</ele>
        <time>2009-03-14T13:46:16Z</time>
      </trkpt>
      <trkpt lat="42.83476" lon="0.17039">
        <ele>2227.03</ele>
        <time>2009-03-14T13:46:18Z</time>
      </trkpt>
      <trkpt lat="42.83477" lon="0.17014">
        <ele>2224.15</ele>
        <time>2009-03-14T13:46:24Z</time>
      </trkpt>
      <trkpt lat="42.83477" lon="0.17005">
        <ele>2224.63</ele>
        <time>2009-03-14T13:46:31Z</time>
      </trkpt>
      <trkpt lat="42.83477" lon="0.17005">
        <ele>2224.63</ele>
        <time>2009-03-14T13:46:32Z</time>
      </trkpt>
      <trkpt lat="42.83475" lon="0.16995">
        <ele>2224.15</ele>
        <time>2009-03-14T13:46:40Z</time>
      </trkpt>
      <trkpt lat="42.83475" lon="0.16989">
        <ele>2223.67</ele>
        <time>2009-03-14T13:46:51Z</time>
      </trkpt>
      <trkpt lat="42.83474" lon="0.16984">
        <ele>2223.67</ele>
        <time>2009-03-14T13:46:52Z</time>
      </trkpt>
      <trkpt lat="42.8347" lon="0.16963">
        <ele>2220.78</ele>
        <time>2009-03-14T13:46:56Z</time>
      </trkpt>
      <trkpt lat="42.8347" lon="0.1696">
        <ele>2220.78</ele>
        <time>2009-03-14T13:46:58Z</time>
      </trkpt>
      <trkpt lat="42.83469" lon="0.16949">
        <ele>2220.3</ele>
        <time>2009-03-14T13:47:10Z</time>
      </trkpt>
      <trkpt lat="42.83468" lon="0.16948">
        <ele>2221.26</ele>
        <time>2009-03-14T13:47:13Z</time>
      </trkpt>
      <trkpt lat="42.83466" lon="0.16943">
        <ele>2221.74</ele>
        <time>2009-03-14T13:47:22Z</time>
      </trkpt>
      <trkpt lat="42.83465" lon="0.16937">
        <ele>2221.74</ele>
        <time>2009-03-14T13:47:30Z</time>
      </trkpt>
      <trkpt lat="42.83457" lon="0.16904">
        <ele>2218.86</ele>
        <time>2009-03-14T13:47:44Z</time>
      </trkpt>
      <trkpt lat="42.83457" lon="0.16903">
        <ele>2218.38</ele>
        <time>2009-03-14T13:47:47Z</time>
      </trkpt>
      <trkpt lat="42.83456" lon="0.16901">
        <ele>2218.38</ele>
        <time>2009-03-14T13:47:49Z</time>
      </trkpt>
      <trkpt lat="42.8345" lon="0.16887">
        <ele>2216.94</ele>
        <time>2009-03-14T13:47:53Z</time>
      </trkpt>
      <trkpt lat="42.83446" lon="0.1687">
        <ele>2214.53</ele>
        <time>2009-03-14T13:47:57Z</time>
      </trkpt>
      <trkpt lat="42.83447" lon="0.16866">
        <ele>2214.53</ele>
        <time>2009-03-14T13:48:04Z</time>
      </trkpt>
      <trkpt lat="42.83446" lon="0.16854">
        <ele>2214.05</ele>
        <time>2009-03-14T13:48:18Z</time>
      </trkpt>
      <trkpt lat="42.83447" lon="0.16852">
        <ele>2214.53</ele>
        <time>2009-03-14T13:48:30Z</time>
      </trkpt>
      <trkpt lat="42.83447" lon="0.16846">
        <ele>2214.53</ele>
        <time>2009-03-14T13:48:40Z</time>
      </trkpt>
      <trkpt lat="42.83449" lon="0.16834">
        <ele>2213.09</ele>
        <time>2009-03-14T13:48:51Z</time>
      </trkpt>
      <trkpt lat="42.83452" lon="0.16814">
        <ele>2212.61</ele>
        <time>2009-03-14T13:49:03Z</time>
      </trkpt>
      <trkpt lat="42.83455" lon="0.16803">
        <ele>2212.61</ele>
        <time>2009-03-14T13:49:17Z</time>
      </trkpt>
      <trkpt lat="42.83457" lon="0.16789">
        <ele>2211.65</ele>
        <time>2009-03-14T13:49:29Z</time>
      </trkpt>
      <trkpt lat="42.83452" lon="0.16775">
        <ele>2207.32</ele>
        <time>2009-03-14T13:49:33Z</time>
      </trkpt>
      <trkpt lat="42.83453" lon="0.16772">
        <ele>2206.36</ele>
        <time>2009-03-14T13:49:36Z</time>
      </trkpt>
      <trkpt lat="42.83456" lon="0.16771">
        <ele>2205.88</ele>
        <time>2009-03-14T13:49:41Z</time>
      </trkpt>
      <trkpt lat="42.83456" lon="0.16768">
        <ele>2206.36</ele>
        <time>2009-03-14T13:49:44Z</time>
      </trkpt>
      <trkpt lat="42.83456" lon="0.16751">
        <ele>2204.44</ele>
        <time>2009-03-14T13:49:49Z</time>
      </trkpt>
      <trkpt lat="42.83458" lon="0.16745">
        <ele>2203.96</ele>
        <time>2009-03-14T13:49:51Z</time>
      </trkpt>
      <trkpt lat="42.83458" lon="0.16744">
        <ele>2203.96</ele>
        <time>2009-03-14T13:50:00Z</time>
      </trkpt>
      <trkpt lat="42.83459" lon="0.16743">
        <ele>2204.44</ele>
        <time>2009-03-14T13:50:09Z</time>
      </trkpt>
      <trkpt lat="42.83461" lon="0.1674">
        <ele>2205.4</ele>
        <time>2009-03-14T13:50:18Z</time>
      </trkpt>
      <trkpt lat="42.83462" lon="0.16738">
        <ele>2204.92</ele>
        <time>2009-03-14T13:50:25Z</time>
      </trkpt>
      <trkpt lat="42.83466" lon="0.16725">
        <ele>2203.96</ele>
        <time>2009-03-14T13:50:32Z</time>
      </trkpt>
      <trkpt lat="42.83472" lon="0.16704">
        <ele>2203.48</ele>
        <time>2009-03-14T13:50:43Z</time>
      </trkpt>
      <trkpt lat="42.83474" lon="0.16699">
        <ele>2203</ele>
        <time>2009-03-14T13:50:56Z</time>
      </trkpt>
      <trkpt lat="42.8348" lon="0.16679">
        <ele>2201.56</ele>
        <time>2009-03-14T13:51:03Z</time>
      </trkpt>
      <trkpt lat="42.83483" lon="0.16667">
        <ele>2200.11</ele>
        <time>2009-03-14T13:51:06Z</time>
      </trkpt>
      <trkpt lat="42.83486" lon="0.16662">
        <ele>2200.11</ele>
        <time>2009-03-14T13:51:18Z</time>
      </trkpt>
      <trkpt lat="42.83488" lon="0.1666">
        <ele>2200.59</ele>
        <time>2009-03-14T13:51:23Z</time>
      </trkpt>
      <trkpt lat="42.83494" lon="0.16636">
        <ele>2196.75</ele>
        <time>2009-03-14T13:51:29Z</time>
      </trkpt>
      <trkpt lat="42.83498" lon="0.16629">
        <ele>2195.79</ele>
        <time>2009-03-14T13:51:31Z</time>
      </trkpt>
      <trkpt lat="42.83498" lon="0.16627">
        <ele>2195.31</ele>
        <time>2009-03-14T13:51:32Z</time>
      </trkpt>
      <trkpt lat="42.835" lon="0.1662">
        <ele>2194.35</ele>
        <time>2009-03-14T13:51:34Z</time>
      </trkpt>
      <trkpt lat="42.83502" lon="0.1661">
        <ele>2192.9</ele>
        <time>2009-03-14T13:51:36Z</time>
      </trkpt>
      <trkpt lat="42.83505" lon="0.16606">
        <ele>2192.42</ele>
        <time>2009-03-14T13:51:50Z</time>
      </trkpt>
      <trkpt lat="42.83505" lon="0.16607">
        <ele>2191.94</ele>
        <time>2009-03-14T13:52:05Z</time>
      </trkpt>
      <trkpt lat="42.83505" lon="0.16607">
        <ele>2191.46</ele>
        <time>2009-03-14T13:52:29Z</time>
      </trkpt>
      <trkpt lat="42.83507" lon="0.16605">
        <ele>2191.94</ele>
        <time>2009-03-14T13:52:51Z</time>
      </trkpt>
      <trkpt lat="42.83507" lon="0.16605">
        <ele>2191.94</ele>
        <time>2009-03-14T13:53:05Z</time>
      </trkpt>
      <trkpt lat="42.83507" lon="0.16605">
        <ele>2190.5</ele>
        <time>2009-03-14T13:53:13Z</time>
      </trkpt>
      <trkpt lat="42.83508" lon="0.16606">
        <ele>2190.98</ele>
        <time>2009-03-14T13:56:36Z</time>
      </trkpt>
      <trkpt lat="42.83508" lon="0.16606">
        <ele>2190.5</ele>
        <time>2009-03-14T13:56:40Z</time>
      </trkpt>
      <trkpt lat="42.83507" lon="0.16606">
        <ele>2190.5</ele>
        <time>2009-03-14T13:56:42Z</time>
      </trkpt>
      <trkpt lat="42.83508" lon="0.16606">
        <ele>2196.75</ele>
        <time>2009-03-14T13:56:47Z</time>
      </trkpt>
      <trkpt lat="42.83508" lon="0.16606">
        <ele>2192.42</ele>
        <time>2009-03-14T13:56:48Z</time>
      </trkpt>
      <trkpt lat="42.83508" lon="0.16606">
        <ele>2190.02</ele>
        <time>2009-03-14T13:56:52Z</time>
      </trkpt>
      <trkpt lat="42.83507" lon="0.16605">
        <ele>2193.87</ele>
        <time>2009-03-14T13:58:25Z</time>
      </trkpt>
      <trkpt lat="42.83507" lon="0.16605">
        <ele>2191.46</ele>
        <time>2009-03-14T13:58:26Z</time>
      </trkpt>
      <trkpt lat="42.83507" lon="0.16605">
        <ele>2191.46</ele>
        <time>2009-03-14T14:00:23Z</time>
      </trkpt>
      <trkpt lat="42.83507" lon="0.16604">
        <ele>2191.46</ele>
        <time>2009-03-14T14:00:30Z</time>
      </trkpt>
      <trkpt lat="42.83508" lon="0.16602">
        <ele>2191.46</ele>
        <time>2009-03-14T14:00:42Z</time>
      </trkpt>
      <trkpt lat="42.83509" lon="0.16602">
        <ele>2191.94</ele>
        <time>2009-03-14T14:00:56Z</time>
      </trkpt>
      <trkpt lat="42.8351" lon="0.16602">
        <ele>2191.94</ele>
        <time>2009-03-14T14:01:21Z</time>
      </trkpt>
      <trkpt lat="42.8351" lon="0.16604">
        <ele>2192.42</ele>
        <time>2009-03-14T14:01:25Z</time>
      </trkpt>
      <trkpt lat="42.83509" lon="0.16607">
        <ele>2191.94</ele>
        <time>2009-03-14T14:01:27Z</time>
      </trkpt>
      <trkpt lat="42.83511" lon="0.16606">
        <ele>2192.42</ele>
        <time>2009-03-14T14:01:42Z</time>
      </trkpt>
      <trkpt lat="42.83511" lon="0.16606">
        <ele>2192.42</ele>
        <time>2009-03-14T14:01:55Z</time>
      </trkpt>
      <trkpt lat="42.83511" lon="0.16606">
        <ele>2192.42</ele>
        <time>2009-03-14T14:02:13Z</time>
      </trkpt>
      <trkpt lat="42.83511" lon="0.16607">
        <ele>2191.46</ele>
        <time>2009-03-14T14:02:41Z</time>
      </trkpt>
      <trkpt lat="42.83511" lon="0.16605">
        <ele>2191.94</ele>
        <time>2009-03-14T14:02:51Z</time>
      </trkpt>
      <trkpt lat="42.83511" lon="0.16605">
        <ele>2192.9</ele>
        <time>2009-03-14T14:03:04Z</time>
      </trkpt>
      <trkpt lat="42.83511" lon="0.16605">
        <ele>2192.42</ele>
        <time>2009-03-14T14:03:37Z</time>
      </trkpt>
      <trkpt lat="42.83511" lon="0.16605">
        <ele>2192.42</ele>
        <time>2009-03-14T14:03:59Z</time>
      </trkpt>
      <trkpt lat="42.83511" lon="0.16605">
        <ele>2192.9</ele>
        <time>2009-03-14T14:04:09Z</time>
      </trkpt>
      <trkpt lat="42.83511" lon="0.16605">
        <ele>2192.9</ele>
        <time>2009-03-14T14:04:36Z</time>
      </trkpt>
      <trkpt lat="42.83512" lon="0.16606">
        <ele>2193.87</ele>
        <time>2009-03-14T14:04:48Z</time>
      </trkpt>
      <trkpt lat="42.83514" lon="0.16604">
        <ele>2194.83</ele>
        <time>2009-03-14T14:04:58Z</time>
      </trkpt>
      <trkpt lat="42.83515" lon="0.16601">
        <ele>2195.79</ele>
        <time>2009-03-14T14:05:08Z</time>
      </trkpt>
      <trkpt lat="42.83518" lon="0.166">
        <ele>2197.23</ele>
        <time>2009-03-14T14:05:16Z</time>
      </trkpt>
      <trkpt lat="42.83524" lon="0.166">
        <ele>2198.67</ele>
        <time>2009-03-14T14:05:27Z</time>
      </trkpt>
      <trkpt lat="42.83529" lon="0.16596">
        <ele>2200.11</ele>
        <time>2009-03-14T14:05:39Z</time>
      </trkpt>
      <trkpt lat="42.83527" lon="0.1659">
        <ele>2201.08</ele>
        <time>2009-03-14T14:05:48Z</time>
      </trkpt>
      <trkpt lat="42.83528" lon="0.16585">
        <ele>2203</ele>
        <time>2009-03-14T14:05:57Z</time>
      </trkpt>
      <trkpt lat="42.83532" lon="0.16582">
        <ele>2204.44</ele>
        <time>2009-03-14T14:06:08Z</time>
      </trkpt>
      <trkpt lat="42.83536" lon="0.16576">
        <ele>2204.92</ele>
        <time>2009-03-14T14:06:19Z</time>
      </trkpt>
      <trkpt lat="42.8354" lon="0.1657">
        <ele>2205.88</ele>
        <time>2009-03-14T14:06:32Z</time>
      </trkpt>
      <trkpt lat="42.83541" lon="0.16568">
        <ele>2207.32</ele>
        <time>2009-03-14T14:06:48Z</time>
      </trkpt>
      <trkpt lat="42.83546" lon="0.16559">
        <ele>2207.81</ele>
        <time>2009-03-14T14:07:03Z</time>
      </trkpt>
      <trkpt lat="42.83552" lon="0.16549">
        <ele>2208.29</ele>
        <time>2009-03-14T14:07:18Z</time>
      </trkpt>
      <trkpt lat="42.83555" lon="0.16545">
        <ele>2208.77</ele>
        <time>2009-03-14T14:07:28Z</time>
      </trkpt>
      <trkpt lat="42.8356" lon="0.16542">
        <ele>2208.77</ele>
        <time>2009-03-14T14:07:38Z</time>
      </trkpt>
      <trkpt lat="42.83565" lon="0.16538">
        <ele>2209.73</ele>
        <time>2009-03-14T14:07:49Z</time>
      </trkpt>
      <trkpt lat="42.83566" lon="0.16536">
        <ele>2209.25</ele>
        <time>2009-03-14T14:07:56Z</time>
      </trkpt>
      <trkpt lat="42.83571" lon="0.16531">
        <ele>2210.21</ele>
        <time>2009-03-14T14:08:08Z</time>
      </trkpt>
      <trkpt lat="42.83576" lon="0.16524">
        <ele>2211.17</ele>
        <time>2009-03-14T14:08:21Z</time>
      </trkpt>
      <trkpt lat="42.8358" lon="0.16518">
        <ele>2211.65</ele>
        <time>2009-03-14T14:08:30Z</time>
      </trkpt>
      <trkpt lat="42.83583" lon="0.16515">
        <ele>2213.09</ele>
        <time>2009-03-14T14:08:43Z</time>
      </trkpt>
      <trkpt lat="42.83585" lon="0.16509">
        <ele>2214.53</ele>
        <time>2009-03-14T14:08:54Z</time>
      </trkpt>
      <trkpt lat="42.83589" lon="0.16502">
        <ele>2215.5</ele>
        <time>2009-03-14T14:09:07Z</time>
      </trkpt>
      <trkpt lat="42.83592" lon="0.165">
        <ele>2215.98</ele>
        <time>2009-03-14T14:09:14Z</time>
      </trkpt>
      <trkpt lat="42.83595" lon="0.16496">
        <ele>2217.42</ele>
        <time>2009-03-14T14:09:24Z</time>
      </trkpt>
      <trkpt lat="42.83598" lon="0.16492">
        <ele>2217.9</ele>
        <time>2009-03-14T14:09:34Z</time>
      </trkpt>
      <trkpt lat="42.83603" lon="0.16482">
        <ele>2218.86</ele>
        <time>2009-03-14T14:09:48Z</time>
      </trkpt>
      <trkpt lat="42.83605" lon="0.16479">
        <ele>2219.82</ele>
        <time>2009-03-14T14:10:00Z</time>
      </trkpt>
      <trkpt lat="42.83608" lon="0.16471">
        <ele>2218.86</ele>
        <time>2009-03-14T14:10:14Z</time>
      </trkpt>
      <trkpt lat="42.83614" lon="0.16461">
        <ele>2217.42</ele>
        <time>2009-03-14T14:10:27Z</time>
      </trkpt>
      <trkpt lat="42.83614" lon="0.16459">
        <ele>2217.9</ele>
        <time>2009-03-14T14:10:47Z</time>
      </trkpt>
      <trkpt lat="42.83615" lon="0.16458">
        <ele>2217.42</ele>
        <time>2009-03-14T14:11:03Z</time>
      </trkpt>
      <trkpt lat="42.8362" lon="0.16451">
        <ele>2217.42</ele>
        <time>2009-03-14T14:11:21Z</time>
      </trkpt>
      <trkpt lat="42.83625" lon="0.16443">
        <ele>2218.38</ele>
        <time>2009-03-14T14:11:33Z</time>
      </trkpt>
      <trkpt lat="42.83629" lon="0.16436">
        <ele>2219.82</ele>
        <time>2009-03-14T14:11:44Z</time>
      </trkpt>
      <trkpt lat="42.83633" lon="0.1643">
        <ele>2220.3</ele>
        <time>2009-03-14T14:11:54Z</time>
      </trkpt>
      <trkpt lat="42.83635" lon="0.16421">
        <ele>2220.3</ele>
        <time>2009-03-14T14:12:05Z</time>
      </trkpt>
      <trkpt lat="42.83634" lon="0.16411">
        <ele>2220.78</ele>
        <time>2009-03-14T14:12:16Z</time>
      </trkpt>
      <trkpt lat="42.83631" lon="0.16403">
        <ele>2220.78</ele>
        <time>2009-03-14T14:12:27Z</time>
      </trkpt>
      <trkpt lat="42.83629" lon="0.16399">
        <ele>2220.78</ele>
        <time>2009-03-14T14:12:42Z</time>
      </trkpt>
      <trkpt lat="42.83627" lon="0.16391">
        <ele>2222.71</ele>
        <time>2009-03-14T14:12:53Z</time>
      </trkpt>
      <trkpt lat="42.83628" lon="0.16385">
        <ele>2223.19</ele>
        <time>2009-03-14T14:13:02Z</time>
      </trkpt>
      <trkpt lat="42.8363" lon="0.16379">
        <ele>2224.15</ele>
        <time>2009-03-14T14:13:14Z</time>
      </trkpt>
      <trkpt lat="42.83634" lon="0.16371">
        <ele>2224.63</ele>
        <time>2009-03-14T14:13:26Z</time>
      </trkpt>
      <trkpt lat="42.83638" lon="0.16359">
        <ele>2226.07</ele>
        <time>2009-03-14T14:13:39Z</time>
      </trkpt>
      <trkpt lat="42.83639" lon="0.16358">
        <ele>2226.07</ele>
        <time>2009-03-14T14:13:41Z</time>
      </trkpt>
      <trkpt lat="42.83642" lon="0.16348">
        <ele>2227.03</ele>
        <time>2009-03-14T14:13:54Z</time>
      </trkpt>
      <trkpt lat="42.83646" lon="0.16341">
        <ele>2227.03</ele>
        <time>2009-03-14T14:14:05Z</time>
      </trkpt>
      <trkpt lat="42.83648" lon="0.16335">
        <ele>2227.03</ele>
        <time>2009-03-14T14:14:12Z</time>
      </trkpt>
      <trkpt lat="42.83651" lon="0.16323">
        <ele>2226.55</ele>
        <time>2009-03-14T14:14:23Z</time>
      </trkpt>
      <trkpt lat="42.83652" lon="0.16318">
        <ele>2226.55</ele>
        <time>2009-03-14T14:14:40Z</time>
      </trkpt>
      <trkpt lat="42.83652" lon="0.16318">
        <ele>2226.55</ele>
        <time>2009-03-14T14:14:57Z</time>
      </trkpt>
      <trkpt lat="42.83652" lon="0.16306">
        <ele>2226.07</ele>
        <time>2009-03-14T14:15:15Z</time>
      </trkpt>
      <trkpt lat="42.83653" lon="0.16295">
        <ele>2225.59</ele>
        <time>2009-03-14T14:15:35Z</time>
      </trkpt>
      <trkpt lat="42.83656" lon="0.16282">
        <ele>2224.63</ele>
        <time>2009-03-14T14:15:42Z</time>
      </trkpt>
      <trkpt lat="42.83661" lon="0.16268">
        <ele>2224.15</ele>
        <time>2009-03-14T14:15:52Z</time>
      </trkpt>
      <trkpt lat="42.83666" lon="0.1626">
        <ele>2225.59</ele>
        <time>2009-03-14T14:16:02Z</time>
      </trkpt>
      <trkpt lat="42.83668" lon="0.16249">
        <ele>2225.59</ele>
        <time>2009-03-14T14:16:13Z</time>
      </trkpt>
      <trkpt lat="42.83672" lon="0.16246">
        <ele>2225.59</ele>
        <time>2009-03-14T14:16:23Z</time>
      </trkpt>
      <trkpt lat="42.83675" lon="0.16243">
        <ele>2226.07</ele>
        <time>2009-03-14T14:16:42Z</time>
      </trkpt>
      <trkpt lat="42.83676" lon="0.16242">
        <ele>2226.07</ele>
        <time>2009-03-14T14:16:45Z</time>
      </trkpt>
      <trkpt lat="42.83686" lon="0.16236">
        <ele>2224.15</ele>
        <time>2009-03-14T14:16:56Z</time>
      </trkpt>
      <trkpt lat="42.83692" lon="0.16237">
        <ele>2224.15</ele>
        <time>2009-03-14T14:17:07Z</time>
      </trkpt>
      <trkpt lat="42.83695" lon="0.16236">
        <ele>2223.19</ele>
        <time>2009-03-14T14:17:16Z</time>
      </trkpt>
      <trkpt lat="42.83696" lon="0.16236">
        <ele>2223.67</ele>
        <time>2009-03-14T14:17:28Z</time>
      </trkpt>
      <trkpt lat="42.83696" lon="0.16235">
        <ele>2223.67</ele>
        <time>2009-03-14T14:17:39Z</time>
      </trkpt>
      <trkpt lat="42.83697" lon="0.16234">
        <ele>2223.19</ele>
        <time>2009-03-14T14:17:59Z</time>
      </trkpt>
      <trkpt lat="42.83697" lon="0.16234">
        <ele>2223.19</ele>
        <time>2009-03-14T14:18:39Z</time>
      </trkpt>
      <trkpt lat="42.83698" lon="0.16231">
        <ele>2222.22</ele>
        <time>2009-03-14T14:18:57Z</time>
      </trkpt>
      <trkpt lat="42.83718" lon="0.16211">
        <ele>2217.9</ele>
        <time>2009-03-14T14:19:08Z</time>
      </trkpt>
      <trkpt lat="42.83724" lon="0.16206">
        <ele>2216.94</ele>
        <time>2009-03-14T14:19:16Z</time>
      </trkpt>
      <trkpt lat="42.83725" lon="0.16206">
        <ele>2215.98</ele>
        <time>2009-03-14T14:19:50Z</time>
      </trkpt>
      <trkpt lat="42.83726" lon="0.16206">
        <ele>2216.94</ele>
        <time>2009-03-14T14:20:04Z</time>
      </trkpt>
      <trkpt lat="42.83727" lon="0.16205">
        <ele>2216.46</ele>
        <time>2009-03-14T14:20:15Z</time>
      </trkpt>
      <trkpt lat="42.83724" lon="0.16195">
        <ele>2212.61</ele>
        <time>2009-03-14T14:20:21Z</time>
      </trkpt>
      <trkpt lat="42.83724" lon="0.16194">
        <ele>2212.61</ele>
        <time>2009-03-14T14:20:29Z</time>
      </trkpt>
      <trkpt lat="42.83723" lon="0.16193">
        <ele>2213.09</ele>
        <time>2009-03-14T14:20:40Z</time>
      </trkpt>
      <trkpt lat="42.83723" lon="0.16193">
        <ele>2212.61</ele>
        <time>2009-03-14T14:20:51Z</time>
      </trkpt>
      <trkpt lat="42.83727" lon="0.1618">
        <ele>2208.77</ele>
        <time>2009-03-14T14:20:57Z</time>
      </trkpt>
      <trkpt lat="42.83728" lon="0.16178">
        <ele>2209.25</ele>
        <time>2009-03-14T14:20:58Z</time>
      </trkpt>
      <trkpt lat="42.8373" lon="0.16173">
        <ele>2207.32</ele>
        <time>2009-03-14T14:21:11Z</time>
      </trkpt>
      <trkpt lat="42.83733" lon="0.16167">
        <ele>2206.36</ele>
        <time>2009-03-14T14:21:32Z</time>
      </trkpt>
      <trkpt lat="42.83733" lon="0.16167">
        <ele>2204.92</ele>
        <time>2009-03-14T14:21:40Z</time>
      </trkpt>
      <trkpt lat="42.83737" lon="0.1615">
        <ele>2203.48</ele>
        <time>2009-03-14T14:21:51Z</time>
      </trkpt>
      <trkpt lat="42.83743" lon="0.16133">
        <ele>2199.63</ele>
        <time>2009-03-14T14:22:03Z</time>
      </trkpt>
      <trkpt lat="42.83747" lon="0.16112">
        <ele>2196.75</ele>
        <time>2009-03-14T14:22:10Z</time>
      </trkpt>
      <trkpt lat="42.83749" lon="0.16102">
        <ele>2195.31</ele>
        <time>2009-03-14T14:22:14Z</time>
      </trkpt>
      <trkpt lat="42.83753" lon="0.16096">
        <ele>2195.31</ele>
        <time>2009-03-14T14:22:21Z</time>
      </trkpt>
      <trkpt lat="42.83756" lon="0.16091">
        <ele>2194.83</ele>
        <time>2009-03-14T14:22:25Z</time>
      </trkpt>
      <trkpt lat="42.8376" lon="0.16086">
        <ele>2194.35</ele>
        <time>2009-03-14T14:22:31Z</time>
      </trkpt>
      <trkpt lat="42.83763" lon="0.1608">
        <ele>2194.83</ele>
        <time>2009-03-14T14:22:36Z</time>
      </trkpt>
      <trkpt lat="42.83766" lon="0.16072">
        <ele>2194.35</ele>
        <time>2009-03-14T14:22:46Z</time>
      </trkpt>
      <trkpt lat="42.8377" lon="0.16061">
        <ele>2195.79</ele>
        <time>2009-03-14T14:22:59Z</time>
      </trkpt>
      <trkpt lat="42.83772" lon="0.16052">
        <ele>2196.27</ele>
        <time>2009-03-14T14:23:12Z</time>
      </trkpt>
      <trkpt lat="42.83773" lon="0.16045">
        <ele>2196.75</ele>
        <time>2009-03-14T14:23:22Z</time>
      </trkpt>
      <trkpt lat="42.83775" lon="0.1604">
        <ele>2198.19</ele>
        <time>2009-03-14T14:23:35Z</time>
      </trkpt>
      <trkpt lat="42.83775" lon="0.1604">
        <ele>2197.71</ele>
        <time>2009-03-14T14:23:46Z</time>
      </trkpt>
      <trkpt lat="42.83779" lon="0.16032">
        <ele>2197.71</ele>
        <time>2009-03-14T14:24:01Z</time>
      </trkpt>
      <trkpt lat="42.83779" lon="0.16031">
        <ele>2197.71</ele>
        <time>2009-03-14T14:24:05Z</time>
      </trkpt>
      <trkpt lat="42.83779" lon="0.16029">
        <ele>2197.71</ele>
        <time>2009-03-14T14:24:20Z</time>
      </trkpt>
      <trkpt lat="42.83779" lon="0.16027">
        <ele>2197.71</ele>
        <time>2009-03-14T14:24:32Z</time>
      </trkpt>
      <trkpt lat="42.83783" lon="0.16025">
        <ele>2197.71</ele>
        <time>2009-03-14T14:24:36Z</time>
      </trkpt>
      <trkpt lat="42.8379" lon="0.16013">
        <ele>2197.71</ele>
        <time>2009-03-14T14:24:44Z</time>
      </trkpt>
      <trkpt lat="42.83796" lon="0.15994">
        <ele>2197.71</ele>
        <time>2009-03-14T14:24:58Z</time>
      </trkpt>
      <trkpt lat="42.83797" lon="0.15977">
        <ele>2198.67</ele>
        <time>2009-03-14T14:25:11Z</time>
      </trkpt>
      <trkpt lat="42.83797" lon="0.15959">
        <ele>2196.75</ele>
        <time>2009-03-14T14:25:18Z</time>
      </trkpt>
      <trkpt lat="42.83804" lon="0.15949">
        <ele>2196.75</ele>
        <time>2009-03-14T14:25:30Z</time>
      </trkpt>
      <trkpt lat="42.8381" lon="0.15941">
        <ele>2196.75</ele>
        <time>2009-03-14T14:25:42Z</time>
      </trkpt>
      <trkpt lat="42.83815" lon="0.15933">
        <ele>2196.27</ele>
        <time>2009-03-14T14:25:55Z</time>
      </trkpt>
      <trkpt lat="42.83821" lon="0.15924">
        <ele>2197.23</ele>
        <time>2009-03-14T14:26:06Z</time>
      </trkpt>
      <trkpt lat="42.83827" lon="0.15917">
        <ele>2198.67</ele>
        <time>2009-03-14T14:26:21Z</time>
      </trkpt>
      <trkpt lat="42.83832" lon="0.15909">
        <ele>2199.15</ele>
        <time>2009-03-14T14:26:34Z</time>
      </trkpt>
      <trkpt lat="42.83834" lon="0.15908">
        <ele>2199.15</ele>
        <time>2009-03-14T14:26:36Z</time>
      </trkpt>
      <trkpt lat="42.83838" lon="0.15894">
        <ele>2200.11</ele>
        <time>2009-03-14T14:26:49Z</time>
      </trkpt>
      <trkpt lat="42.83841" lon="0.15888">
        <ele>2197.71</ele>
        <time>2009-03-14T14:26:53Z</time>
      </trkpt>
      <trkpt lat="42.83844" lon="0.15877">
        <ele>2198.67</ele>
        <time>2009-03-14T14:27:08Z</time>
      </trkpt>
      <trkpt lat="42.83848" lon="0.15871">
        <ele>2199.63</ele>
        <time>2009-03-14T14:27:19Z</time>
      </trkpt>
      <trkpt lat="42.83855" lon="0.15865">
        <ele>2199.63</ele>
        <time>2009-03-14T14:27:30Z</time>
      </trkpt>
      <trkpt lat="42.83857" lon="0.15865">
        <ele>2199.63</ele>
        <time>2009-03-14T14:27:32Z</time>
      </trkpt>
      <trkpt lat="42.83868" lon="0.15862">
        <ele>2197.71</ele>
        <time>2009-03-14T14:27:40Z</time>
      </trkpt>
      <trkpt lat="42.83874" lon="0.1586">
        <ele>2197.71</ele>
        <time>2009-03-14T14:27:45Z</time>
      </trkpt>
      <trkpt lat="42.83878" lon="0.15857">
        <ele>2196.75</ele>
        <time>2009-03-14T14:27:50Z</time>
      </trkpt>
      <trkpt lat="42.83884" lon="0.15852">
        <ele>2197.23</ele>
        <time>2009-03-14T14:28:03Z</time>
      </trkpt>
      <trkpt lat="42.83889" lon="0.15845">
        <ele>2198.19</ele>
        <time>2009-03-14T14:28:16Z</time>
      </trkpt>
      <trkpt lat="42.83889" lon="0.15839">
        <ele>2198.67</ele>
        <time>2009-03-14T14:28:27Z</time>
      </trkpt>
      <trkpt lat="42.8389" lon="0.15838">
        <ele>2199.63</ele>
        <time>2009-03-14T14:28:28Z</time>
      </trkpt>
      <trkpt lat="42.83891" lon="0.15828">
        <ele>2198.19</ele>
        <time>2009-03-14T14:28:33Z</time>
      </trkpt>
      <trkpt lat="42.83893" lon="0.15813">
        <ele>2196.27</ele>
        <time>2009-03-14T14:28:37Z</time>
      </trkpt>
      <trkpt lat="42.83893" lon="0.15804">
        <ele>2194.83</ele>
        <time>2009-03-14T14:28:39Z</time>
      </trkpt>
      <trkpt lat="42.83894" lon="0.15796">
        <ele>2193.39</ele>
        <time>2009-03-14T14:28:42Z</time>
      </trkpt>
      <trkpt lat="42.83896" lon="0.15789">
        <ele>2193.87</ele>
        <time>2009-03-14T14:28:48Z</time>
      </trkpt>
      <trkpt lat="42.83897" lon="0.15777">
        <ele>2194.35</ele>
        <time>2009-03-14T14:29:01Z</time>
      </trkpt>
      <trkpt lat="42.83894" lon="0.15767">
        <ele>2194.35</ele>
        <time>2009-03-14T14:29:12Z</time>
      </trkpt>
      <trkpt lat="42.83894" lon="0.1576">
        <ele>2195.31</ele>
        <time>2009-03-14T14:29:43Z</time>
      </trkpt>
      <trkpt lat="42.83894" lon="0.15759">
        <ele>2196.27</ele>
        <time>2009-03-14T14:29:44Z</time>
      </trkpt>
      <trkpt lat="42.83889" lon="0.15738">
        <ele>2195.31</ele>
        <time>2009-03-14T14:29:58Z</time>
      </trkpt>
      <trkpt lat="42.83882" lon="0.15711">
        <ele>2192.9</ele>
        <time>2009-03-14T14:30:10Z</time>
      </trkpt>
      <trkpt lat="42.83882" lon="0.15705">
        <ele>2192.42</ele>
        <time>2009-03-14T14:30:15Z</time>
      </trkpt>
      <trkpt lat="42.83884" lon="0.15692">
        <ele>2193.39</ele>
        <time>2009-03-14T14:30:28Z</time>
      </trkpt>
      <trkpt lat="42.83886" lon="0.15682">
        <ele>2193.87</ele>
        <time>2009-03-14T14:30:41Z</time>
      </trkpt>
      <trkpt lat="42.83887" lon="0.15674">
        <ele>2195.31</ele>
        <time>2009-03-14T14:30:52Z</time>
      </trkpt>
      <trkpt lat="42.83888" lon="0.15663">
        <ele>2195.31</ele>
        <time>2009-03-14T14:31:04Z</time>
      </trkpt>
      <trkpt lat="42.83889" lon="0.15652">
        <ele>2196.27</ele>
        <time>2009-03-14T14:31:15Z</time>
      </trkpt>
      <trkpt lat="42.83889" lon="0.15639">
        <ele>2196.27</ele>
        <time>2009-03-14T14:31:27Z</time>
      </trkpt>
      <trkpt lat="42.8389" lon="0.15632">
        <ele>2195.31</ele>
        <time>2009-03-14T14:31:32Z</time>
      </trkpt>
      <trkpt lat="42.8389" lon="0.15626">
        <ele>2196.27</ele>
        <time>2009-03-14T14:31:36Z</time>
      </trkpt>
      <trkpt lat="42.8389" lon="0.15622">
        <ele>2195.31</ele>
        <time>2009-03-14T14:31:38Z</time>
      </trkpt>
      <trkpt lat="42.83888" lon="0.15606">
        <ele>2193.87</ele>
        <time>2009-03-14T14:31:51Z</time>
      </trkpt>
      <trkpt lat="42.83887" lon="0.15594">
        <ele>2193.87</ele>
        <time>2009-03-14T14:32:01Z</time>
      </trkpt>
      <trkpt lat="42.83887" lon="0.15583">
        <ele>2193.39</ele>
        <time>2009-03-14T14:32:11Z</time>
      </trkpt>
      <trkpt lat="42.83886" lon="0.15567">
        <ele>2192.42</ele>
        <time>2009-03-14T14:32:24Z</time>
      </trkpt>
      <trkpt lat="42.83886" lon="0.1556">
        <ele>2191.46</ele>
        <time>2009-03-14T14:32:31Z</time>
      </trkpt>
      <trkpt lat="42.83886" lon="0.15547">
        <ele>2192.42</ele>
        <time>2009-03-14T14:32:42Z</time>
      </trkpt>
      <trkpt lat="42.83885" lon="0.15537">
        <ele>2191.94</ele>
        <time>2009-03-14T14:32:51Z</time>
      </trkpt>
      <trkpt lat="42.83885" lon="0.15523">
        <ele>2191.46</ele>
        <time>2009-03-14T14:33:06Z</time>
      </trkpt>
      <trkpt lat="42.83884" lon="0.15513">
        <ele>2191.94</ele>
        <time>2009-03-14T14:33:16Z</time>
      </trkpt>
      <trkpt lat="42.83886" lon="0.15505">
        <ele>2191.94</ele>
        <time>2009-03-14T14:33:24Z</time>
      </trkpt>
      <trkpt lat="42.83888" lon="0.15492">
        <ele>2191.94</ele>
        <time>2009-03-14T14:33:38Z</time>
      </trkpt>
      <trkpt lat="42.83889" lon="0.15484">
        <ele>2192.42</ele>
        <time>2009-03-14T14:33:52Z</time>
      </trkpt>
      <trkpt lat="42.8389" lon="0.1547">
        <ele>2192.9</ele>
        <time>2009-03-14T14:34:07Z</time>
      </trkpt>
      <trkpt lat="42.83891" lon="0.15458">
        <ele>2193.87</ele>
        <time>2009-03-14T14:34:23Z</time>
      </trkpt>
      <trkpt lat="42.83893" lon="0.15448">
        <ele>2193.87</ele>
        <time>2009-03-14T14:34:35Z</time>
      </trkpt>
      <trkpt lat="42.83894" lon="0.15435">
        <ele>2194.83</ele>
        <time>2009-03-14T14:34:48Z</time>
      </trkpt>
      <trkpt lat="42.83893" lon="0.15422">
        <ele>2195.79</ele>
        <time>2009-03-14T14:35:03Z</time>
      </trkpt>
      <trkpt lat="42.8389" lon="0.15408">
        <ele>2195.31</ele>
        <time>2009-03-14T14:35:18Z</time>
      </trkpt>
      <trkpt lat="42.83889" lon="0.15399">
        <ele>2195.31</ele>
        <time>2009-03-14T14:35:30Z</time>
      </trkpt>
      <trkpt lat="42.83887" lon="0.15389">
        <ele>2195.31</ele>
        <time>2009-03-14T14:35:40Z</time>
      </trkpt>
      <trkpt lat="42.83886" lon="0.15377">
        <ele>2194.83</ele>
        <time>2009-03-14T14:35:53Z</time>
      </trkpt>
      <trkpt lat="42.83886" lon="0.15365">
        <ele>2195.31</ele>
        <time>2009-03-14T14:36:05Z</time>
      </trkpt>
      <trkpt lat="42.83885" lon="0.15352">
        <ele>2194.83</ele>
        <time>2009-03-14T14:36:17Z</time>
      </trkpt>
      <trkpt lat="42.83886" lon="0.15343">
        <ele>2194.83</ele>
        <time>2009-03-14T14:36:28Z</time>
      </trkpt>
      <trkpt lat="42.83886" lon="0.1533">
        <ele>2195.79</ele>
        <time>2009-03-14T14:36:41Z</time>
      </trkpt>
      <trkpt lat="42.83886" lon="0.15316">
        <ele>2194.83</ele>
        <time>2009-03-14T14:36:55Z</time>
      </trkpt>
      <trkpt lat="42.83888" lon="0.15302">
        <ele>2194.83</ele>
        <time>2009-03-14T14:37:08Z</time>
      </trkpt>
      <trkpt lat="42.83889" lon="0.15289">
        <ele>2195.31</ele>
        <time>2009-03-14T14:37:22Z</time>
      </trkpt>
      <trkpt lat="42.83888" lon="0.15276">
        <ele>2195.31</ele>
        <time>2009-03-14T14:37:34Z</time>
      </trkpt>
      <trkpt lat="42.8389" lon="0.15267">
        <ele>2194.83</ele>
        <time>2009-03-14T14:37:45Z</time>
      </trkpt>
      <trkpt lat="42.8389" lon="0.15255">
        <ele>2194.83</ele>
        <time>2009-03-14T14:37:58Z</time>
      </trkpt>
      <trkpt lat="42.83893" lon="0.15243">
        <ele>2194.35</ele>
        <time>2009-03-14T14:38:10Z</time>
      </trkpt>
      <trkpt lat="42.83895" lon="0.15232">
        <ele>2194.83</ele>
        <time>2009-03-14T14:38:21Z</time>
      </trkpt>
      <trkpt lat="42.83898" lon="0.15218">
        <ele>2194.83</ele>
        <time>2009-03-14T14:38:34Z</time>
      </trkpt>
      <trkpt lat="42.83899" lon="0.15207">
        <ele>2195.79</ele>
        <time>2009-03-14T14:38:46Z</time>
      </trkpt>
      <trkpt lat="42.839" lon="0.15196">
        <ele>2195.79</ele>
        <time>2009-03-14T14:38:56Z</time>
      </trkpt>
      <trkpt lat="42.83902" lon="0.15186">
        <ele>2195.31</ele>
        <time>2009-03-14T14:39:06Z</time>
      </trkpt>
      <trkpt lat="42.83904" lon="0.15173">
        <ele>2195.31</ele>
        <time>2009-03-14T14:39:19Z</time>
      </trkpt>
      <trkpt lat="42.83906" lon="0.15161">
        <ele>2195.31</ele>
        <time>2009-03-14T14:39:31Z</time>
      </trkpt>
      <trkpt lat="42.83907" lon="0.15147">
        <ele>2195.31</ele>
        <time>2009-03-14T14:39:45Z</time>
      </trkpt>
      <trkpt lat="42.83909" lon="0.15134">
        <ele>2195.79</ele>
        <time>2009-03-14T14:39:59Z</time>
      </trkpt>
      <trkpt lat="42.8391" lon="0.15122">
        <ele>2196.27</ele>
        <time>2009-03-14T14:40:10Z</time>
      </trkpt>
      <trkpt lat="42.83911" lon="0.15111">
        <ele>2196.75</ele>
        <time>2009-03-14T14:40:22Z</time>
      </trkpt>
      <trkpt lat="42.83914" lon="0.15101">
        <ele>2198.19</ele>
        <time>2009-03-14T14:40:34Z</time>
      </trkpt>
      <trkpt lat="42.83915" lon="0.15086">
        <ele>2198.67</ele>
        <time>2009-03-14T14:40:49Z</time>
      </trkpt>
      <trkpt lat="42.83914" lon="0.15074">
        <ele>2199.63</ele>
        <time>2009-03-14T14:41:01Z</time>
      </trkpt>
      <trkpt lat="42.83911" lon="0.15062">
        <ele>2200.11</ele>
        <time>2009-03-14T14:41:13Z</time>
      </trkpt>
      <trkpt lat="42.83908" lon="0.15052">
        <ele>2199.63</ele>
        <time>2009-03-14T14:41:24Z</time>
      </trkpt>
      <trkpt lat="42.83907" lon="0.15048">
        <ele>2199.63</ele>
        <time>2009-03-14T14:41:32Z</time>
      </trkpt>
      <trkpt lat="42.83906" lon="0.15047">
        <ele>2199.15</ele>
        <time>2009-03-14T14:41:45Z</time>
      </trkpt>
      <trkpt lat="42.83905" lon="0.15043">
        <ele>2199.63</ele>
        <time>2009-03-14T14:41:49Z</time>
      </trkpt>
      <trkpt lat="42.83902" lon="0.15034">
        <ele>2199.15</ele>
        <time>2009-03-14T14:41:56Z</time>
      </trkpt>
      <trkpt lat="42.83897" lon="0.15021">
        <ele>2199.15</ele>
        <time>2009-03-14T14:42:08Z</time>
      </trkpt>
      <trkpt lat="42.83895" lon="0.15019">
        <ele>2199.15</ele>
        <time>2009-03-14T14:42:11Z</time>
      </trkpt>
      <trkpt lat="42.83894" lon="0.15013">
        <ele>2199.15</ele>
        <time>2009-03-14T14:42:15Z</time>
      </trkpt>
      <trkpt lat="42.83891" lon="0.15004">
        <ele>2198.67</ele>
        <time>2009-03-14T14:42:21Z</time>
      </trkpt>
      <trkpt lat="42.83888" lon="0.14996">
        <ele>2199.15</ele>
        <time>2009-03-14T14:42:27Z</time>
      </trkpt>
      <trkpt lat="42.83882" lon="0.14983">
        <ele>2198.67</ele>
        <time>2009-03-14T14:42:38Z</time>
      </trkpt>
      <trkpt lat="42.8388" lon="0.1498">
        <ele>2198.67</ele>
        <time>2009-03-14T14:42:41Z</time>
      </trkpt>
      <trkpt lat="42.83878" lon="0.14976">
        <ele>2198.67</ele>
        <time>2009-03-14T14:42:45Z</time>
      </trkpt>
      <trkpt lat="42.83873" lon="0.14969">
        <ele>2198.67</ele>
        <time>2009-03-14T14:42:53Z</time>
      </trkpt>
      <trkpt lat="42.83864" lon="0.14956">
        <ele>2197.71</ele>
        <time>2009-03-14T14:43:05Z</time>
      </trkpt>
      <trkpt lat="42.8386" lon="0.14947">
        <ele>2198.19</ele>
        <time>2009-03-14T14:43:14Z</time>
      </trkpt>
      <trkpt lat="42.83853" lon="0.14927">
        <ele>2196.75</ele>
        <time>2009-03-14T14:43:27Z</time>
      </trkpt>
      <trkpt lat="42.83851" lon="0.14916">
        <ele>2196.27</ele>
        <time>2009-03-14T14:43:40Z</time>
      </trkpt>
      <trkpt lat="42.83849" lon="0.1491">
        <ele>2196.27</ele>
        <time>2009-03-14T14:43:50Z</time>
      </trkpt>
      <trkpt lat="42.83848" lon="0.14895">
        <ele>2196.27</ele>
        <time>2009-03-14T14:44:01Z</time>
      </trkpt>
      <trkpt lat="42.83847" lon="0.1488">
        <ele>2195.31</ele>
        <time>2009-03-14T14:44:10Z</time>
      </trkpt>
      <trkpt lat="42.83847" lon="0.14864">
        <ele>2193.87</ele>
        <time>2009-03-14T14:44:21Z</time>
      </trkpt>
      <trkpt lat="42.83848" lon="0.14842">
        <ele>2193.39</ele>
        <time>2009-03-14T14:44:34Z</time>
      </trkpt>
      <trkpt lat="42.83849" lon="0.14836">
        <ele>2193.39</ele>
        <time>2009-03-14T14:44:37Z</time>
      </trkpt>
      <trkpt lat="42.83849" lon="0.14832">
        <ele>2192.9</ele>
        <time>2009-03-14T14:44:39Z</time>
      </trkpt>
      <trkpt lat="42.83852" lon="0.14801">
        <ele>2191.46</ele>
        <time>2009-03-14T14:44:57Z</time>
      </trkpt>
      <trkpt lat="42.83852" lon="0.14784">
        <ele>2190.02</ele>
        <time>2009-03-14T14:45:08Z</time>
      </trkpt>
      <trkpt lat="42.83853" lon="0.14772">
        <ele>2189.06</ele>
        <time>2009-03-14T14:45:19Z</time>
      </trkpt>
      <trkpt lat="42.83853" lon="0.14771">
        <ele>2189.06</ele>
        <time>2009-03-14T14:45:23Z</time>
      </trkpt>
      <trkpt lat="42.83854" lon="0.14765">
        <ele>2188.58</ele>
        <time>2009-03-14T14:45:27Z</time>
      </trkpt>
      <trkpt lat="42.83856" lon="0.14755">
        <ele>2188.58</ele>
        <time>2009-03-14T14:45:33Z</time>
      </trkpt>
      <trkpt lat="42.83856" lon="0.14748">
        <ele>2188.1</ele>
        <time>2009-03-14T14:45:37Z</time>
      </trkpt>
      <trkpt lat="42.83858" lon="0.14734">
        <ele>2187.62</ele>
        <time>2009-03-14T14:45:46Z</time>
      </trkpt>
      <trkpt lat="42.83859" lon="0.14727">
        <ele>2187.14</ele>
        <time>2009-03-14T14:45:50Z</time>
      </trkpt>
      <trkpt lat="42.8386" lon="0.1472">
        <ele>2187.14</ele>
        <time>2009-03-14T14:45:54Z</time>
      </trkpt>
      <trkpt lat="42.83864" lon="0.14705">
        <ele>2186.66</ele>
        <time>2009-03-14T14:46:05Z</time>
      </trkpt>
      <trkpt lat="42.83866" lon="0.14699">
        <ele>2186.18</ele>
        <time>2009-03-14T14:46:09Z</time>
      </trkpt>
      <trkpt lat="42.83873" lon="0.14679">
        <ele>2184.25</ele>
        <time>2009-03-14T14:46:22Z</time>
      </trkpt>
      <trkpt lat="42.83879" lon="0.14661">
        <ele>2184.25</ele>
        <time>2009-03-14T14:46:35Z</time>
      </trkpt>
      <trkpt lat="42.83885" lon="0.14647">
        <ele>2183.29</ele>
        <time>2009-03-14T14:46:46Z</time>
      </trkpt>
      <trkpt lat="42.83889" lon="0.14639">
        <ele>2181.85</ele>
        <time>2009-03-14T14:46:52Z</time>
      </trkpt>
      <trkpt lat="42.83894" lon="0.14632">
        <ele>2181.37</ele>
        <time>2009-03-14T14:46:57Z</time>
      </trkpt>
      <trkpt lat="42.83903" lon="0.14617">
        <ele>2180.89</ele>
        <time>2009-03-14T14:47:08Z</time>
      </trkpt>
      <trkpt lat="42.83912" lon="0.14606">
        <ele>2180.41</ele>
        <time>2009-03-14T14:47:20Z</time>
      </trkpt>
      <trkpt lat="42.8392" lon="0.14597">
        <ele>2180.41</ele>
        <time>2009-03-14T14:47:29Z</time>
      </trkpt>
      <trkpt lat="42.83927" lon="0.14589">
        <ele>2179.93</ele>
        <time>2009-03-14T14:47:37Z</time>
      </trkpt>
      <trkpt lat="42.83933" lon="0.1458">
        <ele>2179.93</ele>
        <time>2009-03-14T14:47:46Z</time>
      </trkpt>
      <trkpt lat="42.83937" lon="0.14573">
        <ele>2179.93</ele>
        <time>2009-03-14T14:47:52Z</time>
      </trkpt>
      <trkpt lat="42.83942" lon="0.14565">
        <ele>2178.48</ele>
        <time>2009-03-14T14:47:58Z</time>
      </trkpt>
      <trkpt lat="42.83946" lon="0.14559">
        <ele>2178</ele>
        <time>2009-03-14T14:48:03Z</time>
      </trkpt>
      <trkpt lat="42.83957" lon="0.14539">
        <ele>2176.56</ele>
        <time>2009-03-14T14:48:18Z</time>
      </trkpt>
      <trkpt lat="42.83958" lon="0.14536">
        <ele>2176.56</ele>
        <time>2009-03-14T14:48:20Z</time>
      </trkpt>
      <trkpt lat="42.83962" lon="0.1453">
        <ele>2176.08</ele>
        <time>2009-03-14T14:48:24Z</time>
      </trkpt>
      <trkpt lat="42.83965" lon="0.14524">
        <ele>2175.6</ele>
        <time>2009-03-14T14:48:28Z</time>
      </trkpt>
      <trkpt lat="42.83973" lon="0.14505">
        <ele>2174.64</ele>
        <time>2009-03-14T14:48:40Z</time>
      </trkpt>
      <trkpt lat="42.8398" lon="0.14489">
        <ele>2172.72</ele>
        <time>2009-03-14T14:48:53Z</time>
      </trkpt>
      <trkpt lat="42.8398" lon="0.14488">
        <ele>2172.72</ele>
        <time>2009-03-14T14:49:11Z</time>
      </trkpt>
      <trkpt lat="42.8398" lon="0.14488">
        <ele>2172.24</ele>
        <time>2009-03-14T14:49:32Z</time>
      </trkpt>
      <trkpt lat="42.8398" lon="0.14486">
        <ele>2173.2</ele>
        <time>2009-03-14T14:49:43Z</time>
      </trkpt>
      <trkpt lat="42.83982" lon="0.14484">
        <ele>2173.2</ele>
        <time>2009-03-14T14:49:56Z</time>
      </trkpt>
      <trkpt lat="42.8399" lon="0.14464">
        <ele>2170.79</ele>
        <time>2009-03-14T14:50:08Z</time>
      </trkpt>
      <trkpt lat="42.83999" lon="0.14445">
        <ele>2168.87</ele>
        <time>2009-03-14T14:50:20Z</time>
      </trkpt>
      <trkpt lat="42.84002" lon="0.14439">
        <ele>2168.87</ele>
        <time>2009-03-14T14:50:24Z</time>
      </trkpt>
      <trkpt lat="42.8401" lon="0.14426">
        <ele>2167.91</ele>
        <time>2009-03-14T14:50:34Z</time>
      </trkpt>
      <trkpt lat="42.84018" lon="0.14407">
        <ele>2166.47</ele>
        <time>2009-03-14T14:50:47Z</time>
      </trkpt>
      <trkpt lat="42.84026" lon="0.14386">
        <ele>2164.06</ele>
        <time>2009-03-14T14:50:59Z</time>
      </trkpt>
      <trkpt lat="42.84027" lon="0.14375">
        <ele>2163.58</ele>
        <time>2009-03-14T14:51:12Z</time>
      </trkpt>
      <trkpt lat="42.8403" lon="0.14373">
        <ele>2163.58</ele>
        <time>2009-03-14T14:51:20Z</time>
      </trkpt>
      <trkpt lat="42.84034" lon="0.14371">
        <ele>2163.1</ele>
        <time>2009-03-14T14:51:30Z</time>
      </trkpt>
      <trkpt lat="42.84035" lon="0.14368">
        <ele>2163.1</ele>
        <time>2009-03-14T14:51:33Z</time>
      </trkpt>
      <trkpt lat="42.84038" lon="0.14362">
        <ele>2162.62</ele>
        <time>2009-03-14T14:51:38Z</time>
      </trkpt>
      <trkpt lat="42.84036" lon="0.14359">
        <ele>2162.14</ele>
        <time>2009-03-14T14:51:46Z</time>
      </trkpt>
      <trkpt lat="42.84037" lon="0.14361">
        <ele>2162.62</ele>
        <time>2009-03-14T14:51:55Z</time>
      </trkpt>
      <trkpt lat="42.84039" lon="0.14363">
        <ele>2162.14</ele>
        <time>2009-03-14T14:52:14Z</time>
      </trkpt>
      <trkpt lat="42.84033" lon="0.14355">
        <ele>2161.66</ele>
        <time>2009-03-14T14:52:21Z</time>
      </trkpt>
      <trkpt lat="42.8403" lon="0.14353">
        <ele>2160.7</ele>
        <time>2009-03-14T14:52:23Z</time>
      </trkpt>
      <trkpt lat="42.84025" lon="0.14349">
        <ele>2159.74</ele>
        <time>2009-03-14T14:52:26Z</time>
      </trkpt>
      <trkpt lat="42.84023" lon="0.14346">
        <ele>2159.74</ele>
        <time>2009-03-14T14:52:28Z</time>
      </trkpt>
      <trkpt lat="42.8402" lon="0.14341">
        <ele>2159.74</ele>
        <time>2009-03-14T14:52:32Z</time>
      </trkpt>
      <trkpt lat="42.84019" lon="0.14339">
        <ele>2159.74</ele>
        <time>2009-03-14T14:52:34Z</time>
      </trkpt>
      <trkpt lat="42.84016" lon="0.14336">
        <ele>2158.78</ele>
        <time>2009-03-14T14:52:46Z</time>
      </trkpt>
      <trkpt lat="42.84017" lon="0.14335">
        <ele>2158.78</ele>
        <time>2009-03-14T14:52:59Z</time>
      </trkpt>
      <trkpt lat="42.84017" lon="0.14334">
        <ele>2158.78</ele>
        <time>2009-03-14T14:53:05Z</time>
      </trkpt>
      <trkpt lat="42.84016" lon="0.14332">
        <ele>2156.86</ele>
        <time>2009-03-14T14:53:09Z</time>
      </trkpt>
      <trkpt lat="42.84016" lon="0.14332">
        <ele>2162.14</ele>
        <time>2009-03-14T14:53:46Z</time>
      </trkpt>
      <trkpt lat="42.84016" lon="0.14333">
        <ele>2157.82</ele>
        <time>2009-03-14T14:53:47Z</time>
      </trkpt>
      <trkpt lat="42.84016" lon="0.14332">
        <ele>2157.34</ele>
        <time>2009-03-14T14:54:28Z</time>
      </trkpt>
      <trkpt lat="42.84016" lon="0.14332">
        <ele>2156.86</ele>
        <time>2009-03-14T14:54:34Z</time>
      </trkpt>
      <trkpt lat="42.84016" lon="0.14332">
        <ele>2157.82</ele>
        <time>2009-03-14T14:54:37Z</time>
      </trkpt>
      <trkpt lat="42.84016" lon="0.14333">
        <ele>2158.3</ele>
        <time>2009-03-14T14:54:48Z</time>
      </trkpt>
      <trkpt lat="42.84016" lon="0.14333">
        <ele>2152.05</ele>
        <time>2009-03-14T14:54:54Z</time>
      </trkpt>
      <trkpt lat="42.84016" lon="0.14333">
        <ele>2160.7</ele>
        <time>2009-03-14T14:54:55Z</time>
      </trkpt>
      <trkpt lat="42.84016" lon="0.14333">
        <ele>2158.78</ele>
        <time>2009-03-14T14:54:56Z</time>
      </trkpt>
      <trkpt lat="42.84016" lon="0.14333">
        <ele>2157.34</ele>
        <time>2009-03-14T14:54:58Z</time>
      </trkpt>
      <trkpt lat="42.84016" lon="0.14333">
        <ele>2160.22</ele>
        <time>2009-03-15T05:53:57Z</time>
      </trkpt>
      <trkpt lat="42.84016" lon="0.14333">
        <ele>2107.83</ele>
        <time>2009-03-15T05:53:59Z</time>
      </trkpt>
      <trkpt lat="42.84016" lon="0.14333">
        <ele>2109.27</ele>
        <time>2009-03-15T05:54:05Z</time>
      </trkpt>
      <trkpt lat="42.84016" lon="0.14333">
        <ele>2107.83</ele>
        <time>2009-03-15T05:54:06Z</time>
      </trkpt>
      <trkpt lat="42.84016" lon="0.14333">
        <ele>2105.42</ele>
        <time>2009-03-15T05:54:13Z</time>
      </trkpt>
      <trkpt lat="42.84016" lon="0.14333">
        <ele>2106.87</ele>
        <time>2009-03-15T05:54:14Z</time>
      </trkpt>
      <trkpt lat="42.84016" lon="0.14333">
        <ele>2108.79</ele>
        <time>2009-03-15T05:54:17Z</time>
      </trkpt>
      <trkpt lat="42.84016" lon="0.14333">
        <ele>2105.91</ele>
        <time>2009-03-15T05:54:19Z</time>
      </trkpt>
      <trkpt lat="42.84016" lon="0.14333">
        <ele>2108.79</ele>
        <time>2009-03-15T05:54:21Z</time>
      </trkpt>
      <trkpt lat="42.84007" lon="0.14348">
        <ele>2108.31</ele>
        <time>2009-03-15T05:54:59Z</time>
      </trkpt>
      <trkpt lat="42.84009" lon="0.14349">
        <ele>2111.67</ele>
        <time>2009-03-15T05:55:14Z</time>
      </trkpt>
      <trkpt lat="42.84008" lon="0.14348">
        <ele>2115.52</ele>
        <time>2009-03-15T05:55:17Z</time>
      </trkpt>
      <trkpt lat="42.84008" lon="0.14347">
        <ele>2118.88</ele>
        <time>2009-03-15T05:55:20Z</time>
      </trkpt>
      <trkpt lat="42.84007" lon="0.14345">
        <ele>2123.21</ele>
        <time>2009-03-15T05:55:24Z</time>
      </trkpt>
      <trkpt lat="42.84003" lon="0.1433">
        <ele>2127.53</ele>
        <time>2009-03-15T05:55:29Z</time>
      </trkpt>
      <trkpt lat="42.84004" lon="0.14329">
        <ele>2130.9</ele>
        <time>2009-03-15T05:55:33Z</time>
      </trkpt>
      <trkpt lat="42.84003" lon="0.14329">
        <ele>2135.23</ele>
        <time>2009-03-15T05:55:37Z</time>
      </trkpt>
      <trkpt lat="42.84003" lon="0.14329">
        <ele>2138.59</ele>
        <time>2009-03-15T05:55:41Z</time>
      </trkpt>
      <trkpt lat="42.84003" lon="0.14329">
        <ele>2140.51</ele>
        <time>2009-03-15T05:55:44Z</time>
      </trkpt>
      <trkpt lat="42.84003" lon="0.14329">
        <ele>2143.4</ele>
        <time>2009-03-15T05:55:48Z</time>
      </trkpt>
      <trkpt lat="42.84002" lon="0.14328">
        <ele>2146.28</ele>
        <time>2009-03-15T05:55:53Z</time>
      </trkpt>
      <trkpt lat="42.84002" lon="0.14329">
        <ele>2149.16</ele>
        <time>2009-03-15T05:55:58Z</time>
      </trkpt>
      <trkpt lat="42.84002" lon="0.14328">
        <ele>2150.13</ele>
        <time>2009-03-15T05:56:01Z</time>
      </trkpt>
      <trkpt lat="42.84001" lon="0.14326">
        <ele>2153.49</ele>
        <time>2009-03-15T05:56:11Z</time>
      </trkpt>
      <trkpt lat="42.83998" lon="0.14319">
        <ele>2153.97</ele>
        <time>2009-03-15T05:56:19Z</time>
      </trkpt>
      <trkpt lat="42.83987" lon="0.14298">
        <ele>2151.09</ele>
        <time>2009-03-15T05:56:27Z</time>
      </trkpt>
      <trkpt lat="42.83984" lon="0.1429">
        <ele>2150.13</ele>
        <time>2009-03-15T05:56:29Z</time>
      </trkpt>
      <trkpt lat="42.83983" lon="0.14287">
        <ele>2150.13</ele>
        <time>2009-03-15T05:56:30Z</time>
      </trkpt>
      <trkpt lat="42.83976" lon="0.14284">
        <ele>2150.13</ele>
        <time>2009-03-15T05:56:43Z</time>
      </trkpt>
      <trkpt lat="42.83976" lon="0.14285">
        <ele>2150.13</ele>
        <time>2009-03-15T05:56:55Z</time>
      </trkpt>
      <trkpt lat="42.83974" lon="0.14283">
        <ele>2150.13</ele>
        <time>2009-03-15T05:57:14Z</time>
      </trkpt>
      <trkpt lat="42.8397" lon="0.14278">
        <ele>2149.65</ele>
        <time>2009-03-15T05:57:26Z</time>
      </trkpt>
      <trkpt lat="42.8396" lon="0.14262">
        <ele>2148.2</ele>
        <time>2009-03-15T05:57:41Z</time>
      </trkpt>
      <trkpt lat="42.83949" lon="0.14244">
        <ele>2145.32</ele>
        <time>2009-03-15T05:57:56Z</time>
      </trkpt>
      <trkpt lat="42.83948" lon="0.14243">
        <ele>2145.8</ele>
        <time>2009-03-15T05:57:58Z</time>
      </trkpt>
      <trkpt lat="42.83938" lon="0.14231">
        <ele>2145.32</ele>
        <time>2009-03-15T05:58:11Z</time>
      </trkpt>
      <trkpt lat="42.8393" lon="0.14221">
        <ele>2144.84</ele>
        <time>2009-03-15T05:58:22Z</time>
      </trkpt>
      <trkpt lat="42.83921" lon="0.14205">
        <ele>2144.36</ele>
        <time>2009-03-15T05:58:36Z</time>
      </trkpt>
      <trkpt lat="42.83916" lon="0.14192">
        <ele>2143.88</ele>
        <time>2009-03-15T05:58:48Z</time>
      </trkpt>
      <trkpt lat="42.8391" lon="0.14178">
        <ele>2143.88</ele>
        <time>2009-03-15T05:59:03Z</time>
      </trkpt>
      <trkpt lat="42.83904" lon="0.14164">
        <ele>2143.88</ele>
        <time>2009-03-15T05:59:15Z</time>
      </trkpt>
      <trkpt lat="42.83896" lon="0.1415">
        <ele>2144.84</ele>
        <time>2009-03-15T05:59:28Z</time>
      </trkpt>
      <trkpt lat="42.83889" lon="0.14139">
        <ele>2144.36</ele>
        <time>2009-03-15T05:59:40Z</time>
      </trkpt>
      <trkpt lat="42.83887" lon="0.14136">
        <ele>2144.84</ele>
        <time>2009-03-15T05:59:44Z</time>
      </trkpt>
      <trkpt lat="42.83882" lon="0.14124">
        <ele>2144.84</ele>
        <time>2009-03-15T05:59:58Z</time>
      </trkpt>
      <trkpt lat="42.83878" lon="0.14117">
        <ele>2144.36</ele>
        <time>2009-03-15T06:00:10Z</time>
      </trkpt>
      <trkpt lat="42.83875" lon="0.14112">
        <ele>2144.84</ele>
        <time>2009-03-15T06:00:20Z</time>
      </trkpt>
      <trkpt lat="42.83869" lon="0.14099">
        <ele>2143.4</ele>
        <time>2009-03-15T06:00:30Z</time>
      </trkpt>
      <trkpt lat="42.83864" lon="0.14093">
        <ele>2142.92</ele>
        <time>2009-03-15T06:00:35Z</time>
      </trkpt>
      <trkpt lat="42.83856" lon="0.14078">
        <ele>2143.4</ele>
        <time>2009-03-15T06:00:49Z</time>
      </trkpt>
      <trkpt lat="42.83853" lon="0.14072">
        <ele>2143.4</ele>
        <time>2009-03-15T06:00:55Z</time>
      </trkpt>
      <trkpt lat="42.83849" lon="0.14065">
        <ele>2143.4</ele>
        <time>2009-03-15T06:01:02Z</time>
      </trkpt>
      <trkpt lat="42.83848" lon="0.14063">
        <ele>2143.4</ele>
        <time>2009-03-15T06:01:04Z</time>
      </trkpt>
      <trkpt lat="42.83846" lon="0.14059">
        <ele>2143.88</ele>
        <time>2009-03-15T06:01:08Z</time>
      </trkpt>
      <trkpt lat="42.83842" lon="0.14052">
        <ele>2143.88</ele>
        <time>2009-03-15T06:01:15Z</time>
      </trkpt>
      <trkpt lat="42.83835" lon="0.14036">
        <ele>2143.88</ele>
        <time>2009-03-15T06:01:29Z</time>
      </trkpt>
      <trkpt lat="42.83828" lon="0.14024">
        <ele>2143.88</ele>
        <time>2009-03-15T06:01:43Z</time>
      </trkpt>
      <trkpt lat="42.83824" lon="0.1402">
        <ele>2144.36</ele>
        <time>2009-03-15T06:01:49Z</time>
      </trkpt>
      <trkpt lat="42.83817" lon="0.14008">
        <ele>2145.8</ele>
        <time>2009-03-15T06:02:04Z</time>
      </trkpt>
      <trkpt lat="42.8381" lon="0.13999">
        <ele>2146.76</ele>
        <time>2009-03-15T06:02:17Z</time>
      </trkpt>
      <trkpt lat="42.83804" lon="0.13998">
        <ele>2148.68</ele>
        <time>2009-03-15T06:02:30Z</time>
      </trkpt>
      <trkpt lat="42.83799" lon="0.14002">
        <ele>2149.16</ele>
        <time>2009-03-15T06:02:44Z</time>
      </trkpt>
      <trkpt lat="42.83795" lon="0.14003">
        <ele>2151.09</ele>
        <time>2009-03-15T06:02:56Z</time>
      </trkpt>
      <trkpt lat="42.83789" lon="0.14005">
        <ele>2151.09</ele>
        <time>2009-03-15T06:03:09Z</time>
      </trkpt>
      <trkpt lat="42.83781" lon="0.14007">
        <ele>2152.53</ele>
        <time>2009-03-15T06:03:23Z</time>
      </trkpt>
      <trkpt lat="42.83774" lon="0.14009">
        <ele>2154.45</ele>
        <time>2009-03-15T06:03:38Z</time>
      </trkpt>
      <trkpt lat="42.83767" lon="0.14006">
        <ele>2156.37</ele>
        <time>2009-03-15T06:03:51Z</time>
      </trkpt>
      <trkpt lat="42.83759" lon="0.14001">
        <ele>2157.82</ele>
        <time>2009-03-15T06:04:05Z</time>
      </trkpt>
      <trkpt lat="42.83754" lon="0.13995">
        <ele>2158.78</ele>
        <time>2009-03-15T06:04:19Z</time>
      </trkpt>
      <trkpt lat="42.83753" lon="0.13987">
        <ele>2160.7</ele>
        <time>2009-03-15T06:04:32Z</time>
      </trkpt>
      <trkpt lat="42.83754" lon="0.13978">
        <ele>2163.1</ele>
        <time>2009-03-15T06:04:45Z</time>
      </trkpt>
      <trkpt lat="42.83753" lon="0.13975">
        <ele>2164.06</ele>
        <time>2009-03-15T06:04:50Z</time>
      </trkpt>
      <trkpt lat="42.83751" lon="0.13967">
        <ele>2165.03</ele>
        <time>2009-03-15T06:05:03Z</time>
      </trkpt>
      <trkpt lat="42.83748" lon="0.13957">
        <ele>2166.47</ele>
        <time>2009-03-15T06:05:17Z</time>
      </trkpt>
      <trkpt lat="42.83745" lon="0.1395">
        <ele>2168.87</ele>
        <time>2009-03-15T06:05:31Z</time>
      </trkpt>
      <trkpt lat="42.83742" lon="0.13941">
        <ele>2169.83</ele>
        <time>2009-03-15T06:05:44Z</time>
      </trkpt>
      <trkpt lat="42.83737" lon="0.13942">
        <ele>2171.27</ele>
        <time>2009-03-15T06:05:55Z</time>
      </trkpt>
      <trkpt lat="42.83728" lon="0.13948">
        <ele>2173.68</ele>
        <time>2009-03-15T06:06:10Z</time>
      </trkpt>
      <trkpt lat="42.83723" lon="0.13953">
        <ele>2174.16</ele>
        <time>2009-03-15T06:06:24Z</time>
      </trkpt>
      <trkpt lat="42.83717" lon="0.13956">
        <ele>2176.08</ele>
        <time>2009-03-15T06:06:38Z</time>
      </trkpt>
      <trkpt lat="42.83712" lon="0.13958">
        <ele>2177.52</ele>
        <time>2009-03-15T06:06:51Z</time>
      </trkpt>
      <trkpt lat="42.83705" lon="0.1396">
        <ele>2179.93</ele>
        <time>2009-03-15T06:07:06Z</time>
      </trkpt>
      <trkpt lat="42.83699" lon="0.13964">
        <ele>2181.37</ele>
        <time>2009-03-15T06:07:20Z</time>
      </trkpt>
      <trkpt lat="42.83693" lon="0.13966">
        <ele>2182.81</ele>
        <time>2009-03-15T06:07:33Z</time>
      </trkpt>
      <trkpt lat="42.83686" lon="0.13969">
        <ele>2184.73</ele>
        <time>2009-03-15T06:07:46Z</time>
      </trkpt>
      <trkpt lat="42.83678" lon="0.1397">
        <ele>2185.69</ele>
        <time>2009-03-15T06:08:01Z</time>
      </trkpt>
      <trkpt lat="42.83672" lon="0.1397">
        <ele>2187.62</ele>
        <time>2009-03-15T06:08:14Z</time>
      </trkpt>
      <trkpt lat="42.83664" lon="0.13969">
        <ele>2189.06</ele>
        <time>2009-03-15T06:08:27Z</time>
      </trkpt>
      <trkpt lat="42.83658" lon="0.1397">
        <ele>2190.5</ele>
        <time>2009-03-15T06:08:40Z</time>
      </trkpt>
      <trkpt lat="42.83651" lon="0.13969">
        <ele>2192.9</ele>
        <time>2009-03-15T06:08:54Z</time>
      </trkpt>
      <trkpt lat="42.83643" lon="0.13966">
        <ele>2193.87</ele>
        <time>2009-03-15T06:09:08Z</time>
      </trkpt>
      <trkpt lat="42.83636" lon="0.13961">
        <ele>2196.27</ele>
        <time>2009-03-15T06:09:21Z</time>
      </trkpt>
      <trkpt lat="42.83629" lon="0.13955">
        <ele>2197.23</ele>
        <time>2009-03-15T06:09:33Z</time>
      </trkpt>
      <trkpt lat="42.83624" lon="0.13949">
        <ele>2198.67</ele>
        <time>2009-03-15T06:09:45Z</time>
      </trkpt>
      <trkpt lat="42.83621" lon="0.13943">
        <ele>2200.59</ele>
        <time>2009-03-15T06:09:59Z</time>
      </trkpt>
      <trkpt lat="42.83619" lon="0.13939">
        <ele>2202.52</ele>
        <time>2009-03-15T06:10:12Z</time>
      </trkpt>
      <trkpt lat="42.83617" lon="0.13932">
        <ele>2203.96</ele>
        <time>2009-03-15T06:10:24Z</time>
      </trkpt>
      <trkpt lat="42.83614" lon="0.13924">
        <ele>2205.88</ele>
        <time>2009-03-15T06:10:37Z</time>
      </trkpt>
      <trkpt lat="42.83612" lon="0.13918">
        <ele>2207.81</ele>
        <time>2009-03-15T06:10:48Z</time>
      </trkpt>
      <trkpt lat="42.83608" lon="0.13912">
        <ele>2209.25</ele>
        <time>2009-03-15T06:11:00Z</time>
      </trkpt>
      <trkpt lat="42.83602" lon="0.13908">
        <ele>2210.69</ele>
        <time>2009-03-15T06:11:12Z</time>
      </trkpt>
      <trkpt lat="42.83596" lon="0.13902">
        <ele>2212.13</ele>
        <time>2009-03-15T06:11:26Z</time>
      </trkpt>
      <trkpt lat="42.83589" lon="0.13897">
        <ele>2213.57</ele>
        <time>2009-03-15T06:11:38Z</time>
      </trkpt>
      <trkpt lat="42.83584" lon="0.13895">
        <ele>2215.98</ele>
        <time>2009-03-15T06:11:50Z</time>
      </trkpt>
      <trkpt lat="42.83577" lon="0.13893">
        <ele>2216.46</ele>
        <time>2009-03-15T06:12:02Z</time>
      </trkpt>
      <trkpt lat="42.83574" lon="0.13892">
        <ele>2217.42</ele>
        <time>2009-03-15T06:12:11Z</time>
      </trkpt>
      <trkpt lat="42.83565" lon="0.13889">
        <ele>2219.34</ele>
        <time>2009-03-15T06:12:25Z</time>
      </trkpt>
      <trkpt lat="42.8356" lon="0.13888">
        <ele>2220.3</ele>
        <time>2009-03-15T06:12:37Z</time>
      </trkpt>
      <trkpt lat="42.83554" lon="0.13887">
        <ele>2221.74</ele>
        <time>2009-03-15T06:12:48Z</time>
      </trkpt>
      <trkpt lat="42.83545" lon="0.13884">
        <ele>2222.71</ele>
        <time>2009-03-15T06:13:02Z</time>
      </trkpt>
      <trkpt lat="42.83539" lon="0.13885">
        <ele>2224.15</ele>
        <time>2009-03-15T06:13:13Z</time>
      </trkpt>
      <trkpt lat="42.83535" lon="0.13888">
        <ele>2226.07</ele>
        <time>2009-03-15T06:13:25Z</time>
      </trkpt>
      <trkpt lat="42.83528" lon="0.13893">
        <ele>2227.99</ele>
        <time>2009-03-15T06:13:39Z</time>
      </trkpt>
      <trkpt lat="42.83524" lon="0.13899">
        <ele>2228.47</ele>
        <time>2009-03-15T06:13:52Z</time>
      </trkpt>
      <trkpt lat="42.8352" lon="0.13896">
        <ele>2230.4</ele>
        <time>2009-03-15T06:14:03Z</time>
      </trkpt>
      <trkpt lat="42.83518" lon="0.13887">
        <ele>2231.84</ele>
        <time>2009-03-15T06:14:16Z</time>
      </trkpt>
      <trkpt lat="42.83515" lon="0.13878">
        <ele>2233.28</ele>
        <time>2009-03-15T06:14:30Z</time>
      </trkpt>
      <trkpt lat="42.83513" lon="0.13868">
        <ele>2234.72</ele>
        <time>2009-03-15T06:14:44Z</time>
      </trkpt>
      <trkpt lat="42.83511" lon="0.13861">
        <ele>2235.68</ele>
        <time>2009-03-15T06:14:56Z</time>
      </trkpt>
      <trkpt lat="42.83506" lon="0.13862">
        <ele>2237.61</ele>
        <time>2009-03-15T06:15:07Z</time>
      </trkpt>
      <trkpt lat="42.83502" lon="0.13866">
        <ele>2239.05</ele>
        <time>2009-03-15T06:15:20Z</time>
      </trkpt>
      <trkpt lat="42.83497" lon="0.13873">
        <ele>2240.97</ele>
        <time>2009-03-15T06:15:33Z</time>
      </trkpt>
      <trkpt lat="42.83492" lon="0.13878">
        <ele>2241.93</ele>
        <time>2009-03-15T06:15:44Z</time>
      </trkpt>
      <trkpt lat="42.83487" lon="0.13882">
        <ele>2242.89</ele>
        <time>2009-03-15T06:15:55Z</time>
      </trkpt>
      <trkpt lat="42.83481" lon="0.13885">
        <ele>2244.33</ele>
        <time>2009-03-15T06:16:08Z</time>
      </trkpt>
      <trkpt lat="42.83476" lon="0.13889">
        <ele>2246.74</ele>
        <time>2009-03-15T06:16:22Z</time>
      </trkpt>
      <trkpt lat="42.83474" lon="0.13882">
        <ele>2247.7</ele>
        <time>2009-03-15T06:16:34Z</time>
      </trkpt>
      <trkpt lat="42.83474" lon="0.13877">
        <ele>2249.14</ele>
        <time>2009-03-15T06:16:47Z</time>
      </trkpt>
      <trkpt lat="42.83475" lon="0.13871">
        <ele>2250.1</ele>
        <time>2009-03-15T06:17:00Z</time>
      </trkpt>
      <trkpt lat="42.83475" lon="0.13864">
        <ele>2250.58</ele>
        <time>2009-03-15T06:17:14Z</time>
      </trkpt>
      <trkpt lat="42.83474" lon="0.1386">
        <ele>2252.99</ele>
        <time>2009-03-15T06:17:27Z</time>
      </trkpt>
      <trkpt lat="42.83474" lon="0.13853">
        <ele>2253.47</ele>
        <time>2009-03-15T06:17:38Z</time>
      </trkpt>
      <trkpt lat="42.83474" lon="0.1385">
        <ele>2254.91</ele>
        <time>2009-03-15T06:17:55Z</time>
      </trkpt>
      <trkpt lat="42.83474" lon="0.13841">
        <ele>2255.87</ele>
        <time>2009-03-15T06:18:07Z</time>
      </trkpt>
      <trkpt lat="42.83474" lon="0.13835">
        <ele>2256.83</ele>
        <time>2009-03-15T06:18:20Z</time>
      </trkpt>
      <trkpt lat="42.83474" lon="0.1383">
        <ele>2259.24</ele>
        <time>2009-03-15T06:18:46Z</time>
      </trkpt>
      <trkpt lat="42.83469" lon="0.13824">
        <ele>2260.2</ele>
        <time>2009-03-15T06:18:58Z</time>
      </trkpt>
      <trkpt lat="42.83465" lon="0.13818">
        <ele>2263.08</ele>
        <time>2009-03-15T06:19:10Z</time>
      </trkpt>
      <trkpt lat="42.83464" lon="0.13815">
        <ele>2264.04</ele>
        <time>2009-03-15T06:19:24Z</time>
      </trkpt>
      <trkpt lat="42.83461" lon="0.13809">
        <ele>2265</ele>
        <time>2009-03-15T06:19:39Z</time>
      </trkpt>
      <trkpt lat="42.83458" lon="0.13801">
        <ele>2266.93</ele>
        <time>2009-03-15T06:19:51Z</time>
      </trkpt>
      <trkpt lat="42.83455" lon="0.13793">
        <ele>2268.37</ele>
        <time>2009-03-15T06:20:03Z</time>
      </trkpt>
      <trkpt lat="42.83452" lon="0.13785">
        <ele>2269.81</ele>
        <time>2009-03-15T06:20:15Z</time>
      </trkpt>
      <trkpt lat="42.83448" lon="0.13775">
        <ele>2271.25</ele>
        <time>2009-03-15T06:20:29Z</time>
      </trkpt>
      <trkpt lat="42.83445" lon="0.13767">
        <ele>2273.17</ele>
        <time>2009-03-15T06:20:42Z</time>
      </trkpt>
      <trkpt lat="42.83441" lon="0.13757">
        <ele>2274.14</ele>
        <time>2009-03-15T06:20:54Z</time>
      </trkpt>
      <trkpt lat="42.83438" lon="0.1375">
        <ele>2274.14</ele>
        <time>2009-03-15T06:21:07Z</time>
      </trkpt>
      <trkpt lat="42.83438" lon="0.13751">
        <ele>2274.62</ele>
        <time>2009-03-15T06:21:19Z</time>
      </trkpt>
      <trkpt lat="42.83438" lon="0.1375">
        <ele>2274.14</ele>
        <time>2009-03-15T06:21:36Z</time>
      </trkpt>
      <trkpt lat="42.83438" lon="0.1375">
        <ele>2271.73</ele>
        <time>2009-03-15T06:21:38Z</time>
      </trkpt>
      <trkpt lat="42.83438" lon="0.1375">
        <ele>2275.1</ele>
        <time>2009-03-15T06:21:53Z</time>
      </trkpt>
      <trkpt lat="42.83438" lon="0.1375">
        <ele>2270.29</ele>
        <time>2009-03-15T06:23:27Z</time>
      </trkpt>
      <trkpt lat="42.83438" lon="0.13751">
        <ele>2273.17</ele>
        <time>2009-03-15T06:23:28Z</time>
      </trkpt>
      <trkpt lat="42.83437" lon="0.13753">
        <ele>2273.17</ele>
        <time>2009-03-15T06:23:55Z</time>
      </trkpt>
      <trkpt lat="42.83439" lon="0.13752">
        <ele>2275.1</ele>
        <time>2009-03-15T06:26:32Z</time>
      </trkpt>
      <trkpt lat="42.83442" lon="0.13753">
        <ele>2275.1</ele>
        <time>2009-03-15T06:26:43Z</time>
      </trkpt>
      <trkpt lat="42.83442" lon="0.13754">
        <ele>2274.62</ele>
        <time>2009-03-15T06:27:00Z</time>
      </trkpt>
      <trkpt lat="42.83441" lon="0.13749">
        <ele>2274.62</ele>
        <time>2009-03-15T06:27:11Z</time>
      </trkpt>
      <trkpt lat="42.83442" lon="0.13747">
        <ele>2275.58</ele>
        <time>2009-03-15T06:27:23Z</time>
      </trkpt>
      <trkpt lat="42.83442" lon="0.13747">
        <ele>2274.62</ele>
        <time>2009-03-15T06:27:32Z</time>
      </trkpt>
      <trkpt lat="42.83443" lon="0.13743">
        <ele>2276.06</ele>
        <time>2009-03-15T06:27:42Z</time>
      </trkpt>
      <trkpt lat="42.83447" lon="0.13736">
        <ele>2277.02</ele>
        <time>2009-03-15T06:27:53Z</time>
      </trkpt>
      <trkpt lat="42.83449" lon="0.13726">
        <ele>2277.98</ele>
        <time>2009-03-15T06:28:05Z</time>
      </trkpt>
      <trkpt lat="42.83452" lon="0.1372">
        <ele>2278.94</ele>
        <time>2009-03-15T06:28:17Z</time>
      </trkpt>
      <trkpt lat="42.83454" lon="0.13713">
        <ele>2278.94</ele>
        <time>2009-03-15T06:28:25Z</time>
      </trkpt>
      <trkpt lat="42.83457" lon="0.13705">
        <ele>2279.9</ele>
        <time>2009-03-15T06:28:37Z</time>
      </trkpt>
      <trkpt lat="42.83459" lon="0.13695">
        <ele>2279.42</ele>
        <time>2009-03-15T06:28:50Z</time>
      </trkpt>
      <trkpt lat="42.83459" lon="0.13691">
        <ele>2279.42</ele>
        <time>2009-03-15T06:28:54Z</time>
      </trkpt>
      <trkpt lat="42.8346" lon="0.13676">
        <ele>2278.46</ele>
        <time>2009-03-15T06:29:09Z</time>
      </trkpt>
      <trkpt lat="42.83462" lon="0.13668">
        <ele>2278.46</ele>
        <time>2009-03-15T06:29:22Z</time>
      </trkpt>
      <trkpt lat="42.83463" lon="0.13658">
        <ele>2279.9</ele>
        <time>2009-03-15T06:29:34Z</time>
      </trkpt>
      <trkpt lat="42.83465" lon="0.13651">
        <ele>2281.83</ele>
        <time>2009-03-15T06:29:45Z</time>
      </trkpt>
      <trkpt lat="42.83466" lon="0.13644">
        <ele>2282.31</ele>
        <time>2009-03-15T06:29:56Z</time>
      </trkpt>
      <trkpt lat="42.83468" lon="0.13634">
        <ele>2283.75</ele>
        <time>2009-03-15T06:30:09Z</time>
      </trkpt>
      <trkpt lat="42.83469" lon="0.13625">
        <ele>2285.19</ele>
        <time>2009-03-15T06:30:21Z</time>
      </trkpt>
      <trkpt lat="42.83469" lon="0.13617">
        <ele>2286.63</ele>
        <time>2009-03-15T06:30:32Z</time>
      </trkpt>
      <trkpt lat="42.83467" lon="0.13613">
        <ele>2287.59</ele>
        <time>2009-03-15T06:30:48Z</time>
      </trkpt>
      <trkpt lat="42.83465" lon="0.13609">
        <ele>2289.52</ele>
        <time>2009-03-15T06:30:58Z</time>
      </trkpt>
      <trkpt lat="42.83461" lon="0.13603">
        <ele>2290.96</ele>
        <time>2009-03-15T06:31:11Z</time>
      </trkpt>
      <trkpt lat="42.83457" lon="0.13599">
        <ele>2291.92</ele>
        <time>2009-03-15T06:31:20Z</time>
      </trkpt>
      <trkpt lat="42.83452" lon="0.13595">
        <ele>2293.84</ele>
        <time>2009-03-15T06:31:33Z</time>
      </trkpt>
      <trkpt lat="42.83449" lon="0.13593">
        <ele>2294.32</ele>
        <time>2009-03-15T06:32:00Z</time>
      </trkpt>
      <trkpt lat="42.83447" lon="0.13585">
        <ele>2296.25</ele>
        <time>2009-03-15T06:32:12Z</time>
      </trkpt>
      <trkpt lat="42.83448" lon="0.13581">
        <ele>2296.73</ele>
        <time>2009-03-15T06:32:26Z</time>
      </trkpt>
      <trkpt lat="42.83448" lon="0.1358">
        <ele>2296.73</ele>
        <time>2009-03-15T06:32:28Z</time>
      </trkpt>
      <trkpt lat="42.8345" lon="0.13575">
        <ele>2297.21</ele>
        <time>2009-03-15T06:32:41Z</time>
      </trkpt>
      <trkpt lat="42.83452" lon="0.13571">
        <ele>2299.13</ele>
        <time>2009-03-15T06:33:14Z</time>
      </trkpt>
      <trkpt lat="42.83457" lon="0.13562">
        <ele>2300.57</ele>
        <time>2009-03-15T06:33:26Z</time>
      </trkpt>
      <trkpt lat="42.83462" lon="0.13556">
        <ele>2302.01</ele>
        <time>2009-03-15T06:33:38Z</time>
      </trkpt>
      <trkpt lat="42.83467" lon="0.13549">
        <ele>2303.94</ele>
        <time>2009-03-15T06:33:51Z</time>
      </trkpt>
      <trkpt lat="42.83467" lon="0.13548">
        <ele>2303.46</ele>
        <time>2009-03-15T06:33:52Z</time>
      </trkpt>
      <trkpt lat="42.83472" lon="0.1354">
        <ele>2304.9</ele>
        <time>2009-03-15T06:34:03Z</time>
      </trkpt>
      <trkpt lat="42.83476" lon="0.13534">
        <ele>2307.3</ele>
        <time>2009-03-15T06:34:14Z</time>
      </trkpt>
      <trkpt lat="42.83483" lon="0.13528">
        <ele>2308.26</ele>
        <time>2009-03-15T06:34:26Z</time>
      </trkpt>
      <trkpt lat="42.83489" lon="0.13523">
        <ele>2310.67</ele>
        <time>2009-03-15T06:34:37Z</time>
      </trkpt>
      <trkpt lat="42.83486" lon="0.13516">
        <ele>2311.63</ele>
        <time>2009-03-15T06:34:53Z</time>
      </trkpt>
      <trkpt lat="42.83484" lon="0.1351">
        <ele>2314.03</ele>
        <time>2009-03-15T06:35:03Z</time>
      </trkpt>
      <trkpt lat="42.83482" lon="0.13503">
        <ele>2316.43</ele>
        <time>2009-03-15T06:35:14Z</time>
      </trkpt>
      <trkpt lat="42.83481" lon="0.13495">
        <ele>2317.4</ele>
        <time>2009-03-15T06:35:25Z</time>
      </trkpt>
      <trkpt lat="42.8348" lon="0.13491">
        <ele>2319.32</ele>
        <time>2009-03-15T06:35:37Z</time>
      </trkpt>
      <trkpt lat="42.8348" lon="0.13491">
        <ele>2318.84</ele>
        <time>2009-03-15T06:36:06Z</time>
      </trkpt>
      <trkpt lat="42.83482" lon="0.13488">
        <ele>2320.28</ele>
        <time>2009-03-15T06:36:17Z</time>
      </trkpt>
      <trkpt lat="42.83483" lon="0.13487">
        <ele>2320.76</ele>
        <time>2009-03-15T06:36:19Z</time>
      </trkpt>
      <trkpt lat="42.83491" lon="0.1348">
        <ele>2322.68</ele>
        <time>2009-03-15T06:36:32Z</time>
      </trkpt>
      <trkpt lat="42.83497" lon="0.13475">
        <ele>2324.12</ele>
        <time>2009-03-15T06:36:44Z</time>
      </trkpt>
      <trkpt lat="42.83503" lon="0.13475">
        <ele>2325.57</ele>
        <time>2009-03-15T06:36:56Z</time>
      </trkpt>
      <trkpt lat="42.83508" lon="0.13472">
        <ele>2327.01</ele>
        <time>2009-03-15T06:37:06Z</time>
      </trkpt>
      <trkpt lat="42.83513" lon="0.1347">
        <ele>2328.93</ele>
        <time>2009-03-15T06:37:18Z</time>
      </trkpt>
      <trkpt lat="42.83516" lon="0.13469">
        <ele>2330.85</ele>
        <time>2009-03-15T06:37:29Z</time>
      </trkpt>
      <trkpt lat="42.83521" lon="0.13468">
        <ele>2332.78</ele>
        <time>2009-03-15T06:37:40Z</time>
      </trkpt>
      <trkpt lat="42.83523" lon="0.13468">
        <ele>2333.74</ele>
        <time>2009-03-15T06:37:50Z</time>
      </trkpt>
      <trkpt lat="42.83532" lon="0.13471">
        <ele>2335.18</ele>
        <time>2009-03-15T06:38:01Z</time>
      </trkpt>
      <trkpt lat="42.83538" lon="0.13476">
        <ele>2337.58</ele>
        <time>2009-03-15T06:38:14Z</time>
      </trkpt>
      <trkpt lat="42.83543" lon="0.13477">
        <ele>2339.02</ele>
        <time>2009-03-15T06:38:26Z</time>
      </trkpt>
      <trkpt lat="42.83549" lon="0.13478">
        <ele>2341.43</ele>
        <time>2009-03-15T06:38:39Z</time>
      </trkpt>
      <trkpt lat="42.83554" lon="0.13482">
        <ele>2343.35</ele>
        <time>2009-03-15T06:38:51Z</time>
      </trkpt>
      <trkpt lat="42.83558" lon="0.13487">
        <ele>2344.79</ele>
        <time>2009-03-15T06:39:03Z</time>
      </trkpt>
      <trkpt lat="42.83564" lon="0.1349">
        <ele>2346.72</ele>
        <time>2009-03-15T06:39:15Z</time>
      </trkpt>
      <trkpt lat="42.83567" lon="0.13491">
        <ele>2347.2</ele>
        <time>2009-03-15T06:39:27Z</time>
      </trkpt>
      <trkpt lat="42.83572" lon="0.13491">
        <ele>2349.12</ele>
        <time>2009-03-15T06:39:40Z</time>
      </trkpt>
      <trkpt lat="42.83573" lon="0.1349">
        <ele>2350.08</ele>
        <time>2009-03-15T06:39:48Z</time>
      </trkpt>
      <trkpt lat="42.83573" lon="0.1349">
        <ele>2350.08</ele>
        <time>2009-03-15T06:40:10Z</time>
      </trkpt>
      <trkpt lat="42.83573" lon="0.13489">
        <ele>2350.08</ele>
        <time>2009-03-15T06:40:40Z</time>
      </trkpt>
      <trkpt lat="42.83572" lon="0.13484">
        <ele>2351.04</ele>
        <time>2009-03-15T06:40:54Z</time>
      </trkpt>
      <trkpt lat="42.83576" lon="0.13483">
        <ele>2352</ele>
        <time>2009-03-15T06:41:04Z</time>
      </trkpt>
      <trkpt lat="42.83581" lon="0.13481">
        <ele>2354.41</ele>
        <time>2009-03-15T06:41:17Z</time>
      </trkpt>
      <trkpt lat="42.83586" lon="0.13475">
        <ele>2356.81</ele>
        <time>2009-03-15T06:41:28Z</time>
      </trkpt>
      <trkpt lat="42.8359" lon="0.13469">
        <ele>2359.21</ele>
        <time>2009-03-15T06:41:40Z</time>
      </trkpt>
      <trkpt lat="42.8359" lon="0.13463">
        <ele>2361.14</ele>
        <time>2009-03-15T06:41:50Z</time>
      </trkpt>
      <trkpt lat="42.83587" lon="0.13454">
        <ele>2362.58</ele>
        <time>2009-03-15T06:42:02Z</time>
      </trkpt>
      <trkpt lat="42.83587" lon="0.13449">
        <ele>2364.02</ele>
        <time>2009-03-15T06:42:14Z</time>
      </trkpt>
      <trkpt lat="42.83587" lon="0.13449">
        <ele>2363.54</ele>
        <time>2009-03-15T06:42:35Z</time>
      </trkpt>
      <trkpt lat="42.83587" lon="0.1345">
        <ele>2361.14</ele>
        <time>2009-03-15T06:42:46Z</time>
      </trkpt>
      <trkpt lat="42.83588" lon="0.13451">
        <ele>2361.62</ele>
        <time>2009-03-15T06:43:21Z</time>
      </trkpt>
      <trkpt lat="42.83588" lon="0.13452">
        <ele>2362.1</ele>
        <time>2009-03-15T06:43:56Z</time>
      </trkpt>
      <trkpt lat="42.83588" lon="0.13452">
        <ele>2361.62</ele>
        <time>2009-03-15T06:44:28Z</time>
      </trkpt>
      <trkpt lat="42.83588" lon="0.13452">
        <ele>2361.14</ele>
        <time>2009-03-15T06:46:59Z</time>
      </trkpt>
      <trkpt lat="42.83589" lon="0.13452">
        <ele>2361.14</ele>
        <time>2009-03-15T06:47:25Z</time>
      </trkpt>
      <trkpt lat="42.83589" lon="0.13451">
        <ele>2362.58</ele>
        <time>2009-03-15T06:47:45Z</time>
      </trkpt>
      <trkpt lat="42.83588" lon="0.13452">
        <ele>2361.62</ele>
        <time>2009-03-15T06:47:57Z</time>
      </trkpt>
      <trkpt lat="42.83588" lon="0.13452">
        <ele>2363.06</ele>
        <time>2009-03-15T06:48:00Z</time>
      </trkpt>
      <trkpt lat="42.83588" lon="0.13452">
        <ele>2362.58</ele>
        <time>2009-03-15T06:48:12Z</time>
      </trkpt>
      <trkpt lat="42.83588" lon="0.13453">
        <ele>2362.1</ele>
        <time>2009-03-15T06:48:22Z</time>
      </trkpt>
      <trkpt lat="42.83588" lon="0.13453">
        <ele>2362.58</ele>
        <time>2009-03-15T06:49:08Z</time>
      </trkpt>
      <trkpt lat="42.83588" lon="0.13453">
        <ele>2362.1</ele>
        <time>2009-03-15T06:49:22Z</time>
      </trkpt>
      <trkpt lat="42.83594" lon="0.13443">
        <ele>2363.06</ele>
        <time>2009-03-15T06:49:37Z</time>
      </trkpt>
      <trkpt lat="42.83595" lon="0.13439">
        <ele>2364.98</ele>
        <time>2009-03-15T06:49:46Z</time>
      </trkpt>
      <trkpt lat="42.83598" lon="0.13429">
        <ele>2365.94</ele>
        <time>2009-03-15T06:49:57Z</time>
      </trkpt>
      <trkpt lat="42.83602" lon="0.13421">
        <ele>2368.35</ele>
        <time>2009-03-15T06:50:10Z</time>
      </trkpt>
      <trkpt lat="42.83608" lon="0.13418">
        <ele>2370.75</ele>
        <time>2009-03-15T06:50:21Z</time>
      </trkpt>
      <trkpt lat="42.83615" lon="0.13417">
        <ele>2374.11</ele>
        <time>2009-03-15T06:50:32Z</time>
      </trkpt>
      <trkpt lat="42.83623" lon="0.13419">
        <ele>2374.59</ele>
        <time>2009-03-15T06:50:43Z</time>
      </trkpt>
      <trkpt lat="42.83629" lon="0.13422">
        <ele>2376.04</ele>
        <time>2009-03-15T06:50:54Z</time>
      </trkpt>
      <trkpt lat="42.83636" lon="0.13421">
        <ele>2377.96</ele>
        <time>2009-03-15T06:51:05Z</time>
      </trkpt>
      <trkpt lat="42.83644" lon="0.13419">
        <ele>2378.44</ele>
        <time>2009-03-15T06:51:17Z</time>
      </trkpt>
      <trkpt lat="42.83651" lon="0.13416">
        <ele>2380.84</ele>
        <time>2009-03-15T06:51:29Z</time>
      </trkpt>
      <trkpt lat="42.83657" lon="0.13414">
        <ele>2382.76</ele>
        <time>2009-03-15T06:51:39Z</time>
      </trkpt>
      <trkpt lat="42.83666" lon="0.13411">
        <ele>2384.21</ele>
        <time>2009-03-15T06:51:52Z</time>
      </trkpt>
      <trkpt lat="42.83667" lon="0.1341">
        <ele>2384.69</ele>
        <time>2009-03-15T06:51:55Z</time>
      </trkpt>
      <trkpt lat="42.83676" lon="0.13412">
        <ele>2386.13</ele>
        <time>2009-03-15T06:52:07Z</time>
      </trkpt>
      <trkpt lat="42.83686" lon="0.13412">
        <ele>2388.05</ele>
        <time>2009-03-15T06:52:21Z</time>
      </trkpt>
      <trkpt lat="42.83697" lon="0.13412">
        <ele>2390.94</ele>
        <time>2009-03-15T06:52:35Z</time>
      </trkpt>
      <trkpt lat="42.83706" lon="0.13411">
        <ele>2392.86</ele>
        <time>2009-03-15T06:52:48Z</time>
      </trkpt>
      <trkpt lat="42.83714" lon="0.13409">
        <ele>2394.3</ele>
        <time>2009-03-15T06:53:00Z</time>
      </trkpt>
      <trkpt lat="42.83722" lon="0.13405">
        <ele>2396.22</ele>
        <time>2009-03-15T06:53:12Z</time>
      </trkpt>
      <trkpt lat="42.83733" lon="0.13404">
        <ele>2397.67</ele>
        <time>2009-03-15T06:53:26Z</time>
      </trkpt>
      <trkpt lat="42.8374" lon="0.13408">
        <ele>2399.11</ele>
        <time>2009-03-15T06:53:36Z</time>
      </trkpt>
      <trkpt lat="42.83742" lon="0.13409">
        <ele>2400.07</ele>
        <time>2009-03-15T06:53:39Z</time>
      </trkpt>
      <trkpt lat="42.83751" lon="0.13411">
        <ele>2402.47</ele>
        <time>2009-03-15T06:53:51Z</time>
      </trkpt>
      <trkpt lat="42.83756" lon="0.1341">
        <ele>2403.43</ele>
        <time>2009-03-15T06:53:59Z</time>
      </trkpt>
      <trkpt lat="42.83766" lon="0.1341">
        <ele>2406.32</ele>
        <time>2009-03-15T06:54:12Z</time>
      </trkpt>
      <trkpt lat="42.83775" lon="0.13409">
        <ele>2408.24</ele>
        <time>2009-03-15T06:54:24Z</time>
      </trkpt>
      <trkpt lat="42.83782" lon="0.13406">
        <ele>2410.16</ele>
        <time>2009-03-15T06:54:35Z</time>
      </trkpt>
      <trkpt lat="42.83793" lon="0.13405">
        <ele>2412.09</ele>
        <time>2009-03-15T06:54:49Z</time>
      </trkpt>
      <trkpt lat="42.83802" lon="0.13404">
        <ele>2413.53</ele>
        <time>2009-03-15T06:55:01Z</time>
      </trkpt>
      <trkpt lat="42.83811" lon="0.13405">
        <ele>2414.49</ele>
        <time>2009-03-15T06:55:13Z</time>
      </trkpt>
      <trkpt lat="42.83819" lon="0.13406">
        <ele>2416.89</ele>
        <time>2009-03-15T06:55:24Z</time>
      </trkpt>
      <trkpt lat="42.83821" lon="0.13406">
        <ele>2416.89</ele>
        <time>2009-03-15T06:55:27Z</time>
      </trkpt>
      <trkpt lat="42.83829" lon="0.13407">
        <ele>2418.81</ele>
        <time>2009-03-15T06:55:39Z</time>
      </trkpt>
      <trkpt lat="42.83835" lon="0.13407">
        <ele>2420.74</ele>
        <time>2009-03-15T06:55:51Z</time>
      </trkpt>
      <trkpt lat="42.83841" lon="0.13404">
        <ele>2423.14</ele>
        <time>2009-03-15T06:56:04Z</time>
      </trkpt>
      <trkpt lat="42.83848" lon="0.13401">
        <ele>2424.58</ele>
        <time>2009-03-15T06:56:18Z</time>
      </trkpt>
      <trkpt lat="42.83855" lon="0.13398">
        <ele>2426.5</ele>
        <time>2009-03-15T06:56:32Z</time>
      </trkpt>
      <trkpt lat="42.83861" lon="0.13394">
        <ele>2427.47</ele>
        <time>2009-03-15T06:56:47Z</time>
      </trkpt>
      <trkpt lat="42.83866" lon="0.1339">
        <ele>2429.39</ele>
        <time>2009-03-15T06:57:01Z</time>
      </trkpt>
      <trkpt lat="42.83872" lon="0.13387">
        <ele>2430.83</ele>
        <time>2009-03-15T06:57:13Z</time>
      </trkpt>
      <trkpt lat="42.83879" lon="0.13385">
        <ele>2431.79</ele>
        <time>2009-03-15T06:57:27Z</time>
      </trkpt>
      <trkpt lat="42.83886" lon="0.13382">
        <ele>2433.71</ele>
        <time>2009-03-15T06:57:41Z</time>
      </trkpt>
      <trkpt lat="42.83895" lon="0.13379">
        <ele>2435.64</ele>
        <time>2009-03-15T06:57:56Z</time>
      </trkpt>
      <trkpt lat="42.83904" lon="0.13374">
        <ele>2436.6</ele>
        <time>2009-03-15T06:58:10Z</time>
      </trkpt>
      <trkpt lat="42.83913" lon="0.13364">
        <ele>2438.52</ele>
        <time>2009-03-15T06:58:25Z</time>
      </trkpt>
      <trkpt lat="42.8392" lon="0.13351">
        <ele>2439</ele>
        <time>2009-03-15T06:58:41Z</time>
      </trkpt>
      <trkpt lat="42.83923" lon="0.13344">
        <ele>2439.96</ele>
        <time>2009-03-15T06:58:54Z</time>
      </trkpt>
      <trkpt lat="42.83923" lon="0.13344">
        <ele>2439.96</ele>
        <time>2009-03-15T06:59:31Z</time>
      </trkpt>
      <trkpt lat="42.83923" lon="0.13345">
        <ele>2439.96</ele>
        <time>2009-03-15T07:00:11Z</time>
      </trkpt>
      <trkpt lat="42.83923" lon="0.13344">
        <ele>2440.44</ele>
        <time>2009-03-15T07:00:47Z</time>
      </trkpt>
      <trkpt lat="42.83923" lon="0.13344">
        <ele>2440.92</ele>
        <time>2009-03-15T07:01:26Z</time>
      </trkpt>
      <trkpt lat="42.83923" lon="0.13344">
        <ele>2440.44</ele>
        <time>2009-03-15T07:01:49Z</time>
      </trkpt>
      <trkpt lat="42.83923" lon="0.13344">
        <ele>2440.44</ele>
        <time>2009-03-15T07:02:18Z</time>
      </trkpt>
      <trkpt lat="42.83923" lon="0.13344">
        <ele>2440.44</ele>
        <time>2009-03-15T07:02:34Z</time>
      </trkpt>
      <trkpt lat="42.83924" lon="0.13345">
        <ele>2440.44</ele>
        <time>2009-03-15T07:02:48Z</time>
      </trkpt>
      <trkpt lat="42.83924" lon="0.13343">
        <ele>2439.96</ele>
        <time>2009-03-15T07:03:29Z</time>
      </trkpt>
      <trkpt lat="42.83923" lon="0.13344">
        <ele>2439.96</ele>
        <time>2009-03-15T07:04:01Z</time>
      </trkpt>
      <trkpt lat="42.83923" lon="0.13343">
        <ele>2439.96</ele>
        <time>2009-03-15T07:04:13Z</time>
      </trkpt>
      <trkpt lat="42.8392" lon="0.13342">
        <ele>2440.92</ele>
        <time>2009-03-15T07:04:31Z</time>
      </trkpt>
      <trkpt lat="42.83919" lon="0.13341">
        <ele>2440.44</ele>
        <time>2009-03-15T07:04:42Z</time>
      </trkpt>
      <trkpt lat="42.83917" lon="0.13336">
        <ele>2441.89</ele>
        <time>2009-03-15T07:04:51Z</time>
      </trkpt>
      <trkpt lat="42.8392" lon="0.13325">
        <ele>2443.33</ele>
        <time>2009-03-15T07:05:04Z</time>
      </trkpt>
      <trkpt lat="42.83922" lon="0.13312">
        <ele>2444.29</ele>
        <time>2009-03-15T07:05:17Z</time>
      </trkpt>
      <trkpt lat="42.83923" lon="0.13301">
        <ele>2445.25</ele>
        <time>2009-03-15T07:05:29Z</time>
      </trkpt>
      <trkpt lat="42.83925" lon="0.13294">
        <ele>2446.21</ele>
        <time>2009-03-15T07:05:37Z</time>
      </trkpt>
      <trkpt lat="42.83925" lon="0.13286">
        <ele>2447.17</ele>
        <time>2009-03-15T07:05:48Z</time>
      </trkpt>
      <trkpt lat="42.83925" lon="0.13279">
        <ele>2448.13</ele>
        <time>2009-03-15T07:05:59Z</time>
      </trkpt>
      <trkpt lat="42.83924" lon="0.13269">
        <ele>2450.06</ele>
        <time>2009-03-15T07:06:12Z</time>
      </trkpt>
      <trkpt lat="42.83922" lon="0.13264">
        <ele>2450.06</ele>
        <time>2009-03-15T07:06:18Z</time>
      </trkpt>
      <trkpt lat="42.83921" lon="0.13253">
        <ele>2451.02</ele>
        <time>2009-03-15T07:06:31Z</time>
      </trkpt>
      <trkpt lat="42.8392" lon="0.13246">
        <ele>2451.5</ele>
        <time>2009-03-15T07:06:41Z</time>
      </trkpt>
      <trkpt lat="42.83918" lon="0.13233">
        <ele>2451.5</ele>
        <time>2009-03-15T07:06:55Z</time>
      </trkpt>
      <trkpt lat="42.83918" lon="0.13224">
        <ele>2451.98</ele>
        <time>2009-03-15T07:07:07Z</time>
      </trkpt>
      <trkpt lat="42.83915" lon="0.13216">
        <ele>2452.46</ele>
        <time>2009-03-15T07:07:20Z</time>
      </trkpt>
      <trkpt lat="42.83912" lon="0.13206">
        <ele>2452.94</ele>
        <time>2009-03-15T07:07:34Z</time>
      </trkpt>
      <trkpt lat="42.83908" lon="0.13195">
        <ele>2453.9</ele>
        <time>2009-03-15T07:07:50Z</time>
      </trkpt>
      <trkpt lat="42.83904" lon="0.13186">
        <ele>2453.9</ele>
        <time>2009-03-15T07:08:03Z</time>
      </trkpt>
      <trkpt lat="42.83899" lon="0.13176">
        <ele>2454.86</ele>
        <time>2009-03-15T07:08:16Z</time>
      </trkpt>
      <trkpt lat="42.83897" lon="0.13169">
        <ele>2455.34</ele>
        <time>2009-03-15T07:08:26Z</time>
      </trkpt>
      <trkpt lat="42.83892" lon="0.13158">
        <ele>2455.34</ele>
        <time>2009-03-15T07:08:39Z</time>
      </trkpt>
      <trkpt lat="42.83891" lon="0.13147">
        <ele>2456.79</ele>
        <time>2009-03-15T07:08:52Z</time>
      </trkpt>
      <trkpt lat="42.83887" lon="0.13135">
        <ele>2457.27</ele>
        <time>2009-03-15T07:09:05Z</time>
      </trkpt>
      <trkpt lat="42.83886" lon="0.13126">
        <ele>2458.23</ele>
        <time>2009-03-15T07:09:16Z</time>
      </trkpt>
      <trkpt lat="42.83889" lon="0.13116">
        <ele>2458.71</ele>
        <time>2009-03-15T07:09:29Z</time>
      </trkpt>
      <trkpt lat="42.83889" lon="0.13113">
        <ele>2459.67</ele>
        <time>2009-03-15T07:09:33Z</time>
      </trkpt>
      <trkpt lat="42.83892" lon="0.13103">
        <ele>2459.67</ele>
        <time>2009-03-15T07:09:46Z</time>
      </trkpt>
      <trkpt lat="42.83893" lon="0.13093">
        <ele>2461.11</ele>
        <time>2009-03-15T07:10:01Z</time>
      </trkpt>
      <trkpt lat="42.83892" lon="0.13084">
        <ele>2462.55</ele>
        <time>2009-03-15T07:10:14Z</time>
      </trkpt>
      <trkpt lat="42.83893" lon="0.13074">
        <ele>2463.52</ele>
        <time>2009-03-15T07:10:27Z</time>
      </trkpt>
      <trkpt lat="42.83896" lon="0.13071">
        <ele>2464</ele>
        <time>2009-03-15T07:10:32Z</time>
      </trkpt>
      <trkpt lat="42.839" lon="0.13068">
        <ele>2465.44</ele>
        <time>2009-03-15T07:10:42Z</time>
      </trkpt>
      <trkpt lat="42.83907" lon="0.13065">
        <ele>2466.4</ele>
        <time>2009-03-15T07:10:56Z</time>
      </trkpt>
      <trkpt lat="42.8391" lon="0.1306">
        <ele>2467.84</ele>
        <time>2009-03-15T07:11:07Z</time>
      </trkpt>
      <trkpt lat="42.8391" lon="0.13053">
        <ele>2469.76</ele>
        <time>2009-03-15T07:11:18Z</time>
      </trkpt>
      <trkpt lat="42.83909" lon="0.13052">
        <ele>2471.69</ele>
        <time>2009-03-15T07:11:29Z</time>
      </trkpt>
      <trkpt lat="42.83907" lon="0.13046">
        <ele>2474.09</ele>
        <time>2009-03-15T07:11:40Z</time>
      </trkpt>
      <trkpt lat="42.83907" lon="0.13035">
        <ele>2476.49</ele>
        <time>2009-03-15T07:11:54Z</time>
      </trkpt>
      <trkpt lat="42.83907" lon="0.13031">
        <ele>2478.42</ele>
        <time>2009-03-15T07:12:10Z</time>
      </trkpt>
      <trkpt lat="42.83908" lon="0.1302">
        <ele>2479.86</ele>
        <time>2009-03-15T07:12:24Z</time>
      </trkpt>
      <trkpt lat="42.83908" lon="0.13011">
        <ele>2482.26</ele>
        <time>2009-03-15T07:12:37Z</time>
      </trkpt>
      <trkpt lat="42.83909" lon="0.13004">
        <ele>2483.7</ele>
        <time>2009-03-15T07:12:51Z</time>
      </trkpt>
      <trkpt lat="42.83909" lon="0.12995">
        <ele>2485.15</ele>
        <time>2009-03-15T07:13:05Z</time>
      </trkpt>
      <trkpt lat="42.83913" lon="0.12989">
        <ele>2486.11</ele>
        <time>2009-03-15T07:13:15Z</time>
      </trkpt>
      <trkpt lat="42.83919" lon="0.1298">
        <ele>2487.07</ele>
        <time>2009-03-15T07:13:29Z</time>
      </trkpt>
      <trkpt lat="42.83925" lon="0.12976">
        <ele>2488.99</ele>
        <time>2009-03-15T07:13:42Z</time>
      </trkpt>
      <trkpt lat="42.83929" lon="0.12976">
        <ele>2489.95</ele>
        <time>2009-03-15T07:13:53Z</time>
      </trkpt>
      <trkpt lat="42.83934" lon="0.12973">
        <ele>2490.91</ele>
        <time>2009-03-15T07:14:04Z</time>
      </trkpt>
      <trkpt lat="42.83938" lon="0.12968">
        <ele>2492.84</ele>
        <time>2009-03-15T07:14:14Z</time>
      </trkpt>
      <trkpt lat="42.83941" lon="0.12962">
        <ele>2492.84</ele>
        <time>2009-03-15T07:14:25Z</time>
      </trkpt>
      <trkpt lat="42.83943" lon="0.12958">
        <ele>2494.28</ele>
        <time>2009-03-15T07:14:37Z</time>
      </trkpt>
      <trkpt lat="42.83945" lon="0.12951">
        <ele>2496.68</ele>
        <time>2009-03-15T07:14:50Z</time>
      </trkpt>
      <trkpt lat="42.83948" lon="0.12944">
        <ele>2499.08</ele>
        <time>2009-03-15T07:15:02Z</time>
      </trkpt>
      <trkpt lat="42.83949" lon="0.12934">
        <ele>2500.05</ele>
        <time>2009-03-15T07:15:15Z</time>
      </trkpt>
      <trkpt lat="42.83946" lon="0.12933">
        <ele>2501.97</ele>
        <time>2009-03-15T07:15:28Z</time>
      </trkpt>
      <trkpt lat="42.83937" lon="0.1293">
        <ele>2504.85</ele>
        <time>2009-03-15T07:15:45Z</time>
      </trkpt>
      <trkpt lat="42.83936" lon="0.12922">
        <ele>2506.29</ele>
        <time>2009-03-15T07:15:58Z</time>
      </trkpt>
      <trkpt lat="42.83938" lon="0.12914">
        <ele>2507.74</ele>
        <time>2009-03-15T07:16:10Z</time>
      </trkpt>
      <trkpt lat="42.83939" lon="0.12904">
        <ele>2509.66</ele>
        <time>2009-03-15T07:16:23Z</time>
      </trkpt>
      <trkpt lat="42.83941" lon="0.12895">
        <ele>2511.1</ele>
        <time>2009-03-15T07:16:37Z</time>
      </trkpt>
      <trkpt lat="42.83943" lon="0.12887">
        <ele>2512.54</ele>
        <time>2009-03-15T07:16:49Z</time>
      </trkpt>
      <trkpt lat="42.83942" lon="0.12878">
        <ele>2513.98</ele>
        <time>2009-03-15T07:17:03Z</time>
      </trkpt>
      <trkpt lat="42.83941" lon="0.12869">
        <ele>2515.91</ele>
        <time>2009-03-15T07:17:16Z</time>
      </trkpt>
      <trkpt lat="42.8394" lon="0.12859">
        <ele>2517.83</ele>
        <time>2009-03-15T07:17:30Z</time>
      </trkpt>
      <trkpt lat="42.83941" lon="0.1285">
        <ele>2519.27</ele>
        <time>2009-03-15T07:17:44Z</time>
      </trkpt>
      <trkpt lat="42.8394" lon="0.12846">
        <ele>2520.71</ele>
        <time>2009-03-15T07:17:57Z</time>
      </trkpt>
      <trkpt lat="42.83936" lon="0.12848">
        <ele>2523.12</ele>
        <time>2009-03-15T07:18:10Z</time>
      </trkpt>
      <trkpt lat="42.83936" lon="0.12849">
        <ele>2523.6</ele>
        <time>2009-03-15T07:18:27Z</time>
      </trkpt>
      <trkpt lat="42.83935" lon="0.12849">
        <ele>2523.12</ele>
        <time>2009-03-15T07:19:49Z</time>
      </trkpt>
      <trkpt lat="42.83932" lon="0.1285">
        <ele>2523.6</ele>
        <time>2009-03-15T07:20:09Z</time>
      </trkpt>
      <trkpt lat="42.83924" lon="0.12853">
        <ele>2526</ele>
        <time>2009-03-15T07:20:22Z</time>
      </trkpt>
      <trkpt lat="42.83923" lon="0.12851">
        <ele>2526.96</ele>
        <time>2009-03-15T07:20:36Z</time>
      </trkpt>
      <trkpt lat="42.83922" lon="0.12845">
        <ele>2528.4</ele>
        <time>2009-03-15T07:20:49Z</time>
      </trkpt>
      <trkpt lat="42.83922" lon="0.12836">
        <ele>2529.85</ele>
        <time>2009-03-15T07:21:02Z</time>
      </trkpt>
      <trkpt lat="42.83923" lon="0.12828">
        <ele>2531.29</ele>
        <time>2009-03-15T07:21:13Z</time>
      </trkpt>
      <trkpt lat="42.83924" lon="0.12818">
        <ele>2532.73</ele>
        <time>2009-03-15T07:21:26Z</time>
      </trkpt>
      <trkpt lat="42.83924" lon="0.12811">
        <ele>2534.17</ele>
        <time>2009-03-15T07:21:37Z</time>
      </trkpt>
      <trkpt lat="42.83926" lon="0.12803">
        <ele>2536.1</ele>
        <time>2009-03-15T07:21:51Z</time>
      </trkpt>
      <trkpt lat="42.83927" lon="0.12794">
        <ele>2537.06</ele>
        <time>2009-03-15T07:22:06Z</time>
      </trkpt>
      <trkpt lat="42.83929" lon="0.12784">
        <ele>2538.98</ele>
        <time>2009-03-15T07:22:20Z</time>
      </trkpt>
      <trkpt lat="42.83929" lon="0.12777">
        <ele>2540.42</ele>
        <time>2009-03-15T07:22:34Z</time>
      </trkpt>
      <trkpt lat="42.8393" lon="0.12768">
        <ele>2541.86</ele>
        <time>2009-03-15T07:22:49Z</time>
      </trkpt>
      <trkpt lat="42.83931" lon="0.12762">
        <ele>2542.34</ele>
        <time>2009-03-15T07:23:00Z</time>
      </trkpt>
      <trkpt lat="42.83932" lon="0.12756">
        <ele>2542.82</ele>
        <time>2009-03-15T07:23:12Z</time>
      </trkpt>
      <trkpt lat="42.83932" lon="0.1275">
        <ele>2543.79</ele>
        <time>2009-03-15T07:23:23Z</time>
      </trkpt>
      <trkpt lat="42.83933" lon="0.12742">
        <ele>2545.71</ele>
        <time>2009-03-15T07:23:43Z</time>
      </trkpt>
      <trkpt lat="42.83934" lon="0.12739">
        <ele>2547.15</ele>
        <time>2009-03-15T07:23:48Z</time>
      </trkpt>
      <trkpt lat="42.83934" lon="0.1273">
        <ele>2549.07</ele>
        <time>2009-03-15T07:24:02Z</time>
      </trkpt>
      <trkpt lat="42.83935" lon="0.12727">
        <ele>2548.59</ele>
        <time>2009-03-15T07:24:13Z</time>
      </trkpt>
      <trkpt lat="42.83935" lon="0.12723">
        <ele>2549.55</ele>
        <time>2009-03-15T07:24:28Z</time>
      </trkpt>
      <trkpt lat="42.83932" lon="0.12726">
        <ele>2550.03</ele>
        <time>2009-03-15T07:24:40Z</time>
      </trkpt>
      <trkpt lat="42.83924" lon="0.12733">
        <ele>2551.48</ele>
        <time>2009-03-15T07:24:54Z</time>
      </trkpt>
      <trkpt lat="42.83917" lon="0.12739">
        <ele>2553.88</ele>
        <time>2009-03-15T07:25:07Z</time>
      </trkpt>
      <trkpt lat="42.83913" lon="0.12742">
        <ele>2554.84</ele>
        <time>2009-03-15T07:25:22Z</time>
      </trkpt>
      <trkpt lat="42.83909" lon="0.12745">
        <ele>2554.84</ele>
        <time>2009-03-15T07:25:34Z</time>
      </trkpt>
      <trkpt lat="42.83904" lon="0.12749">
        <ele>2556.76</ele>
        <time>2009-03-15T07:25:45Z</time>
      </trkpt>
      <trkpt lat="42.83899" lon="0.12753">
        <ele>2558.69</ele>
        <time>2009-03-15T07:25:57Z</time>
      </trkpt>
      <trkpt lat="42.83894" lon="0.12756">
        <ele>2560.13</ele>
        <time>2009-03-15T07:26:10Z</time>
      </trkpt>
      <trkpt lat="42.83893" lon="0.12757">
        <ele>2560.13</ele>
        <time>2009-03-15T07:26:25Z</time>
      </trkpt>
      <trkpt lat="42.83893" lon="0.12757">
        <ele>2560.13</ele>
        <time>2009-03-15T07:26:28Z</time>
      </trkpt>
      <trkpt lat="42.83894" lon="0.12753">
        <ele>2561.09</ele>
        <time>2009-03-15T07:26:39Z</time>
      </trkpt>
      <trkpt lat="42.83898" lon="0.12742">
        <ele>2564.45</ele>
        <time>2009-03-15T07:26:52Z</time>
      </trkpt>
      <trkpt lat="42.83898" lon="0.12734">
        <ele>2564.93</ele>
        <time>2009-03-15T07:27:04Z</time>
      </trkpt>
      <trkpt lat="42.83899" lon="0.12724">
        <ele>2565.9</ele>
        <time>2009-03-15T07:27:18Z</time>
      </trkpt>
      <trkpt lat="42.839" lon="0.12716">
        <ele>2567.34</ele>
        <time>2009-03-15T07:27:30Z</time>
      </trkpt>
      <trkpt lat="42.839" lon="0.1271">
        <ele>2568.3</ele>
        <time>2009-03-15T07:27:42Z</time>
      </trkpt>
      <trkpt lat="42.83901" lon="0.12706">
        <ele>2569.74</ele>
        <time>2009-03-15T07:27:54Z</time>
      </trkpt>
      <trkpt lat="42.83902" lon="0.127">
        <ele>2571.18</ele>
        <time>2009-03-15T07:28:05Z</time>
      </trkpt>
      <trkpt lat="42.83903" lon="0.1269">
        <ele>2571.66</ele>
        <time>2009-03-15T07:28:20Z</time>
      </trkpt>
      <trkpt lat="42.83904" lon="0.12685">
        <ele>2573.11</ele>
        <time>2009-03-15T07:28:34Z</time>
      </trkpt>
      <trkpt lat="42.83905" lon="0.12682">
        <ele>2574.55</ele>
        <time>2009-03-15T07:28:37Z</time>
      </trkpt>
      <trkpt lat="42.83906" lon="0.12676">
        <ele>2574.55</ele>
        <time>2009-03-15T07:28:48Z</time>
      </trkpt>
      <trkpt lat="42.83904" lon="0.12676">
        <ele>2574.55</ele>
        <time>2009-03-15T07:28:52Z</time>
      </trkpt>
      <trkpt lat="42.83893" lon="0.12681">
        <ele>2577.43</ele>
        <time>2009-03-15T07:29:05Z</time>
      </trkpt>
      <trkpt lat="42.83889" lon="0.12683">
        <ele>2578.87</ele>
        <time>2009-03-15T07:29:10Z</time>
      </trkpt>
      <trkpt lat="42.83886" lon="0.12685">
        <ele>2579.84</ele>
        <time>2009-03-15T07:29:13Z</time>
      </trkpt>
      <trkpt lat="42.83879" lon="0.1269">
        <ele>2582.24</ele>
        <time>2009-03-15T07:29:25Z</time>
      </trkpt>
      <trkpt lat="42.83879" lon="0.12688">
        <ele>2583.68</ele>
        <time>2009-03-15T07:29:30Z</time>
      </trkpt>
      <trkpt lat="42.83879" lon="0.12686">
        <ele>2583.68</ele>
        <time>2009-03-15T07:29:31Z</time>
      </trkpt>
      <trkpt lat="42.8388" lon="0.12684">
        <ele>2584.16</ele>
        <time>2009-03-15T07:29:33Z</time>
      </trkpt>
      <trkpt lat="42.83883" lon="0.12672">
        <ele>2585.6</ele>
        <time>2009-03-15T07:29:43Z</time>
      </trkpt>
      <trkpt lat="42.83884" lon="0.12664">
        <ele>2588.01</ele>
        <time>2009-03-15T07:29:49Z</time>
      </trkpt>
      <trkpt lat="42.83885" lon="0.1266">
        <ele>2588.49</ele>
        <time>2009-03-15T07:29:52Z</time>
      </trkpt>
      <trkpt lat="42.83887" lon="0.12654">
        <ele>2588.49</ele>
        <time>2009-03-15T07:29:59Z</time>
      </trkpt>
      <trkpt lat="42.83888" lon="0.12649">
        <ele>2590.41</ele>
        <time>2009-03-15T07:30:04Z</time>
      </trkpt>
      <trkpt lat="42.83891" lon="0.12639">
        <ele>2592.81</ele>
        <time>2009-03-15T07:30:15Z</time>
      </trkpt>
      <trkpt lat="42.83891" lon="0.12639">
        <ele>2592.81</ele>
        <time>2009-03-15T07:30:16Z</time>
      </trkpt>
      <trkpt lat="42.83894" lon="0.12629">
        <ele>2595.22</ele>
        <time>2009-03-15T07:30:26Z</time>
      </trkpt>
      <trkpt lat="42.83898" lon="0.12618">
        <ele>2597.14</ele>
        <time>2009-03-15T07:30:38Z</time>
      </trkpt>
      <trkpt lat="42.839" lon="0.1261">
        <ele>2599.54</ele>
        <time>2009-03-15T07:30:47Z</time>
      </trkpt>
      <trkpt lat="42.83901" lon="0.12598">
        <ele>2600.5</ele>
        <time>2009-03-15T07:30:58Z</time>
      </trkpt>
      <trkpt lat="42.83902" lon="0.12586">
        <ele>2601.95</ele>
        <time>2009-03-15T07:31:10Z</time>
      </trkpt>
      <trkpt lat="42.83902" lon="0.12585">
        <ele>2601.95</ele>
        <time>2009-03-15T07:31:11Z</time>
      </trkpt>
      <trkpt lat="42.83902" lon="0.12581">
        <ele>2602.91</ele>
        <time>2009-03-15T07:31:14Z</time>
      </trkpt>
      <trkpt lat="42.83901" lon="0.12582">
        <ele>2602.91</ele>
        <time>2009-03-15T07:31:26Z</time>
      </trkpt>
      <trkpt lat="42.83901" lon="0.12582">
        <ele>2602.91</ele>
        <time>2009-03-15T07:31:39Z</time>
      </trkpt>
      <trkpt lat="42.83903" lon="0.12582">
        <ele>2599.54</ele>
        <time>2009-03-15T07:31:46Z</time>
      </trkpt>
      <trkpt lat="42.83902" lon="0.12581">
        <ele>2600.5</ele>
        <time>2009-03-15T07:32:12Z</time>
      </trkpt>
      <trkpt lat="42.83901" lon="0.12581">
        <ele>2602.43</ele>
        <time>2009-03-15T07:33:19Z</time>
      </trkpt>
      <trkpt lat="42.839" lon="0.12581">
        <ele>2601.46</ele>
        <time>2009-03-15T07:36:04Z</time>
      </trkpt>
      <trkpt lat="42.839" lon="0.12581">
        <ele>2595.22</ele>
        <time>2009-03-15T07:36:07Z</time>
      </trkpt>
      <trkpt lat="42.839" lon="0.12581">
        <ele>2602.91</ele>
        <time>2009-03-15T07:36:08Z</time>
      </trkpt>
      <trkpt lat="42.839" lon="0.12581">
        <ele>2603.39</ele>
        <time>2009-03-15T07:36:10Z</time>
      </trkpt>
      <trkpt lat="42.839" lon="0.12581">
        <ele>2603.39</ele>
        <time>2009-03-15T07:36:24Z</time>
      </trkpt>
      <trkpt lat="42.839" lon="0.12581">
        <ele>2601.95</ele>
        <time>2009-03-15T07:36:50Z</time>
      </trkpt>
      <trkpt lat="42.839" lon="0.12581">
        <ele>2602.43</ele>
        <time>2009-03-15T07:37:14Z</time>
      </trkpt>
      <trkpt lat="42.839" lon="0.12582">
        <ele>2603.39</ele>
        <time>2009-03-15T07:37:34Z</time>
      </trkpt>
      <trkpt lat="42.839" lon="0.12582">
        <ele>2602.91</ele>
        <time>2009-03-15T07:37:35Z</time>
      </trkpt>
      <trkpt lat="42.839" lon="0.12582">
        <ele>2602.43</ele>
        <time>2009-03-15T07:37:58Z</time>
      </trkpt>
      <trkpt lat="42.83896" lon="0.12584">
        <ele>2603.87</ele>
        <time>2009-03-15T07:38:08Z</time>
      </trkpt>
      <trkpt lat="42.83888" lon="0.12581">
        <ele>2605.31</ele>
        <time>2009-03-15T07:38:20Z</time>
      </trkpt>
      <trkpt lat="42.83884" lon="0.12578">
        <ele>2608.67</ele>
        <time>2009-03-15T07:38:30Z</time>
      </trkpt>
      <trkpt lat="42.8388" lon="0.12573">
        <ele>2610.6</ele>
        <time>2009-03-15T07:38:41Z</time>
      </trkpt>
      <trkpt lat="42.8388" lon="0.12565">
        <ele>2613.96</ele>
        <time>2009-03-15T07:38:53Z</time>
      </trkpt>
      <trkpt lat="42.8388" lon="0.12555">
        <ele>2615.88</ele>
        <time>2009-03-15T07:39:05Z</time>
      </trkpt>
      <trkpt lat="42.83882" lon="0.12545">
        <ele>2617.33</ele>
        <time>2009-03-15T07:39:19Z</time>
      </trkpt>
      <trkpt lat="42.83885" lon="0.12537">
        <ele>2619.73</ele>
        <time>2009-03-15T07:39:31Z</time>
      </trkpt>
      <trkpt lat="42.83889" lon="0.12525">
        <ele>2622.13</ele>
        <time>2009-03-15T07:39:47Z</time>
      </trkpt>
      <trkpt lat="42.83892" lon="0.12518">
        <ele>2623.58</ele>
        <time>2009-03-15T07:39:58Z</time>
      </trkpt>
      <trkpt lat="42.83894" lon="0.12508">
        <ele>2624.54</ele>
        <time>2009-03-15T07:40:10Z</time>
      </trkpt>
      <trkpt lat="42.83897" lon="0.12499">
        <ele>2626.94</ele>
        <time>2009-03-15T07:40:21Z</time>
      </trkpt>
      <trkpt lat="42.83897" lon="0.12498">
        <ele>2626.94</ele>
        <time>2009-03-15T07:40:22Z</time>
      </trkpt>
      <trkpt lat="42.83901" lon="0.12484">
        <ele>2627.42</ele>
        <time>2009-03-15T07:40:37Z</time>
      </trkpt>
      <trkpt lat="42.83901" lon="0.12483">
        <ele>2626.94</ele>
        <time>2009-03-15T07:40:38Z</time>
      </trkpt>
      <trkpt lat="42.83902" lon="0.12476">
        <ele>2628.86</ele>
        <time>2009-03-15T07:40:46Z</time>
      </trkpt>
      <trkpt lat="42.83906" lon="0.12468">
        <ele>2630.79</ele>
        <time>2009-03-15T07:40:58Z</time>
      </trkpt>
      <trkpt lat="42.83909" lon="0.12459">
        <ele>2631.75</ele>
        <time>2009-03-15T07:41:11Z</time>
      </trkpt>
      <trkpt lat="42.83912" lon="0.12453">
        <ele>2634.15</ele>
        <time>2009-03-15T07:41:20Z</time>
      </trkpt>
      <trkpt lat="42.83915" lon="0.12445">
        <ele>2635.59</ele>
        <time>2009-03-15T07:41:32Z</time>
      </trkpt>
      <trkpt lat="42.83919" lon="0.12433">
        <ele>2637.03</ele>
        <time>2009-03-15T07:41:46Z</time>
      </trkpt>
      <trkpt lat="42.8392" lon="0.12424">
        <ele>2640.4</ele>
        <time>2009-03-15T07:41:58Z</time>
      </trkpt>
      <trkpt lat="42.83922" lon="0.12418">
        <ele>2641.36</ele>
        <time>2009-03-15T07:42:11Z</time>
      </trkpt>
      <trkpt lat="42.83925" lon="0.12412">
        <ele>2643.28</ele>
        <time>2009-03-15T07:42:24Z</time>
      </trkpt>
      <trkpt lat="42.83927" lon="0.12404">
        <ele>2643.76</ele>
        <time>2009-03-15T07:42:38Z</time>
      </trkpt>
      <trkpt lat="42.8393" lon="0.12397">
        <ele>2645.21</ele>
        <time>2009-03-15T07:42:52Z</time>
      </trkpt>
      <trkpt lat="42.83932" lon="0.1239">
        <ele>2646.17</ele>
        <time>2009-03-15T07:43:05Z</time>
      </trkpt>
      <trkpt lat="42.83932" lon="0.1239">
        <ele>2646.65</ele>
        <time>2009-03-15T07:43:19Z</time>
      </trkpt>
      <trkpt lat="42.83932" lon="0.1239">
        <ele>2647.61</ele>
        <time>2009-03-15T07:43:39Z</time>
      </trkpt>
      <trkpt lat="42.83932" lon="0.1239">
        <ele>2647.61</ele>
        <time>2009-03-15T07:43:45Z</time>
      </trkpt>
      <trkpt lat="42.83934" lon="0.1238">
        <ele>2649.53</ele>
        <time>2009-03-15T07:44:05Z</time>
      </trkpt>
      <trkpt lat="42.83937" lon="0.1237">
        <ele>2649.53</ele>
        <time>2009-03-15T07:44:15Z</time>
      </trkpt>
      <trkpt lat="42.83941" lon="0.12358">
        <ele>2650.97</ele>
        <time>2009-03-15T07:44:28Z</time>
      </trkpt>
      <trkpt lat="42.83944" lon="0.12346">
        <ele>2652.9</ele>
        <time>2009-03-15T07:44:41Z</time>
      </trkpt>
      <trkpt lat="42.83946" lon="0.12339">
        <ele>2653.86</ele>
        <time>2009-03-15T07:44:58Z</time>
      </trkpt>
      <trkpt lat="42.83948" lon="0.1233">
        <ele>2655.3</ele>
        <time>2009-03-15T07:45:20Z</time>
      </trkpt>
      <trkpt lat="42.83951" lon="0.12322">
        <ele>2656.74</ele>
        <time>2009-03-15T07:45:33Z</time>
      </trkpt>
      <trkpt lat="42.83953" lon="0.12315">
        <ele>2657.7</ele>
        <time>2009-03-15T07:45:44Z</time>
      </trkpt>
      <trkpt lat="42.83955" lon="0.12304">
        <ele>2659.62</ele>
        <time>2009-03-15T07:45:59Z</time>
      </trkpt>
      <trkpt lat="42.83957" lon="0.12295">
        <ele>2660.59</ele>
        <time>2009-03-15T07:46:11Z</time>
      </trkpt>
      <trkpt lat="42.83959" lon="0.12288">
        <ele>2662.03</ele>
        <time>2009-03-15T07:46:24Z</time>
      </trkpt>
      <trkpt lat="42.8396" lon="0.12283">
        <ele>2663.47</ele>
        <time>2009-03-15T07:46:38Z</time>
      </trkpt>
      <trkpt lat="42.83962" lon="0.12275">
        <ele>2664.43</ele>
        <time>2009-03-15T07:46:56Z</time>
      </trkpt>
      <trkpt lat="42.83964" lon="0.12267">
        <ele>2665.87</ele>
        <time>2009-03-15T07:47:08Z</time>
      </trkpt>
      <trkpt lat="42.83965" lon="0.12259">
        <ele>2667.8</ele>
        <time>2009-03-15T07:47:21Z</time>
      </trkpt>
      <trkpt lat="42.83968" lon="0.12251">
        <ele>2669.24</ele>
        <time>2009-03-15T07:47:34Z</time>
      </trkpt>
      <trkpt lat="42.83969" lon="0.12246">
        <ele>2670.2</ele>
        <time>2009-03-15T07:47:48Z</time>
      </trkpt>
      <trkpt lat="42.83971" lon="0.1224">
        <ele>2671.16</ele>
        <time>2009-03-15T07:47:55Z</time>
      </trkpt>
      <trkpt lat="42.83977" lon="0.12226">
        <ele>2674.04</ele>
        <time>2009-03-15T07:48:09Z</time>
      </trkpt>
      <trkpt lat="42.83979" lon="0.12218">
        <ele>2676.45</ele>
        <time>2009-03-15T07:48:17Z</time>
      </trkpt>
      <trkpt lat="42.83986" lon="0.12204">
        <ele>2679.33</ele>
        <time>2009-03-15T07:48:31Z</time>
      </trkpt>
      <trkpt lat="42.83988" lon="0.12197">
        <ele>2680.29</ele>
        <time>2009-03-15T07:48:37Z</time>
      </trkpt>
      <trkpt lat="42.83992" lon="0.12182">
        <ele>2683.18</ele>
        <time>2009-03-15T07:48:51Z</time>
      </trkpt>
      <trkpt lat="42.83995" lon="0.12168">
        <ele>2685.58</ele>
        <time>2009-03-15T07:49:04Z</time>
      </trkpt>
      <trkpt lat="42.83999" lon="0.12155">
        <ele>2688.94</ele>
        <time>2009-03-15T07:49:17Z</time>
      </trkpt>
      <trkpt lat="42.84005" lon="0.12147">
        <ele>2691.35</ele>
        <time>2009-03-15T07:49:27Z</time>
      </trkpt>
      <trkpt lat="42.84007" lon="0.12146">
        <ele>2691.83</ele>
        <time>2009-03-15T07:49:29Z</time>
      </trkpt>
      <trkpt lat="42.8401" lon="0.12144">
        <ele>2693.75</ele>
        <time>2009-03-15T07:49:32Z</time>
      </trkpt>
      <trkpt lat="42.84012" lon="0.12139">
        <ele>2693.75</ele>
        <time>2009-03-15T07:49:41Z</time>
      </trkpt>
      <trkpt lat="42.84007" lon="0.12134">
        <ele>2695.19</ele>
        <time>2009-03-15T07:49:51Z</time>
      </trkpt>
      <trkpt lat="42.84004" lon="0.12127">
        <ele>2697.6</ele>
        <time>2009-03-15T07:50:00Z</time>
      </trkpt>
      <trkpt lat="42.84003" lon="0.12115">
        <ele>2700</ele>
        <time>2009-03-15T07:50:12Z</time>
      </trkpt>
      <trkpt lat="42.84003" lon="0.12113">
        <ele>2700</ele>
        <time>2009-03-15T07:50:41Z</time>
      </trkpt>
      <trkpt lat="42.84003" lon="0.12114">
        <ele>2700.48</ele>
        <time>2009-03-15T07:52:33Z</time>
      </trkpt>
      <trkpt lat="42.84004" lon="0.12114">
        <ele>2699.52</ele>
        <time>2009-03-15T07:53:08Z</time>
      </trkpt>
      <trkpt lat="42.84003" lon="0.12113">
        <ele>2689.43</ele>
        <time>2009-03-15T07:53:16Z</time>
      </trkpt>
      <trkpt lat="42.84003" lon="0.12113">
        <ele>2700.48</ele>
        <time>2009-03-15T07:53:17Z</time>
      </trkpt>
      <trkpt lat="42.84002" lon="0.12113">
        <ele>2702.4</ele>
        <time>2009-03-15T08:01:59Z</time>
      </trkpt>
      <trkpt lat="42.84002" lon="0.12113">
        <ele>2702.4</ele>
        <time>2009-03-15T08:02:00Z</time>
      </trkpt>
      <trkpt lat="42.84002" lon="0.12113">
        <ele>2701.92</ele>
        <time>2009-03-15T08:02:05Z</time>
      </trkpt>
      <trkpt lat="42.84002" lon="0.12114">
        <ele>2701.44</ele>
        <time>2009-03-15T08:02:15Z</time>
      </trkpt>
      <trkpt lat="42.84002" lon="0.12114">
        <ele>2701.92</ele>
        <time>2009-03-15T08:02:40Z</time>
      </trkpt>
      <trkpt lat="42.84002" lon="0.12113">
        <ele>2700.96</ele>
        <time>2009-03-15T08:03:00Z</time>
      </trkpt>
      <trkpt lat="42.84003" lon="0.12111">
        <ele>2698.08</ele>
        <time>2009-03-15T08:03:03Z</time>
      </trkpt>
      <trkpt lat="42.84003" lon="0.12111">
        <ele>2701.44</ele>
        <time>2009-03-15T08:03:04Z</time>
      </trkpt>
      <trkpt lat="42.84003" lon="0.12112">
        <ele>2704.81</ele>
        <time>2009-03-15T08:03:05Z</time>
      </trkpt>
      <trkpt lat="42.84003" lon="0.12112">
        <ele>2702.4</ele>
        <time>2009-03-15T08:03:06Z</time>
      </trkpt>
      <trkpt lat="42.84003" lon="0.12112">
        <ele>2701.44</ele>
        <time>2009-03-15T08:03:08Z</time>
      </trkpt>
      <trkpt lat="42.84003" lon="0.12112">
        <ele>2700.96</ele>
        <time>2009-03-15T08:03:23Z</time>
      </trkpt>
      <trkpt lat="42.84003" lon="0.12112">
        <ele>2701.44</ele>
        <time>2009-03-15T08:03:43Z</time>
      </trkpt>
      <trkpt lat="42.84004" lon="0.12112">
        <ele>2700.96</ele>
        <time>2009-03-15T08:04:10Z</time>
      </trkpt>
      <trkpt lat="42.84003" lon="0.12106">
        <ele>2701.92</ele>
        <time>2009-03-15T08:04:29Z</time>
      </trkpt>
      <trkpt lat="42.84001" lon="0.12099">
        <ele>2703.36</ele>
        <time>2009-03-15T08:04:41Z</time>
      </trkpt>
      <trkpt lat="42.84" lon="0.1209">
        <ele>2705.29</ele>
        <time>2009-03-15T08:04:54Z</time>
      </trkpt>
      <trkpt lat="42.83999" lon="0.12084">
        <ele>2706.25</ele>
        <time>2009-03-15T08:05:08Z</time>
      </trkpt>
      <trkpt lat="42.83999" lon="0.1208">
        <ele>2707.21</ele>
        <time>2009-03-15T08:05:13Z</time>
      </trkpt>
      <trkpt lat="42.83997" lon="0.12074">
        <ele>2707.21</ele>
        <time>2009-03-15T08:05:25Z</time>
      </trkpt>
      <trkpt lat="42.83995" lon="0.12063">
        <ele>2708.17</ele>
        <time>2009-03-15T08:05:40Z</time>
      </trkpt>
      <trkpt lat="42.83993" lon="0.12057">
        <ele>2708.65</ele>
        <time>2009-03-15T08:05:54Z</time>
      </trkpt>
      <trkpt lat="42.83992" lon="0.12047">
        <ele>2709.61</ele>
        <time>2009-03-15T08:06:08Z</time>
      </trkpt>
      <trkpt lat="42.83991" lon="0.12038">
        <ele>2711.06</ele>
        <time>2009-03-15T08:06:22Z</time>
      </trkpt>
      <trkpt lat="42.83991" lon="0.1203">
        <ele>2711.54</ele>
        <time>2009-03-15T08:06:36Z</time>
      </trkpt>
      <trkpt lat="42.8399" lon="0.12022">
        <ele>2713.94</ele>
        <time>2009-03-15T08:06:50Z</time>
      </trkpt>
      <trkpt lat="42.83989" lon="0.12015">
        <ele>2714.9</ele>
        <time>2009-03-15T08:07:03Z</time>
      </trkpt>
      <trkpt lat="42.8399" lon="0.12008">
        <ele>2716.82</ele>
        <time>2009-03-15T08:07:17Z</time>
      </trkpt>
      <trkpt lat="42.83989" lon="0.12">
        <ele>2717.78</ele>
        <time>2009-03-15T08:07:29Z</time>
      </trkpt>
      <trkpt lat="42.83989" lon="0.11994">
        <ele>2718.75</ele>
        <time>2009-03-15T08:07:40Z</time>
      </trkpt>
      <trkpt lat="42.83987" lon="0.11985">
        <ele>2720.19</ele>
        <time>2009-03-15T08:07:54Z</time>
      </trkpt>
      <trkpt lat="42.83985" lon="0.11976">
        <ele>2721.15</ele>
        <time>2009-03-15T08:08:09Z</time>
      </trkpt>
      <trkpt lat="42.83982" lon="0.11969">
        <ele>2722.11</ele>
        <time>2009-03-15T08:08:20Z</time>
      </trkpt>
      <trkpt lat="42.83981" lon="0.11961">
        <ele>2723.07</ele>
        <time>2009-03-15T08:08:33Z</time>
      </trkpt>
      <trkpt lat="42.83979" lon="0.11952">
        <ele>2723.55</ele>
        <time>2009-03-15T08:08:46Z</time>
      </trkpt>
      <trkpt lat="42.83977" lon="0.11945">
        <ele>2724.99</ele>
        <time>2009-03-15T08:08:59Z</time>
      </trkpt>
      <trkpt lat="42.83976" lon="0.11936">
        <ele>2725.96</ele>
        <time>2009-03-15T08:09:12Z</time>
      </trkpt>
      <trkpt lat="42.83974" lon="0.11925">
        <ele>2727.4</ele>
        <time>2009-03-15T08:09:28Z</time>
      </trkpt>
      <trkpt lat="42.83972" lon="0.11917">
        <ele>2728.36</ele>
        <time>2009-03-15T08:09:41Z</time>
      </trkpt>
      <trkpt lat="42.83971" lon="0.11909">
        <ele>2729.8</ele>
        <time>2009-03-15T08:09:53Z</time>
      </trkpt>
      <trkpt lat="42.8397" lon="0.11901">
        <ele>2731.24</ele>
        <time>2009-03-15T08:10:07Z</time>
      </trkpt>
      <trkpt lat="42.8397" lon="0.11893">
        <ele>2732.2</ele>
        <time>2009-03-15T08:10:20Z</time>
      </trkpt>
      <trkpt lat="42.83971" lon="0.11887">
        <ele>2733.17</ele>
        <time>2009-03-15T08:10:33Z</time>
      </trkpt>
      <trkpt lat="42.83971" lon="0.1188">
        <ele>2734.61</ele>
        <time>2009-03-15T08:10:44Z</time>
      </trkpt>
      <trkpt lat="42.83971" lon="0.11871">
        <ele>2736.53</ele>
        <time>2009-03-15T08:10:57Z</time>
      </trkpt>
      <trkpt lat="42.83972" lon="0.11864">
        <ele>2737.49</ele>
        <time>2009-03-15T08:11:11Z</time>
      </trkpt>
      <trkpt lat="42.83972" lon="0.11856">
        <ele>2739.41</ele>
        <time>2009-03-15T08:11:24Z</time>
      </trkpt>
      <trkpt lat="42.83973" lon="0.11848">
        <ele>2740.86</ele>
        <time>2009-03-15T08:11:38Z</time>
      </trkpt>
      <trkpt lat="42.83973" lon="0.11844">
        <ele>2741.34</ele>
        <time>2009-03-15T08:11:49Z</time>
      </trkpt>
      <trkpt lat="42.83974" lon="0.11835">
        <ele>2743.74</ele>
        <time>2009-03-15T08:12:06Z</time>
      </trkpt>
      <trkpt lat="42.83974" lon="0.11827">
        <ele>2745.66</ele>
        <time>2009-03-15T08:12:19Z</time>
      </trkpt>
      <trkpt lat="42.83974" lon="0.11819">
        <ele>2746.62</ele>
        <time>2009-03-15T08:12:33Z</time>
      </trkpt>
      <trkpt lat="42.83975" lon="0.11811">
        <ele>2747.59</ele>
        <time>2009-03-15T08:12:45Z</time>
      </trkpt>
      <trkpt lat="42.83975" lon="0.11803">
        <ele>2748.07</ele>
        <time>2009-03-15T08:12:58Z</time>
      </trkpt>
      <trkpt lat="42.83975" lon="0.11796">
        <ele>2750.47</ele>
        <time>2009-03-15T08:13:10Z</time>
      </trkpt>
      <trkpt lat="42.83976" lon="0.11788">
        <ele>2750.95</ele>
        <time>2009-03-15T08:13:22Z</time>
      </trkpt>
      <trkpt lat="42.83976" lon="0.11784">
        <ele>2751.91</ele>
        <time>2009-03-15T08:13:35Z</time>
      </trkpt>
      <trkpt lat="42.83976" lon="0.11778">
        <ele>2753.35</ele>
        <time>2009-03-15T08:13:49Z</time>
      </trkpt>
      <trkpt lat="42.83977" lon="0.11769">
        <ele>2753.83</ele>
        <time>2009-03-15T08:14:02Z</time>
      </trkpt>
      <trkpt lat="42.83979" lon="0.11761">
        <ele>2756.72</ele>
        <time>2009-03-15T08:14:16Z</time>
      </trkpt>
      <trkpt lat="42.83979" lon="0.11753">
        <ele>2757.68</ele>
        <time>2009-03-15T08:14:28Z</time>
      </trkpt>
      <trkpt lat="42.83979" lon="0.1175">
        <ele>2758.16</ele>
        <time>2009-03-15T08:14:32Z</time>
      </trkpt>
      <trkpt lat="42.8398" lon="0.11742">
        <ele>2760.08</ele>
        <time>2009-03-15T08:14:45Z</time>
      </trkpt>
      <trkpt lat="42.8398" lon="0.11734">
        <ele>2761.52</ele>
        <time>2009-03-15T08:14:58Z</time>
      </trkpt>
      <trkpt lat="42.8398" lon="0.11726">
        <ele>2762.49</ele>
        <time>2009-03-15T08:15:12Z</time>
      </trkpt>
      <trkpt lat="42.8398" lon="0.11717">
        <ele>2764.41</ele>
        <time>2009-03-15T08:15:26Z</time>
      </trkpt>
      <trkpt lat="42.8398" lon="0.11714">
        <ele>2767.29</ele>
        <time>2009-03-15T08:15:31Z</time>
      </trkpt>
      <trkpt lat="42.83981" lon="0.11706">
        <ele>2766.81</ele>
        <time>2009-03-15T08:15:44Z</time>
      </trkpt>
      <trkpt lat="42.83982" lon="0.11698">
        <ele>2767.29</ele>
        <time>2009-03-15T08:15:58Z</time>
      </trkpt>
      <trkpt lat="42.83982" lon="0.11689">
        <ele>2769.21</ele>
        <time>2009-03-15T08:16:11Z</time>
      </trkpt>
      <trkpt lat="42.83983" lon="0.11681">
        <ele>2772.58</ele>
        <time>2009-03-15T08:16:22Z</time>
      </trkpt>
      <trkpt lat="42.83984" lon="0.11676">
        <ele>2772.1</ele>
        <time>2009-03-15T08:16:29Z</time>
      </trkpt>
      <trkpt lat="42.83986" lon="0.11667">
        <ele>2773.54</ele>
        <time>2009-03-15T08:16:42Z</time>
      </trkpt>
      <trkpt lat="42.83981" lon="0.11662">
        <ele>2775.94</ele>
        <time>2009-03-15T08:16:54Z</time>
      </trkpt>
      <trkpt lat="42.83977" lon="0.1166">
        <ele>2776.42</ele>
        <time>2009-03-15T08:17:05Z</time>
      </trkpt>
      <trkpt lat="42.83972" lon="0.11658">
        <ele>2777.87</ele>
        <time>2009-03-15T08:17:14Z</time>
      </trkpt>
      <trkpt lat="42.83964" lon="0.11657">
        <ele>2779.31</ele>
        <time>2009-03-15T08:17:28Z</time>
      </trkpt>
      <trkpt lat="42.83962" lon="0.11656">
        <ele>2781.23</ele>
        <time>2009-03-15T08:17:39Z</time>
      </trkpt>
      <trkpt lat="42.83961" lon="0.11649">
        <ele>2782.67</ele>
        <time>2009-03-15T08:17:50Z</time>
      </trkpt>
      <trkpt lat="42.83962" lon="0.11641">
        <ele>2784.12</ele>
        <time>2009-03-15T08:18:04Z</time>
      </trkpt>
      <trkpt lat="42.83962" lon="0.11641">
        <ele>2784.12</ele>
        <time>2009-03-15T08:18:05Z</time>
      </trkpt>
      <trkpt lat="42.83964" lon="0.11637">
        <ele>2785.56</ele>
        <time>2009-03-15T08:18:15Z</time>
      </trkpt>
      <trkpt lat="42.83963" lon="0.11634">
        <ele>2787.96</ele>
        <time>2009-03-15T08:18:28Z</time>
      </trkpt>
      <trkpt lat="42.83956" lon="0.1163">
        <ele>2788.44</ele>
        <time>2009-03-15T08:18:42Z</time>
      </trkpt>
      <trkpt lat="42.83951" lon="0.11627">
        <ele>2790.36</ele>
        <time>2009-03-15T08:18:53Z</time>
      </trkpt>
      <trkpt lat="42.83946" lon="0.11626">
        <ele>2792.29</ele>
        <time>2009-03-15T08:19:04Z</time>
      </trkpt>
      <trkpt lat="42.83944" lon="0.11627">
        <ele>2793.25</ele>
        <time>2009-03-15T08:19:15Z</time>
      </trkpt>
      <trkpt lat="42.83937" lon="0.11633">
        <ele>2794.21</ele>
        <time>2009-03-15T08:19:28Z</time>
      </trkpt>
      <trkpt lat="42.83935" lon="0.11635">
        <ele>2795.17</ele>
        <time>2009-03-15T08:19:35Z</time>
      </trkpt>
      <trkpt lat="42.83935" lon="0.11635">
        <ele>2795.17</ele>
        <time>2009-03-15T08:19:36Z</time>
      </trkpt>
      <trkpt lat="42.83934" lon="0.11633">
        <ele>2796.13</ele>
        <time>2009-03-15T08:19:44Z</time>
      </trkpt>
      <trkpt lat="42.83932" lon="0.11626">
        <ele>2797.09</ele>
        <time>2009-03-15T08:19:56Z</time>
      </trkpt>
      <trkpt lat="42.83932" lon="0.11621">
        <ele>2798.54</ele>
        <time>2009-03-15T08:20:12Z</time>
      </trkpt>
      <trkpt lat="42.83933" lon="0.11613">
        <ele>2800.46</ele>
        <time>2009-03-15T08:20:24Z</time>
      </trkpt>
      <trkpt lat="42.83934" lon="0.11606">
        <ele>2800.46</ele>
        <time>2009-03-15T08:20:36Z</time>
      </trkpt>
      <trkpt lat="42.83936" lon="0.11602">
        <ele>2800.94</ele>
        <time>2009-03-15T08:20:47Z</time>
      </trkpt>
      <trkpt lat="42.83937" lon="0.116">
        <ele>2802.38</ele>
        <time>2009-03-15T08:20:55Z</time>
      </trkpt>
      <trkpt lat="42.83938" lon="0.11598">
        <ele>2802.86</ele>
        <time>2009-03-15T08:20:57Z</time>
      </trkpt>
      <trkpt lat="42.83941" lon="0.11595">
        <ele>2802.38</ele>
        <time>2009-03-15T08:21:05Z</time>
      </trkpt>
      <trkpt lat="42.83941" lon="0.11595">
        <ele>2803.82</ele>
        <time>2009-03-15T08:21:19Z</time>
      </trkpt>
      <trkpt lat="42.83936" lon="0.11592">
        <ele>2805.26</ele>
        <time>2009-03-15T08:21:32Z</time>
      </trkpt>
      <trkpt lat="42.83932" lon="0.11589">
        <ele>2806.71</ele>
        <time>2009-03-15T08:21:43Z</time>
      </trkpt>
      <trkpt lat="42.83927" lon="0.11589">
        <ele>2809.11</ele>
        <time>2009-03-15T08:21:57Z</time>
      </trkpt>
      <trkpt lat="42.83925" lon="0.11589">
        <ele>2810.07</ele>
        <time>2009-03-15T08:21:59Z</time>
      </trkpt>
      <trkpt lat="42.8392" lon="0.1159">
        <ele>2810.07</ele>
        <time>2009-03-15T08:22:10Z</time>
      </trkpt>
      <trkpt lat="42.83912" lon="0.11594">
        <ele>2811.99</ele>
        <time>2009-03-15T08:22:22Z</time>
      </trkpt>
      <trkpt lat="42.83909" lon="0.11597">
        <ele>2813.44</ele>
        <time>2009-03-15T08:22:33Z</time>
      </trkpt>
      <trkpt lat="42.83907" lon="0.11595">
        <ele>2814.88</ele>
        <time>2009-03-15T08:22:42Z</time>
      </trkpt>
      <trkpt lat="42.83907" lon="0.1159">
        <ele>2816.32</ele>
        <time>2009-03-15T08:22:57Z</time>
      </trkpt>
      <trkpt lat="42.83908" lon="0.11581">
        <ele>2818.24</ele>
        <time>2009-03-15T08:23:12Z</time>
      </trkpt>
      <trkpt lat="42.83909" lon="0.11577">
        <ele>2818.24</ele>
        <time>2009-03-15T08:23:43Z</time>
      </trkpt>
      <trkpt lat="42.8391" lon="0.11568">
        <ele>2818.72</ele>
        <time>2009-03-15T08:23:55Z</time>
      </trkpt>
      <trkpt lat="42.83914" lon="0.1156">
        <ele>2820.65</ele>
        <time>2009-03-15T08:24:05Z</time>
      </trkpt>
      <trkpt lat="42.83917" lon="0.11552">
        <ele>2822.09</ele>
        <time>2009-03-15T08:24:18Z</time>
      </trkpt>
      <trkpt lat="42.83919" lon="0.11547">
        <ele>2822.57</ele>
        <time>2009-03-15T08:24:26Z</time>
      </trkpt>
      <trkpt lat="42.83921" lon="0.11545">
        <ele>2824.49</ele>
        <time>2009-03-15T08:24:39Z</time>
      </trkpt>
      <trkpt lat="42.83919" lon="0.11542">
        <ele>2824.97</ele>
        <time>2009-03-15T08:24:49Z</time>
      </trkpt>
      <trkpt lat="42.83915" lon="0.11537">
        <ele>2826.41</ele>
        <time>2009-03-15T08:25:01Z</time>
      </trkpt>
      <trkpt lat="42.8391" lon="0.11532">
        <ele>2827.85</ele>
        <time>2009-03-15T08:25:16Z</time>
      </trkpt>
      <trkpt lat="42.83906" lon="0.11529">
        <ele>2829.3</ele>
        <time>2009-03-15T08:25:25Z</time>
      </trkpt>
      <trkpt lat="42.83902" lon="0.11527">
        <ele>2831.22</ele>
        <time>2009-03-15T08:25:36Z</time>
      </trkpt>
      <trkpt lat="42.83899" lon="0.11525">
        <ele>2832.66</ele>
        <time>2009-03-15T08:25:43Z</time>
      </trkpt>
      <trkpt lat="42.8389" lon="0.11523">
        <ele>2834.1</ele>
        <time>2009-03-15T08:25:56Z</time>
      </trkpt>
      <trkpt lat="42.83887" lon="0.1152">
        <ele>2834.58</ele>
        <time>2009-03-15T08:26:09Z</time>
      </trkpt>
      <trkpt lat="42.83889" lon="0.11516">
        <ele>2836.03</ele>
        <time>2009-03-15T08:26:20Z</time>
      </trkpt>
      <trkpt lat="42.83891" lon="0.11513">
        <ele>2836.03</ele>
        <time>2009-03-15T08:26:27Z</time>
      </trkpt>
      <trkpt lat="42.83894" lon="0.11507">
        <ele>2836.51</ele>
        <time>2009-03-15T08:26:39Z</time>
      </trkpt>
      <trkpt lat="42.83895" lon="0.11505">
        <ele>2837.47</ele>
        <time>2009-03-15T08:26:41Z</time>
      </trkpt>
      <trkpt lat="42.83898" lon="0.11503">
        <ele>2838.43</ele>
        <time>2009-03-15T08:26:49Z</time>
      </trkpt>
      <trkpt lat="42.83903" lon="0.11498">
        <ele>2838.43</ele>
        <time>2009-03-15T08:27:02Z</time>
      </trkpt>
      <trkpt lat="42.83906" lon="0.11496">
        <ele>2839.87</ele>
        <time>2009-03-15T08:27:11Z</time>
      </trkpt>
      <trkpt lat="42.83907" lon="0.11496">
        <ele>2840.35</ele>
        <time>2009-03-15T08:27:28Z</time>
      </trkpt>
      <trkpt lat="42.83907" lon="0.11494">
        <ele>2840.83</ele>
        <time>2009-03-15T08:27:42Z</time>
      </trkpt>
      <trkpt lat="42.83901" lon="0.1149">
        <ele>2842.76</ele>
        <time>2009-03-15T08:28:01Z</time>
      </trkpt>
      <trkpt lat="42.83896" lon="0.11487">
        <ele>2844.2</ele>
        <time>2009-03-15T08:28:17Z</time>
      </trkpt>
      <trkpt lat="42.8389" lon="0.11482">
        <ele>2846.12</ele>
        <time>2009-03-15T08:28:31Z</time>
      </trkpt>
      <trkpt lat="42.83884" lon="0.1148">
        <ele>2847.08</ele>
        <time>2009-03-15T08:28:42Z</time>
      </trkpt>
      <trkpt lat="42.83879" lon="0.11477">
        <ele>2849</ele>
        <time>2009-03-15T08:28:54Z</time>
      </trkpt>
      <trkpt lat="42.83873" lon="0.11476">
        <ele>2850.93</ele>
        <time>2009-03-15T08:29:07Z</time>
      </trkpt>
      <trkpt lat="42.83868" lon="0.11475">
        <ele>2851.41</ele>
        <time>2009-03-15T08:29:19Z</time>
      </trkpt>
      <trkpt lat="42.83862" lon="0.11474">
        <ele>2853.81</ele>
        <time>2009-03-15T08:29:31Z</time>
      </trkpt>
      <trkpt lat="42.83857" lon="0.11472">
        <ele>2854.29</ele>
        <time>2009-03-15T08:29:45Z</time>
      </trkpt>
      <trkpt lat="42.8385" lon="0.11476">
        <ele>2856.21</ele>
        <time>2009-03-15T08:29:57Z</time>
      </trkpt>
      <trkpt lat="42.8385" lon="0.11477">
        <ele>2856.69</ele>
        <time>2009-03-15T08:30:09Z</time>
      </trkpt>
      <trkpt lat="42.83849" lon="0.11477">
        <ele>2856.69</ele>
        <time>2009-03-15T08:30:43Z</time>
      </trkpt>
      <trkpt lat="42.83848" lon="0.1147">
        <ele>2857.18</ele>
        <time>2009-03-15T08:31:00Z</time>
      </trkpt>
      <trkpt lat="42.83849" lon="0.11463">
        <ele>2858.62</ele>
        <time>2009-03-15T08:31:09Z</time>
      </trkpt>
      <trkpt lat="42.83854" lon="0.11457">
        <ele>2860.06</ele>
        <time>2009-03-15T08:31:21Z</time>
      </trkpt>
      <trkpt lat="42.83857" lon="0.11452">
        <ele>2861.02</ele>
        <time>2009-03-15T08:31:31Z</time>
      </trkpt>
      <trkpt lat="42.83863" lon="0.1145">
        <ele>2862.46</ele>
        <time>2009-03-15T08:31:42Z</time>
      </trkpt>
      <trkpt lat="42.83867" lon="0.11447">
        <ele>2863.9</ele>
        <time>2009-03-15T08:31:53Z</time>
      </trkpt>
      <trkpt lat="42.83868" lon="0.11446">
        <ele>2863.9</ele>
        <time>2009-03-15T08:31:55Z</time>
      </trkpt>
      <trkpt lat="42.83873" lon="0.11442">
        <ele>2866.31</ele>
        <time>2009-03-15T08:32:06Z</time>
      </trkpt>
      <trkpt lat="42.83876" lon="0.11439">
        <ele>2867.27</ele>
        <time>2009-03-15T08:32:15Z</time>
      </trkpt>
      <trkpt lat="42.8388" lon="0.11438">
        <ele>2868.23</ele>
        <time>2009-03-15T08:32:21Z</time>
      </trkpt>
      <trkpt lat="42.83882" lon="0.11437">
        <ele>2868.23</ele>
        <time>2009-03-15T08:32:23Z</time>
      </trkpt>
      <trkpt lat="42.83883" lon="0.11433">
        <ele>2868.71</ele>
        <time>2009-03-15T08:32:36Z</time>
      </trkpt>
      <trkpt lat="42.83887" lon="0.11429">
        <ele>2870.15</ele>
        <time>2009-03-15T08:32:49Z</time>
      </trkpt>
      <trkpt lat="42.8389" lon="0.11425">
        <ele>2871.11</ele>
        <time>2009-03-15T08:33:03Z</time>
      </trkpt>
      <trkpt lat="42.83891" lon="0.11423">
        <ele>2871.11</ele>
        <time>2009-03-15T08:33:18Z</time>
      </trkpt>
      <trkpt lat="42.83891" lon="0.11423">
        <ele>2872.08</ele>
        <time>2009-03-15T08:33:20Z</time>
      </trkpt>
      <trkpt lat="42.83891" lon="0.11423">
        <ele>2872.08</ele>
        <time>2009-03-15T08:33:58Z</time>
      </trkpt>
      <trkpt lat="42.83895" lon="0.11414">
        <ele>2874.48</ele>
        <time>2009-03-15T08:34:21Z</time>
      </trkpt>
      <trkpt lat="42.83898" lon="0.11405">
        <ele>2874.96</ele>
        <time>2009-03-15T08:34:32Z</time>
      </trkpt>
      <trkpt lat="42.83897" lon="0.11396">
        <ele>2878.32</ele>
        <time>2009-03-15T08:34:45Z</time>
      </trkpt>
      <trkpt lat="42.83892" lon="0.1139">
        <ele>2879.77</ele>
        <time>2009-03-15T08:34:58Z</time>
      </trkpt>
      <trkpt lat="42.83891" lon="0.1139">
        <ele>2880.73</ele>
        <time>2009-03-15T08:35:00Z</time>
      </trkpt>
      <trkpt lat="42.83886" lon="0.11388">
        <ele>2882.17</ele>
        <time>2009-03-15T08:35:13Z</time>
      </trkpt>
      <trkpt lat="42.83881" lon="0.11383">
        <ele>2883.61</ele>
        <time>2009-03-15T08:35:24Z</time>
      </trkpt>
      <trkpt lat="42.83875" lon="0.1138">
        <ele>2883.61</ele>
        <time>2009-03-15T08:35:34Z</time>
      </trkpt>
      <trkpt lat="42.83874" lon="0.11377">
        <ele>2886.02</ele>
        <time>2009-03-15T08:35:45Z</time>
      </trkpt>
      <trkpt lat="42.83876" lon="0.11368">
        <ele>2887.46</ele>
        <time>2009-03-15T08:35:58Z</time>
      </trkpt>
      <trkpt lat="42.83875" lon="0.11363">
        <ele>2889.86</ele>
        <time>2009-03-15T08:36:09Z</time>
      </trkpt>
      <trkpt lat="42.83873" lon="0.11356">
        <ele>2890.82</ele>
        <time>2009-03-15T08:36:20Z</time>
      </trkpt>
      <trkpt lat="42.83866" lon="0.11349">
        <ele>2893.23</ele>
        <time>2009-03-15T08:36:33Z</time>
      </trkpt>
      <trkpt lat="42.8386" lon="0.11346">
        <ele>2895.63</ele>
        <time>2009-03-15T08:36:47Z</time>
      </trkpt>
      <trkpt lat="42.83854" lon="0.11342">
        <ele>2896.11</ele>
        <time>2009-03-15T08:36:59Z</time>
      </trkpt>
      <trkpt lat="42.8385" lon="0.11339">
        <ele>2898.03</ele>
        <time>2009-03-15T08:37:14Z</time>
      </trkpt>
      <trkpt lat="42.83843" lon="0.11335">
        <ele>2899.95</ele>
        <time>2009-03-15T08:37:28Z</time>
      </trkpt>
      <trkpt lat="42.83843" lon="0.11335">
        <ele>2900.92</ele>
        <time>2009-03-15T08:37:54Z</time>
      </trkpt>
      <trkpt lat="42.8384" lon="0.11333">
        <ele>2901.4</ele>
        <time>2009-03-15T08:38:26Z</time>
      </trkpt>
      <trkpt lat="42.83835" lon="0.11335">
        <ele>2903.32</ele>
        <time>2009-03-15T08:38:36Z</time>
      </trkpt>
      <trkpt lat="42.83827" lon="0.11342">
        <ele>2905.24</ele>
        <time>2009-03-15T08:38:48Z</time>
      </trkpt>
      <trkpt lat="42.83819" lon="0.11345">
        <ele>2907.65</ele>
        <time>2009-03-15T08:39:01Z</time>
      </trkpt>
      <trkpt lat="42.83812" lon="0.11349">
        <ele>2909.09</ele>
        <time>2009-03-15T08:39:15Z</time>
      </trkpt>
      <trkpt lat="42.83805" lon="0.11353">
        <ele>2910.05</ele>
        <time>2009-03-15T08:39:28Z</time>
      </trkpt>
      <trkpt lat="42.83799" lon="0.11358">
        <ele>2913.41</ele>
        <time>2009-03-15T08:39:44Z</time>
      </trkpt>
      <trkpt lat="42.83789" lon="0.11365">
        <ele>2915.34</ele>
        <time>2009-03-15T08:40:01Z</time>
      </trkpt>
      <trkpt lat="42.83785" lon="0.11368">
        <ele>2916.78</ele>
        <time>2009-03-15T08:40:13Z</time>
      </trkpt>
      <trkpt lat="42.83781" lon="0.11371">
        <ele>2918.22</ele>
        <time>2009-03-15T08:40:28Z</time>
      </trkpt>
      <trkpt lat="42.83773" lon="0.11378">
        <ele>2920.62</ele>
        <time>2009-03-15T08:40:41Z</time>
      </trkpt>
      <trkpt lat="42.83767" lon="0.11386">
        <ele>2921.58</ele>
        <time>2009-03-15T08:40:55Z</time>
      </trkpt>
      <trkpt lat="42.83762" lon="0.1139">
        <ele>2923.03</ele>
        <time>2009-03-15T08:41:06Z</time>
      </trkpt>
      <trkpt lat="42.83759" lon="0.11393">
        <ele>2924.47</ele>
        <time>2009-03-15T08:41:16Z</time>
      </trkpt>
      <trkpt lat="42.83754" lon="0.11402">
        <ele>2925.43</ele>
        <time>2009-03-15T08:41:30Z</time>
      </trkpt>
      <trkpt lat="42.83751" lon="0.11406">
        <ele>2927.35</ele>
        <time>2009-03-15T08:41:42Z</time>
      </trkpt>
      <trkpt lat="42.83747" lon="0.11412">
        <ele>2929.75</ele>
        <time>2009-03-15T08:41:58Z</time>
      </trkpt>
      <trkpt lat="42.83743" lon="0.11418">
        <ele>2930.24</ele>
        <time>2009-03-15T08:42:10Z</time>
      </trkpt>
      <trkpt lat="42.83738" lon="0.11423">
        <ele>2932.64</ele>
        <time>2009-03-15T08:42:26Z</time>
      </trkpt>
      <trkpt lat="42.8373" lon="0.11431">
        <ele>2935.04</ele>
        <time>2009-03-15T08:42:41Z</time>
      </trkpt>
      <trkpt lat="42.83726" lon="0.11437">
        <ele>2936.97</ele>
        <time>2009-03-15T08:42:53Z</time>
      </trkpt>
      <trkpt lat="42.83723" lon="0.11443">
        <ele>2937.45</ele>
        <time>2009-03-15T08:43:04Z</time>
      </trkpt>
      <trkpt lat="42.83718" lon="0.11452">
        <ele>2938.89</ele>
        <time>2009-03-15T08:43:17Z</time>
      </trkpt>
      <trkpt lat="42.83715" lon="0.11458">
        <ele>2940.33</ele>
        <time>2009-03-15T08:43:28Z</time>
      </trkpt>
      <trkpt lat="42.83712" lon="0.1146">
        <ele>2941.77</ele>
        <time>2009-03-15T08:43:39Z</time>
      </trkpt>
      <trkpt lat="42.83708" lon="0.11468">
        <ele>2944.17</ele>
        <time>2009-03-15T08:43:53Z</time>
      </trkpt>
      <trkpt lat="42.83705" lon="0.11473">
        <ele>2944.17</ele>
        <time>2009-03-15T08:44:03Z</time>
      </trkpt>
      <trkpt lat="42.83702" lon="0.11479">
        <ele>2946.58</ele>
        <time>2009-03-15T08:44:14Z</time>
      </trkpt>
      <trkpt lat="42.837" lon="0.11486">
        <ele>2947.54</ele>
        <time>2009-03-15T08:44:26Z</time>
      </trkpt>
      <trkpt lat="42.83699" lon="0.1149">
        <ele>2948.98</ele>
        <time>2009-03-15T08:44:42Z</time>
      </trkpt>
      <trkpt lat="42.83699" lon="0.11492">
        <ele>2948.98</ele>
        <time>2009-03-15T08:45:18Z</time>
      </trkpt>
      <trkpt lat="42.83698" lon="0.11491">
        <ele>2949.46</ele>
        <time>2009-03-15T08:45:29Z</time>
      </trkpt>
      <trkpt lat="42.83698" lon="0.11491">
        <ele>2948.98</ele>
        <time>2009-03-15T08:46:02Z</time>
      </trkpt>
      <trkpt lat="42.83697" lon="0.11486">
        <ele>2950.9</ele>
        <time>2009-03-15T08:46:26Z</time>
      </trkpt>
      <trkpt lat="42.83694" lon="0.11476">
        <ele>2953.31</ele>
        <time>2009-03-15T08:46:42Z</time>
      </trkpt>
      <trkpt lat="42.83691" lon="0.11465">
        <ele>2955.23</ele>
        <time>2009-03-15T08:46:58Z</time>
      </trkpt>
      <trkpt lat="42.83691" lon="0.11462">
        <ele>2957.15</ele>
        <time>2009-03-15T08:47:11Z</time>
      </trkpt>
      <trkpt lat="42.83688" lon="0.11451">
        <ele>2959.08</ele>
        <time>2009-03-15T08:47:26Z</time>
      </trkpt>
      <trkpt lat="42.83686" lon="0.11442">
        <ele>2961</ele>
        <time>2009-03-15T08:47:39Z</time>
      </trkpt>
      <trkpt lat="42.83686" lon="0.11432">
        <ele>2963.88</ele>
        <time>2009-03-15T08:47:53Z</time>
      </trkpt>
      <trkpt lat="42.83685" lon="0.1142">
        <ele>2965.8</ele>
        <time>2009-03-15T08:48:07Z</time>
      </trkpt>
      <trkpt lat="42.83684" lon="0.11412">
        <ele>2968.21</ele>
        <time>2009-03-15T08:48:20Z</time>
      </trkpt>
      <trkpt lat="42.83685" lon="0.11402">
        <ele>2970.13</ele>
        <time>2009-03-15T08:48:33Z</time>
      </trkpt>
      <trkpt lat="42.83687" lon="0.11393">
        <ele>2971.57</ele>
        <time>2009-03-15T08:48:45Z</time>
      </trkpt>
      <trkpt lat="42.83689" lon="0.11381">
        <ele>2973.5</ele>
        <time>2009-03-15T08:48:59Z</time>
      </trkpt>
      <trkpt lat="42.83691" lon="0.11369">
        <ele>2975.42</ele>
        <time>2009-03-15T08:49:14Z</time>
      </trkpt>
      <trkpt lat="42.83692" lon="0.11367">
        <ele>2976.38</ele>
        <time>2009-03-15T08:49:16Z</time>
      </trkpt>
      <trkpt lat="42.83694" lon="0.11356">
        <ele>2977.82</ele>
        <time>2009-03-15T08:49:31Z</time>
      </trkpt>
      <trkpt lat="42.83696" lon="0.1135">
        <ele>2978.78</ele>
        <time>2009-03-15T08:49:41Z</time>
      </trkpt>
      <trkpt lat="42.83698" lon="0.11344">
        <ele>2981.19</ele>
        <time>2009-03-15T08:49:55Z</time>
      </trkpt>
      <trkpt lat="42.837" lon="0.11337">
        <ele>2982.15</ele>
        <time>2009-03-15T08:50:10Z</time>
      </trkpt>
      <trkpt lat="42.837" lon="0.11331">
        <ele>2983.59</ele>
        <time>2009-03-15T08:50:16Z</time>
      </trkpt>
      <trkpt lat="42.83701" lon="0.11326">
        <ele>2985.51</ele>
        <time>2009-03-15T08:50:28Z</time>
      </trkpt>
      <trkpt lat="42.83695" lon="0.11324">
        <ele>2987.91</ele>
        <time>2009-03-15T08:50:40Z</time>
      </trkpt>
      <trkpt lat="42.83688" lon="0.11325">
        <ele>2988.88</ele>
        <time>2009-03-15T08:50:53Z</time>
      </trkpt>
      <trkpt lat="42.83684" lon="0.11328">
        <ele>2990.8</ele>
        <time>2009-03-15T08:51:04Z</time>
      </trkpt>
      <trkpt lat="42.83678" lon="0.1133">
        <ele>2991.76</ele>
        <time>2009-03-15T08:51:17Z</time>
      </trkpt>
      <trkpt lat="42.83672" lon="0.11333">
        <ele>2993.2</ele>
        <time>2009-03-15T08:51:29Z</time>
      </trkpt>
      <trkpt lat="42.83672" lon="0.11333">
        <ele>2994.16</ele>
        <time>2009-03-15T08:51:53Z</time>
      </trkpt>
      <trkpt lat="42.83666" lon="0.1134">
        <ele>2996.57</ele>
        <time>2009-03-15T08:53:32Z</time>
      </trkpt>
      <trkpt lat="42.83663" lon="0.11343">
        <ele>2997.53</ele>
        <time>2009-03-15T08:53:43Z</time>
      </trkpt>
      <trkpt lat="42.83657" lon="0.11349">
        <ele>2999.93</ele>
        <time>2009-03-15T08:53:56Z</time>
      </trkpt>
      <trkpt lat="42.83651" lon="0.11355">
        <ele>3001.37</ele>
        <time>2009-03-15T08:54:07Z</time>
      </trkpt>
      <trkpt lat="42.8365" lon="0.11356">
        <ele>3001.37</ele>
        <time>2009-03-15T08:54:09Z</time>
      </trkpt>
      <trkpt lat="42.83649" lon="0.11359">
        <ele>3002.82</ele>
        <time>2009-03-15T08:54:12Z</time>
      </trkpt>
      <trkpt lat="42.83643" lon="0.11365">
        <ele>3005.22</ele>
        <time>2009-03-15T08:54:25Z</time>
      </trkpt>
      <trkpt lat="42.8364" lon="0.11371">
        <ele>3005.7</ele>
        <time>2009-03-15T08:54:38Z</time>
      </trkpt>
      <trkpt lat="42.8364" lon="0.11368">
        <ele>3007.14</ele>
        <time>2009-03-15T08:54:46Z</time>
      </trkpt>
      <trkpt lat="42.83641" lon="0.11363">
        <ele>3007.62</ele>
        <time>2009-03-15T08:54:52Z</time>
      </trkpt>
      <trkpt lat="42.83642" lon="0.11357">
        <ele>3009.06</ele>
        <time>2009-03-15T08:55:05Z</time>
      </trkpt>
      <trkpt lat="42.83643" lon="0.11352">
        <ele>3010.51</ele>
        <time>2009-03-15T08:55:17Z</time>
      </trkpt>
      <trkpt lat="42.83641" lon="0.11354">
        <ele>3010.99</ele>
        <time>2009-03-15T08:55:23Z</time>
      </trkpt>
      <trkpt lat="42.83635" lon="0.11359">
        <ele>3012.43</ele>
        <time>2009-03-15T08:55:33Z</time>
      </trkpt>
      <trkpt lat="42.83629" lon="0.11366">
        <ele>3013.87</ele>
        <time>2009-03-15T08:55:44Z</time>
      </trkpt>
      <trkpt lat="42.83627" lon="0.11367">
        <ele>3014.35</ele>
        <time>2009-03-15T08:55:55Z</time>
      </trkpt>
      <trkpt lat="42.83627" lon="0.11369">
        <ele>3014.35</ele>
        <time>2009-03-15T08:56:28Z</time>
      </trkpt>
      <trkpt lat="42.83627" lon="0.11369">
        <ele>3014.35</ele>
        <time>2009-03-15T08:57:15Z</time>
      </trkpt>
      <trkpt lat="42.83626" lon="0.1137">
        <ele>3014.83</ele>
        <time>2009-03-15T08:57:32Z</time>
      </trkpt>
      <trkpt lat="42.83626" lon="0.1137">
        <ele>3015.31</ele>
        <time>2009-03-15T08:57:59Z</time>
      </trkpt>
      <trkpt lat="42.83627" lon="0.11371">
        <ele>3014.35</ele>
        <time>2009-03-15T08:58:09Z</time>
      </trkpt>
      <trkpt lat="42.83627" lon="0.11371">
        <ele>3014.83</ele>
        <time>2009-03-15T08:58:37Z</time>
      </trkpt>
      <trkpt lat="42.83626" lon="0.11371">
        <ele>3014.35</ele>
        <time>2009-03-15T08:59:19Z</time>
      </trkpt>
      <trkpt lat="42.83626" lon="0.11371">
        <ele>3014.35</ele>
        <time>2009-03-15T08:59:47Z</time>
      </trkpt>
      <trkpt lat="42.83626" lon="0.11371">
        <ele>3014.35</ele>
        <time>2009-03-15T09:00:23Z</time>
      </trkpt>
      <trkpt lat="42.83625" lon="0.11371">
        <ele>3014.35</ele>
        <time>2009-03-15T09:01:39Z</time>
      </trkpt>
      <trkpt lat="42.83625" lon="0.11371">
        <ele>3014.83</ele>
        <time>2009-03-15T09:03:44Z</time>
      </trkpt>
      <trkpt lat="42.83624" lon="0.11374">
        <ele>3014.83</ele>
        <time>2009-03-15T09:04:57Z</time>
      </trkpt>
      <trkpt lat="42.83621" lon="0.11382">
        <ele>3016.27</ele>
        <time>2009-03-15T09:05:08Z</time>
      </trkpt>
      <trkpt lat="42.83619" lon="0.11388">
        <ele>3016.75</ele>
        <time>2009-03-15T09:05:22Z</time>
      </trkpt>
      <trkpt lat="42.83616" lon="0.11395">
        <ele>3018.2</ele>
        <time>2009-03-15T09:05:36Z</time>
      </trkpt>
      <trkpt lat="42.83612" lon="0.11401">
        <ele>3020.12</ele>
        <time>2009-03-15T09:05:49Z</time>
      </trkpt>
      <trkpt lat="42.8361" lon="0.11406">
        <ele>3021.56</ele>
        <time>2009-03-15T09:06:02Z</time>
      </trkpt>
      <trkpt lat="42.83609" lon="0.11409">
        <ele>3022.52</ele>
        <time>2009-03-15T09:06:09Z</time>
      </trkpt>
      <trkpt lat="42.83605" lon="0.11416">
        <ele>3023.96</ele>
        <time>2009-03-15T09:06:27Z</time>
      </trkpt>
      <trkpt lat="42.83602" lon="0.11425">
        <ele>3024.93</ele>
        <time>2009-03-15T09:06:39Z</time>
      </trkpt>
      <trkpt lat="42.83601" lon="0.11429">
        <ele>3026.37</ele>
        <time>2009-03-15T09:06:45Z</time>
      </trkpt>
      <trkpt lat="42.83599" lon="0.11437">
        <ele>3027.33</ele>
        <time>2009-03-15T09:06:56Z</time>
      </trkpt>
      <trkpt lat="42.83596" lon="0.11445">
        <ele>3028.29</ele>
        <time>2009-03-15T09:07:07Z</time>
      </trkpt>
      <trkpt lat="42.83596" lon="0.11446">
        <ele>3029.25</ele>
        <time>2009-03-15T09:07:09Z</time>
      </trkpt>
      <trkpt lat="42.83594" lon="0.1145">
        <ele>3030.21</ele>
        <time>2009-03-15T09:07:20Z</time>
      </trkpt>
      <trkpt lat="42.83592" lon="0.11457">
        <ele>3031.66</ele>
        <time>2009-03-15T09:07:31Z</time>
      </trkpt>
      <trkpt lat="42.8359" lon="0.11463">
        <ele>3033.1</ele>
        <time>2009-03-15T09:07:42Z</time>
      </trkpt>
      <trkpt lat="42.8359" lon="0.11465">
        <ele>3033.58</ele>
        <time>2009-03-15T09:08:22Z</time>
      </trkpt>
      <trkpt lat="42.83589" lon="0.11458">
        <ele>3034.06</ele>
        <time>2009-03-15T09:08:32Z</time>
      </trkpt>
      <trkpt lat="42.83588" lon="0.11451">
        <ele>3035.5</ele>
        <time>2009-03-15T09:08:42Z</time>
      </trkpt>
      <trkpt lat="42.83587" lon="0.11441">
        <ele>3036.46</ele>
        <time>2009-03-15T09:08:55Z</time>
      </trkpt>
      <trkpt lat="42.83586" lon="0.11437">
        <ele>3037.9</ele>
        <time>2009-03-15T09:09:11Z</time>
      </trkpt>
      <trkpt lat="42.83585" lon="0.11437">
        <ele>3038.38</ele>
        <time>2009-03-15T09:09:24Z</time>
      </trkpt>
      <trkpt lat="42.83583" lon="0.11445">
        <ele>3039.35</ele>
        <time>2009-03-15T09:09:35Z</time>
      </trkpt>
      <trkpt lat="42.83582" lon="0.11448">
        <ele>3040.79</ele>
        <time>2009-03-15T09:09:39Z</time>
      </trkpt>
      <trkpt lat="42.83581" lon="0.11451">
        <ele>3041.27</ele>
        <time>2009-03-15T09:09:54Z</time>
      </trkpt>
      <trkpt lat="42.8358" lon="0.11456">
        <ele>3041.75</ele>
        <time>2009-03-15T09:10:03Z</time>
      </trkpt>
      <trkpt lat="42.83577" lon="0.11456">
        <ele>3042.71</ele>
        <time>2009-03-15T09:10:07Z</time>
      </trkpt>
      <trkpt lat="42.83578" lon="0.1146">
        <ele>3043.67</ele>
        <time>2009-03-15T09:10:11Z</time>
      </trkpt>
      <trkpt lat="42.83574" lon="0.11466">
        <ele>3046.07</ele>
        <time>2009-03-15T09:10:22Z</time>
      </trkpt>
      <trkpt lat="42.83572" lon="0.11472">
        <ele>3048</ele>
        <time>2009-03-15T09:10:34Z</time>
      </trkpt>
      <trkpt lat="42.8357" lon="0.1148">
        <ele>3049.44</ele>
        <time>2009-03-15T09:10:44Z</time>
      </trkpt>
      <trkpt lat="42.83567" lon="0.11485">
        <ele>3050.4</ele>
        <time>2009-03-15T09:10:54Z</time>
      </trkpt>
      <trkpt lat="42.83566" lon="0.11488">
        <ele>3051.36</ele>
        <time>2009-03-15T09:11:03Z</time>
      </trkpt>
      <trkpt lat="42.83564" lon="0.11492">
        <ele>3052.32</ele>
        <time>2009-03-15T09:11:22Z</time>
      </trkpt>
      <trkpt lat="42.83563" lon="0.11494">
        <ele>3053.28</ele>
        <time>2009-03-15T09:12:12Z</time>
      </trkpt>
      <trkpt lat="42.83563" lon="0.11494">
        <ele>3053.28</ele>
        <time>2009-03-15T09:12:24Z</time>
      </trkpt>
      <trkpt lat="42.83563" lon="0.1149">
        <ele>3055.21</ele>
        <time>2009-03-15T09:12:36Z</time>
      </trkpt>
      <trkpt lat="42.83561" lon="0.11483">
        <ele>3056.65</ele>
        <time>2009-03-15T09:12:43Z</time>
      </trkpt>
      <trkpt lat="42.83559" lon="0.11476">
        <ele>3057.61</ele>
        <time>2009-03-15T09:12:53Z</time>
      </trkpt>
      <trkpt lat="42.83559" lon="0.11472">
        <ele>3059.05</ele>
        <time>2009-03-15T09:13:02Z</time>
      </trkpt>
      <trkpt lat="42.83559" lon="0.11466">
        <ele>3060.98</ele>
        <time>2009-03-15T09:13:14Z</time>
      </trkpt>
      <trkpt lat="42.83558" lon="0.1146">
        <ele>3061.94</ele>
        <time>2009-03-15T09:13:26Z</time>
      </trkpt>
      <trkpt lat="42.83558" lon="0.11458">
        <ele>3063.38</ele>
        <time>2009-03-15T09:13:39Z</time>
      </trkpt>
      <trkpt lat="42.83557" lon="0.11456">
        <ele>3064.82</ele>
        <time>2009-03-15T09:13:47Z</time>
      </trkpt>
      <trkpt lat="42.83556" lon="0.11456">
        <ele>3063.86</ele>
        <time>2009-03-15T09:13:59Z</time>
      </trkpt>
      <trkpt lat="42.83556" lon="0.11455">
        <ele>3064.34</ele>
        <time>2009-03-15T09:14:12Z</time>
      </trkpt>
      <trkpt lat="42.83556" lon="0.11455">
        <ele>3064.82</ele>
        <time>2009-03-15T09:14:29Z</time>
      </trkpt>
      <trkpt lat="42.83555" lon="0.11455">
        <ele>3064.34</ele>
        <time>2009-03-15T09:14:48Z</time>
      </trkpt>
      <trkpt lat="42.83555" lon="0.11455">
        <ele>3063.86</ele>
        <time>2009-03-15T09:14:58Z</time>
      </trkpt>
      <trkpt lat="42.83555" lon="0.11455">
        <ele>3064.34</ele>
        <time>2009-03-15T09:15:10Z</time>
      </trkpt>
      <trkpt lat="42.83555" lon="0.11455">
        <ele>3064.82</ele>
        <time>2009-03-15T09:15:21Z</time>
      </trkpt>
      <trkpt lat="42.83554" lon="0.11454">
        <ele>3064.34</ele>
        <time>2009-03-15T09:15:31Z</time>
      </trkpt>
      <trkpt lat="42.83554" lon="0.11455">
        <ele>3064.82</ele>
        <time>2009-03-15T09:15:42Z</time>
      </trkpt>
      <trkpt lat="42.83555" lon="0.11454">
        <ele>3062.9</ele>
        <time>2009-03-15T09:15:56Z</time>
      </trkpt>
      <trkpt lat="42.83554" lon="0.11455">
        <ele>3064.34</ele>
        <time>2009-03-15T09:19:27Z</time>
      </trkpt>
      <trkpt lat="42.83554" lon="0.11453">
        <ele>3064.34</ele>
        <time>2009-03-15T09:22:18Z</time>
      </trkpt>
      <trkpt lat="42.83554" lon="0.11453">
        <ele>3064.34</ele>
        <time>2009-03-15T09:24:54Z</time>
      </trkpt>
      <trkpt lat="42.83554" lon="0.11453">
        <ele>3064.34</ele>
        <time>2009-03-15T09:25:20Z</time>
      </trkpt>
      <trkpt lat="42.83555" lon="0.11453">
        <ele>3062.9</ele>
        <time>2009-03-15T09:25:40Z</time>
      </trkpt>
      <trkpt lat="42.83555" lon="0.11453">
        <ele>3063.38</ele>
        <time>2009-03-15T09:26:14Z</time>
      </trkpt>
      <trkpt lat="42.83555" lon="0.11453">
        <ele>3061.94</ele>
        <time>2009-03-15T09:26:20Z</time>
      </trkpt>
      <trkpt lat="42.83555" lon="0.11454">
        <ele>3064.34</ele>
        <time>2009-03-15T09:26:24Z</time>
      </trkpt>
      <trkpt lat="42.83555" lon="0.11453">
        <ele>3061.46</ele>
        <time>2009-03-15T09:26:51Z</time>
      </trkpt>
      <trkpt lat="42.83555" lon="0.11453">
        <ele>3063.86</ele>
        <time>2009-03-15T09:26:54Z</time>
      </trkpt>
      <trkpt lat="42.83554" lon="0.11455">
        <ele>3063.38</ele>
        <time>2009-03-15T09:27:16Z</time>
      </trkpt>
      <trkpt lat="42.83553" lon="0.11457">
        <ele>3063.86</ele>
        <time>2009-03-15T09:27:32Z</time>
      </trkpt>
      <trkpt lat="42.83552" lon="0.11461">
        <ele>3062.9</ele>
        <time>2009-03-15T09:27:44Z</time>
      </trkpt>
      <trkpt lat="42.8355" lon="0.11472">
        <ele>3064.82</ele>
        <time>2009-03-15T09:27:56Z</time>
      </trkpt>
      <trkpt lat="42.8355" lon="0.11475">
        <ele>3065.78</ele>
        <time>2009-03-15T09:28:05Z</time>
      </trkpt>
      <trkpt lat="42.83549" lon="0.11478">
        <ele>3068.19</ele>
        <time>2009-03-15T09:28:15Z</time>
      </trkpt>
      <trkpt lat="42.83548" lon="0.11479">
        <ele>3070.11</ele>
        <time>2009-03-15T09:28:20Z</time>
      </trkpt>
      <trkpt lat="42.83548" lon="0.11478">
        <ele>3071.07</ele>
        <time>2009-03-15T09:28:32Z</time>
      </trkpt>
      <trkpt lat="42.83546" lon="0.11479">
        <ele>3072.51</ele>
        <time>2009-03-15T09:28:47Z</time>
      </trkpt>
      <trkpt lat="42.83546" lon="0.1148">
        <ele>3074.43</ele>
        <time>2009-03-15T09:28:55Z</time>
      </trkpt>
      <trkpt lat="42.83544" lon="0.11482">
        <ele>3075.88</ele>
        <time>2009-03-15T09:29:08Z</time>
      </trkpt>
      <trkpt lat="42.83543" lon="0.11484">
        <ele>3075.88</ele>
        <time>2009-03-15T09:29:19Z</time>
      </trkpt>
      <trkpt lat="42.83542" lon="0.11486">
        <ele>3077.8</ele>
        <time>2009-03-15T09:29:31Z</time>
      </trkpt>
      <trkpt lat="42.83541" lon="0.11487">
        <ele>3078.28</ele>
        <time>2009-03-15T09:29:48Z</time>
      </trkpt>
      <trkpt lat="42.83541" lon="0.11488">
        <ele>3080.68</ele>
        <time>2009-03-15T09:30:09Z</time>
      </trkpt>
      <trkpt lat="42.83541" lon="0.11488">
        <ele>3081.16</ele>
        <time>2009-03-15T09:30:27Z</time>
      </trkpt>
      <trkpt lat="42.83539" lon="0.11493">
        <ele>3081.16</ele>
        <time>2009-03-15T09:30:38Z</time>
      </trkpt>
      <trkpt lat="42.83539" lon="0.11494">
        <ele>3082.12</ele>
        <time>2009-03-15T09:30:48Z</time>
      </trkpt>
      <trkpt lat="42.83539" lon="0.11495">
        <ele>3082.6</ele>
        <time>2009-03-15T09:31:33Z</time>
      </trkpt>
      <trkpt lat="42.83539" lon="0.11496">
        <ele>3083.09</ele>
        <time>2009-03-15T09:31:46Z</time>
      </trkpt>
      <trkpt lat="42.83539" lon="0.11501">
        <ele>3086.45</ele>
        <time>2009-03-15T09:31:53Z</time>
      </trkpt>
      <trkpt lat="42.83539" lon="0.11502">
        <ele>3085.97</ele>
        <time>2009-03-15T09:31:54Z</time>
      </trkpt>
      <trkpt lat="42.83537" lon="0.11506">
        <ele>3087.89</ele>
        <time>2009-03-15T09:32:07Z</time>
      </trkpt>
      <trkpt lat="42.83536" lon="0.11513">
        <ele>3087.89</ele>
        <time>2009-03-15T09:32:36Z</time>
      </trkpt>
      <trkpt lat="42.83536" lon="0.11513">
        <ele>3088.37</ele>
        <time>2009-03-15T09:32:59Z</time>
      </trkpt>
      <trkpt lat="42.83536" lon="0.11513">
        <ele>3088.37</ele>
        <time>2009-03-15T09:33:56Z</time>
      </trkpt>
      <trkpt lat="42.83536" lon="0.11513">
        <ele>3087.89</ele>
        <time>2009-03-15T09:34:15Z</time>
      </trkpt>
      <trkpt lat="42.83536" lon="0.11513">
        <ele>3087.89</ele>
        <time>2009-03-15T09:34:33Z</time>
      </trkpt>
      <trkpt lat="42.83537" lon="0.11514">
        <ele>3086.93</ele>
        <time>2009-03-15T09:34:49Z</time>
      </trkpt>
      <trkpt lat="42.83538" lon="0.11512">
        <ele>3084.53</ele>
        <time>2009-03-15T09:42:11Z</time>
      </trkpt>
      <trkpt lat="42.83538" lon="0.11512">
        <ele>3088.85</ele>
        <time>2009-03-15T09:42:15Z</time>
      </trkpt>
      <trkpt lat="42.83538" lon="0.11512">
        <ele>3085.01</ele>
        <time>2009-03-15T09:42:20Z</time>
      </trkpt>
      <trkpt lat="42.83538" lon="0.11512">
        <ele>3085.97</ele>
        <time>2009-03-15T09:42:40Z</time>
      </trkpt>
      <trkpt lat="42.83538" lon="0.11513">
        <ele>3086.93</ele>
        <time>2009-03-15T09:46:06Z</time>
      </trkpt>
      <trkpt lat="42.83538" lon="0.11513">
        <ele>3082.12</ele>
        <time>2009-03-15T09:46:07Z</time>
      </trkpt>
      <trkpt lat="42.83538" lon="0.11513">
        <ele>3087.41</ele>
        <time>2009-03-15T09:46:08Z</time>
      </trkpt>
      <trkpt lat="42.83538" lon="0.11512">
        <ele>3085.01</ele>
        <time>2009-03-15T09:47:01Z</time>
      </trkpt>
      <trkpt lat="42.83538" lon="0.11512">
        <ele>3085.49</ele>
        <time>2009-03-15T09:47:46Z</time>
      </trkpt>
      <trkpt lat="42.83538" lon="0.11514">
        <ele>3087.41</ele>
        <time>2009-03-15T09:47:58Z</time>
      </trkpt>
      <trkpt lat="42.83538" lon="0.11514">
        <ele>3086.93</ele>
        <time>2009-03-15T09:48:12Z</time>
      </trkpt>
      <trkpt lat="42.8354" lon="0.1151">
        <ele>3087.41</ele>
        <time>2009-03-15T09:48:34Z</time>
      </trkpt>
      <trkpt lat="42.8354" lon="0.11509">
        <ele>3085.49</ele>
        <time>2009-03-15T09:48:49Z</time>
      </trkpt>
      <trkpt lat="42.83541" lon="0.11508">
        <ele>3085.49</ele>
        <time>2009-03-15T09:48:59Z</time>
      </trkpt>
      <trkpt lat="42.83541" lon="0.11507">
        <ele>3085.01</ele>
        <time>2009-03-15T09:49:09Z</time>
      </trkpt>
      <trkpt lat="42.83541" lon="0.11504">
        <ele>3084.05</ele>
        <time>2009-03-15T09:49:33Z</time>
      </trkpt>
      <trkpt lat="42.8354" lon="0.11503">
        <ele>3081.16</ele>
        <time>2009-03-15T09:49:59Z</time>
      </trkpt>
      <trkpt lat="42.83541" lon="0.11502">
        <ele>3078.76</ele>
        <time>2009-03-15T09:50:31Z</time>
      </trkpt>
      <trkpt lat="42.83541" lon="0.11501">
        <ele>3078.76</ele>
        <time>2009-03-15T09:50:32Z</time>
      </trkpt>
      <trkpt lat="42.8354" lon="0.11498">
        <ele>3079.72</ele>
        <time>2009-03-15T09:50:44Z</time>
      </trkpt>
      <trkpt lat="42.8354" lon="0.11498">
        <ele>3076.36</ele>
        <time>2009-03-15T09:51:36Z</time>
      </trkpt>
      <trkpt lat="42.83541" lon="0.11496">
        <ele>3076.36</ele>
        <time>2009-03-15T09:52:04Z</time>
      </trkpt>
      <trkpt lat="42.83542" lon="0.11494">
        <ele>3075.4</ele>
        <time>2009-03-15T09:52:18Z</time>
      </trkpt>
      <trkpt lat="42.83542" lon="0.11494">
        <ele>3074.91</ele>
        <time>2009-03-15T09:52:52Z</time>
      </trkpt>
      <trkpt lat="42.83543" lon="0.11488">
        <ele>3073.95</ele>
        <time>2009-03-15T09:53:23Z</time>
      </trkpt>
      <trkpt lat="42.83544" lon="0.11486">
        <ele>3071.55</ele>
        <time>2009-03-15T09:53:40Z</time>
      </trkpt>
      <trkpt lat="42.83544" lon="0.11485">
        <ele>3071.07</ele>
        <time>2009-03-15T09:53:50Z</time>
      </trkpt>
      <trkpt lat="42.83544" lon="0.11485">
        <ele>3071.07</ele>
        <time>2009-03-15T09:53:55Z</time>
      </trkpt>
      <trkpt lat="42.83545" lon="0.11484">
        <ele>3069.63</ele>
        <time>2009-03-15T09:54:07Z</time>
      </trkpt>
      <trkpt lat="42.83546" lon="0.11483">
        <ele>3068.19</ele>
        <time>2009-03-15T09:54:19Z</time>
      </trkpt>
      <trkpt lat="42.83547" lon="0.11482">
        <ele>3066.74</ele>
        <time>2009-03-15T09:54:36Z</time>
      </trkpt>
      <trkpt lat="42.8355" lon="0.11477">
        <ele>3064.82</ele>
        <time>2009-03-15T09:54:47Z</time>
      </trkpt>
      <trkpt lat="42.83552" lon="0.11467">
        <ele>3063.86</ele>
        <time>2009-03-15T09:54:58Z</time>
      </trkpt>
      <trkpt lat="42.83553" lon="0.11461">
        <ele>3063.86</ele>
        <time>2009-03-15T09:55:11Z</time>
      </trkpt>
      <trkpt lat="42.83552" lon="0.11459">
        <ele>3064.34</ele>
        <time>2009-03-15T09:55:32Z</time>
      </trkpt>
      <trkpt lat="42.83551" lon="0.11458">
        <ele>3062.9</ele>
        <time>2009-03-15T09:55:44Z</time>
      </trkpt>
      <trkpt lat="42.83551" lon="0.11458">
        <ele>3061.94</ele>
        <time>2009-03-15T09:55:54Z</time>
      </trkpt>
      <trkpt lat="42.83551" lon="0.11458">
        <ele>3063.86</ele>
        <time>2009-03-15T09:55:57Z</time>
      </trkpt>
      <trkpt lat="42.83552" lon="0.11457">
        <ele>3063.38</ele>
        <time>2009-03-15T09:57:08Z</time>
      </trkpt>
      <trkpt lat="42.83552" lon="0.11456">
        <ele>3064.34</ele>
        <time>2009-03-15T09:57:57Z</time>
      </trkpt>
      <trkpt lat="42.83552" lon="0.11456">
        <ele>3060.98</ele>
        <time>2009-03-15T09:58:00Z</time>
      </trkpt>
      <trkpt lat="42.83552" lon="0.11456">
        <ele>3061.94</ele>
        <time>2009-03-15T09:58:01Z</time>
      </trkpt>
      <trkpt lat="42.83552" lon="0.11456">
        <ele>3062.9</ele>
        <time>2009-03-15T09:58:03Z</time>
      </trkpt>
      <trkpt lat="42.83551" lon="0.11456">
        <ele>3059.05</ele>
        <time>2009-03-15T09:58:11Z</time>
      </trkpt>
      <trkpt lat="42.83551" lon="0.11456">
        <ele>3062.9</ele>
        <time>2009-03-15T09:58:12Z</time>
      </trkpt>
      <trkpt lat="42.83551" lon="0.11455">
        <ele>3062.42</ele>
        <time>2009-03-15T10:02:25Z</time>
      </trkpt>
      <trkpt lat="42.83551" lon="0.11454">
        <ele>3062.42</ele>
        <time>2009-03-15T10:02:29Z</time>
      </trkpt>
      <trkpt lat="42.8355" lon="0.1145">
        <ele>3062.9</ele>
        <time>2009-03-15T10:02:46Z</time>
      </trkpt>
      <trkpt lat="42.83554" lon="0.11467">
        <ele>3060.01</ele>
        <time>2009-03-15T10:02:53Z</time>
      </trkpt>
      <trkpt lat="42.83556" lon="0.11471">
        <ele>3058.57</ele>
        <time>2009-03-15T10:02:55Z</time>
      </trkpt>
      <trkpt lat="42.8356" lon="0.11482">
        <ele>3054.73</ele>
        <time>2009-03-15T10:02:58Z</time>
      </trkpt>
      <trkpt lat="42.8356" lon="0.11483">
        <ele>3054.25</ele>
        <time>2009-03-15T10:03:00Z</time>
      </trkpt>
      <trkpt lat="42.83564" lon="0.11486">
        <ele>3052.32</ele>
        <time>2009-03-15T10:03:03Z</time>
      </trkpt>
      <trkpt lat="42.83568" lon="0.11484">
        <ele>3051.84</ele>
        <time>2009-03-15T10:03:04Z</time>
      </trkpt>
      <trkpt lat="42.83576" lon="0.11484">
        <ele>3043.67</ele>
        <time>2009-03-15T10:03:07Z</time>
      </trkpt>
      <trkpt lat="42.8358" lon="0.1149">
        <ele>3039.35</ele>
        <time>2009-03-15T10:03:09Z</time>
      </trkpt>
      <trkpt lat="42.83586" lon="0.11492">
        <ele>3035.98</ele>
        <time>2009-03-15T10:03:11Z</time>
      </trkpt>
      <trkpt lat="42.83591" lon="0.11497">
        <ele>3030.21</ele>
        <time>2009-03-15T10:03:13Z</time>
      </trkpt>
      <trkpt lat="42.83597" lon="0.11498">
        <ele>3024.93</ele>
        <time>2009-03-15T10:03:16Z</time>
      </trkpt>
      <trkpt lat="42.83596" lon="0.11498">
        <ele>3023.96</ele>
        <time>2009-03-15T10:03:18Z</time>
      </trkpt>
      <trkpt lat="42.83595" lon="0.11499">
        <ele>3023.96</ele>
        <time>2009-03-15T10:03:31Z</time>
      </trkpt>
      <trkpt lat="42.83602" lon="0.11489">
        <ele>3020.6</ele>
        <time>2009-03-15T10:03:35Z</time>
      </trkpt>
      <trkpt lat="42.83614" lon="0.11459">
        <ele>3014.35</ele>
        <time>2009-03-15T10:03:42Z</time>
      </trkpt>
      <trkpt lat="42.83618" lon="0.11455">
        <ele>3013.87</ele>
        <time>2009-03-15T10:03:43Z</time>
      </trkpt>
      <trkpt lat="42.83622" lon="0.11448">
        <ele>3010.51</ele>
        <time>2009-03-15T10:03:44Z</time>
      </trkpt>
      <trkpt lat="42.83625" lon="0.11439">
        <ele>3007.62</ele>
        <time>2009-03-15T10:03:45Z</time>
      </trkpt>
      <trkpt lat="42.83627" lon="0.1143">
        <ele>3006.66</ele>
        <time>2009-03-15T10:03:46Z</time>
      </trkpt>
      <trkpt lat="42.83634" lon="0.114">
        <ele>3003.3</ele>
        <time>2009-03-15T10:03:49Z</time>
      </trkpt>
      <trkpt lat="42.83636" lon="0.11392">
        <ele>3002.33</ele>
        <time>2009-03-15T10:03:50Z</time>
      </trkpt>
      <trkpt lat="42.83643" lon="0.11392">
        <ele>2998.49</ele>
        <time>2009-03-15T10:03:53Z</time>
      </trkpt>
      <trkpt lat="42.83647" lon="0.11396">
        <ele>2995.12</ele>
        <time>2009-03-15T10:03:54Z</time>
      </trkpt>
      <trkpt lat="42.83653" lon="0.11403">
        <ele>2990.8</ele>
        <time>2009-03-15T10:03:56Z</time>
      </trkpt>
      <trkpt lat="42.83656" lon="0.11406">
        <ele>2990.8</ele>
        <time>2009-03-15T10:03:57Z</time>
      </trkpt>
      <trkpt lat="42.83657" lon="0.11409">
        <ele>2985.99</ele>
        <time>2009-03-15T10:03:58Z</time>
      </trkpt>
      <trkpt lat="42.83655" lon="0.1141">
        <ele>2983.11</ele>
        <time>2009-03-15T10:04:01Z</time>
      </trkpt>
      <trkpt lat="42.83655" lon="0.11409">
        <ele>2982.63</ele>
        <time>2009-03-15T10:04:21Z</time>
      </trkpt>
      <trkpt lat="42.83655" lon="0.11408">
        <ele>2983.11</ele>
        <time>2009-03-15T10:04:44Z</time>
      </trkpt>
      <trkpt lat="42.83655" lon="0.11408">
        <ele>2983.11</ele>
        <time>2009-03-15T10:05:01Z</time>
      </trkpt>
      <trkpt lat="42.83659" lon="0.1141">
        <ele>2981.67</ele>
        <time>2009-03-15T10:05:03Z</time>
      </trkpt>
      <trkpt lat="42.83663" lon="0.11408">
        <ele>2979.74</ele>
        <time>2009-03-15T10:05:05Z</time>
      </trkpt>
      <trkpt lat="42.83663" lon="0.11408">
        <ele>2978.78</ele>
        <time>2009-03-15T10:05:17Z</time>
      </trkpt>
      <trkpt lat="42.8367" lon="0.11413">
        <ele>2975.9</ele>
        <time>2009-03-15T10:05:20Z</time>
      </trkpt>
      <trkpt lat="42.83677" lon="0.11418">
        <ele>2972.53</ele>
        <time>2009-03-15T10:05:22Z</time>
      </trkpt>
      <trkpt lat="42.83686" lon="0.11423">
        <ele>2967.73</ele>
        <time>2009-03-15T10:05:24Z</time>
      </trkpt>
      <trkpt lat="42.8369" lon="0.11425">
        <ele>2964.84</ele>
        <time>2009-03-15T10:05:25Z</time>
      </trkpt>
      <trkpt lat="42.83693" lon="0.11424">
        <ele>2960.04</ele>
        <time>2009-03-15T10:05:26Z</time>
      </trkpt>
      <trkpt lat="42.8369" lon="0.11421">
        <ele>2959.08</ele>
        <time>2009-03-15T10:05:35Z</time>
      </trkpt>
      <trkpt lat="42.8369" lon="0.1142">
        <ele>2960.04</ele>
        <time>2009-03-15T10:05:39Z</time>
      </trkpt>
      <trkpt lat="42.83689" lon="0.11418">
        <ele>2960.52</ele>
        <time>2009-03-15T10:05:43Z</time>
      </trkpt>
      <trkpt lat="42.83689" lon="0.11419">
        <ele>2959.56</ele>
        <time>2009-03-15T10:06:06Z</time>
      </trkpt>
      <trkpt lat="42.8369" lon="0.11419">
        <ele>2958.59</ele>
        <time>2009-03-15T10:06:20Z</time>
      </trkpt>
      <trkpt lat="42.83705" lon="0.11425">
        <ele>2950.9</ele>
        <time>2009-03-15T10:06:25Z</time>
      </trkpt>
      <trkpt lat="42.83709" lon="0.11423">
        <ele>2950.9</ele>
        <time>2009-03-15T10:06:26Z</time>
      </trkpt>
      <trkpt lat="42.83717" lon="0.11412">
        <ele>2947.54</ele>
        <time>2009-03-15T10:06:28Z</time>
      </trkpt>
      <trkpt lat="42.83724" lon="0.11398">
        <ele>2945.14</ele>
        <time>2009-03-15T10:06:30Z</time>
      </trkpt>
      <trkpt lat="42.83739" lon="0.11364">
        <ele>2943.21</ele>
        <time>2009-03-15T10:06:36Z</time>
      </trkpt>
      <trkpt lat="42.83748" lon="0.11354">
        <ele>2941.29</ele>
        <time>2009-03-15T10:06:39Z</time>
      </trkpt>
      <trkpt lat="42.83755" lon="0.11359">
        <ele>2936</ele>
        <time>2009-03-15T10:06:41Z</time>
      </trkpt>
      <trkpt lat="42.8376" lon="0.1136">
        <ele>2932.16</ele>
        <time>2009-03-15T10:06:42Z</time>
      </trkpt>
      <trkpt lat="42.8377" lon="0.11359">
        <ele>2927.35</ele>
        <time>2009-03-15T10:06:44Z</time>
      </trkpt>
      <trkpt lat="42.83778" lon="0.1135">
        <ele>2922.06</ele>
        <time>2009-03-15T10:06:46Z</time>
      </trkpt>
      <trkpt lat="42.83779" lon="0.11346">
        <ele>2921.1</ele>
        <time>2009-03-15T10:06:48Z</time>
      </trkpt>
      <trkpt lat="42.83781" lon="0.11347">
        <ele>2920.14</ele>
        <time>2009-03-15T10:07:06Z</time>
      </trkpt>
      <trkpt lat="42.83784" lon="0.11351">
        <ele>2920.62</ele>
        <time>2009-03-15T10:07:43Z</time>
      </trkpt>
      <trkpt lat="42.83785" lon="0.11352">
        <ele>2920.62</ele>
        <time>2009-03-15T10:08:02Z</time>
      </trkpt>
      <trkpt lat="42.83784" lon="0.11352">
        <ele>2920.14</ele>
        <time>2009-03-15T10:08:36Z</time>
      </trkpt>
      <trkpt lat="42.8379" lon="0.11362">
        <ele>2914.85</ele>
        <time>2009-03-15T10:08:40Z</time>
      </trkpt>
      <trkpt lat="42.83796" lon="0.11371">
        <ele>2910.05</ele>
        <time>2009-03-15T10:08:42Z</time>
      </trkpt>
      <trkpt lat="42.838" lon="0.11375">
        <ele>2906.2</ele>
        <time>2009-03-15T10:08:43Z</time>
      </trkpt>
      <trkpt lat="42.83805" lon="0.11379">
        <ele>2902.84</ele>
        <time>2009-03-15T10:08:44Z</time>
      </trkpt>
      <trkpt lat="42.83809" lon="0.11384">
        <ele>2899.47</ele>
        <time>2009-03-15T10:08:45Z</time>
      </trkpt>
      <trkpt lat="42.83813" lon="0.1139">
        <ele>2895.15</ele>
        <time>2009-03-15T10:08:46Z</time>
      </trkpt>
      <trkpt lat="42.83814" lon="0.11404">
        <ele>2889.86</ele>
        <time>2009-03-15T10:08:48Z</time>
      </trkpt>
      <trkpt lat="42.83815" lon="0.11419">
        <ele>2884.09</ele>
        <time>2009-03-15T10:08:50Z</time>
      </trkpt>
      <trkpt lat="42.83819" lon="0.11434">
        <ele>2878.81</ele>
        <time>2009-03-15T10:08:52Z</time>
      </trkpt>
      <trkpt lat="42.83822" lon="0.11451">
        <ele>2874</ele>
        <time>2009-03-15T10:08:54Z</time>
      </trkpt>
      <trkpt lat="42.83825" lon="0.11457">
        <ele>2871.11</ele>
        <time>2009-03-15T10:08:55Z</time>
      </trkpt>
      <trkpt lat="42.83831" lon="0.11468">
        <ele>2866.31</ele>
        <time>2009-03-15T10:08:57Z</time>
      </trkpt>
      <trkpt lat="42.83833" lon="0.11482">
        <ele>2861.98</ele>
        <time>2009-03-15T10:08:59Z</time>
      </trkpt>
      <trkpt lat="42.83829" lon="0.11495">
        <ele>2858.14</ele>
        <time>2009-03-15T10:09:02Z</time>
      </trkpt>
      <trkpt lat="42.8383" lon="0.11495">
        <ele>2857.66</ele>
        <time>2009-03-15T10:09:03Z</time>
      </trkpt>
      <trkpt lat="42.83834" lon="0.11493">
        <ele>2857.18</ele>
        <time>2009-03-15T10:09:06Z</time>
      </trkpt>
      <trkpt lat="42.83844" lon="0.11503">
        <ele>2854.29</ele>
        <time>2009-03-15T10:09:10Z</time>
      </trkpt>
      <trkpt lat="42.83851" lon="0.11511">
        <ele>2849.97</ele>
        <time>2009-03-15T10:09:12Z</time>
      </trkpt>
      <trkpt lat="42.83854" lon="0.11517">
        <ele>2847.08</ele>
        <time>2009-03-15T10:09:13Z</time>
      </trkpt>
      <trkpt lat="42.83864" lon="0.11515">
        <ele>2843.72</ele>
        <time>2009-03-15T10:09:16Z</time>
      </trkpt>
      <trkpt lat="42.83868" lon="0.11512">
        <ele>2841.79</ele>
        <time>2009-03-15T10:09:18Z</time>
      </trkpt>
      <trkpt lat="42.83882" lon="0.11527">
        <ele>2836.51</ele>
        <time>2009-03-15T10:09:24Z</time>
      </trkpt>
      <trkpt lat="42.83895" lon="0.11542">
        <ele>2828.82</ele>
        <time>2009-03-15T10:09:27Z</time>
      </trkpt>
      <trkpt lat="42.83913" lon="0.11546">
        <ele>2824.49</ele>
        <time>2009-03-15T10:09:30Z</time>
      </trkpt>
      <trkpt lat="42.83922" lon="0.11551">
        <ele>2821.61</ele>
        <time>2009-03-15T10:09:32Z</time>
      </trkpt>
      <trkpt lat="42.83923" lon="0.11552">
        <ele>2820.65</ele>
        <time>2009-03-15T10:09:34Z</time>
      </trkpt>
      <trkpt lat="42.83923" lon="0.11554">
        <ele>2820.65</ele>
        <time>2009-03-15T10:09:39Z</time>
      </trkpt>
      <trkpt lat="42.8392" lon="0.11582">
        <ele>2815.84</ele>
        <time>2009-03-15T10:09:43Z</time>
      </trkpt>
      <trkpt lat="42.83911" lon="0.11614">
        <ele>2809.11</ele>
        <time>2009-03-15T10:09:46Z</time>
      </trkpt>
      <trkpt lat="42.8391" lon="0.11625">
        <ele>2809.11</ele>
        <time>2009-03-15T10:09:47Z</time>
      </trkpt>
      <trkpt lat="42.83913" lon="0.11665">
        <ele>2807.19</ele>
        <time>2009-03-15T10:09:51Z</time>
      </trkpt>
      <trkpt lat="42.83916" lon="0.11682">
        <ele>2804.78</ele>
        <time>2009-03-15T10:09:53Z</time>
      </trkpt>
      <trkpt lat="42.83917" lon="0.11688">
        <ele>2803.34</ele>
        <time>2009-03-15T10:09:54Z</time>
      </trkpt>
      <trkpt lat="42.83915" lon="0.11742">
        <ele>2799.5</ele>
        <time>2009-03-15T10:10:06Z</time>
      </trkpt>
      <trkpt lat="42.83915" lon="0.11746">
        <ele>2799.02</ele>
        <time>2009-03-15T10:10:07Z</time>
      </trkpt>
      <trkpt lat="42.83909" lon="0.1177">
        <ele>2796.13</ele>
        <time>2009-03-15T10:10:12Z</time>
      </trkpt>
      <trkpt lat="42.83907" lon="0.11789">
        <ele>2793.73</ele>
        <time>2009-03-15T10:10:15Z</time>
      </trkpt>
      <trkpt lat="42.83903" lon="0.11812">
        <ele>2789.88</ele>
        <time>2009-03-15T10:10:18Z</time>
      </trkpt>
      <trkpt lat="42.83902" lon="0.1182">
        <ele>2789.4</ele>
        <time>2009-03-15T10:10:19Z</time>
      </trkpt>
      <trkpt lat="42.839" lon="0.11847">
        <ele>2787</ele>
        <time>2009-03-15T10:10:26Z</time>
      </trkpt>
      <trkpt lat="42.83897" lon="0.11859">
        <ele>2785.56</ele>
        <time>2009-03-15T10:10:29Z</time>
      </trkpt>
      <trkpt lat="42.83892" lon="0.11888">
        <ele>2782.67</ele>
        <time>2009-03-15T10:10:35Z</time>
      </trkpt>
      <trkpt lat="42.83884" lon="0.11916">
        <ele>2779.31</ele>
        <time>2009-03-15T10:10:40Z</time>
      </trkpt>
      <trkpt lat="42.83877" lon="0.11944">
        <ele>2775.46</ele>
        <time>2009-03-15T10:10:44Z</time>
      </trkpt>
      <trkpt lat="42.83872" lon="0.11958">
        <ele>2774.5</ele>
        <time>2009-03-15T10:10:46Z</time>
      </trkpt>
      <trkpt lat="42.83862" lon="0.12012">
        <ele>2771.14</ele>
        <time>2009-03-15T10:10:57Z</time>
      </trkpt>
      <trkpt lat="42.8386" lon="0.12025">
        <ele>2769.7</ele>
        <time>2009-03-15T10:10:59Z</time>
      </trkpt>
      <trkpt lat="42.83849" lon="0.12058">
        <ele>2765.85</ele>
        <time>2009-03-15T10:11:05Z</time>
      </trkpt>
      <trkpt lat="42.83837" lon="0.12095">
        <ele>2764.41</ele>
        <time>2009-03-15T10:11:15Z</time>
      </trkpt>
      <trkpt lat="42.83821" lon="0.12125">
        <ele>2761.52</ele>
        <time>2009-03-15T10:11:23Z</time>
      </trkpt>
      <trkpt lat="42.83794" lon="0.12159">
        <ele>2757.68</ele>
        <time>2009-03-15T10:11:32Z</time>
      </trkpt>
      <trkpt lat="42.83787" lon="0.12167">
        <ele>2756.72</ele>
        <time>2009-03-15T10:11:34Z</time>
      </trkpt>
      <trkpt lat="42.83781" lon="0.12172">
        <ele>2757.2</ele>
        <time>2009-03-15T10:11:36Z</time>
      </trkpt>
      <trkpt lat="42.83779" lon="0.12179">
        <ele>2755.76</ele>
        <time>2009-03-15T10:11:44Z</time>
      </trkpt>
      <trkpt lat="42.83779" lon="0.12179">
        <ele>2755.76</ele>
        <time>2009-03-15T10:12:18Z</time>
      </trkpt>
      <trkpt lat="42.8378" lon="0.12178">
        <ele>2755.28</ele>
        <time>2009-03-15T10:12:36Z</time>
      </trkpt>
      <trkpt lat="42.83779" lon="0.12188">
        <ele>2753.35</ele>
        <time>2009-03-15T10:12:40Z</time>
      </trkpt>
      <trkpt lat="42.8377" lon="0.12214">
        <ele>2748.07</ele>
        <time>2009-03-15T10:12:44Z</time>
      </trkpt>
      <trkpt lat="42.83767" lon="0.1223">
        <ele>2744.22</ele>
        <time>2009-03-15T10:12:46Z</time>
      </trkpt>
      <trkpt lat="42.83761" lon="0.12252">
        <ele>2739.89</ele>
        <time>2009-03-15T10:12:49Z</time>
      </trkpt>
      <trkpt lat="42.83761" lon="0.12271">
        <ele>2736.53</ele>
        <time>2009-03-15T10:12:51Z</time>
      </trkpt>
      <trkpt lat="42.83762" lon="0.12281">
        <ele>2732.2</ele>
        <time>2009-03-15T10:12:52Z</time>
      </trkpt>
      <trkpt lat="42.83764" lon="0.12295">
        <ele>2726.92</ele>
        <time>2009-03-15T10:12:54Z</time>
      </trkpt>
      <trkpt lat="42.83764" lon="0.12296">
        <ele>2724.99</ele>
        <time>2009-03-15T10:12:56Z</time>
      </trkpt>
      <trkpt lat="42.83763" lon="0.12294">
        <ele>2724.51</ele>
        <time>2009-03-15T10:13:11Z</time>
      </trkpt>
      <trkpt lat="42.83763" lon="0.12295">
        <ele>2725.48</ele>
        <time>2009-03-15T10:13:25Z</time>
      </trkpt>
      <trkpt lat="42.83762" lon="0.12295">
        <ele>2724.03</ele>
        <time>2009-03-15T10:13:41Z</time>
      </trkpt>
      <trkpt lat="42.83763" lon="0.12296">
        <ele>2725.48</ele>
        <time>2009-03-15T10:14:09Z</time>
      </trkpt>
      <trkpt lat="42.83762" lon="0.12296">
        <ele>2724.99</ele>
        <time>2009-03-15T10:14:17Z</time>
      </trkpt>
      <trkpt lat="42.83762" lon="0.12297">
        <ele>2725.48</ele>
        <time>2009-03-15T10:14:23Z</time>
      </trkpt>
      <trkpt lat="42.83762" lon="0.12296">
        <ele>2725.48</ele>
        <time>2009-03-15T10:14:32Z</time>
      </trkpt>
      <trkpt lat="42.83762" lon="0.12295">
        <ele>2724.03</ele>
        <time>2009-03-15T10:14:48Z</time>
      </trkpt>
      <trkpt lat="42.83762" lon="0.12296">
        <ele>2725.48</ele>
        <time>2009-03-15T10:15:02Z</time>
      </trkpt>
      <trkpt lat="42.83762" lon="0.12296">
        <ele>2726.44</ele>
        <time>2009-03-15T10:15:05Z</time>
      </trkpt>
      <trkpt lat="42.83763" lon="0.123">
        <ele>2725.96</ele>
        <time>2009-03-15T10:15:07Z</time>
      </trkpt>
      <trkpt lat="42.83763" lon="0.1231">
        <ele>2724.03</ele>
        <time>2009-03-15T10:15:09Z</time>
      </trkpt>
      <trkpt lat="42.8375" lon="0.12334">
        <ele>2720.19</ele>
        <time>2009-03-15T10:15:14Z</time>
      </trkpt>
      <trkpt lat="42.83747" lon="0.12345">
        <ele>2718.75</ele>
        <time>2009-03-15T10:15:16Z</time>
      </trkpt>
      <trkpt lat="42.83748" lon="0.12367">
        <ele>2715.38</ele>
        <time>2009-03-15T10:15:19Z</time>
      </trkpt>
      <trkpt lat="42.83749" lon="0.12381">
        <ele>2712.02</ele>
        <time>2009-03-15T10:15:21Z</time>
      </trkpt>
      <trkpt lat="42.83748" lon="0.12387">
        <ele>2710.09</ele>
        <time>2009-03-15T10:15:22Z</time>
      </trkpt>
      <trkpt lat="42.83737" lon="0.12418">
        <ele>2707.21</ele>
        <time>2009-03-15T10:15:28Z</time>
      </trkpt>
      <trkpt lat="42.83724" lon="0.12447">
        <ele>2704.81</ele>
        <time>2009-03-15T10:15:34Z</time>
      </trkpt>
      <trkpt lat="42.83716" lon="0.12456">
        <ele>2702.88</ele>
        <time>2009-03-15T10:15:37Z</time>
      </trkpt>
      <trkpt lat="42.83714" lon="0.12458">
        <ele>2701.92</ele>
        <time>2009-03-15T10:15:41Z</time>
      </trkpt>
      <trkpt lat="42.83714" lon="0.12459">
        <ele>2702.4</ele>
        <time>2009-03-15T10:15:56Z</time>
      </trkpt>
      <trkpt lat="42.83712" lon="0.12464">
        <ele>2702.4</ele>
        <time>2009-03-15T10:15:59Z</time>
      </trkpt>
      <trkpt lat="42.83708" lon="0.12489">
        <ele>2692.79</ele>
        <time>2009-03-15T10:16:03Z</time>
      </trkpt>
      <trkpt lat="42.83708" lon="0.12496">
        <ele>2694.23</ele>
        <time>2009-03-15T10:16:04Z</time>
      </trkpt>
      <trkpt lat="42.83709" lon="0.12503">
        <ele>2691.35</ele>
        <time>2009-03-15T10:16:05Z</time>
      </trkpt>
      <trkpt lat="42.83709" lon="0.12512">
        <ele>2686.54</ele>
        <time>2009-03-15T10:16:06Z</time>
      </trkpt>
      <trkpt lat="42.83714" lon="0.12525">
        <ele>2681.73</ele>
        <time>2009-03-15T10:16:08Z</time>
      </trkpt>
      <trkpt lat="42.83719" lon="0.12531">
        <ele>2677.89</ele>
        <time>2009-03-15T10:16:09Z</time>
      </trkpt>
      <trkpt lat="42.83719" lon="0.12539">
        <ele>2674.52</ele>
        <time>2009-03-15T10:16:10Z</time>
      </trkpt>
      <trkpt lat="42.8372" lon="0.12547">
        <ele>2670.2</ele>
        <time>2009-03-15T10:16:11Z</time>
      </trkpt>
      <trkpt lat="42.83721" lon="0.12554">
        <ele>2666.35</ele>
        <time>2009-03-15T10:16:12Z</time>
      </trkpt>
      <trkpt lat="42.83722" lon="0.12563">
        <ele>2666.35</ele>
        <time>2009-03-15T10:16:13Z</time>
      </trkpt>
      <trkpt lat="42.83724" lon="0.12571">
        <ele>2660.11</ele>
        <time>2009-03-15T10:16:14Z</time>
      </trkpt>
      <trkpt lat="42.83727" lon="0.12579">
        <ele>2655.3</ele>
        <time>2009-03-15T10:16:15Z</time>
      </trkpt>
      <trkpt lat="42.83731" lon="0.12587">
        <ele>2651.93</ele>
        <time>2009-03-15T10:16:16Z</time>
      </trkpt>
      <trkpt lat="42.83738" lon="0.12592">
        <ele>2648.09</ele>
        <time>2009-03-15T10:16:17Z</time>
      </trkpt>
      <trkpt lat="42.83756" lon="0.12595">
        <ele>2643.28</ele>
        <time>2009-03-15T10:16:19Z</time>
      </trkpt>
      <trkpt lat="42.83765" lon="0.12593">
        <ele>2638.96</ele>
        <time>2009-03-15T10:16:20Z</time>
      </trkpt>
      <trkpt lat="42.83778" lon="0.12587">
        <ele>2638.48</ele>
        <time>2009-03-15T10:16:26Z</time>
      </trkpt>
      <trkpt lat="42.83778" lon="0.12588">
        <ele>2637.51</ele>
        <time>2009-03-15T10:16:43Z</time>
      </trkpt>
      <trkpt lat="42.83785" lon="0.12592">
        <ele>2635.11</ele>
        <time>2009-03-15T10:16:49Z</time>
      </trkpt>
      <trkpt lat="42.83785" lon="0.12592">
        <ele>2635.59</ele>
        <time>2009-03-15T10:16:51Z</time>
      </trkpt>
      <trkpt lat="42.83789" lon="0.1261">
        <ele>2630.3</ele>
        <time>2009-03-15T10:16:55Z</time>
      </trkpt>
      <trkpt lat="42.83791" lon="0.12615">
        <ele>2626.46</ele>
        <time>2009-03-15T10:16:56Z</time>
      </trkpt>
      <trkpt lat="42.83799" lon="0.12629">
        <ele>2621.17</ele>
        <time>2009-03-15T10:16:58Z</time>
      </trkpt>
      <trkpt lat="42.83803" lon="0.12636">
        <ele>2617.33</ele>
        <time>2009-03-15T10:16:59Z</time>
      </trkpt>
      <trkpt lat="42.83807" lon="0.12654">
        <ele>2609.16</ele>
        <time>2009-03-15T10:17:01Z</time>
      </trkpt>
      <trkpt lat="42.83812" lon="0.12661">
        <ele>2607.71</ele>
        <time>2009-03-15T10:17:02Z</time>
      </trkpt>
      <trkpt lat="42.83824" lon="0.12676">
        <ele>2604.35</ele>
        <time>2009-03-15T10:17:04Z</time>
      </trkpt>
      <trkpt lat="42.83825" lon="0.12699">
        <ele>2599.54</ele>
        <time>2009-03-15T10:17:07Z</time>
      </trkpt>
      <trkpt lat="42.83822" lon="0.12718">
        <ele>2596.66</ele>
        <time>2009-03-15T10:17:10Z</time>
      </trkpt>
      <trkpt lat="42.83819" lon="0.12723">
        <ele>2596.18</ele>
        <time>2009-03-15T10:17:11Z</time>
      </trkpt>
      <trkpt lat="42.83814" lon="0.12736">
        <ele>2594.25</ele>
        <time>2009-03-15T10:17:13Z</time>
      </trkpt>
      <trkpt lat="42.83815" lon="0.12749">
        <ele>2592.81</ele>
        <time>2009-03-15T10:17:16Z</time>
      </trkpt>
      <trkpt lat="42.8382" lon="0.12771">
        <ele>2588.49</ele>
        <time>2009-03-15T10:17:20Z</time>
      </trkpt>
      <trkpt lat="42.83823" lon="0.12798">
        <ele>2582.72</ele>
        <time>2009-03-15T10:17:23Z</time>
      </trkpt>
      <trkpt lat="42.83825" lon="0.12806">
        <ele>2579.35</ele>
        <time>2009-03-15T10:17:24Z</time>
      </trkpt>
      <trkpt lat="42.83828" lon="0.12825">
        <ele>2574.55</ele>
        <time>2009-03-15T10:17:26Z</time>
      </trkpt>
      <trkpt lat="42.83828" lon="0.12844">
        <ele>2570.7</ele>
        <time>2009-03-15T10:17:28Z</time>
      </trkpt>
      <trkpt lat="42.83826" lon="0.12861">
        <ele>2566.38</ele>
        <time>2009-03-15T10:17:30Z</time>
      </trkpt>
      <trkpt lat="42.83815" lon="0.1289">
        <ele>2561.09</ele>
        <time>2009-03-15T10:17:33Z</time>
      </trkpt>
      <trkpt lat="42.83812" lon="0.12899">
        <ele>2561.09</ele>
        <time>2009-03-15T10:17:34Z</time>
      </trkpt>
      <trkpt lat="42.83806" lon="0.12915">
        <ele>2559.65</ele>
        <time>2009-03-15T10:17:36Z</time>
      </trkpt>
      <trkpt lat="42.83795" lon="0.12938">
        <ele>2555.8</ele>
        <time>2009-03-15T10:17:40Z</time>
      </trkpt>
      <trkpt lat="42.83792" lon="0.12943">
        <ele>2555.8</ele>
        <time>2009-03-15T10:17:41Z</time>
      </trkpt>
      <trkpt lat="42.83777" lon="0.12969">
        <ele>2551.48</ele>
        <time>2009-03-15T10:17:47Z</time>
      </trkpt>
      <trkpt lat="42.83775" lon="0.12973">
        <ele>2551.48</ele>
        <time>2009-03-15T10:17:48Z</time>
      </trkpt>
      <trkpt lat="42.83766" lon="0.12992">
        <ele>2549.07</ele>
        <time>2009-03-15T10:17:59Z</time>
      </trkpt>
      <trkpt lat="42.83766" lon="0.12999">
        <ele>2549.55</ele>
        <time>2009-03-15T10:18:03Z</time>
      </trkpt>
      <trkpt lat="42.8377" lon="0.13">
        <ele>2546.67</ele>
        <time>2009-03-15T10:18:05Z</time>
      </trkpt>
      <trkpt lat="42.83775" lon="0.12999">
        <ele>2541.86</ele>
        <time>2009-03-15T10:18:06Z</time>
      </trkpt>
      <trkpt lat="42.83777" lon="0.13002">
        <ele>2537.54</ele>
        <time>2009-03-15T10:18:07Z</time>
      </trkpt>
      <trkpt lat="42.8378" lon="0.13006">
        <ele>2537.54</ele>
        <time>2009-03-15T10:18:08Z</time>
      </trkpt>
      <trkpt lat="42.83784" lon="0.13007">
        <ele>2533.21</ele>
        <time>2009-03-15T10:18:09Z</time>
      </trkpt>
      <trkpt lat="42.83788" lon="0.13004">
        <ele>2529.37</ele>
        <time>2009-03-15T10:18:10Z</time>
      </trkpt>
      <trkpt lat="42.83795" lon="0.13006">
        <ele>2521.68</ele>
        <time>2009-03-15T10:18:12Z</time>
      </trkpt>
      <trkpt lat="42.83795" lon="0.13019">
        <ele>2517.35</ele>
        <time>2009-03-15T10:18:14Z</time>
      </trkpt>
      <trkpt lat="42.83794" lon="0.13025">
        <ele>2515.43</ele>
        <time>2009-03-15T10:18:17Z</time>
      </trkpt>
      <trkpt lat="42.83787" lon="0.13034">
        <ele>2515.43</ele>
        <time>2009-03-15T10:18:39Z</time>
      </trkpt>
      <trkpt lat="42.83786" lon="0.13036">
        <ele>2514.47</ele>
        <time>2009-03-15T10:19:07Z</time>
      </trkpt>
      <trkpt lat="42.83788" lon="0.1305">
        <ele>2513.02</ele>
        <time>2009-03-15T10:19:11Z</time>
      </trkpt>
      <trkpt lat="42.83794" lon="0.13056">
        <ele>2507.74</ele>
        <time>2009-03-15T10:19:13Z</time>
      </trkpt>
      <trkpt lat="42.83796" lon="0.1306">
        <ele>2507.74</ele>
        <time>2009-03-15T10:19:14Z</time>
      </trkpt>
      <trkpt lat="42.83799" lon="0.13063">
        <ele>2501.97</ele>
        <time>2009-03-15T10:19:15Z</time>
      </trkpt>
      <trkpt lat="42.83808" lon="0.13071">
        <ele>2498.12</ele>
        <time>2009-03-15T10:19:17Z</time>
      </trkpt>
      <trkpt lat="42.83823" lon="0.13083">
        <ele>2490.43</ele>
        <time>2009-03-15T10:19:19Z</time>
      </trkpt>
      <trkpt lat="42.83831" lon="0.13093">
        <ele>2487.07</ele>
        <time>2009-03-15T10:19:20Z</time>
      </trkpt>
      <trkpt lat="42.83844" lon="0.13118">
        <ele>2480.82</ele>
        <time>2009-03-15T10:19:22Z</time>
      </trkpt>
      <trkpt lat="42.83848" lon="0.13128">
        <ele>2480.34</ele>
        <time>2009-03-15T10:19:23Z</time>
      </trkpt>
      <trkpt lat="42.83853" lon="0.13136">
        <ele>2477.45</ele>
        <time>2009-03-15T10:19:24Z</time>
      </trkpt>
      <trkpt lat="42.83863" lon="0.13162">
        <ele>2476.49</ele>
        <time>2009-03-15T10:19:28Z</time>
      </trkpt>
      <trkpt lat="42.83864" lon="0.13166">
        <ele>2475.53</ele>
        <time>2009-03-15T10:19:29Z</time>
      </trkpt>
      <trkpt lat="42.83867" lon="0.13175">
        <ele>2474.57</ele>
        <time>2009-03-15T10:19:31Z</time>
      </trkpt>
      <trkpt lat="42.8388" lon="0.13206">
        <ele>2473.13</ele>
        <time>2009-03-15T10:19:38Z</time>
      </trkpt>
      <trkpt lat="42.83895" lon="0.13239">
        <ele>2470.24</ele>
        <time>2009-03-15T10:19:46Z</time>
      </trkpt>
      <trkpt lat="42.83896" lon="0.13246">
        <ele>2469.28</ele>
        <time>2009-03-15T10:19:56Z</time>
      </trkpt>
      <trkpt lat="42.83899" lon="0.13258">
        <ele>2467.84</ele>
        <time>2009-03-15T10:20:06Z</time>
      </trkpt>
      <trkpt lat="42.83898" lon="0.13295">
        <ele>2464</ele>
        <time>2009-03-15T10:20:14Z</time>
      </trkpt>
      <trkpt lat="42.83898" lon="0.13302">
        <ele>2461.11</ele>
        <time>2009-03-15T10:20:17Z</time>
      </trkpt>
      <trkpt lat="42.83907" lon="0.13307">
        <ele>2458.71</ele>
        <time>2009-03-15T10:20:21Z</time>
      </trkpt>
      <trkpt lat="42.83911" lon="0.13316">
        <ele>2451.98</ele>
        <time>2009-03-15T10:20:23Z</time>
      </trkpt>
      <trkpt lat="42.83912" lon="0.13329">
        <ele>2448.13</ele>
        <time>2009-03-15T10:20:26Z</time>
      </trkpt>
      <trkpt lat="42.83912" lon="0.13343">
        <ele>2446.21</ele>
        <time>2009-03-15T10:20:29Z</time>
      </trkpt>
      <trkpt lat="42.83909" lon="0.13358">
        <ele>2442.85</ele>
        <time>2009-03-15T10:20:32Z</time>
      </trkpt>
      <trkpt lat="42.83911" lon="0.13375">
        <ele>2439.96</ele>
        <time>2009-03-15T10:20:37Z</time>
      </trkpt>
      <trkpt lat="42.83909" lon="0.13376">
        <ele>2439</ele>
        <time>2009-03-15T10:20:39Z</time>
      </trkpt>
      <trkpt lat="42.83905" lon="0.1338">
        <ele>2438.52</ele>
        <time>2009-03-15T10:20:50Z</time>
      </trkpt>
      <trkpt lat="42.83897" lon="0.13384">
        <ele>2437.08</ele>
        <time>2009-03-15T10:20:53Z</time>
      </trkpt>
      <trkpt lat="42.83882" lon="0.13387">
        <ele>2436.12</ele>
        <time>2009-03-15T10:20:58Z</time>
      </trkpt>
      <trkpt lat="42.83855" lon="0.13391">
        <ele>2433.23</ele>
        <time>2009-03-15T10:21:08Z</time>
      </trkpt>
      <trkpt lat="42.8383" lon="0.13392">
        <ele>2431.31</ele>
        <time>2009-03-15T10:21:17Z</time>
      </trkpt>
      <trkpt lat="42.83811" lon="0.13389">
        <ele>2428.91</ele>
        <time>2009-03-15T10:21:21Z</time>
      </trkpt>
      <trkpt lat="42.83799" lon="0.13389">
        <ele>2426.02</ele>
        <time>2009-03-15T10:21:24Z</time>
      </trkpt>
      <trkpt lat="42.8377" lon="0.13387">
        <ele>2422.66</ele>
        <time>2009-03-15T10:21:34Z</time>
      </trkpt>
      <trkpt lat="42.83762" lon="0.13385">
        <ele>2422.18</ele>
        <time>2009-03-15T10:21:36Z</time>
      </trkpt>
      <trkpt lat="42.83739" lon="0.1338">
        <ele>2417.85</ele>
        <time>2009-03-15T10:21:40Z</time>
      </trkpt>
      <trkpt lat="42.83724" lon="0.13381">
        <ele>2415.45</ele>
        <time>2009-03-15T10:21:43Z</time>
      </trkpt>
      <trkpt lat="42.83701" lon="0.13378">
        <ele>2412.09</ele>
        <time>2009-03-15T10:21:51Z</time>
      </trkpt>
      <trkpt lat="42.83697" lon="0.13377">
        <ele>2410.64</ele>
        <time>2009-03-15T10:21:52Z</time>
      </trkpt>
      <trkpt lat="42.8369" lon="0.13389">
        <ele>2405.84</ele>
        <time>2009-03-15T10:21:55Z</time>
      </trkpt>
      <trkpt lat="42.83682" lon="0.13398">
        <ele>2404.39</ele>
        <time>2009-03-15T10:21:57Z</time>
      </trkpt>
      <trkpt lat="42.83681" lon="0.13404">
        <ele>2399.11</ele>
        <time>2009-03-15T10:21:58Z</time>
      </trkpt>
      <trkpt lat="42.83682" lon="0.13416">
        <ele>2395.74</ele>
        <time>2009-03-15T10:22:00Z</time>
      </trkpt>
      <trkpt lat="42.83674" lon="0.13425">
        <ele>2392.86</ele>
        <time>2009-03-15T10:22:02Z</time>
      </trkpt>
      <trkpt lat="42.8367" lon="0.13432">
        <ele>2388.05</ele>
        <time>2009-03-15T10:22:03Z</time>
      </trkpt>
      <trkpt lat="42.83659" lon="0.13438">
        <ele>2384.69</ele>
        <time>2009-03-15T10:22:05Z</time>
      </trkpt>
      <trkpt lat="42.83646" lon="0.13434">
        <ele>2381.32</ele>
        <time>2009-03-15T10:22:08Z</time>
      </trkpt>
      <trkpt lat="42.83645" lon="0.13433">
        <ele>2380.36</ele>
        <time>2009-03-15T10:22:10Z</time>
      </trkpt>
      <trkpt lat="42.8365" lon="0.13423">
        <ele>2378.92</ele>
        <time>2009-03-15T10:23:04Z</time>
      </trkpt>
      <trkpt lat="42.83643" lon="0.13433">
        <ele>2376.52</ele>
        <time>2009-03-15T10:23:08Z</time>
      </trkpt>
      <trkpt lat="42.83638" lon="0.13438">
        <ele>2372.19</ele>
        <time>2009-03-15T10:23:10Z</time>
      </trkpt>
      <trkpt lat="42.83634" lon="0.13444">
        <ele>2368.35</ele>
        <time>2009-03-15T10:23:12Z</time>
      </trkpt>
      <trkpt lat="42.83634" lon="0.13448">
        <ele>2366.9</ele>
        <time>2009-03-15T10:23:13Z</time>
      </trkpt>
      <trkpt lat="42.83635" lon="0.13456">
        <ele>2364.02</ele>
        <time>2009-03-15T10:23:17Z</time>
      </trkpt>
      <trkpt lat="42.83627" lon="0.13464">
        <ele>2359.21</ele>
        <time>2009-03-15T10:23:21Z</time>
      </trkpt>
      <trkpt lat="42.83619" lon="0.13472">
        <ele>2355.37</ele>
        <time>2009-03-15T10:23:23Z</time>
      </trkpt>
      <trkpt lat="42.83616" lon="0.13477">
        <ele>2351.52</ele>
        <time>2009-03-15T10:23:24Z</time>
      </trkpt>
      <trkpt lat="42.83613" lon="0.13483">
        <ele>2349.6</ele>
        <time>2009-03-15T10:23:25Z</time>
      </trkpt>
      <trkpt lat="42.83612" lon="0.13511">
        <ele>2339.02</ele>
        <time>2009-03-15T10:23:30Z</time>
      </trkpt>
      <trkpt lat="42.83609" lon="0.13513">
        <ele>2336.14</ele>
        <time>2009-03-15T10:23:31Z</time>
      </trkpt>
      <trkpt lat="42.83604" lon="0.13521">
        <ele>2330.37</ele>
        <time>2009-03-15T10:23:33Z</time>
      </trkpt>
      <trkpt lat="42.83599" lon="0.13529">
        <ele>2325.09</ele>
        <time>2009-03-15T10:23:35Z</time>
      </trkpt>
      <trkpt lat="42.83598" lon="0.13528">
        <ele>2324.61</ele>
        <time>2009-03-15T10:23:36Z</time>
      </trkpt>
      <trkpt lat="42.836" lon="0.13538">
        <ele>2320.28</ele>
        <time>2009-03-15T10:23:39Z</time>
      </trkpt>
      <trkpt lat="42.83599" lon="0.1354">
        <ele>2316.43</ele>
        <time>2009-03-15T10:23:40Z</time>
      </trkpt>
      <trkpt lat="42.83597" lon="0.13552">
        <ele>2310.67</ele>
        <time>2009-03-15T10:23:43Z</time>
      </trkpt>
      <trkpt lat="42.83594" lon="0.13555">
        <ele>2308.26</ele>
        <time>2009-03-15T10:23:44Z</time>
      </trkpt>
      <trkpt lat="42.83583" lon="0.13563">
        <ele>2303.94</ele>
        <time>2009-03-15T10:23:47Z</time>
      </trkpt>
      <trkpt lat="42.83583" lon="0.13574">
        <ele>2301.53</ele>
        <time>2009-03-15T10:23:50Z</time>
      </trkpt>
      <trkpt lat="42.83586" lon="0.13579">
        <ele>2297.69</ele>
        <time>2009-03-15T10:23:51Z</time>
      </trkpt>
      <trkpt lat="42.83585" lon="0.13585">
        <ele>2294.32</ele>
        <time>2009-03-15T10:23:52Z</time>
      </trkpt>
      <trkpt lat="42.83575" lon="0.13595">
        <ele>2290</ele>
        <time>2009-03-15T10:23:55Z</time>
      </trkpt>
      <trkpt lat="42.83577" lon="0.13603">
        <ele>2286.15</ele>
        <time>2009-03-15T10:23:57Z</time>
      </trkpt>
      <trkpt lat="42.83579" lon="0.13598">
        <ele>2285.19</ele>
        <time>2009-03-15T10:24:17Z</time>
      </trkpt>
      <trkpt lat="42.8358" lon="0.13593">
        <ele>2285.19</ele>
        <time>2009-03-15T10:24:30Z</time>
      </trkpt>
      <trkpt lat="42.83579" lon="0.13595">
        <ele>2286.15</ele>
        <time>2009-03-15T10:24:33Z</time>
      </trkpt>
      <trkpt lat="42.83571" lon="0.13611">
        <ele>2284.23</ele>
        <time>2009-03-15T10:24:37Z</time>
      </trkpt>
      <trkpt lat="42.83563" lon="0.13621">
        <ele>2281.35</ele>
        <time>2009-03-15T10:24:39Z</time>
      </trkpt>
      <trkpt lat="42.83554" lon="0.13652">
        <ele>2274.14</ele>
        <time>2009-03-15T10:24:43Z</time>
      </trkpt>
      <trkpt lat="42.83554" lon="0.1366">
        <ele>2272.21</ele>
        <time>2009-03-15T10:24:44Z</time>
      </trkpt>
      <trkpt lat="42.83565" lon="0.13665">
        <ele>2266.93</ele>
        <time>2009-03-15T10:24:49Z</time>
      </trkpt>
      <trkpt lat="42.83571" lon="0.13667">
        <ele>2265.48</ele>
        <time>2009-03-15T10:24:51Z</time>
      </trkpt>
      <trkpt lat="42.83573" lon="0.13677">
        <ele>2259.72</ele>
        <time>2009-03-15T10:24:54Z</time>
      </trkpt>
      <trkpt lat="42.83571" lon="0.13681">
        <ele>2260.2</ele>
        <time>2009-03-15T10:24:55Z</time>
      </trkpt>
      <trkpt lat="42.83572" lon="0.13694">
        <ele>2254.43</ele>
        <time>2009-03-15T10:24:57Z</time>
      </trkpt>
      <trkpt lat="42.83572" lon="0.1371">
        <ele>2247.7</ele>
        <time>2009-03-15T10:24:59Z</time>
      </trkpt>
      <trkpt lat="42.83576" lon="0.13715">
        <ele>2242.89</ele>
        <time>2009-03-15T10:25:00Z</time>
      </trkpt>
      <trkpt lat="42.83581" lon="0.13732">
        <ele>2236.64</ele>
        <time>2009-03-15T10:25:02Z</time>
      </trkpt>
      <trkpt lat="42.8358" lon="0.13744">
        <ele>2233.28</ele>
        <time>2009-03-15T10:25:03Z</time>
      </trkpt>
      <trkpt lat="42.83577" lon="0.13768">
        <ele>2229.43</ele>
        <time>2009-03-15T10:25:05Z</time>
      </trkpt>
      <trkpt lat="42.83577" lon="0.13779">
        <ele>2228.95</ele>
        <time>2009-03-15T10:25:06Z</time>
      </trkpt>
      <trkpt lat="42.83578" lon="0.13789">
        <ele>2227.51</ele>
        <time>2009-03-15T10:25:07Z</time>
      </trkpt>
      <trkpt lat="42.83581" lon="0.13796">
        <ele>2225.59</ele>
        <time>2009-03-15T10:25:08Z</time>
      </trkpt>
      <trkpt lat="42.83585" lon="0.13803">
        <ele>2223.19</ele>
        <time>2009-03-15T10:25:09Z</time>
      </trkpt>
      <trkpt lat="42.83588" lon="0.13811">
        <ele>2223.19</ele>
        <time>2009-03-15T10:25:10Z</time>
      </trkpt>
      <trkpt lat="42.83593" lon="0.13817">
        <ele>2222.71</ele>
        <time>2009-03-15T10:25:11Z</time>
      </trkpt>
      <trkpt lat="42.836" lon="0.1382">
        <ele>2220.3</ele>
        <time>2009-03-15T10:25:12Z</time>
      </trkpt>
      <trkpt lat="42.83607" lon="0.1382">
        <ele>2218.86</ele>
        <time>2009-03-15T10:25:13Z</time>
      </trkpt>
      <trkpt lat="42.83614" lon="0.13821">
        <ele>2217.42</ele>
        <time>2009-03-15T10:25:14Z</time>
      </trkpt>
      <trkpt lat="42.8362" lon="0.13826">
        <ele>2216.94</ele>
        <time>2009-03-15T10:25:15Z</time>
      </trkpt>
      <trkpt lat="42.83624" lon="0.1383">
        <ele>2215.5</ele>
        <time>2009-03-15T10:25:16Z</time>
      </trkpt>
      <trkpt lat="42.83629" lon="0.13833">
        <ele>2214.53</ele>
        <time>2009-03-15T10:25:17Z</time>
      </trkpt>
      <trkpt lat="42.83635" lon="0.13835">
        <ele>2213.57</ele>
        <time>2009-03-15T10:25:18Z</time>
      </trkpt>
      <trkpt lat="42.83641" lon="0.13837">
        <ele>2213.09</ele>
        <time>2009-03-15T10:25:19Z</time>
      </trkpt>
      <trkpt lat="42.83655" lon="0.13835">
        <ele>2210.69</ele>
        <time>2009-03-15T10:25:23Z</time>
      </trkpt>
      <trkpt lat="42.83658" lon="0.13838">
        <ele>2210.69</ele>
        <time>2009-03-15T10:25:24Z</time>
      </trkpt>
      <trkpt lat="42.83668" lon="0.13847">
        <ele>2207.32</ele>
        <time>2009-03-15T10:25:26Z</time>
      </trkpt>
      <trkpt lat="42.83677" lon="0.13868">
        <ele>2203.48</ele>
        <time>2009-03-15T10:25:29Z</time>
      </trkpt>
      <trkpt lat="42.83676" lon="0.13874">
        <ele>2203</ele>
        <time>2009-03-15T10:25:30Z</time>
      </trkpt>
      <trkpt lat="42.83677" lon="0.1388">
        <ele>2201.56</ele>
        <time>2009-03-15T10:25:31Z</time>
      </trkpt>
      <trkpt lat="42.8368" lon="0.13884">
        <ele>2199.63</ele>
        <time>2009-03-15T10:25:32Z</time>
      </trkpt>
      <trkpt lat="42.83684" lon="0.13886">
        <ele>2199.63</ele>
        <time>2009-03-15T10:25:33Z</time>
      </trkpt>
      <trkpt lat="42.83689" lon="0.1389">
        <ele>2198.19</ele>
        <time>2009-03-15T10:25:34Z</time>
      </trkpt>
      <trkpt lat="42.83693" lon="0.13895">
        <ele>2196.75</ele>
        <time>2009-03-15T10:25:35Z</time>
      </trkpt>
      <trkpt lat="42.83689" lon="0.13916">
        <ele>2192.9</ele>
        <time>2009-03-15T10:25:38Z</time>
      </trkpt>
      <trkpt lat="42.83688" lon="0.13924">
        <ele>2191.94</ele>
        <time>2009-03-15T10:25:39Z</time>
      </trkpt>
      <trkpt lat="42.8369" lon="0.13928">
        <ele>2191.46</ele>
        <time>2009-03-15T10:25:40Z</time>
      </trkpt>
      <trkpt lat="42.83694" lon="0.13927">
        <ele>2189.54</ele>
        <time>2009-03-15T10:25:41Z</time>
      </trkpt>
      <trkpt lat="42.83699" lon="0.13925">
        <ele>2188.1</ele>
        <time>2009-03-15T10:25:42Z</time>
      </trkpt>
      <trkpt lat="42.83705" lon="0.13927">
        <ele>2187.14</ele>
        <time>2009-03-15T10:25:43Z</time>
      </trkpt>
      <trkpt lat="42.83711" lon="0.13931">
        <ele>2184.73</ele>
        <time>2009-03-15T10:25:44Z</time>
      </trkpt>
      <trkpt lat="42.83717" lon="0.13931">
        <ele>2182.81</ele>
        <time>2009-03-15T10:25:45Z</time>
      </trkpt>
      <trkpt lat="42.83724" lon="0.13923">
        <ele>2180.89</ele>
        <time>2009-03-15T10:25:47Z</time>
      </trkpt>
      <trkpt lat="42.83726" lon="0.13914">
        <ele>2180.89</ele>
        <time>2009-03-15T10:25:55Z</time>
      </trkpt>
      <trkpt lat="42.83734" lon="0.13916">
        <ele>2178.97</ele>
        <time>2009-03-15T10:25:58Z</time>
      </trkpt>
      <trkpt lat="42.8374" lon="0.13918">
        <ele>2177.04</ele>
        <time>2009-03-15T10:25:59Z</time>
      </trkpt>
      <trkpt lat="42.83747" lon="0.13919">
        <ele>2175.12</ele>
        <time>2009-03-15T10:26:00Z</time>
      </trkpt>
      <trkpt lat="42.83755" lon="0.13921">
        <ele>2173.68</ele>
        <time>2009-03-15T10:26:01Z</time>
      </trkpt>
      <trkpt lat="42.83762" lon="0.13926">
        <ele>2171.76</ele>
        <time>2009-03-15T10:26:02Z</time>
      </trkpt>
      <trkpt lat="42.83765" lon="0.13933">
        <ele>2172.24</ele>
        <time>2009-03-15T10:26:03Z</time>
      </trkpt>
      <trkpt lat="42.83766" lon="0.13941">
        <ele>2169.83</ele>
        <time>2009-03-15T10:26:04Z</time>
      </trkpt>
      <trkpt lat="42.83768" lon="0.13947">
        <ele>2168.87</ele>
        <time>2009-03-15T10:26:05Z</time>
      </trkpt>
      <trkpt lat="42.83771" lon="0.13951">
        <ele>2168.39</ele>
        <time>2009-03-15T10:26:06Z</time>
      </trkpt>
      <trkpt lat="42.83776" lon="0.13953">
        <ele>2166.95</ele>
        <time>2009-03-15T10:26:07Z</time>
      </trkpt>
      <trkpt lat="42.83778" lon="0.13958">
        <ele>2166.47</ele>
        <time>2009-03-15T10:26:08Z</time>
      </trkpt>
      <trkpt lat="42.83777" lon="0.13966">
        <ele>2166.95</ele>
        <time>2009-03-15T10:26:09Z</time>
      </trkpt>
      <trkpt lat="42.83776" lon="0.13975">
        <ele>2165.51</ele>
        <time>2009-03-15T10:26:10Z</time>
      </trkpt>
      <trkpt lat="42.83779" lon="0.13982">
        <ele>2164.55</ele>
        <time>2009-03-15T10:26:11Z</time>
      </trkpt>
      <trkpt lat="42.83784" lon="0.13986">
        <ele>2161.66</ele>
        <time>2009-03-15T10:26:12Z</time>
      </trkpt>
      <trkpt lat="42.83789" lon="0.13992">
        <ele>2159.26</ele>
        <time>2009-03-15T10:26:13Z</time>
      </trkpt>
      <trkpt lat="42.83793" lon="0.14">
        <ele>2158.78</ele>
        <time>2009-03-15T10:26:14Z</time>
      </trkpt>
      <trkpt lat="42.83796" lon="0.14008">
        <ele>2157.34</ele>
        <time>2009-03-15T10:26:15Z</time>
      </trkpt>
      <trkpt lat="42.83797" lon="0.14014">
        <ele>2157.34</ele>
        <time>2009-03-15T10:26:16Z</time>
      </trkpt>
      <trkpt lat="42.83799" lon="0.1402">
        <ele>2155.89</ele>
        <time>2009-03-15T10:26:17Z</time>
      </trkpt>
      <trkpt lat="42.838" lon="0.14027">
        <ele>2155.89</ele>
        <time>2009-03-15T10:26:18Z</time>
      </trkpt>
      <trkpt lat="42.83802" lon="0.14032">
        <ele>2156.37</ele>
        <time>2009-03-15T10:26:19Z</time>
      </trkpt>
      <trkpt lat="42.83817" lon="0.14072">
        <ele>2155.41</ele>
        <time>2009-03-15T10:26:29Z</time>
      </trkpt>
      <trkpt lat="42.83823" lon="0.14084">
        <ele>2155.89</ele>
        <time>2009-03-15T10:26:33Z</time>
      </trkpt>
      <trkpt lat="42.83833" lon="0.14094">
        <ele>2154.93</ele>
        <time>2009-03-15T10:26:38Z</time>
      </trkpt>
      <trkpt lat="42.83838" lon="0.14099">
        <ele>2155.89</ele>
        <time>2009-03-15T10:26:45Z</time>
      </trkpt>
      <trkpt lat="42.83837" lon="0.14098">
        <ele>2155.89</ele>
        <time>2009-03-15T10:26:52Z</time>
      </trkpt>
      <trkpt lat="42.83849" lon="0.14105">
        <ele>2154.93</ele>
        <time>2009-03-15T10:27:00Z</time>
      </trkpt>
      <trkpt lat="42.83851" lon="0.14107">
        <ele>2155.89</ele>
        <time>2009-03-15T10:27:01Z</time>
      </trkpt>
      <trkpt lat="42.83865" lon="0.14124">
        <ele>2154.93</ele>
        <time>2009-03-15T10:27:15Z</time>
      </trkpt>
      <trkpt lat="42.83866" lon="0.14126">
        <ele>2156.37</ele>
        <time>2009-03-15T10:27:17Z</time>
      </trkpt>
      <trkpt lat="42.83868" lon="0.14131">
        <ele>2155.41</ele>
        <time>2009-03-15T10:27:21Z</time>
      </trkpt>
      <trkpt lat="42.83869" lon="0.14133">
        <ele>2155.89</ele>
        <time>2009-03-15T10:27:23Z</time>
      </trkpt>
      <trkpt lat="42.83871" lon="0.14138">
        <ele>2154.45</ele>
        <time>2009-03-15T10:27:27Z</time>
      </trkpt>
      <trkpt lat="42.83872" lon="0.14138">
        <ele>2153.97</ele>
        <time>2009-03-15T10:27:28Z</time>
      </trkpt>
      <trkpt lat="42.83875" lon="0.14147">
        <ele>2154.93</ele>
        <time>2009-03-15T10:27:40Z</time>
      </trkpt>
      <trkpt lat="42.83876" lon="0.14149">
        <ele>2155.41</ele>
        <time>2009-03-15T10:27:52Z</time>
      </trkpt>
      <trkpt lat="42.83877" lon="0.14175">
        <ele>2155.41</ele>
        <time>2009-03-15T10:28:04Z</time>
      </trkpt>
      <trkpt lat="42.83876" lon="0.14199">
        <ele>2154.45</ele>
        <time>2009-03-15T10:28:16Z</time>
      </trkpt>
      <trkpt lat="42.83875" lon="0.14215">
        <ele>2155.41</ele>
        <time>2009-03-15T10:28:23Z</time>
      </trkpt>
      <trkpt lat="42.83873" lon="0.14246">
        <ele>2153.97</ele>
        <time>2009-03-15T10:28:34Z</time>
      </trkpt>
      <trkpt lat="42.83873" lon="0.14249">
        <ele>2154.45</ele>
        <time>2009-03-15T10:28:36Z</time>
      </trkpt>
      <trkpt lat="42.83873" lon="0.14268">
        <ele>2154.45</ele>
        <time>2009-03-15T10:28:47Z</time>
      </trkpt>
      <trkpt lat="42.83873" lon="0.14269">
        <ele>2154.45</ele>
        <time>2009-03-15T10:28:48Z</time>
      </trkpt>
      <trkpt lat="42.83878" lon="0.14291">
        <ele>2154.93</ele>
        <time>2009-03-15T10:29:01Z</time>
      </trkpt>
      <trkpt lat="42.8389" lon="0.14313">
        <ele>2155.41</ele>
        <time>2009-03-15T10:29:14Z</time>
      </trkpt>
      <trkpt lat="42.83905" lon="0.14334">
        <ele>2154.93</ele>
        <time>2009-03-15T10:29:29Z</time>
      </trkpt>
      <trkpt lat="42.83921" lon="0.14336">
        <ele>2155.41</ele>
        <time>2009-03-15T10:29:39Z</time>
      </trkpt>
      <trkpt lat="42.83926" lon="0.14335">
        <ele>2154.93</ele>
        <time>2009-03-15T10:29:43Z</time>
      </trkpt>
      <trkpt lat="42.83936" lon="0.14332">
        <ele>2155.89</ele>
        <time>2009-03-15T10:29:54Z</time>
      </trkpt>
      <trkpt lat="42.83945" lon="0.14329">
        <ele>2156.37</ele>
        <time>2009-03-15T10:30:06Z</time>
      </trkpt>
      <trkpt lat="42.83955" lon="0.14326">
        <ele>2156.37</ele>
        <time>2009-03-15T10:30:16Z</time>
      </trkpt>
      <trkpt lat="42.83961" lon="0.14325">
        <ele>2157.82</ele>
        <time>2009-03-15T10:30:22Z</time>
      </trkpt>
      <trkpt lat="42.83971" lon="0.14325">
        <ele>2159.26</ele>
        <time>2009-03-15T10:30:31Z</time>
      </trkpt>
      <trkpt lat="42.83982" lon="0.1432">
        <ele>2160.22</ele>
        <time>2009-03-15T10:30:43Z</time>
      </trkpt>
      <trkpt lat="42.83992" lon="0.14323">
        <ele>2161.18</ele>
        <time>2009-03-15T10:30:55Z</time>
      </trkpt>
      <trkpt lat="42.83999" lon="0.14328">
        <ele>2162.14</ele>
        <time>2009-03-15T10:31:07Z</time>
      </trkpt>
      <trkpt lat="42.83999" lon="0.14329">
        <ele>2163.1</ele>
        <time>2009-03-15T10:31:17Z</time>
      </trkpt>
      <trkpt lat="42.84" lon="0.1433">
        <ele>2162.62</ele>
        <time>2009-03-15T10:31:20Z</time>
      </trkpt>
      <trkpt lat="42.84005" lon="0.14333">
        <ele>2163.58</ele>
        <time>2009-03-15T10:31:29Z</time>
      </trkpt>
      <trkpt lat="42.84009" lon="0.14334">
        <ele>2162.14</ele>
        <time>2009-03-15T10:31:41Z</time>
      </trkpt>
      <trkpt lat="42.8401" lon="0.14335">
        <ele>2162.62</ele>
        <time>2009-03-15T10:31:53Z</time>
      </trkpt>
      <trkpt lat="42.84011" lon="0.14337">
        <ele>2163.1</ele>
        <time>2009-03-15T10:32:08Z</time>
      </trkpt>
      <trkpt lat="42.84013" lon="0.14341">
        <ele>2162.62</ele>
        <time>2009-03-15T10:32:15Z</time>
      </trkpt>
      <trkpt lat="42.84013" lon="0.14341">
        <ele>2163.1</ele>
        <time>2009-03-15T10:32:24Z</time>
      </trkpt>
      <trkpt lat="42.84013" lon="0.1434">
        <ele>2163.1</ele>
        <time>2009-03-15T10:32:45Z</time>
      </trkpt>
      <trkpt lat="42.84013" lon="0.1434">
        <ele>2162.62</ele>
        <time>2009-03-15T10:32:49Z</time>
      </trkpt>
      <trkpt lat="42.84012" lon="0.1434">
        <ele>2162.14</ele>
        <time>2009-03-15T10:33:01Z</time>
      </trkpt>
      <trkpt lat="42.84012" lon="0.14346">
        <ele>2149.16</ele>
        <time>2009-03-15T10:33:16Z</time>
      </trkpt>
      <trkpt lat="42.84012" lon="0.14346">
        <ele>2158.3</ele>
        <time>2009-03-15T10:33:17Z</time>
      </trkpt>
      <trkpt lat="42.84012" lon="0.14345">
        <ele>2161.66</ele>
        <time>2009-03-15T10:33:19Z</time>
      </trkpt>
      <trkpt lat="42.84012" lon="0.14344">
        <ele>2162.14</ele>
        <time>2009-03-15T10:33:20Z</time>
      </trkpt>
      <trkpt lat="42.84018" lon="0.14344">
        <ele>2162.62</ele>
        <time>2009-03-15T10:34:25Z</time>
      </trkpt>
      <trkpt lat="42.84023" lon="0.14346">
        <ele>2163.1</ele>
        <time>2009-03-15T10:34:41Z</time>
      </trkpt>
      <trkpt lat="42.84025" lon="0.14346">
        <ele>2161.66</ele>
        <time>2009-03-15T10:34:45Z</time>
      </trkpt>
      <trkpt lat="42.84027" lon="0.14347">
        <ele>2162.62</ele>
        <time>2009-03-15T10:34:54Z</time>
      </trkpt>
      <trkpt lat="42.84011" lon="0.14341">
        <ele>2161.66</ele>
        <time>2009-03-15T10:35:22Z</time>
      </trkpt>
      <trkpt lat="42.8401" lon="0.1434">
        <ele>2164.06</ele>
        <time>2009-03-15T10:36:38Z</time>
      </trkpt>
      <trkpt lat="42.8401" lon="0.1434">
        <ele>2159.26</ele>
        <time>2009-03-15T10:36:39Z</time>
      </trkpt>
      <trkpt lat="42.8401" lon="0.1434">
        <ele>2165.51</ele>
        <time>2009-03-15T10:36:40Z</time>
      </trkpt>
      <trkpt lat="42.84021" lon="0.14347">
        <ele>2162.14</ele>
        <time>2009-03-15T10:36:58Z</time>
      </trkpt>
      <trkpt lat="42.84002" lon="0.14298">
        <ele>2161.66</ele>
        <time>2009-03-15T10:37:06Z</time>
      </trkpt>
      <trkpt lat="42.83988" lon="0.14312">
        <ele>2161.66</ele>
        <time>2009-03-15T10:37:41Z</time>
      </trkpt>
      <trkpt lat="42.84008" lon="0.14295">
        <ele>2161.66</ele>
        <time>2009-03-15T10:37:51Z</time>
      </trkpt>
      <trkpt lat="42.8405" lon="0.14231">
        <ele>2162.14</ele>
        <time>2009-03-15T10:39:56Z</time>
      </trkpt>
      <trkpt lat="42.84024" lon="0.14348">
        <ele>2161.18</ele>
        <time>2009-03-15T10:40:46Z</time>
      </trkpt>
      <trkpt lat="42.84024" lon="0.14348">
        <ele>2160.7</ele>
        <time>2009-03-15T10:41:02Z</time>
      </trkpt>
      <trkpt lat="42.84017" lon="0.14343">
        <ele>2161.18</ele>
        <time>2009-03-15T10:41:52Z</time>
      </trkpt>
      <trkpt lat="42.84019" lon="0.1435">
        <ele>2160.7</ele>
        <time>2009-03-15T10:42:08Z</time>
      </trkpt>
      <trkpt lat="42.8402" lon="0.14351">
        <ele>2161.66</ele>
        <time>2009-03-15T10:42:12Z</time>
      </trkpt>
      <trkpt lat="42.8402" lon="0.14351">
        <ele>2162.62</ele>
        <time>2009-03-15T10:42:22Z</time>
      </trkpt>
      <trkpt lat="42.8402" lon="0.14351">
        <ele>2161.18</ele>
        <time>2009-03-15T10:42:24Z</time>
      </trkpt>
      <trkpt lat="42.8402" lon="0.14351">
        <ele>2161.18</ele>
        <time>2009-03-15T10:42:58Z</time>
      </trkpt>
      <trkpt lat="42.8402" lon="0.14351">
        <ele>2162.14</ele>
        <time>2009-03-15T10:44:23Z</time>
      </trkpt>
      <trkpt lat="42.8402" lon="0.14351">
        <ele>2162.14</ele>
        <time>2009-03-15T10:44:40Z</time>
      </trkpt>
      <trkpt lat="42.8402" lon="0.14351">
        <ele>2161.66</ele>
        <time>2009-03-15T10:45:33Z</time>
      </trkpt>
      <trkpt lat="42.8402" lon="0.14351">
        <ele>2160.22</ele>
        <time>2009-03-15T10:45:37Z</time>
      </trkpt>
      <trkpt lat="42.8402" lon="0.14351">
        <ele>2161.66</ele>
        <time>2009-03-15T10:45:38Z</time>
      </trkpt>
      <trkpt lat="42.8402" lon="0.14351">
        <ele>2159.74</ele>
        <time>2009-03-15T10:45:47Z</time>
      </trkpt>
      <trkpt lat="42.8402" lon="0.14351">
        <ele>2161.66</ele>
        <time>2009-03-15T10:45:48Z</time>
      </trkpt>
      <trkpt lat="42.8402" lon="0.14351">
        <ele>2160.7</ele>
        <time>2009-03-15T10:45:57Z</time>
      </trkpt>
      <trkpt lat="42.8402" lon="0.14351">
        <ele>2160.22</ele>
        <time>2009-03-15T10:46:03Z</time>
      </trkpt>
      <trkpt lat="42.8402" lon="0.14351">
        <ele>2161.66</ele>
        <time>2009-03-15T10:46:04Z</time>
      </trkpt>
      <trkpt lat="42.8402" lon="0.14351">
        <ele>2161.66</ele>
        <time>2009-03-15T10:46:09Z</time>
      </trkpt>
      <trkpt lat="42.8402" lon="0.14351">
        <ele>2161.66</ele>
        <time>2009-03-15T10:46:22Z</time>
      </trkpt>
      <trkpt lat="42.8402" lon="0.14351">
        <ele>2160.22</ele>
        <time>2009-03-15T10:46:59Z</time>
      </trkpt>
      <trkpt lat="42.8402" lon="0.14351">
        <ele>2160.22</ele>
        <time>2009-03-15T10:47:17Z</time>
      </trkpt>
      <trkpt lat="42.8402" lon="0.14351">
        <ele>2161.66</ele>
        <time>2009-03-15T10:47:18Z</time>
      </trkpt>
      <trkpt lat="42.8402" lon="0.14351">
        <ele>2162.14</ele>
        <time>2009-03-15T10:47:24Z</time>
      </trkpt>
      <trkpt lat="42.8402" lon="0.14351">
        <ele>2160.7</ele>
        <time>2009-03-15T10:47:25Z</time>
      </trkpt>
      <trkpt lat="42.8402" lon="0.14351">
        <ele>2159.74</ele>
        <time>2009-03-15T10:48:03Z</time>
      </trkpt>
      <trkpt lat="42.8402" lon="0.14351">
        <ele>2160.7</ele>
        <time>2009-03-15T10:51:33Z</time>
      </trkpt>
      <trkpt lat="42.8402" lon="0.14351">
        <ele>2161.66</ele>
        <time>2009-03-15T10:58:27Z</time>
      </trkpt>
      <trkpt lat="42.8402" lon="0.14351">
        <ele>2160.22</ele>
        <time>2009-03-15T10:58:33Z</time>
      </trkpt>
      <trkpt lat="42.8402" lon="0.14351">
        <ele>2159.74</ele>
        <time>2009-03-15T10:59:23Z</time>
      </trkpt>
      <trkpt lat="42.8402" lon="0.14351">
        <ele>2161.18</ele>
        <time>2009-03-15T11:00:00Z</time>
      </trkpt>
      <trkpt lat="42.8402" lon="0.14351">
        <ele>2160.22</ele>
        <time>2009-03-15T11:02:05Z</time>
      </trkpt>
      <trkpt lat="42.8402" lon="0.14351">
        <ele>2161.66</ele>
        <time>2009-03-15T11:02:07Z</time>
      </trkpt>
      <trkpt lat="42.8402" lon="0.14351">
        <ele>2160.7</ele>
        <time>2009-03-15T11:02:26Z</time>
      </trkpt>
      <trkpt lat="42.8402" lon="0.14351">
        <ele>2159.74</ele>
        <time>2009-03-15T11:02:30Z</time>
      </trkpt>
      <trkpt lat="42.8402" lon="0.14351">
        <ele>2159.74</ele>
        <time>2009-03-15T11:02:33Z</time>
      </trkpt>
      <trkpt lat="42.8402" lon="0.14351">
        <ele>2161.66</ele>
        <time>2009-03-15T11:02:44Z</time>
      </trkpt>
      <trkpt lat="42.8402" lon="0.14351">
        <ele>2160.7</ele>
        <time>2009-03-15T11:03:09Z</time>
      </trkpt>
      <trkpt lat="42.8402" lon="0.14351">
        <ele>2161.66</ele>
        <time>2009-03-15T11:03:55Z</time>
      </trkpt>
      <trkpt lat="42.8402" lon="0.14351">
        <ele>2161.18</ele>
        <time>2009-03-15T11:04:44Z</time>
      </trkpt>
      <trkpt lat="42.8402" lon="0.14351">
        <ele>2161.18</ele>
        <time>2009-03-15T11:05:24Z</time>
      </trkpt>
      <trkpt lat="42.8402" lon="0.14351">
        <ele>2159.74</ele>
        <time>2009-03-15T11:06:33Z</time>
      </trkpt>
      <trkpt lat="42.8402" lon="0.14351">
        <ele>2160.7</ele>
        <time>2009-03-15T11:07:55Z</time>
      </trkpt>
      <trkpt lat="42.8402" lon="0.14351">
        <ele>2159.26</ele>
        <time>2009-03-15T11:08:10Z</time>
      </trkpt>
      <trkpt lat="42.8402" lon="0.14351">
        <ele>2161.18</ele>
        <time>2009-03-15T11:08:47Z</time>
      </trkpt>
      <trkpt lat="42.8402" lon="0.14351">
        <ele>2161.18</ele>
        <time>2009-03-15T11:08:50Z</time>
      </trkpt>
      <trkpt lat="42.8402" lon="0.14351">
        <ele>2159.74</ele>
        <time>2009-03-15T11:08:58Z</time>
      </trkpt>
      <trkpt lat="42.8402" lon="0.14351">
        <ele>2160.7</ele>
        <time>2009-03-15T11:09:02Z</time>
      </trkpt>
      <trkpt lat="42.8402" lon="0.14351">
        <ele>2159.74</ele>
        <time>2009-03-15T11:09:21Z</time>
      </trkpt>
      <trkpt lat="42.8402" lon="0.14351">
        <ele>2159.26</ele>
        <time>2009-03-15T11:09:28Z</time>
      </trkpt>
      <trkpt lat="42.8402" lon="0.14351">
        <ele>2159.26</ele>
        <time>2009-03-15T11:09:37Z</time>
      </trkpt>
      <trkpt lat="42.8402" lon="0.14351">
        <ele>2159.74</ele>
        <time>2009-03-15T11:10:10Z</time>
      </trkpt>
      <trkpt lat="42.8402" lon="0.14351">
        <ele>2160.7</ele>
        <time>2009-03-15T11:11:37Z</time>
      </trkpt>
      <trkpt lat="42.8402" lon="0.14351">
        <ele>2159.26</ele>
        <time>2009-03-15T11:11:38Z</time>
      </trkpt>
      <trkpt lat="42.8402" lon="0.14351">
        <ele>2160.7</ele>
        <time>2009-03-15T11:11:59Z</time>
      </trkpt>
      <trkpt lat="42.8402" lon="0.14351">
        <ele>2159.74</ele>
        <time>2009-03-15T11:12:00Z</time>
      </trkpt>
      <trkpt lat="42.8402" lon="0.14351">
        <ele>2160.7</ele>
        <time>2009-03-15T11:13:13Z</time>
      </trkpt>
      <trkpt lat="42.8402" lon="0.14351">
        <ele>2159.26</ele>
        <time>2009-03-15T11:14:09Z</time>
      </trkpt>
      <trkpt lat="42.8402" lon="0.14351">
        <ele>2161.18</ele>
        <time>2009-03-15T11:15:08Z</time>
      </trkpt>
      <trkpt lat="42.8402" lon="0.14351">
        <ele>2159.74</ele>
        <time>2009-03-15T11:15:10Z</time>
      </trkpt>
      <trkpt lat="42.8402" lon="0.14351">
        <ele>2158.78</ele>
        <time>2009-03-15T11:18:17Z</time>
      </trkpt>
      <trkpt lat="42.8402" lon="0.14351">
        <ele>2159.26</ele>
        <time>2009-03-15T11:28:21Z</time>
      </trkpt>
      <trkpt lat="42.8402" lon="0.14351">
        <ele>2157.82</ele>
        <time>2009-03-15T11:30:08Z</time>
      </trkpt>
      <trkpt lat="42.8402" lon="0.14351">
        <ele>2159.74</ele>
        <time>2009-03-15T11:30:19Z</time>
      </trkpt>
      <trkpt lat="42.8402" lon="0.14351">
        <ele>2157.34</ele>
        <time>2009-03-15T11:31:19Z</time>
      </trkpt>
      <trkpt lat="42.8402" lon="0.14351">
        <ele>2162.14</ele>
        <time>2009-03-15T11:31:20Z</time>
      </trkpt>
      <trkpt lat="42.8402" lon="0.14351">
        <ele>2159.26</ele>
        <time>2009-03-15T11:31:21Z</time>
      </trkpt>
      <trkpt lat="42.8402" lon="0.14351">
        <ele>2159.26</ele>
        <time>2009-03-15T11:31:30Z</time>
      </trkpt>
      <trkpt lat="42.8402" lon="0.14351">
        <ele>2157.82</ele>
        <time>2009-03-15T11:33:06Z</time>
      </trkpt>
      <trkpt lat="42.8402" lon="0.14351">
        <ele>2156.86</ele>
        <time>2009-03-15T11:33:13Z</time>
      </trkpt>
      <trkpt lat="42.8402" lon="0.14351">
        <ele>2160.22</ele>
        <time>2009-03-15T11:33:20Z</time>
      </trkpt>
      <trkpt lat="42.8402" lon="0.14351">
        <ele>2156.86</ele>
        <time>2009-03-15T11:33:59Z</time>
      </trkpt>
      <trkpt lat="42.8402" lon="0.14351">
        <ele>2156.86</ele>
        <time>2009-03-15T11:34:00Z</time>
      </trkpt>
      <trkpt lat="42.8402" lon="0.14351">
        <ele>2159.74</ele>
        <time>2009-03-15T11:34:02Z</time>
      </trkpt>
      <trkpt lat="42.8402" lon="0.14351">
        <ele>2150.13</ele>
        <time>2009-03-15T11:34:03Z</time>
      </trkpt>
      <trkpt lat="42.8402" lon="0.14351">
        <ele>2155.41</ele>
        <time>2009-03-15T11:34:04Z</time>
      </trkpt>
      <trkpt lat="42.8402" lon="0.14351">
        <ele>2157.34</ele>
        <time>2009-03-15T11:34:05Z</time>
      </trkpt>
      <trkpt lat="42.8402" lon="0.14351">
        <ele>2160.7</ele>
        <time>2009-03-15T11:34:07Z</time>
      </trkpt>
      <trkpt lat="42.8402" lon="0.14351">
        <ele>2160.7</ele>
        <time>2009-03-15T11:34:08Z</time>
      </trkpt>
      <trkpt lat="42.8402" lon="0.14351">
        <ele>2162.14</ele>
        <time>2009-03-15T11:34:09Z</time>
      </trkpt>
      <trkpt lat="42.8402" lon="0.14351">
        <ele>2155.89</ele>
        <time>2009-03-15T11:34:18Z</time>
      </trkpt>
      <trkpt lat="42.8402" lon="0.14351">
        <ele>2155.89</ele>
        <time>2009-03-15T11:34:19Z</time>
      </trkpt>
      <trkpt lat="42.8402" lon="0.14351">
        <ele>2158.3</ele>
        <time>2009-03-15T11:34:20Z</time>
      </trkpt>
      <trkpt lat="42.8402" lon="0.14351">
        <ele>2159.26</ele>
        <time>2009-03-15T11:34:22Z</time>
      </trkpt>
      <trkpt lat="42.8402" lon="0.14351">
        <ele>2158.78</ele>
        <time>2009-03-15T11:35:28Z</time>
      </trkpt>
      <trkpt lat="42.84037" lon="0.14363">
        <ele>2159.26</ele>
        <time>2009-03-15T11:36:17Z</time>
      </trkpt>
      <trkpt lat="42.84017" lon="0.14337">
        <ele>2153.97</ele>
        <time>2009-03-15T11:45:52Z</time>
      </trkpt>
      <trkpt lat="42.84017" lon="0.14337">
        <ele>2160.22</ele>
        <time>2009-03-15T11:45:53Z</time>
      </trkpt>
      <trkpt lat="42.84016" lon="0.14335">
        <ele>2159.74</ele>
        <time>2009-03-15T11:46:11Z</time>
      </trkpt>
      <trkpt lat="42.84016" lon="0.14334">
        <ele>2159.26</ele>
        <time>2009-03-15T11:46:28Z</time>
      </trkpt>
      <trkpt lat="42.84016" lon="0.14334">
        <ele>2159.74</ele>
        <time>2009-03-15T11:46:42Z</time>
      </trkpt>
      <trkpt lat="42.84017" lon="0.14334">
        <ele>2159.74</ele>
        <time>2009-03-15T11:46:53Z</time>
      </trkpt>
      <trkpt lat="42.84021" lon="0.14339">
        <ele>2159.74</ele>
        <time>2009-03-15T11:47:00Z</time>
      </trkpt>
      <trkpt lat="42.84021" lon="0.14344">
        <ele>2159.26</ele>
        <time>2009-03-15T11:47:04Z</time>
      </trkpt>
      <trkpt lat="42.84025" lon="0.14356">
        <ele>2161.18</ele>
        <time>2009-03-15T11:47:16Z</time>
      </trkpt>
      <trkpt lat="42.84025" lon="0.14367">
        <ele>2163.58</ele>
        <time>2009-03-15T11:47:27Z</time>
      </trkpt>
      <trkpt lat="42.84025" lon="0.14376">
        <ele>2164.06</ele>
        <time>2009-03-15T11:47:34Z</time>
      </trkpt>
      <trkpt lat="42.84022" lon="0.1439">
        <ele>2165.03</ele>
        <time>2009-03-15T11:47:47Z</time>
      </trkpt>
      <trkpt lat="42.84022" lon="0.14391">
        <ele>2165.03</ele>
        <time>2009-03-15T11:47:48Z</time>
      </trkpt>
      <trkpt lat="42.84018" lon="0.14404">
        <ele>2165.99</ele>
        <time>2009-03-15T11:47:59Z</time>
      </trkpt>
      <trkpt lat="42.84013" lon="0.1442">
        <ele>2166.95</ele>
        <time>2009-03-15T11:48:13Z</time>
      </trkpt>
      <trkpt lat="42.84007" lon="0.14431">
        <ele>2167.91</ele>
        <time>2009-03-15T11:48:25Z</time>
      </trkpt>
      <trkpt lat="42.84006" lon="0.14434">
        <ele>2167.91</ele>
        <time>2009-03-15T11:48:28Z</time>
      </trkpt>
      <trkpt lat="42.84004" lon="0.14439">
        <ele>2167.43</ele>
        <time>2009-03-15T11:48:40Z</time>
      </trkpt>
      <trkpt lat="42.84003" lon="0.14441">
        <ele>2168.87</ele>
        <time>2009-03-15T11:48:48Z</time>
      </trkpt>
      <trkpt lat="42.83998" lon="0.1445">
        <ele>2168.87</ele>
        <time>2009-03-15T11:48:59Z</time>
      </trkpt>
      <trkpt lat="42.83994" lon="0.14457">
        <ele>2169.83</ele>
        <time>2009-03-15T11:49:10Z</time>
      </trkpt>
      <trkpt lat="42.8399" lon="0.14466">
        <ele>2169.83</ele>
        <time>2009-03-15T11:49:19Z</time>
      </trkpt>
      <trkpt lat="42.83985" lon="0.14479">
        <ele>2170.79</ele>
        <time>2009-03-15T11:49:31Z</time>
      </trkpt>
      <trkpt lat="42.8398" lon="0.14491">
        <ele>2172.72</ele>
        <time>2009-03-15T11:49:44Z</time>
      </trkpt>
      <trkpt lat="42.83974" lon="0.14502">
        <ele>2173.68</ele>
        <time>2009-03-15T11:49:56Z</time>
      </trkpt>
      <trkpt lat="42.83971" lon="0.1451">
        <ele>2173.68</ele>
        <time>2009-03-15T11:50:04Z</time>
      </trkpt>
      <trkpt lat="42.83965" lon="0.14524">
        <ele>2175.12</ele>
        <time>2009-03-15T11:50:18Z</time>
      </trkpt>
      <trkpt lat="42.83964" lon="0.14528">
        <ele>2174.64</ele>
        <time>2009-03-15T11:50:21Z</time>
      </trkpt>
      <trkpt lat="42.83957" lon="0.1454">
        <ele>2175.6</ele>
        <time>2009-03-15T11:50:35Z</time>
      </trkpt>
      <trkpt lat="42.83953" lon="0.14547">
        <ele>2176.08</ele>
        <time>2009-03-15T11:50:43Z</time>
      </trkpt>
      <trkpt lat="42.83951" lon="0.14552">
        <ele>2176.08</ele>
        <time>2009-03-15T11:50:48Z</time>
      </trkpt>
      <trkpt lat="42.83943" lon="0.14565">
        <ele>2177.52</ele>
        <time>2009-03-15T11:51:01Z</time>
      </trkpt>
      <trkpt lat="42.83942" lon="0.14566">
        <ele>2177.04</ele>
        <time>2009-03-15T11:51:03Z</time>
      </trkpt>
      <trkpt lat="42.83935" lon="0.14577">
        <ele>2178.97</ele>
        <time>2009-03-15T11:51:16Z</time>
      </trkpt>
      <trkpt lat="42.83932" lon="0.14581">
        <ele>2178.48</ele>
        <time>2009-03-15T11:51:20Z</time>
      </trkpt>
      <trkpt lat="42.83928" lon="0.14586">
        <ele>2178.48</ele>
        <time>2009-03-15T11:51:25Z</time>
      </trkpt>
      <trkpt lat="42.83925" lon="0.14589">
        <ele>2178.97</ele>
        <time>2009-03-15T11:51:29Z</time>
      </trkpt>
      <trkpt lat="42.83917" lon="0.14602">
        <ele>2179.45</ele>
        <time>2009-03-15T11:51:43Z</time>
      </trkpt>
      <trkpt lat="42.83913" lon="0.14606">
        <ele>2180.41</ele>
        <time>2009-03-15T11:51:48Z</time>
      </trkpt>
      <trkpt lat="42.83908" lon="0.14612">
        <ele>2179.45</ele>
        <time>2009-03-15T11:51:55Z</time>
      </trkpt>
      <trkpt lat="42.839" lon="0.14622">
        <ele>2179.93</ele>
        <time>2009-03-15T11:52:07Z</time>
      </trkpt>
      <trkpt lat="42.83896" lon="0.14629">
        <ele>2180.89</ele>
        <time>2009-03-15T11:52:14Z</time>
      </trkpt>
      <trkpt lat="42.83889" lon="0.14642">
        <ele>2181.85</ele>
        <time>2009-03-15T11:52:26Z</time>
      </trkpt>
      <trkpt lat="42.83886" lon="0.14647">
        <ele>2180.89</ele>
        <time>2009-03-15T11:52:32Z</time>
      </trkpt>
      <trkpt lat="42.83882" lon="0.14659">
        <ele>2182.33</ele>
        <time>2009-03-15T11:52:43Z</time>
      </trkpt>
      <trkpt lat="42.8388" lon="0.14666">
        <ele>2183.29</ele>
        <time>2009-03-15T11:52:49Z</time>
      </trkpt>
      <trkpt lat="42.83877" lon="0.14671">
        <ele>2183.29</ele>
        <time>2009-03-15T11:52:54Z</time>
      </trkpt>
      <trkpt lat="42.83873" lon="0.14683">
        <ele>2184.25</ele>
        <time>2009-03-15T11:53:06Z</time>
      </trkpt>
      <trkpt lat="42.83873" lon="0.14684">
        <ele>2183.77</ele>
        <time>2009-03-15T11:53:07Z</time>
      </trkpt>
      <trkpt lat="42.83869" lon="0.14697">
        <ele>2184.25</ele>
        <time>2009-03-15T11:53:21Z</time>
      </trkpt>
      <trkpt lat="42.83867" lon="0.14707">
        <ele>2184.73</ele>
        <time>2009-03-15T11:53:32Z</time>
      </trkpt>
      <trkpt lat="42.83864" lon="0.14718">
        <ele>2185.69</ele>
        <time>2009-03-15T11:53:44Z</time>
      </trkpt>
      <trkpt lat="42.83862" lon="0.1473">
        <ele>2186.18</ele>
        <time>2009-03-15T11:53:56Z</time>
      </trkpt>
      <trkpt lat="42.83861" lon="0.14738">
        <ele>2186.66</ele>
        <time>2009-03-15T11:54:05Z</time>
      </trkpt>
      <trkpt lat="42.83861" lon="0.14741">
        <ele>2187.14</ele>
        <time>2009-03-15T11:54:08Z</time>
      </trkpt>
      <trkpt lat="42.83859" lon="0.14754">
        <ele>2187.14</ele>
        <time>2009-03-15T11:54:22Z</time>
      </trkpt>
      <trkpt lat="42.83858" lon="0.14761">
        <ele>2188.1</ele>
        <time>2009-03-15T11:54:34Z</time>
      </trkpt>
      <trkpt lat="42.83858" lon="0.14762">
        <ele>2187.62</ele>
        <time>2009-03-15T11:54:49Z</time>
      </trkpt>
      <trkpt lat="42.83858" lon="0.14762">
        <ele>2186.66</ele>
        <time>2009-03-15T11:55:09Z</time>
      </trkpt>
      <trkpt lat="42.83859" lon="0.14764">
        <ele>2183.77</ele>
        <time>2009-03-15T11:55:20Z</time>
      </trkpt>
      <trkpt lat="42.83859" lon="0.14764">
        <ele>2187.62</ele>
        <time>2009-03-15T11:55:25Z</time>
      </trkpt>
      <trkpt lat="42.83859" lon="0.14764">
        <ele>2182.81</ele>
        <time>2009-03-15T11:55:41Z</time>
      </trkpt>
      <trkpt lat="42.83859" lon="0.14764">
        <ele>2187.14</ele>
        <time>2009-03-15T11:55:42Z</time>
      </trkpt>
      <trkpt lat="42.83859" lon="0.14764">
        <ele>2188.1</ele>
        <time>2009-03-15T11:55:49Z</time>
      </trkpt>
      <trkpt lat="42.83859" lon="0.14764">
        <ele>2184.25</ele>
        <time>2009-03-15T11:55:50Z</time>
      </trkpt>
      <trkpt lat="42.83859" lon="0.14764">
        <ele>2187.62</ele>
        <time>2009-03-15T11:55:51Z</time>
      </trkpt>
      <trkpt lat="42.83858" lon="0.14764">
        <ele>2189.06</ele>
        <time>2009-03-15T11:56:02Z</time>
      </trkpt>
      <trkpt lat="42.83857" lon="0.14766">
        <ele>2188.1</ele>
        <time>2009-03-15T11:56:11Z</time>
      </trkpt>
      <trkpt lat="42.83855" lon="0.14783">
        <ele>2189.06</ele>
        <time>2009-03-15T11:56:25Z</time>
      </trkpt>
      <trkpt lat="42.83855" lon="0.14784">
        <ele>2189.06</ele>
        <time>2009-03-15T11:56:26Z</time>
      </trkpt>
      <trkpt lat="42.83854" lon="0.1479">
        <ele>2189.06</ele>
        <time>2009-03-15T11:56:31Z</time>
      </trkpt>
      <trkpt lat="42.83854" lon="0.14794">
        <ele>2189.54</ele>
        <time>2009-03-15T11:56:35Z</time>
      </trkpt>
      <trkpt lat="42.83853" lon="0.148">
        <ele>2190.02</ele>
        <time>2009-03-15T11:56:40Z</time>
      </trkpt>
      <trkpt lat="42.83852" lon="0.14805">
        <ele>2190.02</ele>
        <time>2009-03-15T11:56:44Z</time>
      </trkpt>
      <trkpt lat="42.83852" lon="0.14812">
        <ele>2190.98</ele>
        <time>2009-03-15T11:56:50Z</time>
      </trkpt>
      <trkpt lat="42.83852" lon="0.14829">
        <ele>2191.46</ele>
        <time>2009-03-15T11:57:03Z</time>
      </trkpt>
      <trkpt lat="42.83851" lon="0.14848">
        <ele>2192.42</ele>
        <time>2009-03-15T11:57:17Z</time>
      </trkpt>
      <trkpt lat="42.8385" lon="0.14866">
        <ele>2192.9</ele>
        <time>2009-03-15T11:57:30Z</time>
      </trkpt>
      <trkpt lat="42.83849" lon="0.14874">
        <ele>2193.39</ele>
        <time>2009-03-15T11:57:36Z</time>
      </trkpt>
      <trkpt lat="42.8385" lon="0.14881">
        <ele>2193.87</ele>
        <time>2009-03-15T11:57:42Z</time>
      </trkpt>
      <trkpt lat="42.83851" lon="0.14894">
        <ele>2194.35</ele>
        <time>2009-03-15T11:57:51Z</time>
      </trkpt>
      <trkpt lat="42.83851" lon="0.14896">
        <ele>2193.87</ele>
        <time>2009-03-15T11:57:53Z</time>
      </trkpt>
      <trkpt lat="42.83851" lon="0.14908">
        <ele>2194.83</ele>
        <time>2009-03-15T11:58:03Z</time>
      </trkpt>
      <trkpt lat="42.83853" lon="0.14913">
        <ele>2194.83</ele>
        <time>2009-03-15T11:58:07Z</time>
      </trkpt>
      <trkpt lat="42.83856" lon="0.14929">
        <ele>2195.31</ele>
        <time>2009-03-15T11:58:19Z</time>
      </trkpt>
      <trkpt lat="42.83858" lon="0.14933">
        <ele>2195.79</ele>
        <time>2009-03-15T11:58:24Z</time>
      </trkpt>
      <trkpt lat="42.83859" lon="0.14936">
        <ele>2196.27</ele>
        <time>2009-03-15T11:58:27Z</time>
      </trkpt>
      <trkpt lat="42.83865" lon="0.14942">
        <ele>2195.79</ele>
        <time>2009-03-15T11:58:34Z</time>
      </trkpt>
      <trkpt lat="42.83876" lon="0.14955">
        <ele>2196.27</ele>
        <time>2009-03-15T11:58:46Z</time>
      </trkpt>
      <trkpt lat="42.83876" lon="0.14957">
        <ele>2196.27</ele>
        <time>2009-03-15T11:58:47Z</time>
      </trkpt>
      <trkpt lat="42.8388" lon="0.14963">
        <ele>2196.27</ele>
        <time>2009-03-15T11:58:52Z</time>
      </trkpt>
      <trkpt lat="42.83887" lon="0.14974">
        <ele>2196.27</ele>
        <time>2009-03-15T11:59:05Z</time>
      </trkpt>
      <trkpt lat="42.83892" lon="0.14982">
        <ele>2195.31</ele>
        <time>2009-03-15T11:59:14Z</time>
      </trkpt>
      <trkpt lat="42.83895" lon="0.14986">
        <ele>2195.79</ele>
        <time>2009-03-15T11:59:17Z</time>
      </trkpt>
      <trkpt lat="42.83903" lon="0.14998">
        <ele>2195.79</ele>
        <time>2009-03-15T11:59:25Z</time>
      </trkpt>
      <trkpt lat="42.83915" lon="0.15016">
        <ele>2195.79</ele>
        <time>2009-03-15T11:59:39Z</time>
      </trkpt>
      <trkpt lat="42.83918" lon="0.1502">
        <ele>2195.31</ele>
        <time>2009-03-15T11:59:42Z</time>
      </trkpt>
      <trkpt lat="42.83922" lon="0.15023">
        <ele>2194.83</ele>
        <time>2009-03-15T11:59:46Z</time>
      </trkpt>
      <trkpt lat="42.83927" lon="0.15033">
        <ele>2196.27</ele>
        <time>2009-03-15T11:59:57Z</time>
      </trkpt>
      <trkpt lat="42.83928" lon="0.15036">
        <ele>2195.79</ele>
        <time>2009-03-15T11:59:59Z</time>
      </trkpt>
      <trkpt lat="42.83934" lon="0.15045">
        <ele>2195.31</ele>
        <time>2009-03-15T12:00:05Z</time>
      </trkpt>
      <trkpt lat="42.83947" lon="0.15062">
        <ele>2191.94</ele>
        <time>2009-03-15T12:00:11Z</time>
      </trkpt>
      <trkpt lat="42.83961" lon="0.15078">
        <ele>2189.54</ele>
        <time>2009-03-15T12:00:16Z</time>
      </trkpt>
      <trkpt lat="42.83964" lon="0.15082">
        <ele>2188.58</ele>
        <time>2009-03-15T12:00:19Z</time>
      </trkpt>
      <trkpt lat="42.83974" lon="0.15096">
        <ele>2188.58</ele>
        <time>2009-03-15T12:00:31Z</time>
      </trkpt>
      <trkpt lat="42.83975" lon="0.15098">
        <ele>2188.1</ele>
        <time>2009-03-15T12:00:33Z</time>
      </trkpt>
      <trkpt lat="42.8398" lon="0.15107">
        <ele>2186.66</ele>
        <time>2009-03-15T12:00:38Z</time>
      </trkpt>
      <trkpt lat="42.83981" lon="0.15109">
        <ele>2186.66</ele>
        <time>2009-03-15T12:00:39Z</time>
      </trkpt>
      <trkpt lat="42.83993" lon="0.15126">
        <ele>2185.69</ele>
        <time>2009-03-15T12:00:49Z</time>
      </trkpt>
      <trkpt lat="42.84003" lon="0.15139">
        <ele>2185.69</ele>
        <time>2009-03-15T12:01:02Z</time>
      </trkpt>
      <trkpt lat="42.84006" lon="0.15142">
        <ele>2185.69</ele>
        <time>2009-03-15T12:01:05Z</time>
      </trkpt>
      <trkpt lat="42.84015" lon="0.15154">
        <ele>2185.69</ele>
        <time>2009-03-15T12:01:16Z</time>
      </trkpt>
      <trkpt lat="42.84021" lon="0.15161">
        <ele>2185.69</ele>
        <time>2009-03-15T12:01:28Z</time>
      </trkpt>
      <trkpt lat="42.84022" lon="0.15163">
        <ele>2185.69</ele>
        <time>2009-03-15T12:01:30Z</time>
      </trkpt>
      <trkpt lat="42.84026" lon="0.15169">
        <ele>2185.69</ele>
        <time>2009-03-15T12:01:36Z</time>
      </trkpt>
      <trkpt lat="42.84033" lon="0.15178">
        <ele>2185.69</ele>
        <time>2009-03-15T12:01:46Z</time>
      </trkpt>
      <trkpt lat="42.84039" lon="0.15186">
        <ele>2185.69</ele>
        <time>2009-03-15T12:01:54Z</time>
      </trkpt>
      <trkpt lat="42.84045" lon="0.15193">
        <ele>2185.69</ele>
        <time>2009-03-15T12:02:02Z</time>
      </trkpt>
      <trkpt lat="42.84054" lon="0.15204">
        <ele>2185.69</ele>
        <time>2009-03-15T12:02:14Z</time>
      </trkpt>
      <trkpt lat="42.84064" lon="0.15216">
        <ele>2185.69</ele>
        <time>2009-03-15T12:02:26Z</time>
      </trkpt>
      <trkpt lat="42.84069" lon="0.15223">
        <ele>2186.18</ele>
        <time>2009-03-15T12:02:33Z</time>
      </trkpt>
      <trkpt lat="42.84074" lon="0.15229">
        <ele>2186.18</ele>
        <time>2009-03-15T12:02:40Z</time>
      </trkpt>
      <trkpt lat="42.84079" lon="0.15235">
        <ele>2186.18</ele>
        <time>2009-03-15T12:02:46Z</time>
      </trkpt>
      <trkpt lat="42.84084" lon="0.1524">
        <ele>2186.66</ele>
        <time>2009-03-15T12:02:52Z</time>
      </trkpt>
      <trkpt lat="42.84089" lon="0.15246">
        <ele>2185.69</ele>
        <time>2009-03-15T12:02:58Z</time>
      </trkpt>
      <trkpt lat="42.84095" lon="0.15252">
        <ele>2185.69</ele>
        <time>2009-03-15T12:03:05Z</time>
      </trkpt>
      <trkpt lat="42.84106" lon="0.15263">
        <ele>2185.69</ele>
        <time>2009-03-15T12:03:18Z</time>
      </trkpt>
      <trkpt lat="42.84114" lon="0.15269">
        <ele>2187.62</ele>
        <time>2009-03-15T12:03:30Z</time>
      </trkpt>
      <trkpt lat="42.84115" lon="0.1527">
        <ele>2188.1</ele>
        <time>2009-03-15T12:03:33Z</time>
      </trkpt>
      <trkpt lat="42.84121" lon="0.15268">
        <ele>2189.54</ele>
        <time>2009-03-15T12:03:42Z</time>
      </trkpt>
      <trkpt lat="42.84126" lon="0.15263">
        <ele>2190.5</ele>
        <time>2009-03-15T12:03:52Z</time>
      </trkpt>
      <trkpt lat="42.84135" lon="0.15256">
        <ele>2190.98</ele>
        <time>2009-03-15T12:04:05Z</time>
      </trkpt>
      <trkpt lat="42.84142" lon="0.15255">
        <ele>2191.46</ele>
        <time>2009-03-15T12:04:13Z</time>
      </trkpt>
      <trkpt lat="42.8415" lon="0.15255">
        <ele>2191.46</ele>
        <time>2009-03-15T12:04:21Z</time>
      </trkpt>
      <trkpt lat="42.8416" lon="0.15256">
        <ele>2191.46</ele>
        <time>2009-03-15T12:04:33Z</time>
      </trkpt>
      <trkpt lat="42.84165" lon="0.1525">
        <ele>2192.9</ele>
        <time>2009-03-15T12:04:45Z</time>
      </trkpt>
      <trkpt lat="42.84168" lon="0.15246">
        <ele>2195.31</ele>
        <time>2009-03-15T12:04:55Z</time>
      </trkpt>
      <trkpt lat="42.84174" lon="0.15238">
        <ele>2197.23</ele>
        <time>2009-03-15T12:05:06Z</time>
      </trkpt>
      <trkpt lat="42.84183" lon="0.15238">
        <ele>2199.15</ele>
        <time>2009-03-15T12:05:19Z</time>
      </trkpt>
      <trkpt lat="42.84185" lon="0.15238">
        <ele>2198.67</ele>
        <time>2009-03-15T12:05:21Z</time>
      </trkpt>
      <trkpt lat="42.84189" lon="0.15237">
        <ele>2199.63</ele>
        <time>2009-03-15T12:05:27Z</time>
      </trkpt>
      <trkpt lat="42.84196" lon="0.15238">
        <ele>2200.11</ele>
        <time>2009-03-15T12:05:37Z</time>
      </trkpt>
      <trkpt lat="42.842" lon="0.15238">
        <ele>2202.04</ele>
        <time>2009-03-15T12:05:42Z</time>
      </trkpt>
      <trkpt lat="42.84202" lon="0.15238">
        <ele>2202.04</ele>
        <time>2009-03-15T12:05:47Z</time>
      </trkpt>
      <trkpt lat="42.84198" lon="0.15241">
        <ele>2203</ele>
        <time>2009-03-15T12:05:56Z</time>
      </trkpt>
      <trkpt lat="42.84195" lon="0.15248">
        <ele>2203.48</ele>
        <time>2009-03-15T12:06:08Z</time>
      </trkpt>
      <trkpt lat="42.84193" lon="0.15256">
        <ele>2205.88</ele>
        <time>2009-03-15T12:06:21Z</time>
      </trkpt>
      <trkpt lat="42.8419" lon="0.15263">
        <ele>2207.32</ele>
        <time>2009-03-15T12:06:32Z</time>
      </trkpt>
      <trkpt lat="42.8419" lon="0.15263">
        <ele>2207.32</ele>
        <time>2009-03-15T12:06:50Z</time>
      </trkpt>
      <trkpt lat="42.8419" lon="0.15263">
        <ele>2207.81</ele>
        <time>2009-03-15T12:07:22Z</time>
      </trkpt>
      <trkpt lat="42.8419" lon="0.15264">
        <ele>2207.32</ele>
        <time>2009-03-15T12:08:08Z</time>
      </trkpt>
      <trkpt lat="42.8419" lon="0.15267">
        <ele>2208.29</ele>
        <time>2009-03-15T12:08:57Z</time>
      </trkpt>
      <trkpt lat="42.84191" lon="0.15267">
        <ele>2209.73</ele>
        <time>2009-03-15T12:09:05Z</time>
      </trkpt>
      <trkpt lat="42.84195" lon="0.15269">
        <ele>2210.69</ele>
        <time>2009-03-15T12:09:14Z</time>
      </trkpt>
      <trkpt lat="42.84196" lon="0.15273">
        <ele>2210.69</ele>
        <time>2009-03-15T12:09:20Z</time>
      </trkpt>
      <trkpt lat="42.84197" lon="0.15282">
        <ele>2213.57</ele>
        <time>2009-03-15T12:09:31Z</time>
      </trkpt>
      <trkpt lat="42.84197" lon="0.15287">
        <ele>2215.5</ele>
        <time>2009-03-15T12:09:39Z</time>
      </trkpt>
      <trkpt lat="42.84197" lon="0.1529">
        <ele>2215.01</ele>
        <time>2009-03-15T12:09:43Z</time>
      </trkpt>
      <trkpt lat="42.84198" lon="0.15301">
        <ele>2216.46</ele>
        <time>2009-03-15T12:09:54Z</time>
      </trkpt>
      <trkpt lat="42.84198" lon="0.15302">
        <ele>2216.46</ele>
        <time>2009-03-15T12:09:55Z</time>
      </trkpt>
      <trkpt lat="42.84195" lon="0.15317">
        <ele>2216.94</ele>
        <time>2009-03-15T12:10:09Z</time>
      </trkpt>
      <trkpt lat="42.84193" lon="0.15327">
        <ele>2216.94</ele>
        <time>2009-03-15T12:10:20Z</time>
      </trkpt>
      <trkpt lat="42.8419" lon="0.15337">
        <ele>2216.94</ele>
        <time>2009-03-15T12:10:28Z</time>
      </trkpt>
      <trkpt lat="42.84188" lon="0.15341">
        <ele>2215.5</ele>
        <time>2009-03-15T12:10:31Z</time>
      </trkpt>
      <trkpt lat="42.84181" lon="0.1536">
        <ele>2215.98</ele>
        <time>2009-03-15T12:10:46Z</time>
      </trkpt>
      <trkpt lat="42.84181" lon="0.15361">
        <ele>2215.98</ele>
        <time>2009-03-15T12:10:47Z</time>
      </trkpt>
      <trkpt lat="42.84178" lon="0.15365">
        <ele>2215.01</ele>
        <time>2009-03-15T12:10:51Z</time>
      </trkpt>
      <trkpt lat="42.8417" lon="0.15383">
        <ele>2211.65</ele>
        <time>2009-03-15T12:11:00Z</time>
      </trkpt>
      <trkpt lat="42.8417" lon="0.15385">
        <ele>2212.13</ele>
        <time>2009-03-15T12:11:01Z</time>
      </trkpt>
      <trkpt lat="42.8417" lon="0.15387">
        <ele>2212.61</ele>
        <time>2009-03-15T12:11:03Z</time>
      </trkpt>
      <trkpt lat="42.84167" lon="0.15395">
        <ele>2213.09</ele>
        <time>2009-03-15T12:11:12Z</time>
      </trkpt>
      <trkpt lat="42.84165" lon="0.15402">
        <ele>2212.61</ele>
        <time>2009-03-15T12:11:18Z</time>
      </trkpt>
      <trkpt lat="42.8416" lon="0.15417">
        <ele>2213.09</ele>
        <time>2009-03-15T12:11:32Z</time>
      </trkpt>
      <trkpt lat="42.84158" lon="0.15422">
        <ele>2214.05</ele>
        <time>2009-03-15T12:11:37Z</time>
      </trkpt>
      <trkpt lat="42.84156" lon="0.15431">
        <ele>2214.53</ele>
        <time>2009-03-15T12:11:48Z</time>
      </trkpt>
      <trkpt lat="42.84156" lon="0.15436">
        <ele>2215.5</ele>
        <time>2009-03-15T12:11:55Z</time>
      </trkpt>
      <trkpt lat="42.84158" lon="0.15442">
        <ele>2216.46</ele>
        <time>2009-03-15T12:12:05Z</time>
      </trkpt>
      <trkpt lat="42.84162" lon="0.15445">
        <ele>2217.9</ele>
        <time>2009-03-15T12:12:19Z</time>
      </trkpt>
      <trkpt lat="42.84166" lon="0.15444">
        <ele>2218.86</ele>
        <time>2009-03-15T12:12:31Z</time>
      </trkpt>
      <trkpt lat="42.84168" lon="0.15442">
        <ele>2220.3</ele>
        <time>2009-03-15T12:12:37Z</time>
      </trkpt>
      <trkpt lat="42.84173" lon="0.15436">
        <ele>2221.26</ele>
        <time>2009-03-15T12:12:48Z</time>
      </trkpt>
      <trkpt lat="42.84174" lon="0.15434">
        <ele>2222.71</ele>
        <time>2009-03-15T12:13:01Z</time>
      </trkpt>
      <trkpt lat="42.84176" lon="0.15435">
        <ele>2222.71</ele>
        <time>2009-03-15T12:13:12Z</time>
      </trkpt>
      <trkpt lat="42.84178" lon="0.15441">
        <ele>2223.19</ele>
        <time>2009-03-15T12:13:22Z</time>
      </trkpt>
      <trkpt lat="42.84181" lon="0.15452">
        <ele>2225.59</ele>
        <time>2009-03-15T12:13:36Z</time>
      </trkpt>
      <trkpt lat="42.84182" lon="0.15455">
        <ele>2227.03</ele>
        <time>2009-03-15T12:13:45Z</time>
      </trkpt>
      <trkpt lat="42.84184" lon="0.15461">
        <ele>2227.99</ele>
        <time>2009-03-15T12:14:01Z</time>
      </trkpt>
      <trkpt lat="42.84185" lon="0.15464">
        <ele>2228.47</ele>
        <time>2009-03-15T12:14:11Z</time>
      </trkpt>
      <trkpt lat="42.84185" lon="0.15464">
        <ele>2228.95</ele>
        <time>2009-03-15T12:14:42Z</time>
      </trkpt>
      <trkpt lat="42.84188" lon="0.15468">
        <ele>2230.4</ele>
        <time>2009-03-15T12:15:04Z</time>
      </trkpt>
      <trkpt lat="42.84192" lon="0.15474">
        <ele>2231.36</ele>
        <time>2009-03-15T12:15:14Z</time>
      </trkpt>
      <trkpt lat="42.84195" lon="0.1548">
        <ele>2232.8</ele>
        <time>2009-03-15T12:15:26Z</time>
      </trkpt>
      <trkpt lat="42.84197" lon="0.15485">
        <ele>2234.24</ele>
        <time>2009-03-15T12:15:31Z</time>
      </trkpt>
      <trkpt lat="42.842" lon="0.15493">
        <ele>2234.72</ele>
        <time>2009-03-15T12:15:43Z</time>
      </trkpt>
      <trkpt lat="42.84203" lon="0.155">
        <ele>2236.64</ele>
        <time>2009-03-15T12:15:57Z</time>
      </trkpt>
      <trkpt lat="42.84205" lon="0.1551">
        <ele>2238.57</ele>
        <time>2009-03-15T12:16:12Z</time>
      </trkpt>
      <trkpt lat="42.84209" lon="0.15519">
        <ele>2239.53</ele>
        <time>2009-03-15T12:16:24Z</time>
      </trkpt>
      <trkpt lat="42.84214" lon="0.15528">
        <ele>2240.01</ele>
        <time>2009-03-15T12:16:36Z</time>
      </trkpt>
      <trkpt lat="42.84216" lon="0.15537">
        <ele>2242.41</ele>
        <time>2009-03-15T12:16:50Z</time>
      </trkpt>
      <trkpt lat="42.84219" lon="0.15547">
        <ele>2242.89</ele>
        <time>2009-03-15T12:17:02Z</time>
      </trkpt>
      <trkpt lat="42.84219" lon="0.15556">
        <ele>2243.85</ele>
        <time>2009-03-15T12:17:14Z</time>
      </trkpt>
      <trkpt lat="42.84222" lon="0.15568">
        <ele>2245.78</ele>
        <time>2009-03-15T12:17:31Z</time>
      </trkpt>
      <trkpt lat="42.84224" lon="0.15572">
        <ele>2247.7</ele>
        <time>2009-03-15T12:17:42Z</time>
      </trkpt>
      <trkpt lat="42.84225" lon="0.15576">
        <ele>2249.14</ele>
        <time>2009-03-15T12:17:50Z</time>
      </trkpt>
      <trkpt lat="42.84226" lon="0.1558">
        <ele>2249.62</ele>
        <time>2009-03-15T12:18:00Z</time>
      </trkpt>
      <trkpt lat="42.84227" lon="0.15585">
        <ele>2250.58</ele>
        <time>2009-03-15T12:18:10Z</time>
      </trkpt>
      <trkpt lat="42.84226" lon="0.1559">
        <ele>2251.54</ele>
        <time>2009-03-15T12:18:20Z</time>
      </trkpt>
      <trkpt lat="42.84225" lon="0.15595">
        <ele>2252.51</ele>
        <time>2009-03-15T12:18:29Z</time>
      </trkpt>
      <trkpt lat="42.84223" lon="0.15606">
        <ele>2253.47</ele>
        <time>2009-03-15T12:18:40Z</time>
      </trkpt>
      <trkpt lat="42.84221" lon="0.15617">
        <ele>2253.95</ele>
        <time>2009-03-15T12:18:54Z</time>
      </trkpt>
      <trkpt lat="42.84222" lon="0.15625">
        <ele>2255.87</ele>
        <time>2009-03-15T12:19:05Z</time>
      </trkpt>
      <trkpt lat="42.84222" lon="0.15635">
        <ele>2255.87</ele>
        <time>2009-03-15T12:19:16Z</time>
      </trkpt>
      <trkpt lat="42.84224" lon="0.15644">
        <ele>2256.83</ele>
        <time>2009-03-15T12:19:28Z</time>
      </trkpt>
      <trkpt lat="42.84227" lon="0.15654">
        <ele>2258.75</ele>
        <time>2009-03-15T12:19:41Z</time>
      </trkpt>
      <trkpt lat="42.84228" lon="0.1566">
        <ele>2259.24</ele>
        <time>2009-03-15T12:19:52Z</time>
      </trkpt>
      <trkpt lat="42.84229" lon="0.15666">
        <ele>2260.2</ele>
        <time>2009-03-15T12:20:02Z</time>
      </trkpt>
      <trkpt lat="42.84229" lon="0.15671">
        <ele>2261.64</ele>
        <time>2009-03-15T12:20:12Z</time>
      </trkpt>
      <trkpt lat="42.8423" lon="0.15679">
        <ele>2262.12</ele>
        <time>2009-03-15T12:20:24Z</time>
      </trkpt>
      <trkpt lat="42.8423" lon="0.1568">
        <ele>2262.6</ele>
        <time>2009-03-15T12:20:39Z</time>
      </trkpt>
      <trkpt lat="42.8423" lon="0.1568">
        <ele>2263.56</ele>
        <time>2009-03-15T12:21:30Z</time>
      </trkpt>
      <trkpt lat="42.8423" lon="0.15682">
        <ele>2264.04</ele>
        <time>2009-03-15T12:21:56Z</time>
      </trkpt>
      <trkpt lat="42.84229" lon="0.15687">
        <ele>2264.52</ele>
        <time>2009-03-15T12:22:01Z</time>
      </trkpt>
      <trkpt lat="42.84227" lon="0.15698">
        <ele>2265</ele>
        <time>2009-03-15T12:22:11Z</time>
      </trkpt>
      <trkpt lat="42.84225" lon="0.15706">
        <ele>2265</ele>
        <time>2009-03-15T12:22:19Z</time>
      </trkpt>
      <trkpt lat="42.84224" lon="0.15713">
        <ele>2265</ele>
        <time>2009-03-15T12:22:29Z</time>
      </trkpt>
      <trkpt lat="42.84225" lon="0.1572">
        <ele>2265.48</ele>
        <time>2009-03-15T12:22:36Z</time>
      </trkpt>
      <trkpt lat="42.84227" lon="0.15726">
        <ele>2266.45</ele>
        <time>2009-03-15T12:22:44Z</time>
      </trkpt>
      <trkpt lat="42.84229" lon="0.15729">
        <ele>2267.89</ele>
        <time>2009-03-15T12:22:51Z</time>
      </trkpt>
      <trkpt lat="42.84233" lon="0.15733">
        <ele>2267.89</ele>
        <time>2009-03-15T12:23:04Z</time>
      </trkpt>
      <trkpt lat="42.84238" lon="0.15738">
        <ele>2269.33</ele>
        <time>2009-03-15T12:23:16Z</time>
      </trkpt>
      <trkpt lat="42.8424" lon="0.15741">
        <ele>2270.77</ele>
        <time>2009-03-15T12:23:31Z</time>
      </trkpt>
      <trkpt lat="42.84241" lon="0.15742">
        <ele>2270.77</ele>
        <time>2009-03-15T12:23:50Z</time>
      </trkpt>
      <trkpt lat="42.84241" lon="0.15742">
        <ele>2270.77</ele>
        <time>2009-03-15T12:24:03Z</time>
      </trkpt>
      <trkpt lat="42.84246" lon="0.15748">
        <ele>2272.21</ele>
        <time>2009-03-15T12:24:16Z</time>
      </trkpt>
      <trkpt lat="42.84251" lon="0.15759">
        <ele>2273.66</ele>
        <time>2009-03-15T12:24:28Z</time>
      </trkpt>
      <trkpt lat="42.84253" lon="0.15766">
        <ele>2275.1</ele>
        <time>2009-03-15T12:24:41Z</time>
      </trkpt>
      <trkpt lat="42.84255" lon="0.15776">
        <ele>2276.06</ele>
        <time>2009-03-15T12:24:51Z</time>
      </trkpt>
      <trkpt lat="42.84258" lon="0.15781">
        <ele>2277.98</ele>
        <time>2009-03-15T12:25:05Z</time>
      </trkpt>
      <trkpt lat="42.84256" lon="0.15788">
        <ele>2278.94</ele>
        <time>2009-03-15T12:25:24Z</time>
      </trkpt>
      <trkpt lat="42.84255" lon="0.15796">
        <ele>2279.9</ele>
        <time>2009-03-15T12:25:33Z</time>
      </trkpt>
      <trkpt lat="42.84255" lon="0.15797">
        <ele>2280.38</ele>
        <time>2009-03-15T12:25:52Z</time>
      </trkpt>
      <trkpt lat="42.84254" lon="0.15798">
        <ele>2280.87</ele>
        <time>2009-03-15T12:26:17Z</time>
      </trkpt>
      <trkpt lat="42.84254" lon="0.15798">
        <ele>2279.9</ele>
        <time>2009-03-15T12:26:56Z</time>
      </trkpt>
      <trkpt lat="42.84249" lon="0.1581">
        <ele>2281.35</ele>
        <time>2009-03-15T12:27:09Z</time>
      </trkpt>
      <trkpt lat="42.84247" lon="0.15816">
        <ele>2280.87</ele>
        <time>2009-03-15T12:27:17Z</time>
      </trkpt>
      <trkpt lat="42.84245" lon="0.15822">
        <ele>2282.31</ele>
        <time>2009-03-15T12:27:36Z</time>
      </trkpt>
      <trkpt lat="42.84244" lon="0.15827">
        <ele>2283.27</ele>
        <time>2009-03-15T12:27:43Z</time>
      </trkpt>
      <trkpt lat="42.84246" lon="0.15828">
        <ele>2284.23</ele>
        <time>2009-03-15T12:27:55Z</time>
      </trkpt>
      <trkpt lat="42.84248" lon="0.15825">
        <ele>2285.19</ele>
        <time>2009-03-15T12:28:10Z</time>
      </trkpt>
      <trkpt lat="42.84248" lon="0.15824">
        <ele>2284.23</ele>
        <time>2009-03-15T12:28:18Z</time>
      </trkpt>
      <trkpt lat="42.84248" lon="0.15823">
        <ele>2286.15</ele>
        <time>2009-03-15T12:28:30Z</time>
      </trkpt>
      <trkpt lat="42.84249" lon="0.15822">
        <ele>2286.15</ele>
        <time>2009-03-15T12:28:42Z</time>
      </trkpt>
      <trkpt lat="42.84252" lon="0.15821">
        <ele>2286.63</ele>
        <time>2009-03-15T12:28:50Z</time>
      </trkpt>
      <trkpt lat="42.84253" lon="0.15821">
        <ele>2287.59</ele>
        <time>2009-03-15T12:29:00Z</time>
      </trkpt>
      <trkpt lat="42.84251" lon="0.15829">
        <ele>2289.04</ele>
        <time>2009-03-15T12:29:11Z</time>
      </trkpt>
      <trkpt lat="42.8425" lon="0.1584">
        <ele>2290.96</ele>
        <time>2009-03-15T12:29:24Z</time>
      </trkpt>
      <trkpt lat="42.84251" lon="0.15844">
        <ele>2290.96</ele>
        <time>2009-03-15T12:29:29Z</time>
      </trkpt>
      <trkpt lat="42.84254" lon="0.15852">
        <ele>2293.36</ele>
        <time>2009-03-15T12:29:41Z</time>
      </trkpt>
      <trkpt lat="42.84256" lon="0.15861">
        <ele>2294.32</ele>
        <time>2009-03-15T12:29:54Z</time>
      </trkpt>
      <trkpt lat="42.84258" lon="0.15868">
        <ele>2295.77</ele>
        <time>2009-03-15T12:30:05Z</time>
      </trkpt>
      <trkpt lat="42.84261" lon="0.15875">
        <ele>2297.21</ele>
        <time>2009-03-15T12:30:18Z</time>
      </trkpt>
      <trkpt lat="42.84263" lon="0.15882">
        <ele>2298.17</ele>
        <time>2009-03-15T12:30:30Z</time>
      </trkpt>
      <trkpt lat="42.84264" lon="0.15887">
        <ele>2299.13</ele>
        <time>2009-03-15T12:30:40Z</time>
      </trkpt>
      <trkpt lat="42.84265" lon="0.15894">
        <ele>2300.57</ele>
        <time>2009-03-15T12:30:51Z</time>
      </trkpt>
      <trkpt lat="42.84265" lon="0.15896">
        <ele>2302.01</ele>
        <time>2009-03-15T12:31:04Z</time>
      </trkpt>
      <trkpt lat="42.84266" lon="0.15902">
        <ele>2302.98</ele>
        <time>2009-03-15T12:31:17Z</time>
      </trkpt>
      <trkpt lat="42.84267" lon="0.15906">
        <ele>2304.42</ele>
        <time>2009-03-15T12:31:32Z</time>
      </trkpt>
      <trkpt lat="42.84267" lon="0.15917">
        <ele>2305.86</ele>
        <time>2009-03-15T12:31:45Z</time>
      </trkpt>
      <trkpt lat="42.84267" lon="0.15928">
        <ele>2307.3</ele>
        <time>2009-03-15T12:31:58Z</time>
      </trkpt>
      <trkpt lat="42.84266" lon="0.15933">
        <ele>2308.26</ele>
        <time>2009-03-15T12:32:08Z</time>
      </trkpt>
      <trkpt lat="42.84264" lon="0.15938">
        <ele>2309.22</ele>
        <time>2009-03-15T12:32:18Z</time>
      </trkpt>
      <trkpt lat="42.84263" lon="0.15943">
        <ele>2309.22</ele>
        <time>2009-03-15T12:32:32Z</time>
      </trkpt>
      <trkpt lat="42.84261" lon="0.15946">
        <ele>2310.19</ele>
        <time>2009-03-15T12:32:54Z</time>
      </trkpt>
      <trkpt lat="42.84264" lon="0.15944">
        <ele>2311.15</ele>
        <time>2009-03-15T12:33:04Z</time>
      </trkpt>
      <trkpt lat="42.84269" lon="0.15941">
        <ele>2312.11</ele>
        <time>2009-03-15T12:33:14Z</time>
      </trkpt>
      <trkpt lat="42.84275" lon="0.15933">
        <ele>2314.03</ele>
        <time>2009-03-15T12:33:26Z</time>
      </trkpt>
      <trkpt lat="42.84277" lon="0.15931">
        <ele>2314.99</ele>
        <time>2009-03-15T12:33:38Z</time>
      </trkpt>
      <trkpt lat="42.84279" lon="0.15927">
        <ele>2314.51</ele>
        <time>2009-03-15T12:33:49Z</time>
      </trkpt>
      <trkpt lat="42.84282" lon="0.1592">
        <ele>2316.91</ele>
        <time>2009-03-15T12:33:58Z</time>
      </trkpt>
      <trkpt lat="42.84284" lon="0.15917">
        <ele>2317.88</ele>
        <time>2009-03-15T12:34:04Z</time>
      </trkpt>
      <trkpt lat="42.84285" lon="0.15915">
        <ele>2317.88</ele>
        <time>2009-03-15T12:34:06Z</time>
      </trkpt>
      <trkpt lat="42.84287" lon="0.1591">
        <ele>2319.32</ele>
        <time>2009-03-15T12:34:17Z</time>
      </trkpt>
      <trkpt lat="42.84287" lon="0.15909">
        <ele>2319.32</ele>
        <time>2009-03-15T12:34:32Z</time>
      </trkpt>
      <trkpt lat="42.84288" lon="0.15908">
        <ele>2319.32</ele>
        <time>2009-03-15T12:34:35Z</time>
      </trkpt>
      <trkpt lat="42.84289" lon="0.15905">
        <ele>2320.76</ele>
        <time>2009-03-15T12:34:45Z</time>
      </trkpt>
      <trkpt lat="42.8429" lon="0.15907">
        <ele>2320.76</ele>
        <time>2009-03-15T12:34:54Z</time>
      </trkpt>
      <trkpt lat="42.84292" lon="0.15913">
        <ele>2322.2</ele>
        <time>2009-03-15T12:35:08Z</time>
      </trkpt>
      <trkpt lat="42.84293" lon="0.15913">
        <ele>2323.64</ele>
        <time>2009-03-15T12:35:19Z</time>
      </trkpt>
      <trkpt lat="42.84296" lon="0.15904">
        <ele>2324.61</ele>
        <time>2009-03-15T12:35:31Z</time>
      </trkpt>
      <trkpt lat="42.84297" lon="0.15902">
        <ele>2326.05</ele>
        <time>2009-03-15T12:35:43Z</time>
      </trkpt>
      <trkpt lat="42.84297" lon="0.15901">
        <ele>2327.01</ele>
        <time>2009-03-15T12:35:57Z</time>
      </trkpt>
      <trkpt lat="42.84297" lon="0.15901">
        <ele>2327.01</ele>
        <time>2009-03-15T12:36:18Z</time>
      </trkpt>
      <trkpt lat="42.84296" lon="0.15898">
        <ele>2327.97</ele>
        <time>2009-03-15T12:36:30Z</time>
      </trkpt>
      <trkpt lat="42.84302" lon="0.15902">
        <ele>2328.93</ele>
        <time>2009-03-15T12:36:40Z</time>
      </trkpt>
      <trkpt lat="42.84304" lon="0.15907">
        <ele>2330.37</ele>
        <time>2009-03-15T12:36:55Z</time>
      </trkpt>
      <trkpt lat="42.84304" lon="0.15907">
        <ele>2330.37</ele>
        <time>2009-03-15T12:37:04Z</time>
      </trkpt>
      <trkpt lat="42.84305" lon="0.15905">
        <ele>2331.81</ele>
        <time>2009-03-15T12:37:09Z</time>
      </trkpt>
      <trkpt lat="42.84307" lon="0.15894">
        <ele>2333.74</ele>
        <time>2009-03-15T12:37:21Z</time>
      </trkpt>
      <trkpt lat="42.84308" lon="0.15886">
        <ele>2336.14</ele>
        <time>2009-03-15T12:37:32Z</time>
      </trkpt>
      <trkpt lat="42.84309" lon="0.15883">
        <ele>2337.1</ele>
        <time>2009-03-15T12:37:47Z</time>
      </trkpt>
      <trkpt lat="42.84311" lon="0.15877">
        <ele>2338.06</ele>
        <time>2009-03-15T12:37:59Z</time>
      </trkpt>
      <trkpt lat="42.84315" lon="0.15871">
        <ele>2338.54</ele>
        <time>2009-03-15T12:38:08Z</time>
      </trkpt>
      <trkpt lat="42.84319" lon="0.15869">
        <ele>2340.47</ele>
        <time>2009-03-15T12:38:21Z</time>
      </trkpt>
      <trkpt lat="42.84323" lon="0.15873">
        <ele>2341.91</ele>
        <time>2009-03-15T12:38:32Z</time>
      </trkpt>
      <trkpt lat="42.84326" lon="0.15878">
        <ele>2343.35</ele>
        <time>2009-03-15T12:38:44Z</time>
      </trkpt>
      <trkpt lat="42.8433" lon="0.15884">
        <ele>2344.79</ele>
        <time>2009-03-15T12:38:55Z</time>
      </trkpt>
      <trkpt lat="42.84333" lon="0.15889">
        <ele>2345.75</ele>
        <time>2009-03-15T12:39:06Z</time>
      </trkpt>
      <trkpt lat="42.84336" lon="0.15896">
        <ele>2346.72</ele>
        <time>2009-03-15T12:39:17Z</time>
      </trkpt>
      <trkpt lat="42.84338" lon="0.15901">
        <ele>2348.16</ele>
        <time>2009-03-15T12:39:27Z</time>
      </trkpt>
      <trkpt lat="42.84338" lon="0.15906">
        <ele>2349.12</ele>
        <time>2009-03-15T12:39:37Z</time>
      </trkpt>
      <trkpt lat="42.84337" lon="0.1591">
        <ele>2350.08</ele>
        <time>2009-03-15T12:39:51Z</time>
      </trkpt>
      <trkpt lat="42.84336" lon="0.15913">
        <ele>2351.04</ele>
        <time>2009-03-15T12:40:04Z</time>
      </trkpt>
      <trkpt lat="42.84339" lon="0.15916">
        <ele>2352</ele>
        <time>2009-03-15T12:40:16Z</time>
      </trkpt>
      <trkpt lat="42.84342" lon="0.15913">
        <ele>2353.44</ele>
        <time>2009-03-15T12:40:26Z</time>
      </trkpt>
      <trkpt lat="42.84346" lon="0.15909">
        <ele>2354.41</ele>
        <time>2009-03-15T12:40:38Z</time>
      </trkpt>
      <trkpt lat="42.84349" lon="0.15908">
        <ele>2356.81</ele>
        <time>2009-03-15T12:40:47Z</time>
      </trkpt>
      <trkpt lat="42.84351" lon="0.15912">
        <ele>2356.81</ele>
        <time>2009-03-15T12:41:06Z</time>
      </trkpt>
      <trkpt lat="42.84354" lon="0.15918">
        <ele>2358.73</ele>
        <time>2009-03-15T12:41:16Z</time>
      </trkpt>
      <trkpt lat="42.84357" lon="0.15925">
        <ele>2359.21</ele>
        <time>2009-03-15T12:41:27Z</time>
      </trkpt>
      <trkpt lat="42.84356" lon="0.15933">
        <ele>2360.17</ele>
        <time>2009-03-15T12:41:39Z</time>
      </trkpt>
      <trkpt lat="42.84356" lon="0.15937">
        <ele>2361.14</ele>
        <time>2009-03-15T12:41:48Z</time>
      </trkpt>
      <trkpt lat="42.84357" lon="0.15948">
        <ele>2362.58</ele>
        <time>2009-03-15T12:41:59Z</time>
      </trkpt>
      <trkpt lat="42.84357" lon="0.15949">
        <ele>2362.58</ele>
        <time>2009-03-15T12:42:14Z</time>
      </trkpt>
      <trkpt lat="42.84357" lon="0.15949">
        <ele>2362.1</ele>
        <time>2009-03-15T12:42:23Z</time>
      </trkpt>
      <trkpt lat="42.84363" lon="0.15957">
        <ele>2364.5</ele>
        <time>2009-03-15T12:42:35Z</time>
      </trkpt>
      <trkpt lat="42.84367" lon="0.15961">
        <ele>2364.5</ele>
        <time>2009-03-15T12:42:45Z</time>
      </trkpt>
      <trkpt lat="42.84371" lon="0.15967">
        <ele>2366.42</ele>
        <time>2009-03-15T12:42:57Z</time>
      </trkpt>
      <trkpt lat="42.84375" lon="0.1597">
        <ele>2367.86</ele>
        <time>2009-03-15T12:43:06Z</time>
      </trkpt>
      <trkpt lat="42.84381" lon="0.15971">
        <ele>2369.79</ele>
        <time>2009-03-15T12:43:17Z</time>
      </trkpt>
      <trkpt lat="42.84386" lon="0.15974">
        <ele>2372.19</ele>
        <time>2009-03-15T12:43:27Z</time>
      </trkpt>
      <trkpt lat="42.8439" lon="0.15977">
        <ele>2375.55</ele>
        <time>2009-03-15T12:43:39Z</time>
      </trkpt>
      <trkpt lat="42.84395" lon="0.15982">
        <ele>2377</ele>
        <time>2009-03-15T12:43:47Z</time>
      </trkpt>
      <trkpt lat="42.84399" lon="0.15988">
        <ele>2378.92</ele>
        <time>2009-03-15T12:43:59Z</time>
      </trkpt>
      <trkpt lat="42.84407" lon="0.15995">
        <ele>2380.36</ele>
        <time>2009-03-15T12:44:13Z</time>
      </trkpt>
      <trkpt lat="42.84414" lon="0.16002">
        <ele>2381.32</ele>
        <time>2009-03-15T12:44:24Z</time>
      </trkpt>
      <trkpt lat="42.84419" lon="0.16015">
        <ele>2381.8</ele>
        <time>2009-03-15T12:44:36Z</time>
      </trkpt>
      <trkpt lat="42.84422" lon="0.16026">
        <ele>2382.28</ele>
        <time>2009-03-15T12:44:47Z</time>
      </trkpt>
      <trkpt lat="42.84423" lon="0.1603">
        <ele>2382.28</ele>
        <time>2009-03-15T12:45:00Z</time>
      </trkpt>
      <trkpt lat="42.84423" lon="0.1603">
        <ele>2382.28</ele>
        <time>2009-03-15T12:45:14Z</time>
      </trkpt>
      <trkpt lat="42.84423" lon="0.1603">
        <ele>2382.28</ele>
        <time>2009-03-15T12:45:19Z</time>
      </trkpt>
      <trkpt lat="42.84423" lon="0.16031">
        <ele>2380.84</ele>
        <time>2009-03-15T12:45:30Z</time>
      </trkpt>
      <trkpt lat="42.84423" lon="0.16031">
        <ele>2380.84</ele>
        <time>2009-03-15T12:46:06Z</time>
      </trkpt>
      <trkpt lat="42.84423" lon="0.16031">
        <ele>2385.65</ele>
        <time>2009-03-15T12:47:54Z</time>
      </trkpt>
      <trkpt lat="42.84424" lon="0.1603">
        <ele>2385.65</ele>
        <time>2009-03-15T12:47:55Z</time>
      </trkpt>
      <trkpt lat="42.84424" lon="0.1603">
        <ele>2381.8</ele>
        <time>2009-03-15T12:47:56Z</time>
      </trkpt>
      <trkpt lat="42.84424" lon="0.1603">
        <ele>2380.84</ele>
        <time>2009-03-15T12:47:58Z</time>
      </trkpt>
      <trkpt lat="42.84423" lon="0.1603">
        <ele>2380.84</ele>
        <time>2009-03-15T12:48:46Z</time>
      </trkpt>
      <trkpt lat="42.84423" lon="0.1603">
        <ele>2380.84</ele>
        <time>2009-03-15T12:49:22Z</time>
      </trkpt>
      <trkpt lat="42.84423" lon="0.1603">
        <ele>2380.36</ele>
        <time>2009-03-15T12:50:01Z</time>
      </trkpt>
      <trkpt lat="42.84424" lon="0.1603">
        <ele>2380.36</ele>
        <time>2009-03-15T12:50:48Z</time>
      </trkpt>
      <trkpt lat="42.84423" lon="0.16031">
        <ele>2380.36</ele>
        <time>2009-03-15T12:53:19Z</time>
      </trkpt>
      <trkpt lat="42.84423" lon="0.16031">
        <ele>2378.92</ele>
        <time>2009-03-15T12:57:20Z</time>
      </trkpt>
      <trkpt lat="42.84424" lon="0.1603">
        <ele>2379.88</ele>
        <time>2009-03-15T12:57:32Z</time>
      </trkpt>
      <trkpt lat="42.84424" lon="0.16029">
        <ele>2378.92</ele>
        <time>2009-03-15T12:58:46Z</time>
      </trkpt>
      <trkpt lat="42.84424" lon="0.16029">
        <ele>2379.4</ele>
        <time>2009-03-15T12:59:04Z</time>
      </trkpt>
      <trkpt lat="42.84424" lon="0.1603">
        <ele>2379.4</ele>
        <time>2009-03-15T13:01:29Z</time>
      </trkpt>
      <trkpt lat="42.84424" lon="0.1603">
        <ele>2380.36</ele>
        <time>2009-03-15T13:01:37Z</time>
      </trkpt>
      <trkpt lat="42.84424" lon="0.1603">
        <ele>2380.36</ele>
        <time>2009-03-15T13:01:54Z</time>
      </trkpt>
      <trkpt lat="42.84424" lon="0.1603">
        <ele>2380.84</ele>
        <time>2009-03-15T13:02:07Z</time>
      </trkpt>
      <trkpt lat="42.84424" lon="0.1603">
        <ele>2380.84</ele>
        <time>2009-03-15T13:02:18Z</time>
      </trkpt>
      <trkpt lat="42.84431" lon="0.16042">
        <ele>2379.88</ele>
        <time>2009-03-15T13:02:24Z</time>
      </trkpt>
      <trkpt lat="42.84433" lon="0.16048">
        <ele>2378.44</ele>
        <time>2009-03-15T13:02:25Z</time>
      </trkpt>
      <trkpt lat="42.84437" lon="0.1605">
        <ele>2376.04</ele>
        <time>2009-03-15T13:02:26Z</time>
      </trkpt>
      <trkpt lat="42.84443" lon="0.16049">
        <ele>2375.07</ele>
        <time>2009-03-15T13:02:27Z</time>
      </trkpt>
      <trkpt lat="42.84447" lon="0.1605">
        <ele>2373.15</ele>
        <time>2009-03-15T13:02:28Z</time>
      </trkpt>
      <trkpt lat="42.8445" lon="0.16057">
        <ele>2371.23</ele>
        <time>2009-03-15T13:02:29Z</time>
      </trkpt>
      <trkpt lat="42.84454" lon="0.16081">
        <ele>2366.9</ele>
        <time>2009-03-15T13:02:32Z</time>
      </trkpt>
      <trkpt lat="42.84457" lon="0.16101">
        <ele>2363.06</ele>
        <time>2009-03-15T13:02:34Z</time>
      </trkpt>
      <trkpt lat="42.84459" lon="0.16132">
        <ele>2359.69</ele>
        <time>2009-03-15T13:02:37Z</time>
      </trkpt>
      <trkpt lat="42.84461" lon="0.16157">
        <ele>2355.85</ele>
        <time>2009-03-15T13:02:40Z</time>
      </trkpt>
      <trkpt lat="42.84461" lon="0.16176">
        <ele>2353.93</ele>
        <time>2009-03-15T13:02:43Z</time>
      </trkpt>
      <trkpt lat="42.8446" lon="0.16192">
        <ele>2352.48</ele>
        <time>2009-03-15T13:02:46Z</time>
      </trkpt>
      <trkpt lat="42.84458" lon="0.16197">
        <ele>2352</ele>
        <time>2009-03-15T13:02:56Z</time>
      </trkpt>
      <trkpt lat="42.84458" lon="0.16197">
        <ele>2352</ele>
        <time>2009-03-15T13:02:58Z</time>
      </trkpt>
      <trkpt lat="42.84459" lon="0.16199">
        <ele>2351.52</ele>
        <time>2009-03-15T13:03:07Z</time>
      </trkpt>
      <trkpt lat="42.84458" lon="0.16204">
        <ele>2351.04</ele>
        <time>2009-03-15T13:03:16Z</time>
      </trkpt>
      <trkpt lat="42.84457" lon="0.16207">
        <ele>2351.04</ele>
        <time>2009-03-15T13:03:28Z</time>
      </trkpt>
      <trkpt lat="42.84456" lon="0.16207">
        <ele>2350.56</ele>
        <time>2009-03-15T13:03:57Z</time>
      </trkpt>
      <trkpt lat="42.84457" lon="0.16207">
        <ele>2350.56</ele>
        <time>2009-03-15T13:04:12Z</time>
      </trkpt>
      <trkpt lat="42.84457" lon="0.16207">
        <ele>2351.52</ele>
        <time>2009-03-15T13:04:23Z</time>
      </trkpt>
      <trkpt lat="42.84457" lon="0.16207">
        <ele>2351.04</ele>
        <time>2009-03-15T13:04:55Z</time>
      </trkpt>
      <trkpt lat="42.84457" lon="0.16207">
        <ele>2351.52</ele>
        <time>2009-03-15T13:05:21Z</time>
      </trkpt>
      <trkpt lat="42.84454" lon="0.16207">
        <ele>2350.56</ele>
        <time>2009-03-15T13:05:29Z</time>
      </trkpt>
      <trkpt lat="42.84453" lon="0.16207">
        <ele>2350.08</ele>
        <time>2009-03-15T13:05:46Z</time>
      </trkpt>
      <trkpt lat="42.84455" lon="0.16206">
        <ele>2349.12</ele>
        <time>2009-03-15T13:11:46Z</time>
      </trkpt>
      <trkpt lat="42.84455" lon="0.16206">
        <ele>2351.04</ele>
        <time>2009-03-15T13:11:53Z</time>
      </trkpt>
      <trkpt lat="42.84455" lon="0.16207">
        <ele>2346.23</ele>
        <time>2009-03-15T13:11:56Z</time>
      </trkpt>
      <trkpt lat="42.84455" lon="0.16207">
        <ele>2348.64</ele>
        <time>2009-03-15T13:11:57Z</time>
      </trkpt>
      <trkpt lat="42.84455" lon="0.16207">
        <ele>2349.6</ele>
        <time>2009-03-15T13:11:59Z</time>
      </trkpt>
      <trkpt lat="42.84455" lon="0.16207">
        <ele>2350.08</ele>
        <time>2009-03-15T13:12:15Z</time>
      </trkpt>
      <trkpt lat="42.84456" lon="0.16207">
        <ele>2351.04</ele>
        <time>2009-03-15T13:12:28Z</time>
      </trkpt>
      <trkpt lat="42.84456" lon="0.16209">
        <ele>2350.08</ele>
        <time>2009-03-15T13:12:46Z</time>
      </trkpt>
      <trkpt lat="42.84455" lon="0.16224">
        <ele>2349.6</ele>
        <time>2009-03-15T13:12:55Z</time>
      </trkpt>
      <trkpt lat="42.84453" lon="0.16259">
        <ele>2346.23</ele>
        <time>2009-03-15T13:13:03Z</time>
      </trkpt>
      <trkpt lat="42.8445" lon="0.1629">
        <ele>2342.87</ele>
        <time>2009-03-15T13:13:07Z</time>
      </trkpt>
      <trkpt lat="42.84449" lon="0.16324">
        <ele>2339.99</ele>
        <time>2009-03-15T13:13:11Z</time>
      </trkpt>
      <trkpt lat="42.8445" lon="0.16356">
        <ele>2336.62</ele>
        <time>2009-03-15T13:13:16Z</time>
      </trkpt>
      <trkpt lat="42.84451" lon="0.16385">
        <ele>2333.74</ele>
        <time>2009-03-15T13:13:20Z</time>
      </trkpt>
      <trkpt lat="42.8445" lon="0.16411">
        <ele>2331.33</ele>
        <time>2009-03-15T13:13:25Z</time>
      </trkpt>
      <trkpt lat="42.84451" lon="0.16442">
        <ele>2328.45</ele>
        <time>2009-03-15T13:13:29Z</time>
      </trkpt>
      <trkpt lat="42.84447" lon="0.16482">
        <ele>2322.68</ele>
        <time>2009-03-15T13:13:33Z</time>
      </trkpt>
      <trkpt lat="42.84447" lon="0.16512">
        <ele>2318.84</ele>
        <time>2009-03-15T13:13:36Z</time>
      </trkpt>
      <trkpt lat="42.84444" lon="0.16556">
        <ele>2314.51</ele>
        <time>2009-03-15T13:13:40Z</time>
      </trkpt>
      <trkpt lat="42.84443" lon="0.16582">
        <ele>2312.11</ele>
        <time>2009-03-15T13:13:43Z</time>
      </trkpt>
      <trkpt lat="42.84444" lon="0.16597">
        <ele>2311.15</ele>
        <time>2009-03-15T13:13:45Z</time>
      </trkpt>
      <trkpt lat="42.84445" lon="0.1661">
        <ele>2309.7</ele>
        <time>2009-03-15T13:13:47Z</time>
      </trkpt>
      <trkpt lat="42.84447" lon="0.16652">
        <ele>2306.34</ele>
        <time>2009-03-15T13:13:52Z</time>
      </trkpt>
      <trkpt lat="42.84449" lon="0.16679">
        <ele>2302.98</ele>
        <time>2009-03-15T13:13:55Z</time>
      </trkpt>
      <trkpt lat="42.8445" lon="0.16689">
        <ele>2302.01</ele>
        <time>2009-03-15T13:13:56Z</time>
      </trkpt>
      <trkpt lat="42.84447" lon="0.16713">
        <ele>2299.13</ele>
        <time>2009-03-15T13:13:59Z</time>
      </trkpt>
      <trkpt lat="42.84448" lon="0.16719">
        <ele>2297.69</ele>
        <time>2009-03-15T13:14:10Z</time>
      </trkpt>
      <trkpt lat="42.84449" lon="0.1672">
        <ele>2298.65</ele>
        <time>2009-03-15T13:14:23Z</time>
      </trkpt>
      <trkpt lat="42.8445" lon="0.16743">
        <ele>2295.28</ele>
        <time>2009-03-15T13:14:29Z</time>
      </trkpt>
      <trkpt lat="42.84449" lon="0.16759">
        <ele>2292.4</ele>
        <time>2009-03-15T13:14:31Z</time>
      </trkpt>
      <trkpt lat="42.84448" lon="0.16786">
        <ele>2289.04</ele>
        <time>2009-03-15T13:14:34Z</time>
      </trkpt>
      <trkpt lat="42.84447" lon="0.16805">
        <ele>2285.67</ele>
        <time>2009-03-15T13:14:36Z</time>
      </trkpt>
      <trkpt lat="42.84448" lon="0.16821">
        <ele>2284.71</ele>
        <time>2009-03-15T13:14:38Z</time>
      </trkpt>
      <trkpt lat="42.84447" lon="0.16839">
        <ele>2279.9</ele>
        <time>2009-03-15T13:14:40Z</time>
      </trkpt>
      <trkpt lat="42.84437" lon="0.16865">
        <ele>2277.02</ele>
        <time>2009-03-15T13:14:43Z</time>
      </trkpt>
      <trkpt lat="42.84426" lon="0.16902">
        <ele>2273.17</ele>
        <time>2009-03-15T13:14:48Z</time>
      </trkpt>
      <trkpt lat="42.84423" lon="0.16932">
        <ele>2269.33</ele>
        <time>2009-03-15T13:14:53Z</time>
      </trkpt>
      <trkpt lat="42.84429" lon="0.16944">
        <ele>2266.45</ele>
        <time>2009-03-15T13:14:55Z</time>
      </trkpt>
      <trkpt lat="42.84434" lon="0.16967">
        <ele>2263.08</ele>
        <time>2009-03-15T13:14:57Z</time>
      </trkpt>
      <trkpt lat="42.84439" lon="0.17004">
        <ele>2257.79</ele>
        <time>2009-03-15T13:15:01Z</time>
      </trkpt>
      <trkpt lat="42.84439" lon="0.17008">
        <ele>2257.31</ele>
        <time>2009-03-15T13:15:02Z</time>
      </trkpt>
      <trkpt lat="42.84436" lon="0.17019">
        <ele>2256.83</ele>
        <time>2009-03-15T13:15:06Z</time>
      </trkpt>
      <trkpt lat="42.84425" lon="0.17031">
        <ele>2254.43</ele>
        <time>2009-03-15T13:15:10Z</time>
      </trkpt>
      <trkpt lat="42.84408" lon="0.17057">
        <ele>2251.06</ele>
        <time>2009-03-15T13:15:15Z</time>
      </trkpt>
      <trkpt lat="42.84402" lon="0.17068">
        <ele>2250.58</ele>
        <time>2009-03-15T13:15:17Z</time>
      </trkpt>
      <trkpt lat="42.844" lon="0.17086">
        <ele>2248.18</ele>
        <time>2009-03-15T13:15:20Z</time>
      </trkpt>
      <trkpt lat="42.84409" lon="0.17091">
        <ele>2244.82</ele>
        <time>2009-03-15T13:15:23Z</time>
      </trkpt>
      <trkpt lat="42.84412" lon="0.17105">
        <ele>2239.53</ele>
        <time>2009-03-15T13:15:27Z</time>
      </trkpt>
      <trkpt lat="42.84407" lon="0.1712">
        <ele>2236.64</ele>
        <time>2009-03-15T13:15:29Z</time>
      </trkpt>
      <trkpt lat="42.84407" lon="0.17136">
        <ele>2232.32</ele>
        <time>2009-03-15T13:15:32Z</time>
      </trkpt>
      <trkpt lat="42.84407" lon="0.17154">
        <ele>2229.43</ele>
        <time>2009-03-15T13:15:34Z</time>
      </trkpt>
      <trkpt lat="42.84404" lon="0.17162">
        <ele>2225.59</ele>
        <time>2009-03-15T13:15:35Z</time>
      </trkpt>
      <trkpt lat="42.84402" lon="0.17181">
        <ele>2222.22</ele>
        <time>2009-03-15T13:15:38Z</time>
      </trkpt>
      <trkpt lat="42.84404" lon="0.17185">
        <ele>2217.9</ele>
        <time>2009-03-15T13:15:40Z</time>
      </trkpt>
      <trkpt lat="42.84405" lon="0.17185">
        <ele>2217.9</ele>
        <time>2009-03-15T13:15:41Z</time>
      </trkpt>
      <trkpt lat="42.84405" lon="0.17184">
        <ele>2217.42</ele>
        <time>2009-03-15T13:15:51Z</time>
      </trkpt>
      <trkpt lat="42.84405" lon="0.17184">
        <ele>2217.9</ele>
        <time>2009-03-15T13:16:26Z</time>
      </trkpt>
      <trkpt lat="42.84406" lon="0.17185">
        <ele>2218.38</ele>
        <time>2009-03-15T13:16:30Z</time>
      </trkpt>
      <trkpt lat="42.84403" lon="0.17209">
        <ele>2213.57</ele>
        <time>2009-03-15T13:16:34Z</time>
      </trkpt>
      <trkpt lat="42.84399" lon="0.17226">
        <ele>2209.73</ele>
        <time>2009-03-15T13:16:36Z</time>
      </trkpt>
      <trkpt lat="42.84392" lon="0.17241">
        <ele>2207.32</ele>
        <time>2009-03-15T13:16:38Z</time>
      </trkpt>
      <trkpt lat="42.84375" lon="0.1727">
        <ele>2204.44</ele>
        <time>2009-03-15T13:16:43Z</time>
      </trkpt>
      <trkpt lat="42.8437" lon="0.1728">
        <ele>2203</ele>
        <time>2009-03-15T13:16:45Z</time>
      </trkpt>
      <trkpt lat="42.84351" lon="0.17298">
        <ele>2199.15</ele>
        <time>2009-03-15T13:16:53Z</time>
      </trkpt>
      <trkpt lat="42.84349" lon="0.17298">
        <ele>2199.15</ele>
        <time>2009-03-15T13:16:55Z</time>
      </trkpt>
      <trkpt lat="42.84334" lon="0.17296">
        <ele>2197.23</ele>
        <time>2009-03-15T13:17:00Z</time>
      </trkpt>
      <trkpt lat="42.84325" lon="0.17295">
        <ele>2196.27</ele>
        <time>2009-03-15T13:17:02Z</time>
      </trkpt>
      <trkpt lat="42.84313" lon="0.17294">
        <ele>2194.35</ele>
        <time>2009-03-15T13:17:05Z</time>
      </trkpt>
      <trkpt lat="42.84296" lon="0.17301">
        <ele>2191.46</ele>
        <time>2009-03-15T13:17:09Z</time>
      </trkpt>
      <trkpt lat="42.84294" lon="0.17301">
        <ele>2191.46</ele>
        <time>2009-03-15T13:17:16Z</time>
      </trkpt>
      <trkpt lat="42.84292" lon="0.17303">
        <ele>2191.46</ele>
        <time>2009-03-15T13:17:26Z</time>
      </trkpt>
      <trkpt lat="42.84275" lon="0.17299">
        <ele>2188.58</ele>
        <time>2009-03-15T13:17:30Z</time>
      </trkpt>
      <trkpt lat="42.84257" lon="0.173">
        <ele>2184.73</ele>
        <time>2009-03-15T13:17:33Z</time>
      </trkpt>
      <trkpt lat="42.84256" lon="0.173">
        <ele>2183.77</ele>
        <time>2009-03-15T13:17:34Z</time>
      </trkpt>
      <trkpt lat="42.84255" lon="0.17301">
        <ele>2184.73</ele>
        <time>2009-03-15T13:17:36Z</time>
      </trkpt>
      <trkpt lat="42.84249" lon="0.17304">
        <ele>2185.21</ele>
        <time>2009-03-15T13:17:44Z</time>
      </trkpt>
      <trkpt lat="42.84246" lon="0.17306">
        <ele>2185.21</ele>
        <time>2009-03-15T13:17:48Z</time>
      </trkpt>
      <trkpt lat="42.84244" lon="0.17306">
        <ele>2185.21</ele>
        <time>2009-03-15T13:17:50Z</time>
      </trkpt>
      <trkpt lat="42.84238" lon="0.17308">
        <ele>2185.21</ele>
        <time>2009-03-15T13:17:58Z</time>
      </trkpt>
      <trkpt lat="42.84231" lon="0.17311">
        <ele>2184.73</ele>
        <time>2009-03-15T13:18:08Z</time>
      </trkpt>
      <trkpt lat="42.84229" lon="0.17312">
        <ele>2184.73</ele>
        <time>2009-03-15T13:18:24Z</time>
      </trkpt>
      <trkpt lat="42.84229" lon="0.17313">
        <ele>2184.73</ele>
        <time>2009-03-15T13:18:32Z</time>
      </trkpt>
      <trkpt lat="42.84208" lon="0.17328">
        <ele>2179.45</ele>
        <time>2009-03-15T13:18:38Z</time>
      </trkpt>
      <trkpt lat="42.84186" lon="0.17343">
        <ele>2175.6</ele>
        <time>2009-03-15T13:18:42Z</time>
      </trkpt>
      <trkpt lat="42.84183" lon="0.17345">
        <ele>2175.6</ele>
        <time>2009-03-15T13:18:43Z</time>
      </trkpt>
      <trkpt lat="42.84177" lon="0.1735">
        <ele>2175.6</ele>
        <time>2009-03-15T13:18:52Z</time>
      </trkpt>
      <trkpt lat="42.84173" lon="0.17353">
        <ele>2175.6</ele>
        <time>2009-03-15T13:19:05Z</time>
      </trkpt>
      <trkpt lat="42.84167" lon="0.1736">
        <ele>2175.6</ele>
        <time>2009-03-15T13:19:17Z</time>
      </trkpt>
      <trkpt lat="42.84167" lon="0.1736">
        <ele>2175.12</ele>
        <time>2009-03-15T13:19:31Z</time>
      </trkpt>
      <trkpt lat="42.84167" lon="0.17359">
        <ele>2176.08</ele>
        <time>2009-03-15T13:19:33Z</time>
      </trkpt>
      <trkpt lat="42.84162" lon="0.17366">
        <ele>2175.12</ele>
        <time>2009-03-15T13:19:38Z</time>
      </trkpt>
      <trkpt lat="42.84157" lon="0.17375">
        <ele>2176.08</ele>
        <time>2009-03-15T13:19:44Z</time>
      </trkpt>
      <trkpt lat="42.84152" lon="0.17405">
        <ele>2175.12</ele>
        <time>2009-03-15T13:19:56Z</time>
      </trkpt>
      <trkpt lat="42.84152" lon="0.17407">
        <ele>2175.12</ele>
        <time>2009-03-15T13:19:57Z</time>
      </trkpt>
      <trkpt lat="42.8415" lon="0.17417">
        <ele>2175.12</ele>
        <time>2009-03-15T13:20:02Z</time>
      </trkpt>
      <trkpt lat="42.8415" lon="0.17421">
        <ele>2175.12</ele>
        <time>2009-03-15T13:20:04Z</time>
      </trkpt>
      <trkpt lat="42.84148" lon="0.17445">
        <ele>2175.6</ele>
        <time>2009-03-15T13:20:17Z</time>
      </trkpt>
      <trkpt lat="42.84147" lon="0.17453">
        <ele>2176.08</ele>
        <time>2009-03-15T13:20:22Z</time>
      </trkpt>
      <trkpt lat="42.84147" lon="0.1746">
        <ele>2176.08</ele>
        <time>2009-03-15T13:20:26Z</time>
      </trkpt>
      <trkpt lat="42.84147" lon="0.17474">
        <ele>2175.6</ele>
        <time>2009-03-15T13:20:33Z</time>
      </trkpt>
      <trkpt lat="42.84147" lon="0.17493">
        <ele>2178.48</ele>
        <time>2009-03-15T13:20:46Z</time>
      </trkpt>
      <trkpt lat="42.84147" lon="0.17494">
        <ele>2178</ele>
        <time>2009-03-15T13:20:47Z</time>
      </trkpt>
      <trkpt lat="42.84148" lon="0.17503">
        <ele>2177.04</ele>
        <time>2009-03-15T13:20:53Z</time>
      </trkpt>
      <trkpt lat="42.84152" lon="0.17523">
        <ele>2178</ele>
        <time>2009-03-15T13:21:05Z</time>
      </trkpt>
      <trkpt lat="42.84152" lon="0.17528">
        <ele>2177.04</ele>
        <time>2009-03-15T13:21:07Z</time>
      </trkpt>
      <trkpt lat="42.84156" lon="0.17559">
        <ele>2177.52</ele>
        <time>2009-03-15T13:21:21Z</time>
      </trkpt>
      <trkpt lat="42.84154" lon="0.17587">
        <ele>2176.56</ele>
        <time>2009-03-15T13:21:35Z</time>
      </trkpt>
      <trkpt lat="42.84147" lon="0.17614">
        <ele>2176.08</ele>
        <time>2009-03-15T13:21:48Z</time>
      </trkpt>
      <trkpt lat="42.84146" lon="0.17615">
        <ele>2176.08</ele>
        <time>2009-03-15T13:21:49Z</time>
      </trkpt>
      <trkpt lat="42.8414" lon="0.17636">
        <ele>2175.6</ele>
        <time>2009-03-15T13:22:01Z</time>
      </trkpt>
      <trkpt lat="42.84135" lon="0.17649">
        <ele>2176.08</ele>
        <time>2009-03-15T13:22:11Z</time>
      </trkpt>
      <trkpt lat="42.84135" lon="0.17657">
        <ele>2175.6</ele>
        <time>2009-03-15T13:22:18Z</time>
      </trkpt>
      <trkpt lat="42.84134" lon="0.1766">
        <ele>2174.16</ele>
        <time>2009-03-15T13:22:33Z</time>
      </trkpt>
      <trkpt lat="42.84134" lon="0.1766">
        <ele>2174.64</ele>
        <time>2009-03-15T13:22:39Z</time>
      </trkpt>
      <trkpt lat="42.84134" lon="0.17659">
        <ele>2174.64</ele>
        <time>2009-03-15T13:22:44Z</time>
      </trkpt>
      <trkpt lat="42.84117" lon="0.17676">
        <ele>2172.72</ele>
        <time>2009-03-15T13:22:56Z</time>
      </trkpt>
      <trkpt lat="42.84108" lon="0.17688">
        <ele>2173.2</ele>
        <time>2009-03-15T13:23:04Z</time>
      </trkpt>
      <trkpt lat="42.84101" lon="0.17696">
        <ele>2173.2</ele>
        <time>2009-03-15T13:23:11Z</time>
      </trkpt>
      <trkpt lat="42.84085" lon="0.17704">
        <ele>2170.79</ele>
        <time>2009-03-15T13:23:23Z</time>
      </trkpt>
      <trkpt lat="42.84084" lon="0.17704">
        <ele>2171.27</ele>
        <time>2009-03-15T13:23:41Z</time>
      </trkpt>
      <trkpt lat="42.84082" lon="0.17705">
        <ele>2171.76</ele>
        <time>2009-03-15T13:23:53Z</time>
      </trkpt>
      <trkpt lat="42.84078" lon="0.17715">
        <ele>2167.91</ele>
        <time>2009-03-15T13:23:57Z</time>
      </trkpt>
      <trkpt lat="42.84076" lon="0.17716">
        <ele>2166.95</ele>
        <time>2009-03-15T13:23:58Z</time>
      </trkpt>
      <trkpt lat="42.84063" lon="0.17714">
        <ele>2165.51</ele>
        <time>2009-03-15T13:24:01Z</time>
      </trkpt>
      <trkpt lat="42.84058" lon="0.17714">
        <ele>2164.06</ele>
        <time>2009-03-15T13:24:02Z</time>
      </trkpt>
      <trkpt lat="42.84044" lon="0.17726">
        <ele>2162.14</ele>
        <time>2009-03-15T13:24:11Z</time>
      </trkpt>
      <trkpt lat="42.84037" lon="0.17738">
        <ele>2161.18</ele>
        <time>2009-03-15T13:24:21Z</time>
      </trkpt>
      <trkpt lat="42.84035" lon="0.17741">
        <ele>2161.66</ele>
        <time>2009-03-15T13:24:26Z</time>
      </trkpt>
      <trkpt lat="42.84033" lon="0.17744">
        <ele>2161.66</ele>
        <time>2009-03-15T13:24:35Z</time>
      </trkpt>
      <trkpt lat="42.84025" lon="0.17749">
        <ele>2162.62</ele>
        <time>2009-03-15T13:24:49Z</time>
      </trkpt>
      <trkpt lat="42.84025" lon="0.17749">
        <ele>2162.62</ele>
        <time>2009-03-15T13:25:09Z</time>
      </trkpt>
      <trkpt lat="42.84021" lon="0.1775">
        <ele>2163.58</ele>
        <time>2009-03-15T13:25:22Z</time>
      </trkpt>
      <trkpt lat="42.84018" lon="0.17748">
        <ele>2163.58</ele>
        <time>2009-03-15T13:25:39Z</time>
      </trkpt>
      <trkpt lat="42.84018" lon="0.17748">
        <ele>2163.1</ele>
        <time>2009-03-15T13:25:58Z</time>
      </trkpt>
      <trkpt lat="42.84004" lon="0.1775">
        <ele>2161.66</ele>
        <time>2009-03-15T13:26:21Z</time>
      </trkpt>
      <trkpt lat="42.83989" lon="0.1775">
        <ele>2161.18</ele>
        <time>2009-03-15T13:26:31Z</time>
      </trkpt>
      <trkpt lat="42.83979" lon="0.17753">
        <ele>2159.74</ele>
        <time>2009-03-15T13:26:36Z</time>
      </trkpt>
      <trkpt lat="42.83977" lon="0.17755">
        <ele>2160.7</ele>
        <time>2009-03-15T13:26:43Z</time>
      </trkpt>
      <trkpt lat="42.83967" lon="0.17765">
        <ele>2160.22</ele>
        <time>2009-03-15T13:26:50Z</time>
      </trkpt>
      <trkpt lat="42.83947" lon="0.17786">
        <ele>2157.34</ele>
        <time>2009-03-15T13:26:59Z</time>
      </trkpt>
      <trkpt lat="42.83938" lon="0.178">
        <ele>2157.34</ele>
        <time>2009-03-15T13:27:09Z</time>
      </trkpt>
      <trkpt lat="42.83935" lon="0.17805">
        <ele>2157.82</ele>
        <time>2009-03-15T13:27:16Z</time>
      </trkpt>
      <trkpt lat="42.8393" lon="0.17809">
        <ele>2157.82</ele>
        <time>2009-03-15T13:27:21Z</time>
      </trkpt>
      <trkpt lat="42.83922" lon="0.17814">
        <ele>2157.34</ele>
        <time>2009-03-15T13:27:25Z</time>
      </trkpt>
      <trkpt lat="42.83915" lon="0.17825">
        <ele>2156.86</ele>
        <time>2009-03-15T13:27:33Z</time>
      </trkpt>
      <trkpt lat="42.83908" lon="0.1784">
        <ele>2157.82</ele>
        <time>2009-03-15T13:27:47Z</time>
      </trkpt>
      <trkpt lat="42.83901" lon="0.17854">
        <ele>2158.3</ele>
        <time>2009-03-15T13:28:00Z</time>
      </trkpt>
      <trkpt lat="42.83898" lon="0.17859">
        <ele>2158.3</ele>
        <time>2009-03-15T13:28:14Z</time>
      </trkpt>
      <trkpt lat="42.83898" lon="0.17859">
        <ele>2158.78</ele>
        <time>2009-03-15T13:28:19Z</time>
      </trkpt>
      <trkpt lat="42.83896" lon="0.17859">
        <ele>2158.78</ele>
        <time>2009-03-15T13:28:31Z</time>
      </trkpt>
      <trkpt lat="42.83896" lon="0.17859">
        <ele>2159.26</ele>
        <time>2009-03-15T13:28:36Z</time>
      </trkpt>
      <trkpt lat="42.83885" lon="0.1787">
        <ele>2158.78</ele>
        <time>2009-03-15T13:28:44Z</time>
      </trkpt>
      <trkpt lat="42.83861" lon="0.17898">
        <ele>2154.93</ele>
        <time>2009-03-15T13:28:57Z</time>
      </trkpt>
      <trkpt lat="42.83856" lon="0.17932">
        <ele>2152.05</ele>
        <time>2009-03-15T13:29:07Z</time>
      </trkpt>
      <trkpt lat="42.83856" lon="0.17939">
        <ele>2153.01</ele>
        <time>2009-03-15T13:29:11Z</time>
      </trkpt>
      <trkpt lat="42.83857" lon="0.17947">
        <ele>2153.01</ele>
        <time>2009-03-15T13:29:19Z</time>
      </trkpt>
      <trkpt lat="42.83859" lon="0.1797">
        <ele>2152.53</ele>
        <time>2009-03-15T13:29:34Z</time>
      </trkpt>
      <trkpt lat="42.83861" lon="0.1798">
        <ele>2151.09</ele>
        <time>2009-03-15T13:29:43Z</time>
      </trkpt>
      <trkpt lat="42.83861" lon="0.17984">
        <ele>2151.09</ele>
        <time>2009-03-15T13:29:55Z</time>
      </trkpt>
      <trkpt lat="42.8386" lon="0.17992">
        <ele>2151.09</ele>
        <time>2009-03-15T13:30:06Z</time>
      </trkpt>
      <trkpt lat="42.8386" lon="0.17998">
        <ele>2150.13</ele>
        <time>2009-03-15T13:30:25Z</time>
      </trkpt>
      <trkpt lat="42.8386" lon="0.17999">
        <ele>2150.13</ele>
        <time>2009-03-15T13:30:39Z</time>
      </trkpt>
      <trkpt lat="42.83861" lon="0.18005">
        <ele>2150.61</ele>
        <time>2009-03-15T13:30:50Z</time>
      </trkpt>
      <trkpt lat="42.83862" lon="0.18006">
        <ele>2150.13</ele>
        <time>2009-03-15T13:30:51Z</time>
      </trkpt>
      <trkpt lat="42.83861" lon="0.1801">
        <ele>2149.65</ele>
        <time>2009-03-15T13:30:54Z</time>
      </trkpt>
      <trkpt lat="42.8386" lon="0.18023">
        <ele>2148.68</ele>
        <time>2009-03-15T13:31:06Z</time>
      </trkpt>
      <trkpt lat="42.83859" lon="0.18035">
        <ele>2148.2</ele>
        <time>2009-03-15T13:31:19Z</time>
      </trkpt>
      <trkpt lat="42.83859" lon="0.18037">
        <ele>2148.68</ele>
        <time>2009-03-15T13:31:37Z</time>
      </trkpt>
      <trkpt lat="42.83859" lon="0.18039">
        <ele>2148.2</ele>
        <time>2009-03-15T13:31:58Z</time>
      </trkpt>
      <trkpt lat="42.83858" lon="0.18044">
        <ele>2147.72</ele>
        <time>2009-03-15T13:32:02Z</time>
      </trkpt>
      <trkpt lat="42.83859" lon="0.1805">
        <ele>2147.24</ele>
        <time>2009-03-15T13:32:07Z</time>
      </trkpt>
      <trkpt lat="42.83859" lon="0.18055">
        <ele>2147.72</ele>
        <time>2009-03-15T13:32:11Z</time>
      </trkpt>
      <trkpt lat="42.83861" lon="0.18064">
        <ele>2147.24</ele>
        <time>2009-03-15T13:32:22Z</time>
      </trkpt>
      <trkpt lat="42.83861" lon="0.18068">
        <ele>2147.24</ele>
        <time>2009-03-15T13:32:25Z</time>
      </trkpt>
      <trkpt lat="42.83861" lon="0.18082">
        <ele>2146.76</ele>
        <time>2009-03-15T13:32:36Z</time>
      </trkpt>
      <trkpt lat="42.83862" lon="0.18088">
        <ele>2146.28</ele>
        <time>2009-03-15T13:32:42Z</time>
      </trkpt>
      <trkpt lat="42.83863" lon="0.18097">
        <ele>2145.8</ele>
        <time>2009-03-15T13:32:53Z</time>
      </trkpt>
      <trkpt lat="42.83863" lon="0.18101">
        <ele>2145.32</ele>
        <time>2009-03-15T13:33:01Z</time>
      </trkpt>
      <trkpt lat="42.83863" lon="0.18102">
        <ele>2146.28</ele>
        <time>2009-03-15T13:33:04Z</time>
      </trkpt>
      <trkpt lat="42.83876" lon="0.18125">
        <ele>2143.88</ele>
        <time>2009-03-15T13:33:18Z</time>
      </trkpt>
      <trkpt lat="42.83879" lon="0.18131">
        <ele>2142.92</ele>
        <time>2009-03-15T13:33:22Z</time>
      </trkpt>
      <trkpt lat="42.8388" lon="0.18138">
        <ele>2141.95</ele>
        <time>2009-03-15T13:33:34Z</time>
      </trkpt>
      <trkpt lat="42.83881" lon="0.1814">
        <ele>2143.4</ele>
        <time>2009-03-15T13:33:41Z</time>
      </trkpt>
      <trkpt lat="42.83882" lon="0.18143">
        <ele>2142.92</ele>
        <time>2009-03-15T13:33:43Z</time>
      </trkpt>
      <trkpt lat="42.83892" lon="0.18152">
        <ele>2141.47</ele>
        <time>2009-03-15T13:33:48Z</time>
      </trkpt>
      <trkpt lat="42.83899" lon="0.18167">
        <ele>2140.51</ele>
        <time>2009-03-15T13:33:53Z</time>
      </trkpt>
      <trkpt lat="42.83904" lon="0.18178">
        <ele>2140.51</ele>
        <time>2009-03-15T13:34:01Z</time>
      </trkpt>
      <trkpt lat="42.83905" lon="0.18184">
        <ele>2140.03</ele>
        <time>2009-03-15T13:34:07Z</time>
      </trkpt>
      <trkpt lat="42.83913" lon="0.18198">
        <ele>2141.95</ele>
        <time>2009-03-15T13:34:20Z</time>
      </trkpt>
      <trkpt lat="42.83916" lon="0.18207">
        <ele>2141.95</ele>
        <time>2009-03-15T13:34:30Z</time>
      </trkpt>
      <trkpt lat="42.83918" lon="0.18212">
        <ele>2141.95</ele>
        <time>2009-03-15T13:34:45Z</time>
      </trkpt>
      <trkpt lat="42.83918" lon="0.18214">
        <ele>2141.95</ele>
        <time>2009-03-15T13:35:18Z</time>
      </trkpt>
      <trkpt lat="42.8392" lon="0.18217">
        <ele>2141.47</ele>
        <time>2009-03-15T13:35:37Z</time>
      </trkpt>
      <trkpt lat="42.83922" lon="0.1822">
        <ele>2141.47</ele>
        <time>2009-03-15T13:36:07Z</time>
      </trkpt>
      <trkpt lat="42.83922" lon="0.1822">
        <ele>2140.99</ele>
        <time>2009-03-15T13:36:31Z</time>
      </trkpt>
      <trkpt lat="42.83922" lon="0.18222">
        <ele>2140.51</ele>
        <time>2009-03-15T13:37:12Z</time>
      </trkpt>
      <trkpt lat="42.83923" lon="0.18225">
        <ele>2139.55</ele>
        <time>2009-03-15T13:37:17Z</time>
      </trkpt>
      <trkpt lat="42.83922" lon="0.18229">
        <ele>2136.19</ele>
        <time>2009-03-15T13:37:21Z</time>
      </trkpt>
      <trkpt lat="42.83922" lon="0.18229">
        <ele>2138.11</ele>
        <time>2009-03-15T13:37:22Z</time>
      </trkpt>
      <trkpt lat="42.83921" lon="0.18231">
        <ele>2139.55</ele>
        <time>2009-03-15T13:37:33Z</time>
      </trkpt>
      <trkpt lat="42.83923" lon="0.18243">
        <ele>2139.55</ele>
        <time>2009-03-15T13:37:43Z</time>
      </trkpt>
      <trkpt lat="42.83923" lon="0.18246">
        <ele>2138.11</ele>
        <time>2009-03-15T13:37:58Z</time>
      </trkpt>
      <trkpt lat="42.83925" lon="0.1825">
        <ele>2138.59</ele>
        <time>2009-03-15T13:38:08Z</time>
      </trkpt>
      <trkpt lat="42.83926" lon="0.18253">
        <ele>2135.71</ele>
        <time>2009-03-15T13:38:12Z</time>
      </trkpt>
      <trkpt lat="42.83928" lon="0.18257">
        <ele>2136.67</ele>
        <time>2009-03-15T13:38:21Z</time>
      </trkpt>
      <trkpt lat="42.8393" lon="0.1826">
        <ele>2137.63</ele>
        <time>2009-03-15T13:38:30Z</time>
      </trkpt>
      <trkpt lat="42.83934" lon="0.18276">
        <ele>2137.15</ele>
        <time>2009-03-15T13:38:38Z</time>
      </trkpt>
      <trkpt lat="42.83939" lon="0.18292">
        <ele>2136.67</ele>
        <time>2009-03-15T13:38:47Z</time>
      </trkpt>
      <trkpt lat="42.83945" lon="0.18296">
        <ele>2136.19</ele>
        <time>2009-03-15T13:38:57Z</time>
      </trkpt>
      <trkpt lat="42.83944" lon="0.18297">
        <ele>2137.15</ele>
        <time>2009-03-15T13:39:13Z</time>
      </trkpt>
      <trkpt lat="42.83946" lon="0.18302">
        <ele>2138.11</ele>
        <time>2009-03-15T13:39:33Z</time>
      </trkpt>
      <trkpt lat="42.8395" lon="0.18306">
        <ele>2138.11</ele>
        <time>2009-03-15T13:39:44Z</time>
      </trkpt>
      <trkpt lat="42.83953" lon="0.18318">
        <ele>2138.11</ele>
        <time>2009-03-15T13:39:58Z</time>
      </trkpt>
      <trkpt lat="42.83953" lon="0.18319">
        <ele>2138.11</ele>
        <time>2009-03-15T13:40:02Z</time>
      </trkpt>
      <trkpt lat="42.83959" lon="0.1834">
        <ele>2137.15</ele>
        <time>2009-03-15T13:40:12Z</time>
      </trkpt>
      <trkpt lat="42.83962" lon="0.18352">
        <ele>2135.71</ele>
        <time>2009-03-15T13:40:16Z</time>
      </trkpt>
      <trkpt lat="42.83963" lon="0.18364">
        <ele>2136.67</ele>
        <time>2009-03-15T13:40:23Z</time>
      </trkpt>
      <trkpt lat="42.83966" lon="0.1838">
        <ele>2136.67</ele>
        <time>2009-03-15T13:40:33Z</time>
      </trkpt>
      <trkpt lat="42.83968" lon="0.18389">
        <ele>2136.19</ele>
        <time>2009-03-15T13:40:37Z</time>
      </trkpt>
      <trkpt lat="42.83974" lon="0.18408">
        <ele>2134.74</ele>
        <time>2009-03-15T13:40:45Z</time>
      </trkpt>
      <trkpt lat="42.83973" lon="0.18426">
        <ele>2135.23</ele>
        <time>2009-03-15T13:40:57Z</time>
      </trkpt>
      <trkpt lat="42.8398" lon="0.18441">
        <ele>2135.23</ele>
        <time>2009-03-15T13:41:09Z</time>
      </trkpt>
      <trkpt lat="42.83984" lon="0.18447">
        <ele>2135.71</ele>
        <time>2009-03-15T13:41:14Z</time>
      </trkpt>
      <trkpt lat="42.83991" lon="0.18456">
        <ele>2135.71</ele>
        <time>2009-03-15T13:41:24Z</time>
      </trkpt>
      <trkpt lat="42.83997" lon="0.18468">
        <ele>2136.67</ele>
        <time>2009-03-15T13:41:35Z</time>
      </trkpt>
      <trkpt lat="42.84001" lon="0.18475">
        <ele>2136.67</ele>
        <time>2009-03-15T13:41:40Z</time>
      </trkpt>
      <trkpt lat="42.84004" lon="0.18483">
        <ele>2136.67</ele>
        <time>2009-03-15T13:41:46Z</time>
      </trkpt>
      <trkpt lat="42.84006" lon="0.18485">
        <ele>2137.15</ele>
        <time>2009-03-15T13:41:49Z</time>
      </trkpt>
      <trkpt lat="42.84011" lon="0.18498">
        <ele>2137.15</ele>
        <time>2009-03-15T13:42:00Z</time>
      </trkpt>
      <trkpt lat="42.84015" lon="0.18506">
        <ele>2137.63</ele>
        <time>2009-03-15T13:42:08Z</time>
      </trkpt>
      <trkpt lat="42.84016" lon="0.18509">
        <ele>2137.63</ele>
        <time>2009-03-15T13:42:11Z</time>
      </trkpt>
      <trkpt lat="42.84021" lon="0.18527">
        <ele>2136.67</ele>
        <time>2009-03-15T13:42:23Z</time>
      </trkpt>
      <trkpt lat="42.84022" lon="0.18529">
        <ele>2137.15</ele>
        <time>2009-03-15T13:42:33Z</time>
      </trkpt>
      <trkpt lat="42.84023" lon="0.18529">
        <ele>2138.11</ele>
        <time>2009-03-15T13:42:34Z</time>
      </trkpt>
      <trkpt lat="42.84028" lon="0.1853">
        <ele>2137.15</ele>
        <time>2009-03-15T13:42:38Z</time>
      </trkpt>
      <trkpt lat="42.84033" lon="0.18531">
        <ele>2136.67</ele>
        <time>2009-03-15T13:42:42Z</time>
      </trkpt>
      <trkpt lat="42.84038" lon="0.18536">
        <ele>2137.15</ele>
        <time>2009-03-15T13:42:47Z</time>
      </trkpt>
      <trkpt lat="42.84046" lon="0.1855">
        <ele>2136.67</ele>
        <time>2009-03-15T13:42:57Z</time>
      </trkpt>
      <trkpt lat="42.8405" lon="0.18563">
        <ele>2135.71</ele>
        <time>2009-03-15T13:43:03Z</time>
      </trkpt>
      <trkpt lat="42.8405" lon="0.18571">
        <ele>2136.67</ele>
        <time>2009-03-15T13:43:10Z</time>
      </trkpt>
      <trkpt lat="42.84047" lon="0.18584">
        <ele>2137.15</ele>
        <time>2009-03-15T13:43:19Z</time>
      </trkpt>
      <trkpt lat="42.84046" lon="0.18592">
        <ele>2137.63</ele>
        <time>2009-03-15T13:43:25Z</time>
      </trkpt>
      <trkpt lat="42.84039" lon="0.18609">
        <ele>2137.15</ele>
        <time>2009-03-15T13:43:37Z</time>
      </trkpt>
      <trkpt lat="42.84036" lon="0.18613">
        <ele>2137.15</ele>
        <time>2009-03-15T13:43:41Z</time>
      </trkpt>
      <trkpt lat="42.84029" lon="0.18626">
        <ele>2137.63</ele>
        <time>2009-03-15T13:43:53Z</time>
      </trkpt>
      <trkpt lat="42.84027" lon="0.1863">
        <ele>2138.11</ele>
        <time>2009-03-15T13:43:57Z</time>
      </trkpt>
      <trkpt lat="42.84024" lon="0.18635">
        <ele>2138.11</ele>
        <time>2009-03-15T13:44:01Z</time>
      </trkpt>
      <trkpt lat="42.84022" lon="0.1864">
        <ele>2138.11</ele>
        <time>2009-03-15T13:44:05Z</time>
      </trkpt>
      <trkpt lat="42.8402" lon="0.18644">
        <ele>2138.59</ele>
        <time>2009-03-15T13:44:09Z</time>
      </trkpt>
      <trkpt lat="42.84018" lon="0.18653">
        <ele>2139.07</ele>
        <time>2009-03-15T13:44:17Z</time>
      </trkpt>
      <trkpt lat="42.84016" lon="0.18665">
        <ele>2139.07</ele>
        <time>2009-03-15T13:44:26Z</time>
      </trkpt>
      <trkpt lat="42.84012" lon="0.18681">
        <ele>2138.59</ele>
        <time>2009-03-15T13:44:36Z</time>
      </trkpt>
      <trkpt lat="42.84011" lon="0.18686">
        <ele>2139.07</ele>
        <time>2009-03-15T13:44:49Z</time>
      </trkpt>
      <trkpt lat="42.84011" lon="0.18686">
        <ele>2139.07</ele>
        <time>2009-03-15T13:45:11Z</time>
      </trkpt>
      <trkpt lat="42.84011" lon="0.18688">
        <ele>2139.07</ele>
        <time>2009-03-15T13:45:29Z</time>
      </trkpt>
      <trkpt lat="42.84011" lon="0.18688">
        <ele>2138.59</ele>
        <time>2009-03-15T13:45:59Z</time>
      </trkpt>
      <trkpt lat="42.84011" lon="0.18689">
        <ele>2139.55</ele>
        <time>2009-03-15T13:46:22Z</time>
      </trkpt>
      <trkpt lat="42.84004" lon="0.18712">
        <ele>2136.19</ele>
        <time>2009-03-15T13:46:30Z</time>
      </trkpt>
      <trkpt lat="42.84001" lon="0.18715">
        <ele>2136.19</ele>
        <time>2009-03-15T13:46:32Z</time>
      </trkpt>
      <trkpt lat="42.83988" lon="0.18719">
        <ele>2131.86</ele>
        <time>2009-03-15T13:46:35Z</time>
      </trkpt>
      <trkpt lat="42.83985" lon="0.18732">
        <ele>2128.98</ele>
        <time>2009-03-15T13:46:38Z</time>
      </trkpt>
      <trkpt lat="42.83985" lon="0.18756">
        <ele>2124.17</ele>
        <time>2009-03-15T13:46:43Z</time>
      </trkpt>
      <trkpt lat="42.83983" lon="0.18765">
        <ele>2123.21</ele>
        <time>2009-03-15T13:46:45Z</time>
      </trkpt>
      <trkpt lat="42.83982" lon="0.1877">
        <ele>2122.25</ele>
        <time>2009-03-15T13:46:47Z</time>
      </trkpt>
      <trkpt lat="42.83968" lon="0.18775">
        <ele>2119.36</ele>
        <time>2009-03-15T13:46:52Z</time>
      </trkpt>
      <trkpt lat="42.83945" lon="0.18782">
        <ele>2116</ele>
        <time>2009-03-15T13:46:58Z</time>
      </trkpt>
      <trkpt lat="42.83918" lon="0.18776">
        <ele>2113.12</ele>
        <time>2009-03-15T13:47:08Z</time>
      </trkpt>
      <trkpt lat="42.83908" lon="0.18773">
        <ele>2111.19</ele>
        <time>2009-03-15T13:47:11Z</time>
      </trkpt>
      <trkpt lat="42.83906" lon="0.18772">
        <ele>2111.67</ele>
        <time>2009-03-15T13:47:20Z</time>
      </trkpt>
      <trkpt lat="42.83901" lon="0.18771">
        <ele>2110.71</ele>
        <time>2009-03-15T13:47:34Z</time>
      </trkpt>
      <trkpt lat="42.83894" lon="0.18771">
        <ele>2110.23</ele>
        <time>2009-03-15T13:47:36Z</time>
      </trkpt>
      <trkpt lat="42.83889" lon="0.18779">
        <ele>2106.39</ele>
        <time>2009-03-15T13:47:39Z</time>
      </trkpt>
      <trkpt lat="42.8389" lon="0.18782">
        <ele>2106.39</ele>
        <time>2009-03-15T13:47:40Z</time>
      </trkpt>
      <trkpt lat="42.83884" lon="0.18791">
        <ele>2103.5</ele>
        <time>2009-03-15T13:47:43Z</time>
      </trkpt>
      <trkpt lat="42.83876" lon="0.18791">
        <ele>2102.06</ele>
        <time>2009-03-15T13:47:45Z</time>
      </trkpt>
      <trkpt lat="42.83859" lon="0.18788">
        <ele>2097.25</ele>
        <time>2009-03-15T13:47:48Z</time>
      </trkpt>
      <trkpt lat="42.83855" lon="0.18785">
        <ele>2096.77</ele>
        <time>2009-03-15T13:47:54Z</time>
      </trkpt>
      <trkpt lat="42.83861" lon="0.18816">
        <ele>2093.89</ele>
        <time>2009-03-15T13:48:01Z</time>
      </trkpt>
      <trkpt lat="42.83862" lon="0.18852">
        <ele>2088.6</ele>
        <time>2009-03-15T13:48:06Z</time>
      </trkpt>
      <trkpt lat="42.83851" lon="0.18868">
        <ele>2083.79</ele>
        <time>2009-03-15T13:48:09Z</time>
      </trkpt>
      <trkpt lat="42.83846" lon="0.1887">
        <ele>2082.83</ele>
        <time>2009-03-15T13:48:10Z</time>
      </trkpt>
      <trkpt lat="42.8383" lon="0.18871">
        <ele>2080.91</ele>
        <time>2009-03-15T13:48:13Z</time>
      </trkpt>
      <trkpt lat="42.83818" lon="0.18883">
        <ele>2078.99</ele>
        <time>2009-03-15T13:48:16Z</time>
      </trkpt>
      <trkpt lat="42.83815" lon="0.18889">
        <ele>2078.03</ele>
        <time>2009-03-15T13:48:17Z</time>
      </trkpt>
      <trkpt lat="42.83806" lon="0.18913">
        <ele>2071.3</ele>
        <time>2009-03-15T13:48:21Z</time>
      </trkpt>
      <trkpt lat="42.83807" lon="0.18918">
        <ele>2068.89</ele>
        <time>2009-03-15T13:48:24Z</time>
      </trkpt>
      <trkpt lat="42.83807" lon="0.18917">
        <ele>2068.89</ele>
        <time>2009-03-15T13:48:51Z</time>
      </trkpt>
      <trkpt lat="42.83806" lon="0.18924">
        <ele>2068.89</ele>
        <time>2009-03-15T13:48:54Z</time>
      </trkpt>
      <trkpt lat="42.83795" lon="0.18945">
        <ele>2065.05</ele>
        <time>2009-03-15T13:48:58Z</time>
      </trkpt>
      <trkpt lat="42.83787" lon="0.18959">
        <ele>2062.65</ele>
        <time>2009-03-15T13:49:00Z</time>
      </trkpt>
      <trkpt lat="42.83779" lon="0.1897">
        <ele>2061.2</ele>
        <time>2009-03-15T13:49:02Z</time>
      </trkpt>
      <trkpt lat="42.83764" lon="0.18992">
        <ele>2057.84</ele>
        <time>2009-03-15T13:49:06Z</time>
      </trkpt>
      <trkpt lat="42.83759" lon="0.19">
        <ele>2056.88</ele>
        <time>2009-03-15T13:49:08Z</time>
      </trkpt>
      <trkpt lat="42.83751" lon="0.19011">
        <ele>2055.44</ele>
        <time>2009-03-15T13:49:12Z</time>
      </trkpt>
      <trkpt lat="42.83757" lon="0.19033">
        <ele>2051.11</ele>
        <time>2009-03-15T13:49:16Z</time>
      </trkpt>
      <trkpt lat="42.83752" lon="0.19044">
        <ele>2047.26</ele>
        <time>2009-03-15T13:49:18Z</time>
      </trkpt>
      <trkpt lat="42.83754" lon="0.19071">
        <ele>2044.86</ele>
        <time>2009-03-15T13:49:24Z</time>
      </trkpt>
      <trkpt lat="42.83757" lon="0.19078">
        <ele>2043.42</ele>
        <time>2009-03-15T13:49:25Z</time>
      </trkpt>
      <trkpt lat="42.83767" lon="0.19106">
        <ele>2039.57</ele>
        <time>2009-03-15T13:49:29Z</time>
      </trkpt>
      <trkpt lat="42.8377" lon="0.19124">
        <ele>2038.13</ele>
        <time>2009-03-15T13:49:34Z</time>
      </trkpt>
      <trkpt lat="42.83774" lon="0.19146">
        <ele>2034.29</ele>
        <time>2009-03-15T13:49:41Z</time>
      </trkpt>
      <trkpt lat="42.83774" lon="0.19146">
        <ele>2034.29</ele>
        <time>2009-03-15T13:49:51Z</time>
      </trkpt>
      <trkpt lat="42.83773" lon="0.19146">
        <ele>2034.29</ele>
        <time>2009-03-15T13:49:55Z</time>
      </trkpt>
      <trkpt lat="42.83771" lon="0.19149">
        <ele>2032.84</ele>
        <time>2009-03-15T13:49:59Z</time>
      </trkpt>
      <trkpt lat="42.83772" lon="0.19149">
        <ele>2032.36</ele>
        <time>2009-03-15T13:50:10Z</time>
      </trkpt>
      <trkpt lat="42.83772" lon="0.19149">
        <ele>2031.88</ele>
        <time>2009-03-15T13:50:30Z</time>
      </trkpt>
      <trkpt lat="42.83771" lon="0.19149">
        <ele>2031.88</ele>
        <time>2009-03-15T13:50:33Z</time>
      </trkpt>
      <trkpt lat="42.83772" lon="0.19156">
        <ele>2031.4</ele>
        <time>2009-03-15T13:50:38Z</time>
      </trkpt>
      <trkpt lat="42.83774" lon="0.19161">
        <ele>2029.48</ele>
        <time>2009-03-15T13:50:46Z</time>
      </trkpt>
      <trkpt lat="42.83774" lon="0.1916">
        <ele>2029.48</ele>
        <time>2009-03-15T13:51:00Z</time>
      </trkpt>
      <trkpt lat="42.83773" lon="0.19161">
        <ele>2029</ele>
        <time>2009-03-15T13:51:17Z</time>
      </trkpt>
      <trkpt lat="42.83773" lon="0.19161">
        <ele>2029</ele>
        <time>2009-03-15T13:51:26Z</time>
      </trkpt>
      <trkpt lat="42.83771" lon="0.19166">
        <ele>2026.6</ele>
        <time>2009-03-15T13:51:31Z</time>
      </trkpt>
      <trkpt lat="42.83771" lon="0.19167">
        <ele>2026.6</ele>
        <time>2009-03-15T13:51:36Z</time>
      </trkpt>
      <trkpt lat="42.83767" lon="0.19168">
        <ele>2024.67</ele>
        <time>2009-03-15T13:51:39Z</time>
      </trkpt>
      <trkpt lat="42.83767" lon="0.1917">
        <ele>2024.19</ele>
        <time>2009-03-15T13:51:48Z</time>
      </trkpt>
      <trkpt lat="42.83766" lon="0.19172">
        <ele>2023.23</ele>
        <time>2009-03-15T13:51:58Z</time>
      </trkpt>
      <trkpt lat="42.83768" lon="0.19173">
        <ele>2022.75</ele>
        <time>2009-03-15T13:52:06Z</time>
      </trkpt>
      <trkpt lat="42.83767" lon="0.19173">
        <ele>2022.27</ele>
        <time>2009-03-15T13:52:14Z</time>
      </trkpt>
      <trkpt lat="42.83767" lon="0.19173">
        <ele>2021.31</ele>
        <time>2009-03-15T13:52:31Z</time>
      </trkpt>
      <trkpt lat="42.83768" lon="0.19173">
        <ele>2020.83</ele>
        <time>2009-03-15T13:52:41Z</time>
      </trkpt>
      <trkpt lat="42.83768" lon="0.19174">
        <ele>2020.35</ele>
        <time>2009-03-15T13:52:51Z</time>
      </trkpt>
      <trkpt lat="42.83769" lon="0.19175">
        <ele>2019.87</ele>
        <time>2009-03-15T13:53:00Z</time>
      </trkpt>
      <trkpt lat="42.83769" lon="0.19175">
        <ele>2019.39</ele>
        <time>2009-03-15T13:53:07Z</time>
      </trkpt>
      <trkpt lat="42.83768" lon="0.19175">
        <ele>2019.39</ele>
        <time>2009-03-15T13:53:15Z</time>
      </trkpt>
      <trkpt lat="42.83768" lon="0.19176">
        <ele>2018.43</ele>
        <time>2009-03-15T13:53:24Z</time>
      </trkpt>
      <trkpt lat="42.83768" lon="0.19176">
        <ele>2018.43</ele>
        <time>2009-03-15T13:53:25Z</time>
      </trkpt>
      <trkpt lat="42.83767" lon="0.19177">
        <ele>2018.43</ele>
        <time>2009-03-15T13:53:34Z</time>
      </trkpt>
      <trkpt lat="42.83767" lon="0.19179">
        <ele>2017.46</ele>
        <time>2009-03-15T13:53:44Z</time>
      </trkpt>
      <trkpt lat="42.83767" lon="0.19181">
        <ele>2016.98</ele>
        <time>2009-03-15T13:53:53Z</time>
      </trkpt>
      <trkpt lat="42.83768" lon="0.19181">
        <ele>2016.02</ele>
        <time>2009-03-15T13:54:05Z</time>
      </trkpt>
      <trkpt lat="42.83768" lon="0.19182">
        <ele>2015.54</ele>
        <time>2009-03-15T13:54:16Z</time>
      </trkpt>
      <trkpt lat="42.83769" lon="0.19183">
        <ele>2015.06</ele>
        <time>2009-03-15T13:54:27Z</time>
      </trkpt>
      <trkpt lat="42.83768" lon="0.19185">
        <ele>2014.1</ele>
        <time>2009-03-15T13:54:38Z</time>
      </trkpt>
      <trkpt lat="42.83768" lon="0.19186">
        <ele>2013.14</ele>
        <time>2009-03-15T13:54:47Z</time>
      </trkpt>
      <trkpt lat="42.83768" lon="0.19188">
        <ele>2012.66</ele>
        <time>2009-03-15T13:54:57Z</time>
      </trkpt>
      <trkpt lat="42.83769" lon="0.1919">
        <ele>2011.7</ele>
        <time>2009-03-15T13:55:06Z</time>
      </trkpt>
      <trkpt lat="42.83769" lon="0.19191">
        <ele>2010.25</ele>
        <time>2009-03-15T13:55:14Z</time>
      </trkpt>
      <trkpt lat="42.8377" lon="0.19192">
        <ele>2009.77</ele>
        <time>2009-03-15T13:55:21Z</time>
      </trkpt>
      <trkpt lat="42.8377" lon="0.19192">
        <ele>2009.29</ele>
        <time>2009-03-15T13:55:33Z</time>
      </trkpt>
      <trkpt lat="42.83769" lon="0.19194">
        <ele>2009.29</ele>
        <time>2009-03-15T13:55:58Z</time>
      </trkpt>
      <trkpt lat="42.83769" lon="0.19194">
        <ele>2009.29</ele>
        <time>2009-03-15T13:56:13Z</time>
      </trkpt>
      <trkpt lat="42.83769" lon="0.19194">
        <ele>2009.29</ele>
        <time>2009-03-15T13:56:55Z</time>
      </trkpt>
      <trkpt lat="42.83768" lon="0.19195">
        <ele>2007.85</ele>
        <time>2009-03-15T13:57:16Z</time>
      </trkpt>
      <trkpt lat="42.83763" lon="0.19196">
        <ele>2007.37</ele>
        <time>2009-03-15T13:57:19Z</time>
      </trkpt>
      <trkpt lat="42.83761" lon="0.19197">
        <ele>2005.93</ele>
        <time>2009-03-15T13:57:22Z</time>
      </trkpt>
      <trkpt lat="42.8376" lon="0.19198">
        <ele>2005.93</ele>
        <time>2009-03-15T13:57:25Z</time>
      </trkpt>
      <trkpt lat="42.83757" lon="0.19198">
        <ele>2004.97</ele>
        <time>2009-03-15T13:57:33Z</time>
      </trkpt>
      <trkpt lat="42.83757" lon="0.19197">
        <ele>2004.01</ele>
        <time>2009-03-15T13:57:48Z</time>
      </trkpt>
      <trkpt lat="42.83754" lon="0.19197">
        <ele>2004.97</ele>
        <time>2009-03-15T13:58:02Z</time>
      </trkpt>
      <trkpt lat="42.83754" lon="0.19197">
        <ele>2004.49</ele>
        <time>2009-03-15T13:58:39Z</time>
      </trkpt>
      <trkpt lat="42.83753" lon="0.19196">
        <ele>2004.01</ele>
        <time>2009-03-15T13:58:43Z</time>
      </trkpt>
      <trkpt lat="42.83746" lon="0.192">
        <ele>2003.04</ele>
        <time>2009-03-15T13:58:48Z</time>
      </trkpt>
      <trkpt lat="42.83738" lon="0.19204">
        <ele>1999.68</ele>
        <time>2009-03-15T13:58:59Z</time>
      </trkpt>
      <trkpt lat="42.83738" lon="0.19204">
        <ele>1999.68</ele>
        <time>2009-03-15T13:59:00Z</time>
      </trkpt>
      <trkpt lat="42.83739" lon="0.19203">
        <ele>1999.68</ele>
        <time>2009-03-15T13:59:02Z</time>
      </trkpt>
      <trkpt lat="42.83736" lon="0.19206">
        <ele>1999.2</ele>
        <time>2009-03-15T13:59:11Z</time>
      </trkpt>
      <trkpt lat="42.83733" lon="0.19209">
        <ele>1999.68</ele>
        <time>2009-03-15T13:59:27Z</time>
      </trkpt>
      <trkpt lat="42.83727" lon="0.19215">
        <ele>1999.68</ele>
        <time>2009-03-15T13:59:33Z</time>
      </trkpt>
      <trkpt lat="42.83726" lon="0.19217">
        <ele>1999.68</ele>
        <time>2009-03-15T13:59:35Z</time>
      </trkpt>
      <trkpt lat="42.83707" lon="0.19231">
        <ele>1996.32</ele>
        <time>2009-03-15T13:59:43Z</time>
      </trkpt>
      <trkpt lat="42.83702" lon="0.19234">
        <ele>1995.35</ele>
        <time>2009-03-15T13:59:45Z</time>
      </trkpt>
      <trkpt lat="42.837" lon="0.19234">
        <ele>1994.39</ele>
        <time>2009-03-15T13:59:55Z</time>
      </trkpt>
      <trkpt lat="42.837" lon="0.19234">
        <ele>1994.39</ele>
        <time>2009-03-15T14:00:14Z</time>
      </trkpt>
      <trkpt lat="42.83699" lon="0.19236">
        <ele>1994.39</ele>
        <time>2009-03-15T14:00:27Z</time>
      </trkpt>
      <trkpt lat="42.83699" lon="0.19236">
        <ele>1994.39</ele>
        <time>2009-03-15T14:00:28Z</time>
      </trkpt>
      <trkpt lat="42.83693" lon="0.19235">
        <ele>1993.43</ele>
        <time>2009-03-15T14:00:37Z</time>
      </trkpt>
      <trkpt lat="42.83691" lon="0.19235">
        <ele>1992.47</ele>
        <time>2009-03-15T14:00:41Z</time>
      </trkpt>
      <trkpt lat="42.8369" lon="0.19236">
        <ele>1991.51</ele>
        <time>2009-03-15T14:00:47Z</time>
      </trkpt>
      <trkpt lat="42.83684" lon="0.1924">
        <ele>1990.07</ele>
        <time>2009-03-15T14:00:50Z</time>
      </trkpt>
      <trkpt lat="42.8368" lon="0.19243">
        <ele>1988.62</ele>
        <time>2009-03-15T14:00:53Z</time>
      </trkpt>
      <trkpt lat="42.83679" lon="0.19243">
        <ele>1986.7</ele>
        <time>2009-03-15T14:00:56Z</time>
      </trkpt>
      <trkpt lat="42.83681" lon="0.19244">
        <ele>1985.74</ele>
        <time>2009-03-15T14:01:05Z</time>
      </trkpt>
      <trkpt lat="42.83683" lon="0.19245">
        <ele>1985.26</ele>
        <time>2009-03-15T14:01:16Z</time>
      </trkpt>
      <trkpt lat="42.83682" lon="0.19248">
        <ele>1983.82</ele>
        <time>2009-03-15T14:01:20Z</time>
      </trkpt>
      <trkpt lat="42.8368" lon="0.19251">
        <ele>1982.86</ele>
        <time>2009-03-15T14:01:32Z</time>
      </trkpt>
      <trkpt lat="42.83678" lon="0.19256">
        <ele>1980.93</ele>
        <time>2009-03-15T14:01:41Z</time>
      </trkpt>
      <trkpt lat="42.83678" lon="0.19257">
        <ele>1979.97</ele>
        <time>2009-03-15T14:01:43Z</time>
      </trkpt>
      <trkpt lat="42.83681" lon="0.19257">
        <ele>1979.01</ele>
        <time>2009-03-15T14:01:55Z</time>
      </trkpt>
      <trkpt lat="42.83678" lon="0.1926">
        <ele>1978.05</ele>
        <time>2009-03-15T14:02:03Z</time>
      </trkpt>
      <trkpt lat="42.83677" lon="0.1926">
        <ele>1977.57</ele>
        <time>2009-03-15T14:02:04Z</time>
      </trkpt>
      <trkpt lat="42.83673" lon="0.19266">
        <ele>1975.65</ele>
        <time>2009-03-15T14:02:08Z</time>
      </trkpt>
      <trkpt lat="42.83673" lon="0.19265">
        <ele>1975.17</ele>
        <time>2009-03-15T14:02:21Z</time>
      </trkpt>
      <trkpt lat="42.83666" lon="0.19273">
        <ele>1973.24</ele>
        <time>2009-03-15T14:02:30Z</time>
      </trkpt>
      <trkpt lat="42.83666" lon="0.19273">
        <ele>1973.24</ele>
        <time>2009-03-15T14:02:31Z</time>
      </trkpt>
      <trkpt lat="42.8366" lon="0.19283">
        <ele>1971.32</ele>
        <time>2009-03-15T14:02:40Z</time>
      </trkpt>
      <trkpt lat="42.83657" lon="0.19284">
        <ele>1968.92</ele>
        <time>2009-03-15T14:02:48Z</time>
      </trkpt>
      <trkpt lat="42.83657" lon="0.19286">
        <ele>1969.88</ele>
        <time>2009-03-15T14:03:00Z</time>
      </trkpt>
      <trkpt lat="42.83658" lon="0.19285">
        <ele>1969.4</ele>
        <time>2009-03-15T14:03:11Z</time>
      </trkpt>
      <trkpt lat="42.83659" lon="0.19286">
        <ele>1968.92</ele>
        <time>2009-03-15T14:03:23Z</time>
      </trkpt>
      <trkpt lat="42.83659" lon="0.19286">
        <ele>1969.88</ele>
        <time>2009-03-15T14:04:12Z</time>
      </trkpt>
      <trkpt lat="42.8366" lon="0.19286">
        <ele>1968.92</ele>
        <time>2009-03-15T14:04:25Z</time>
      </trkpt>
      <trkpt lat="42.83661" lon="0.19287">
        <ele>1968.92</ele>
        <time>2009-03-15T14:04:39Z</time>
      </trkpt>
      <trkpt lat="42.83674" lon="0.19286">
        <ele>1966.03</ele>
        <time>2009-03-15T14:04:50Z</time>
      </trkpt>
      <trkpt lat="42.8368" lon="0.19283">
        <ele>1965.07</ele>
        <time>2009-03-15T14:05:02Z</time>
      </trkpt>
      <trkpt lat="42.8368" lon="0.19283">
        <ele>1964.59</ele>
        <time>2009-03-15T14:05:12Z</time>
      </trkpt>
      <trkpt lat="42.83668" lon="0.19295">
        <ele>1962.19</ele>
        <time>2009-03-15T14:05:20Z</time>
      </trkpt>
      <trkpt lat="42.83668" lon="0.19295">
        <ele>1961.23</ele>
        <time>2009-03-15T14:05:45Z</time>
      </trkpt>
      <trkpt lat="42.83669" lon="0.19296">
        <ele>1961.23</ele>
        <time>2009-03-15T14:05:52Z</time>
      </trkpt>
      <trkpt lat="42.83676" lon="0.19298">
        <ele>1958.82</ele>
        <time>2009-03-15T14:06:00Z</time>
      </trkpt>
      <trkpt lat="42.83679" lon="0.19298">
        <ele>1957.86</ele>
        <time>2009-03-15T14:06:08Z</time>
      </trkpt>
      <trkpt lat="42.83679" lon="0.19298">
        <ele>1957.86</ele>
        <time>2009-03-15T14:06:20Z</time>
      </trkpt>
      <trkpt lat="42.83679" lon="0.19298">
        <ele>1957.86</ele>
        <time>2009-03-15T14:06:41Z</time>
      </trkpt>
      <trkpt lat="42.83679" lon="0.19298">
        <ele>1957.38</ele>
        <time>2009-03-15T14:06:49Z</time>
      </trkpt>
      <trkpt lat="42.83672" lon="0.19305">
        <ele>1956.9</ele>
        <time>2009-03-15T14:06:53Z</time>
      </trkpt>
      <trkpt lat="42.83663" lon="0.19314">
        <ele>1954.5</ele>
        <time>2009-03-15T14:06:57Z</time>
      </trkpt>
      <trkpt lat="42.83663" lon="0.19317">
        <ele>1953.54</ele>
        <time>2009-03-15T14:07:06Z</time>
      </trkpt>
      <trkpt lat="42.83663" lon="0.19317">
        <ele>1953.06</ele>
        <time>2009-03-15T14:07:39Z</time>
      </trkpt>
      <trkpt lat="42.83653" lon="0.19331">
        <ele>1949.69</ele>
        <time>2009-03-15T14:07:44Z</time>
      </trkpt>
      <trkpt lat="42.8365" lon="0.19333">
        <ele>1949.69</ele>
        <time>2009-03-15T14:07:45Z</time>
      </trkpt>
      <trkpt lat="42.83649" lon="0.19335">
        <ele>1947.77</ele>
        <time>2009-03-15T14:07:51Z</time>
      </trkpt>
      <trkpt lat="42.83645" lon="0.19342">
        <ele>1946.33</ele>
        <time>2009-03-15T14:07:54Z</time>
      </trkpt>
      <trkpt lat="42.83635" lon="0.19354">
        <ele>1943.92</ele>
        <time>2009-03-15T14:07:58Z</time>
      </trkpt>
      <trkpt lat="42.83633" lon="0.19355">
        <ele>1942.96</ele>
        <time>2009-03-15T14:08:07Z</time>
      </trkpt>
      <trkpt lat="42.83641" lon="0.19354">
        <ele>1940.08</ele>
        <time>2009-03-15T14:08:13Z</time>
      </trkpt>
      <trkpt lat="42.83642" lon="0.19354">
        <ele>1941.04</ele>
        <time>2009-03-15T14:08:17Z</time>
      </trkpt>
      <trkpt lat="42.83647" lon="0.19355">
        <ele>1939.12</ele>
        <time>2009-03-15T14:08:24Z</time>
      </trkpt>
      <trkpt lat="42.83651" lon="0.19357">
        <ele>1938.16</ele>
        <time>2009-03-15T14:08:36Z</time>
      </trkpt>
      <trkpt lat="42.8366" lon="0.19359">
        <ele>1934.31</ele>
        <time>2009-03-15T14:08:39Z</time>
      </trkpt>
      <trkpt lat="42.83661" lon="0.19359">
        <ele>1934.31</ele>
        <time>2009-03-15T14:08:40Z</time>
      </trkpt>
      <trkpt lat="42.83672" lon="0.19362">
        <ele>1932.39</ele>
        <time>2009-03-15T14:08:47Z</time>
      </trkpt>
      <trkpt lat="42.83674" lon="0.19363">
        <ele>1931.43</ele>
        <time>2009-03-15T14:08:48Z</time>
      </trkpt>
      <trkpt lat="42.83676" lon="0.19363">
        <ele>1931.43</ele>
        <time>2009-03-15T14:08:51Z</time>
      </trkpt>
      <trkpt lat="42.83686" lon="0.19369">
        <ele>1928.54</ele>
        <time>2009-03-15T14:08:57Z</time>
      </trkpt>
      <trkpt lat="42.83694" lon="0.19366">
        <ele>1928.54</ele>
        <time>2009-03-15T14:09:06Z</time>
      </trkpt>
      <trkpt lat="42.83697" lon="0.19367">
        <ele>1928.06</ele>
        <time>2009-03-15T14:09:15Z</time>
      </trkpt>
      <trkpt lat="42.83701" lon="0.19371">
        <ele>1927.1</ele>
        <time>2009-03-15T14:09:43Z</time>
      </trkpt>
      <trkpt lat="42.83714" lon="0.19375">
        <ele>1923.25</ele>
        <time>2009-03-15T14:09:51Z</time>
      </trkpt>
      <trkpt lat="42.83715" lon="0.19376">
        <ele>1922.29</ele>
        <time>2009-03-15T14:10:02Z</time>
      </trkpt>
      <trkpt lat="42.83715" lon="0.19376">
        <ele>1920.85</ele>
        <time>2009-03-15T14:10:05Z</time>
      </trkpt>
      <trkpt lat="42.83713" lon="0.19379">
        <ele>1920.37</ele>
        <time>2009-03-15T14:10:10Z</time>
      </trkpt>
      <trkpt lat="42.83714" lon="0.19384">
        <ele>1917.97</ele>
        <time>2009-03-15T14:10:15Z</time>
      </trkpt>
      <trkpt lat="42.83715" lon="0.19388">
        <ele>1917.97</ele>
        <time>2009-03-15T14:10:17Z</time>
      </trkpt>
      <trkpt lat="42.83718" lon="0.19395">
        <ele>1914.6</ele>
        <time>2009-03-15T14:10:25Z</time>
      </trkpt>
      <trkpt lat="42.83718" lon="0.19394">
        <ele>1914.6</ele>
        <time>2009-03-15T14:10:36Z</time>
      </trkpt>
      <trkpt lat="42.83717" lon="0.19394">
        <ele>1914.6</ele>
        <time>2009-03-15T14:11:08Z</time>
      </trkpt>
      <trkpt lat="42.83717" lon="0.19394">
        <ele>1915.08</ele>
        <time>2009-03-15T14:11:36Z</time>
      </trkpt>
      <trkpt lat="42.83708" lon="0.19402">
        <ele>1912.68</ele>
        <time>2009-03-15T14:11:41Z</time>
      </trkpt>
      <trkpt lat="42.83702" lon="0.19414">
        <ele>1909.8</ele>
        <time>2009-03-15T14:11:44Z</time>
      </trkpt>
      <trkpt lat="42.83702" lon="0.19418">
        <ele>1908.35</ele>
        <time>2009-03-15T14:11:47Z</time>
      </trkpt>
      <trkpt lat="42.83701" lon="0.19419">
        <ele>1907.87</ele>
        <time>2009-03-15T14:11:57Z</time>
      </trkpt>
      <trkpt lat="42.83712" lon="0.19429">
        <ele>1904.51</ele>
        <time>2009-03-15T14:12:02Z</time>
      </trkpt>
      <trkpt lat="42.83713" lon="0.1943">
        <ele>1904.51</ele>
        <time>2009-03-15T14:12:03Z</time>
      </trkpt>
      <trkpt lat="42.83713" lon="0.1943">
        <ele>1904.03</ele>
        <time>2009-03-15T14:12:13Z</time>
      </trkpt>
      <trkpt lat="42.83714" lon="0.19432">
        <ele>1902.59</ele>
        <time>2009-03-15T14:12:22Z</time>
      </trkpt>
      <trkpt lat="42.83714" lon="0.19434">
        <ele>1903.07</ele>
        <time>2009-03-15T14:12:51Z</time>
      </trkpt>
      <trkpt lat="42.8371" lon="0.19438">
        <ele>1901.63</ele>
        <time>2009-03-15T14:13:01Z</time>
      </trkpt>
      <trkpt lat="42.8371" lon="0.19438">
        <ele>1901.63</ele>
        <time>2009-03-15T14:13:04Z</time>
      </trkpt>
      <trkpt lat="42.83715" lon="0.1944">
        <ele>1900.66</ele>
        <time>2009-03-15T14:13:11Z</time>
      </trkpt>
      <trkpt lat="42.83717" lon="0.19442">
        <ele>1898.74</ele>
        <time>2009-03-15T14:13:20Z</time>
      </trkpt>
      <trkpt lat="42.83717" lon="0.19442">
        <ele>1898.26</ele>
        <time>2009-03-15T14:13:21Z</time>
      </trkpt>
      <trkpt lat="42.83716" lon="0.19444">
        <ele>1897.3</ele>
        <time>2009-03-15T14:13:29Z</time>
      </trkpt>
      <trkpt lat="42.83718" lon="0.19447">
        <ele>1897.3</ele>
        <time>2009-03-15T14:13:43Z</time>
      </trkpt>
      <trkpt lat="42.83719" lon="0.19448">
        <ele>1897.3</ele>
        <time>2009-03-15T14:13:48Z</time>
      </trkpt>
      <trkpt lat="42.83725" lon="0.19447">
        <ele>1896.34</ele>
        <time>2009-03-15T14:13:52Z</time>
      </trkpt>
      <trkpt lat="42.83726" lon="0.19446">
        <ele>1894.9</ele>
        <time>2009-03-15T14:14:02Z</time>
      </trkpt>
      <trkpt lat="42.83725" lon="0.19448">
        <ele>1894.9</ele>
        <time>2009-03-15T14:14:12Z</time>
      </trkpt>
      <trkpt lat="42.83725" lon="0.19448">
        <ele>1895.38</ele>
        <time>2009-03-15T14:14:35Z</time>
      </trkpt>
      <trkpt lat="42.83725" lon="0.19448">
        <ele>1895.38</ele>
        <time>2009-03-15T14:14:50Z</time>
      </trkpt>
      <trkpt lat="42.83722" lon="0.19456">
        <ele>1893.45</ele>
        <time>2009-03-15T14:14:57Z</time>
      </trkpt>
      <trkpt lat="42.83722" lon="0.19456">
        <ele>1893.45</ele>
        <time>2009-03-15T14:14:58Z</time>
      </trkpt>
      <trkpt lat="42.83724" lon="0.19458">
        <ele>1892.01</ele>
        <time>2009-03-15T14:15:10Z</time>
      </trkpt>
      <trkpt lat="42.83727" lon="0.19459">
        <ele>1891.05</ele>
        <time>2009-03-15T14:15:25Z</time>
      </trkpt>
      <trkpt lat="42.8373" lon="0.1946">
        <ele>1890.57</ele>
        <time>2009-03-15T14:15:26Z</time>
      </trkpt>
      <trkpt lat="42.83737" lon="0.19469">
        <ele>1889.13</ele>
        <time>2009-03-15T14:15:30Z</time>
      </trkpt>
      <trkpt lat="42.83741" lon="0.19471">
        <ele>1887.21</ele>
        <time>2009-03-15T14:15:32Z</time>
      </trkpt>
      <trkpt lat="42.83745" lon="0.19477">
        <ele>1885.28</ele>
        <time>2009-03-15T14:15:43Z</time>
      </trkpt>
      <trkpt lat="42.83745" lon="0.19476">
        <ele>1885.28</ele>
        <time>2009-03-15T14:16:00Z</time>
      </trkpt>
      <trkpt lat="42.83746" lon="0.19477">
        <ele>1885.28</ele>
        <time>2009-03-15T14:16:20Z</time>
      </trkpt>
      <trkpt lat="42.83746" lon="0.19477">
        <ele>1885.76</ele>
        <time>2009-03-15T14:16:36Z</time>
      </trkpt>
      <trkpt lat="42.83747" lon="0.19477">
        <ele>1885.28</ele>
        <time>2009-03-15T14:16:58Z</time>
      </trkpt>
      <trkpt lat="42.83747" lon="0.19477">
        <ele>1885.28</ele>
        <time>2009-03-15T14:17:02Z</time>
      </trkpt>
      <trkpt lat="42.83749" lon="0.19478">
        <ele>1885.28</ele>
        <time>2009-03-15T14:17:04Z</time>
      </trkpt>
      <trkpt lat="42.83754" lon="0.19481">
        <ele>1884.32</ele>
        <time>2009-03-15T14:17:09Z</time>
      </trkpt>
      <trkpt lat="42.83762" lon="0.19482">
        <ele>1884.32</ele>
        <time>2009-03-15T14:17:13Z</time>
      </trkpt>
      <trkpt lat="42.83771" lon="0.19484">
        <ele>1881.92</ele>
        <time>2009-03-15T14:17:20Z</time>
      </trkpt>
      <trkpt lat="42.83773" lon="0.19486">
        <ele>1881.44</ele>
        <time>2009-03-15T14:17:37Z</time>
      </trkpt>
      <trkpt lat="42.83773" lon="0.19487">
        <ele>1880.48</ele>
        <time>2009-03-15T14:17:41Z</time>
      </trkpt>
      <trkpt lat="42.83766" lon="0.19494">
        <ele>1879.03</ele>
        <time>2009-03-15T14:17:45Z</time>
      </trkpt>
      <trkpt lat="42.83761" lon="0.19497">
        <ele>1878.07</ele>
        <time>2009-03-15T14:17:47Z</time>
      </trkpt>
      <trkpt lat="42.83765" lon="0.19515">
        <ele>1874.71</ele>
        <time>2009-03-15T14:17:52Z</time>
      </trkpt>
      <trkpt lat="42.83766" lon="0.19519">
        <ele>1874.71</ele>
        <time>2009-03-15T14:17:53Z</time>
      </trkpt>
      <trkpt lat="42.83769" lon="0.19522">
        <ele>1871.82</ele>
        <time>2009-03-15T14:17:55Z</time>
      </trkpt>
      <trkpt lat="42.83769" lon="0.19522">
        <ele>1871.34</ele>
        <time>2009-03-15T14:17:58Z</time>
      </trkpt>
      <trkpt lat="42.83767" lon="0.19524">
        <ele>1870.38</ele>
        <time>2009-03-15T14:18:05Z</time>
      </trkpt>
      <trkpt lat="42.83756" lon="0.1953">
        <ele>1867.5</ele>
        <time>2009-03-15T14:18:11Z</time>
      </trkpt>
      <trkpt lat="42.83755" lon="0.19529">
        <ele>1867.5</ele>
        <time>2009-03-15T14:18:12Z</time>
      </trkpt>
      <trkpt lat="42.83755" lon="0.1953">
        <ele>1866.06</ele>
        <time>2009-03-15T14:18:16Z</time>
      </trkpt>
      <trkpt lat="42.83756" lon="0.1953">
        <ele>1866.54</ele>
        <time>2009-03-15T14:18:18Z</time>
      </trkpt>
      <trkpt lat="42.83756" lon="0.19531">
        <ele>1866.06</ele>
        <time>2009-03-15T14:18:29Z</time>
      </trkpt>
      <trkpt lat="42.83756" lon="0.19531">
        <ele>1866.54</ele>
        <time>2009-03-15T14:18:43Z</time>
      </trkpt>
      <trkpt lat="42.83757" lon="0.19532">
        <ele>1866.54</ele>
        <time>2009-03-15T14:18:57Z</time>
      </trkpt>
      <trkpt lat="42.83758" lon="0.19533">
        <ele>1866.54</ele>
        <time>2009-03-15T14:19:22Z</time>
      </trkpt>
      <trkpt lat="42.83758" lon="0.19534">
        <ele>1866.54</ele>
        <time>2009-03-15T14:19:25Z</time>
      </trkpt>
      <trkpt lat="42.83758" lon="0.19535">
        <ele>1865.09</ele>
        <time>2009-03-15T14:19:29Z</time>
      </trkpt>
      <trkpt lat="42.8376" lon="0.19542">
        <ele>1864.13</ele>
        <time>2009-03-15T14:19:33Z</time>
      </trkpt>
      <trkpt lat="42.83761" lon="0.19545">
        <ele>1863.65</ele>
        <time>2009-03-15T14:19:42Z</time>
      </trkpt>
      <trkpt lat="42.83764" lon="0.19547">
        <ele>1863.17</ele>
        <time>2009-03-15T14:19:50Z</time>
      </trkpt>
      <trkpt lat="42.83764" lon="0.19548">
        <ele>1861.73</ele>
        <time>2009-03-15T14:19:55Z</time>
      </trkpt>
      <trkpt lat="42.83759" lon="0.19559">
        <ele>1860.29</ele>
        <time>2009-03-15T14:20:00Z</time>
      </trkpt>
      <trkpt lat="42.83759" lon="0.1956">
        <ele>1860.29</ele>
        <time>2009-03-15T14:20:11Z</time>
      </trkpt>
      <trkpt lat="42.83758" lon="0.1956">
        <ele>1859.81</ele>
        <time>2009-03-15T14:20:21Z</time>
      </trkpt>
      <trkpt lat="42.83762" lon="0.19567">
        <ele>1857.4</ele>
        <time>2009-03-15T14:20:25Z</time>
      </trkpt>
      <trkpt lat="42.83763" lon="0.19566">
        <ele>1856.92</ele>
        <time>2009-03-15T14:20:30Z</time>
      </trkpt>
      <trkpt lat="42.83759" lon="0.19575">
        <ele>1852.6</ele>
        <time>2009-03-15T14:20:35Z</time>
      </trkpt>
      <trkpt lat="42.83758" lon="0.19575">
        <ele>1853.08</ele>
        <time>2009-03-15T14:20:36Z</time>
      </trkpt>
      <trkpt lat="42.8376" lon="0.19574">
        <ele>1854.04</ele>
        <time>2009-03-15T14:20:46Z</time>
      </trkpt>
      <trkpt lat="42.8376" lon="0.19574">
        <ele>1853.56</ele>
        <time>2009-03-15T14:20:59Z</time>
      </trkpt>
      <trkpt lat="42.83762" lon="0.19576">
        <ele>1853.56</ele>
        <time>2009-03-15T14:21:07Z</time>
      </trkpt>
      <trkpt lat="42.83762" lon="0.19577">
        <ele>1852.12</ele>
        <time>2009-03-15T14:21:17Z</time>
      </trkpt>
      <trkpt lat="42.83756" lon="0.19583">
        <ele>1851.64</ele>
        <time>2009-03-15T14:21:20Z</time>
      </trkpt>
      <trkpt lat="42.83753" lon="0.19584">
        <ele>1849.71</ele>
        <time>2009-03-15T14:21:21Z</time>
      </trkpt>
      <trkpt lat="42.83752" lon="0.19584">
        <ele>1848.75</ele>
        <time>2009-03-15T14:21:23Z</time>
      </trkpt>
      <trkpt lat="42.83751" lon="0.19584">
        <ele>1848.27</ele>
        <time>2009-03-15T14:21:32Z</time>
      </trkpt>
      <trkpt lat="42.83752" lon="0.19585">
        <ele>1847.79</ele>
        <time>2009-03-15T14:21:33Z</time>
      </trkpt>
      <trkpt lat="42.83752" lon="0.19587">
        <ele>1847.79</ele>
        <time>2009-03-15T14:21:42Z</time>
      </trkpt>
      <trkpt lat="42.83752" lon="0.19587">
        <ele>1846.83</ele>
        <time>2009-03-15T14:21:58Z</time>
      </trkpt>
      <trkpt lat="42.83753" lon="0.19588">
        <ele>1847.31</ele>
        <time>2009-03-15T14:22:16Z</time>
      </trkpt>
      <trkpt lat="42.83755" lon="0.19589">
        <ele>1847.79</ele>
        <time>2009-03-15T14:22:17Z</time>
      </trkpt>
      <trkpt lat="42.83757" lon="0.19592">
        <ele>1846.83</ele>
        <time>2009-03-15T14:22:18Z</time>
      </trkpt>
      <trkpt lat="42.8376" lon="0.19596">
        <ele>1845.39</ele>
        <time>2009-03-15T14:22:19Z</time>
      </trkpt>
      <trkpt lat="42.83764" lon="0.196">
        <ele>1844.91</ele>
        <time>2009-03-15T14:22:20Z</time>
      </trkpt>
      <trkpt lat="42.83768" lon="0.19605">
        <ele>1843.47</ele>
        <time>2009-03-15T14:22:21Z</time>
      </trkpt>
      <trkpt lat="42.83776" lon="0.19613">
        <ele>1842.02</ele>
        <time>2009-03-15T14:22:23Z</time>
      </trkpt>
      <trkpt lat="42.83789" lon="0.19622">
        <ele>1838.66</ele>
        <time>2009-03-15T14:22:27Z</time>
      </trkpt>
      <trkpt lat="42.83791" lon="0.19623">
        <ele>1839.14</ele>
        <time>2009-03-15T14:22:28Z</time>
      </trkpt>
      <trkpt lat="42.83803" lon="0.19629">
        <ele>1838.18</ele>
        <time>2009-03-15T14:22:38Z</time>
      </trkpt>
      <trkpt lat="42.83805" lon="0.19629">
        <ele>1838.66</ele>
        <time>2009-03-15T14:22:47Z</time>
      </trkpt>
      <trkpt lat="42.83813" lon="0.1963">
        <ele>1835.77</ele>
        <time>2009-03-15T14:22:53Z</time>
      </trkpt>
      <trkpt lat="42.83814" lon="0.1963">
        <ele>1835.77</ele>
        <time>2009-03-15T14:22:55Z</time>
      </trkpt>
      <trkpt lat="42.83818" lon="0.1964">
        <ele>1832.89</ele>
        <time>2009-03-15T14:23:00Z</time>
      </trkpt>
      <trkpt lat="42.83827" lon="0.19643">
        <ele>1828.56</ele>
        <time>2009-03-15T14:23:03Z</time>
      </trkpt>
      <trkpt lat="42.83827" lon="0.19642">
        <ele>1829.05</ele>
        <time>2009-03-15T14:23:04Z</time>
      </trkpt>
      <trkpt lat="42.83827" lon="0.19645">
        <ele>1828.56</ele>
        <time>2009-03-15T14:23:12Z</time>
      </trkpt>
      <trkpt lat="42.83825" lon="0.19649">
        <ele>1826.64</ele>
        <time>2009-03-15T14:23:20Z</time>
      </trkpt>
      <trkpt lat="42.83825" lon="0.19649">
        <ele>1827.12</ele>
        <time>2009-03-15T14:23:44Z</time>
      </trkpt>
      <trkpt lat="42.83826" lon="0.19654">
        <ele>1826.64</ele>
        <time>2009-03-15T14:23:46Z</time>
      </trkpt>
      <trkpt lat="42.83828" lon="0.19658">
        <ele>1825.68</ele>
        <time>2009-03-15T14:23:47Z</time>
      </trkpt>
      <trkpt lat="42.8383" lon="0.1966">
        <ele>1821.84</ele>
        <time>2009-03-15T14:23:48Z</time>
      </trkpt>
      <trkpt lat="42.83831" lon="0.19658">
        <ele>1822.32</ele>
        <time>2009-03-15T14:23:52Z</time>
      </trkpt>
      <trkpt lat="42.83831" lon="0.19658">
        <ele>1822.8</ele>
        <time>2009-03-15T14:24:02Z</time>
      </trkpt>
      <trkpt lat="42.83831" lon="0.1966">
        <ele>1821.84</ele>
        <time>2009-03-15T14:24:11Z</time>
      </trkpt>
      <trkpt lat="42.83839" lon="0.19669">
        <ele>1819.91</ele>
        <time>2009-03-15T14:24:15Z</time>
      </trkpt>
      <trkpt lat="42.83852" lon="0.19679">
        <ele>1817.03</ele>
        <time>2009-03-15T14:24:25Z</time>
      </trkpt>
      <trkpt lat="42.83842" lon="0.19682">
        <ele>1814.63</ele>
        <time>2009-03-15T14:24:33Z</time>
      </trkpt>
      <trkpt lat="42.83842" lon="0.19682">
        <ele>1814.63</ele>
        <time>2009-03-15T14:24:48Z</time>
      </trkpt>
      <trkpt lat="42.8384" lon="0.19684">
        <ele>1814.63</ele>
        <time>2009-03-15T14:25:00Z</time>
      </trkpt>
      <trkpt lat="42.83835" lon="0.19684">
        <ele>1812.22</ele>
        <time>2009-03-15T14:25:04Z</time>
      </trkpt>
      <trkpt lat="42.83836" lon="0.19685">
        <ele>1811.74</ele>
        <time>2009-03-15T14:25:15Z</time>
      </trkpt>
      <trkpt lat="42.83836" lon="0.19685">
        <ele>1812.22</ele>
        <time>2009-03-15T14:25:16Z</time>
      </trkpt>
      <trkpt lat="42.83837" lon="0.19685">
        <ele>1812.22</ele>
        <time>2009-03-15T14:25:19Z</time>
      </trkpt>
      <trkpt lat="42.83841" lon="0.19693">
        <ele>1810.3</ele>
        <time>2009-03-15T14:25:28Z</time>
      </trkpt>
      <trkpt lat="42.8384" lon="0.19693">
        <ele>1808.86</ele>
        <time>2009-03-15T14:25:41Z</time>
      </trkpt>
      <trkpt lat="42.83839" lon="0.19693">
        <ele>1808.38</ele>
        <time>2009-03-15T14:25:51Z</time>
      </trkpt>
      <trkpt lat="42.83839" lon="0.19694">
        <ele>1808.38</ele>
        <time>2009-03-15T14:26:00Z</time>
      </trkpt>
      <trkpt lat="42.83837" lon="0.19696">
        <ele>1807.42</ele>
        <time>2009-03-15T14:26:13Z</time>
      </trkpt>
      <trkpt lat="42.83837" lon="0.19697">
        <ele>1807.42</ele>
        <time>2009-03-15T14:26:30Z</time>
      </trkpt>
      <trkpt lat="42.83837" lon="0.19696">
        <ele>1807.42</ele>
        <time>2009-03-15T14:26:45Z</time>
      </trkpt>
      <trkpt lat="42.83837" lon="0.19696">
        <ele>1807.9</ele>
        <time>2009-03-15T14:27:09Z</time>
      </trkpt>
      <trkpt lat="42.83837" lon="0.19703">
        <ele>1805.97</ele>
        <time>2009-03-15T14:27:17Z</time>
      </trkpt>
      <trkpt lat="42.83837" lon="0.19707">
        <ele>1806.45</ele>
        <time>2009-03-15T14:27:25Z</time>
      </trkpt>
      <trkpt lat="42.83836" lon="0.19712">
        <ele>1806.94</ele>
        <time>2009-03-15T14:27:37Z</time>
      </trkpt>
      <trkpt lat="42.83836" lon="0.19713">
        <ele>1806.45</ele>
        <time>2009-03-15T14:27:38Z</time>
      </trkpt>
      <trkpt lat="42.83835" lon="0.19719">
        <ele>1806.45</ele>
        <time>2009-03-15T14:27:50Z</time>
      </trkpt>
      <trkpt lat="42.83834" lon="0.19719">
        <ele>1807.42</ele>
        <time>2009-03-15T14:28:02Z</time>
      </trkpt>
      <trkpt lat="42.83834" lon="0.19719">
        <ele>1808.38</ele>
        <time>2009-03-15T14:28:09Z</time>
      </trkpt>
      <trkpt lat="42.83834" lon="0.19721">
        <ele>1807.9</ele>
        <time>2009-03-15T14:28:11Z</time>
      </trkpt>
      <trkpt lat="42.83835" lon="0.19727">
        <ele>1808.38</ele>
        <time>2009-03-15T14:28:15Z</time>
      </trkpt>
      <trkpt lat="42.83836" lon="0.1973">
        <ele>1808.38</ele>
        <time>2009-03-15T14:28:17Z</time>
      </trkpt>
      <trkpt lat="42.83838" lon="0.1975">
        <ele>1808.38</ele>
        <time>2009-03-15T14:28:29Z</time>
      </trkpt>
      <trkpt lat="42.83837" lon="0.19754">
        <ele>1808.38</ele>
        <time>2009-03-15T14:28:34Z</time>
      </trkpt>
      <trkpt lat="42.83832" lon="0.1976">
        <ele>1807.9</ele>
        <time>2009-03-15T14:28:46Z</time>
      </trkpt>
      <trkpt lat="42.83831" lon="0.19761">
        <ele>1807.9</ele>
        <time>2009-03-15T14:28:55Z</time>
      </trkpt>
      <trkpt lat="42.83832" lon="0.19775">
        <ele>1810.3</ele>
        <time>2009-03-15T14:29:08Z</time>
      </trkpt>
      <trkpt lat="42.83834" lon="0.19779">
        <ele>1810.78</ele>
        <time>2009-03-15T14:29:12Z</time>
      </trkpt>
      <trkpt lat="42.83831" lon="0.1978">
        <ele>1811.26</ele>
        <time>2009-03-15T14:29:18Z</time>
      </trkpt>
      <trkpt lat="42.8383" lon="0.1978">
        <ele>1811.74</ele>
        <time>2009-03-15T14:29:19Z</time>
      </trkpt>
      <trkpt lat="42.83823" lon="0.19778">
        <ele>1812.22</ele>
        <time>2009-03-15T14:29:29Z</time>
      </trkpt>
      <trkpt lat="42.83826" lon="0.19789">
        <ele>1813.18</ele>
        <time>2009-03-15T14:29:40Z</time>
      </trkpt>
      <trkpt lat="42.83827" lon="0.19795">
        <ele>1814.15</ele>
        <time>2009-03-15T14:29:46Z</time>
      </trkpt>
      <trkpt lat="42.83822" lon="0.19798">
        <ele>1814.63</ele>
        <time>2009-03-15T14:29:55Z</time>
      </trkpt>
      <trkpt lat="42.83813" lon="0.19805">
        <ele>1816.07</ele>
        <time>2009-03-15T14:30:06Z</time>
      </trkpt>
      <trkpt lat="42.83813" lon="0.19806">
        <ele>1816.55</ele>
        <time>2009-03-15T14:30:07Z</time>
      </trkpt>
      <trkpt lat="42.83808" lon="0.19811">
        <ele>1817.51</ele>
        <time>2009-03-15T14:30:13Z</time>
      </trkpt>
      <trkpt lat="42.83802" lon="0.19824">
        <ele>1817.99</ele>
        <time>2009-03-15T14:30:26Z</time>
      </trkpt>
      <trkpt lat="42.838" lon="0.19829">
        <ele>1818.47</ele>
        <time>2009-03-15T14:30:33Z</time>
      </trkpt>
      <trkpt lat="42.83796" lon="0.19838">
        <ele>1818.95</ele>
        <time>2009-03-15T14:30:41Z</time>
      </trkpt>
      <trkpt lat="42.83793" lon="0.19846">
        <ele>1819.43</ele>
        <time>2009-03-15T14:30:49Z</time>
      </trkpt>
      <trkpt lat="42.83785" lon="0.1986">
        <ele>1819.91</ele>
        <time>2009-03-15T14:31:02Z</time>
      </trkpt>
      <trkpt lat="42.83786" lon="0.19866">
        <ele>1820.87</ele>
        <time>2009-03-15T14:31:19Z</time>
      </trkpt>
      <trkpt lat="42.83788" lon="0.19868">
        <ele>1820.87</ele>
        <time>2009-03-15T14:31:37Z</time>
      </trkpt>
      <trkpt lat="42.83795" lon="0.19873">
        <ele>1820.39</ele>
        <time>2009-03-15T14:31:48Z</time>
      </trkpt>
      <trkpt lat="42.83795" lon="0.19873">
        <ele>1819.91</ele>
        <time>2009-03-15T14:32:10Z</time>
      </trkpt>
      <trkpt lat="42.83795" lon="0.19873">
        <ele>1820.39</ele>
        <time>2009-03-15T14:32:32Z</time>
      </trkpt>
      <trkpt lat="42.83804" lon="0.19882">
        <ele>1819.43</ele>
        <time>2009-03-15T14:32:46Z</time>
      </trkpt>
      <trkpt lat="42.83804" lon="0.1989">
        <ele>1818.95</ele>
        <time>2009-03-15T14:32:54Z</time>
      </trkpt>
      <trkpt lat="42.838" lon="0.19892">
        <ele>1819.91</ele>
        <time>2009-03-15T14:33:00Z</time>
      </trkpt>
      <trkpt lat="42.83796" lon="0.19896">
        <ele>1819.91</ele>
        <time>2009-03-15T14:33:06Z</time>
      </trkpt>
      <trkpt lat="42.83794" lon="0.19901">
        <ele>1820.87</ele>
        <time>2009-03-15T14:33:11Z</time>
      </trkpt>
      <trkpt lat="42.83789" lon="0.19912">
        <ele>1821.35</ele>
        <time>2009-03-15T14:33:21Z</time>
      </trkpt>
      <trkpt lat="42.83783" lon="0.19923">
        <ele>1821.84</ele>
        <time>2009-03-15T14:33:30Z</time>
      </trkpt>
      <trkpt lat="42.83779" lon="0.19928">
        <ele>1821.84</ele>
        <time>2009-03-15T14:33:38Z</time>
      </trkpt>
      <trkpt lat="42.83773" lon="0.19934">
        <ele>1823.28</ele>
        <time>2009-03-15T14:33:48Z</time>
      </trkpt>
      <trkpt lat="42.83768" lon="0.19938">
        <ele>1823.76</ele>
        <time>2009-03-15T14:33:58Z</time>
      </trkpt>
    </trkseg>
  </trk>
</gpx>